Wetterdaten: Montag, 20.02.2017
Datum Zeit Temp. A. Temp. A. max Feuchte A. Luftdruck Regen Wind Richtung Richtung Sonnenschein ET UV Solar Taupunkt Windchill Windböen
20.02.2017 00:00 3,7 °C 3,7 °C 78 % 1024,6 hPa 0,0 mm 5,8 km/h (2 Bft) SW 216 ° 0 min 0,000 mm 0,0 UV-I 0 W/m² 0,2 °C 2,3 °C 9,7 km/h (2 Bft)
20.02.2017 00:01 3,7 °C 3,7 °C 78 % 1024,6 hPa 0,0 mm 4,4 km/h (1 Bft) W-SW 249 ° 0 min 0,000 mm 0,0 UV-I 0 W/m² 0,2 °C 3,7 °C 6,4 km/h (2 Bft)
20.02.2017 00:02 3,7 °C 3,7 °C 78 % 1024,6 hPa 0,0 mm 5,0 km/h (1 Bft) SW 220 ° 0 min 0,000 mm 0,0 UV-I 0 W/m² 0,2 °C 2,6 °C 6,4 km/h (2 Bft)
20.02.2017 00:03 3,6 °C 3,7 °C 78 % 1024,6 hPa 0,0 mm 4,4 km/h (1 Bft) SW 225 ° 0 min 0,000 mm 0,0 UV-I 0 W/m² 0,1 °C 3,6 °C 6,4 km/h (2 Bft)
20.02.2017 00:04 3,6 °C 3,6 °C 78 % 1024,6 hPa 0,0 mm 5,0 km/h (1 Bft) SW 222 ° 0 min 0,000 mm 0,0 UV-I 0 W/m² 0,1 °C 2,5 °C 8,0 km/h (2 Bft)
20.02.2017 00:05 3,6 °C 3,6 °C 78 % 1024,6 hPa 0,0 mm 4,6 km/h (1 Bft) W-SW 244 ° 0 min 0,000 mm 0,0 UV-I 0 W/m² 0,1 °C 2,7 °C 6,4 km/h (2 Bft)
20.02.2017 00:06 3,6 °C 3,6 °C 78 % 1024,5 hPa 0,0 mm 5,1 km/h (1 Bft) SW 234 ° 0 min 0,000 mm 0,0 UV-I 0 W/m² 0,1 °C 2,5 °C 6,4 km/h (2 Bft)
20.02.2017 00:07 3,6 °C 3,6 °C 78 % 1024,5 hPa 0,0 mm 7,1 km/h (2 Bft) W-SW 253 ° 0 min 0,000 mm 0,0 UV-I 0 W/m² 0,1 °C 1,8 °C 9,7 km/h (2 Bft)
20.02.2017 00:08 3,6 °C 3,6 °C 78 % 1024,5 hPa 0,0 mm 4,6 km/h (1 Bft) SW 220 ° 0 min 0,000 mm 0,0 UV-I 0 W/m² 0,1 °C 2,7 °C 8,0 km/h (2 Bft)
20.02.2017 00:09 3,6 °C 3,7 °C 78 % 1024,5 hPa 0,0 mm 4,5 km/h (1 Bft) SW 221 ° 0 min 0,000 mm 0,0 UV-I 0 W/m² 0,1 °C 3,6 °C 8,0 km/h (2 Bft)
20.02.2017 00:10 3,7 °C 3,7 °C 79 % 1024,5 hPa 0,0 mm 5,0 km/h (1 Bft) S-SW 205 ° 0 min 0,000 mm 0,0 UV-I 0 W/m² 0,4 °C 2,6 °C 8,0 km/h (2 Bft)
20.02.2017 00:11 3,6 °C 3,7 °C 78 % 1024,5 hPa 0,0 mm 4,0 km/h (1 Bft) W-SW 242 ° 0 min 0,000 mm 0,0 UV-I 0 W/m² 0,1 °C 3,6 °C 4,8 km/h (1 Bft)
20.02.2017 00:12 3,6 °C 3,7 °C 78 % 1024,5 hPa 0,0 mm 4,6 km/h (1 Bft) S-SW 213 ° 0 min 0,000 mm 0,0 UV-I 0 W/m² 0,1 °C 2,7 °C 6,4 km/h (2 Bft)
20.02.2017 00:13 3,6 °C 3,7 °C 78 % 1024,5 hPa 0,0 mm 4,1 km/h (1 Bft) SW 220 ° 0 min 0,000 mm 0,0 UV-I 0 W/m² 0,1 °C 3,6 °C 6,4 km/h (2 Bft)
20.02.2017 00:14 3,6 °C 3,7 °C 78 % 1024,5 hPa 0,0 mm 4,7 km/h (1 Bft) W 275 ° 0 min 0,000 mm 0,0 UV-I 0 W/m² 0,1 °C 2,6 °C 14,5 km/h (3 Bft)
20.02.2017 00:15 3,6 °C 3,6 °C 78 % 1024,5 hPa 0,0 mm 9,3 km/h (2 Bft) W-SW 243 ° 0 min 0,000 mm 0,0 UV-I 0 W/m² 0,1 °C 1,2 °C 14,5 km/h (3 Bft)
20.02.2017 00:16 3,6 °C 3,6 °C 78 % 1024,5 hPa 0,0 mm 3,6 km/h (1 Bft) SW 216 ° 0 min 0,000 mm 0,0 UV-I 0 W/m² 0,1 °C 3,6 °C 6,4 km/h (2 Bft)
20.02.2017 00:17 3,5 °C 3,6 °C 79 % 1024,5 hPa 0,0 mm 4,3 km/h (1 Bft) W-SW 255 ° 0 min 0,000 mm 0,0 UV-I 0 W/m² 0,2 °C 3,5 °C 6,4 km/h (2 Bft)
20.02.2017 00:18 3,5 °C 3,5 °C 79 % 1024,5 hPa 0,0 mm 4,1 km/h (1 Bft) W-SW 239 ° 0 min 0,000 mm 0,0 UV-I 0 W/m² 0,2 °C 3,5 °C 6,4 km/h (2 Bft)
20.02.2017 00:19 3,5 °C 3,5 °C 79 % 1024,5 hPa 0,0 mm 6,5 km/h (2 Bft) SW 232 ° 0 min 0,000 mm 0,0 UV-I 0 W/m² 0,2 °C 1,8 °C 11,3 km/h (2 Bft)
20.02.2017 00:20 3,4 °C 3,5 °C 79 % 1024,4 hPa 0,0 mm 6,0 km/h (2 Bft) SW 236 ° 0 min 0,000 mm 0,0 UV-I 0 W/m² 0,1 °C 1,9 °C 9,7 km/h (2 Bft)
20.02.2017 00:21 3,4 °C 3,4 °C 79 % 1024,5 hPa 0,0 mm 4,4 km/h (1 Bft) W-SW 243 ° 0 min 0,000 mm 0,0 UV-I 0 W/m² 0,1 °C 3,4 °C 6,4 km/h (2 Bft)
20.02.2017 00:22 3,4 °C 3,4 °C 79 % 1024,5 hPa 0,0 mm 4,6 km/h (1 Bft) SW 231 ° 0 min 0,000 mm 0,0 UV-I 0 W/m² 0,1 °C 2,4 °C 6,4 km/h (2 Bft)
20.02.2017 00:23 3,4 °C 3,4 °C 79 % 1024,5 hPa 0,0 mm 5,2 km/h (1 Bft) SW 223 ° 0 min 0,000 mm 0,0 UV-I 0 W/m² 0,1 °C 2,2 °C 9,7 km/h (2 Bft)
20.02.2017 00:24 3,4 °C 3,4 °C 79 % 1024,5 hPa 0,0 mm 5,0 km/h (1 Bft) SW 227 ° 0 min 0,000 mm 0,0 UV-I 0 W/m² 0,1 °C 2,3 °C 8,0 km/h (2 Bft)
20.02.2017 00:25 3,4 °C 3,4 °C 79 % 1024,6 hPa 0,0 mm 8,6 km/h (2 Bft) SW 236 ° 0 min 0,000 mm 0,0 UV-I 0 W/m² 0,1 °C 1,1 °C 14,5 km/h (3 Bft)
20.02.2017 00:26 3,4 °C 3,4 °C 79 % 1024,6 hPa 0,0 mm 3,2 km/h (1 Bft) SW 234 ° 0 min 0,000 mm 0,0 UV-I 0 W/m² 0,1 °C 3,4 °C 4,8 km/h (1 Bft)
20.02.2017 00:27 3,4 °C 3,4 °C 79 % 1024,6 hPa 0,0 mm 3,5 km/h (1 Bft) SW 220 ° 0 min 0,000 mm 0,0 UV-I 0 W/m² 0,1 °C 3,4 °C 4,8 km/h (1 Bft)
20.02.2017 00:28 3,4 °C 3,4 °C 79 % 1024,5 hPa 0,0 mm 4,7 km/h (1 Bft) SW 223 ° 0 min 0,000 mm 0,0 UV-I 0 W/m² 0,1 °C 2,4 °C 6,4 km/h (2 Bft)
20.02.2017 00:29 3,4 °C 3,4 °C 79 % 1024,5 hPa 0,0 mm 5,0 km/h (1 Bft) SW 226 ° 0 min 0,000 mm 0,0 UV-I 0 W/m² 0,1 °C 2,3 °C 9,7 km/h (2 Bft)
20.02.2017 00:30 3,4 °C 3,4 °C 79 % 1024,5 hPa 0,0 mm 4,3 km/h (1 Bft) SW 217 ° 0 min 0,000 mm 0,0 UV-I 0 W/m² 0,1 °C 3,4 °C 4,8 km/h (1 Bft)
20.02.2017 00:31 3,4 °C 3,4 °C 79 % 1024,5 hPa 0,0 mm 6,3 km/h (2 Bft) SW 219 ° 0 min 0,000 mm 0,0 UV-I 0 W/m² 0,1 °C 1,8 °C 8,0 km/h (2 Bft)
20.02.2017 00:32 3,4 °C 3,5 °C 79 % 1024,5 hPa 0,0 mm 4,8 km/h (1 Bft) SW 219 ° 0 min 0,000 mm 0,0 UV-I 0 W/m² 0,1 °C 2,4 °C 6,4 km/h (2 Bft)
20.02.2017 00:33 3,5 °C 3,5 °C 79 % 1024,4 hPa 0,0 mm 3,4 km/h (1 Bft) W 259 ° 0 min 0,000 mm 0,0 UV-I 0 W/m² 0,2 °C 3,5 °C 6,4 km/h (2 Bft)
20.02.2017 00:34 3,5 °C 3,5 °C 79 % 1024,4 hPa 0,0 mm 5,4 km/h (1 Bft) W-SW 244 ° 0 min 0,000 mm 0,0 UV-I 0 W/m² 0,2 °C 2,2 °C 6,4 km/h (2 Bft)
20.02.2017 00:35 3,5 °C 3,5 °C 79 % 1024,5 hPa 0,0 mm 5,0 km/h (1 Bft) SW 220 ° 0 min 0,000 mm 0,0 UV-I 0 W/m² 0,2 °C 2,4 °C 6,4 km/h (2 Bft)
20.02.2017 00:36 3,5 °C 3,5 °C 78 % 1024,4 hPa 0,0 mm 3,9 km/h (1 Bft) W-SW 248 ° 0 min 0,000 mm 0,0 UV-I 0 W/m² 0,0 °C 3,5 °C 4,8 km/h (1 Bft)
20.02.2017 00:37 3,5 °C 3,5 °C 79 % 1024,4 hPa 0,0 mm 4,4 km/h (1 Bft) W-SW 238 ° 0 min 0,000 mm 0,0 UV-I 0 W/m² 0,2 °C 3,5 °C 8,0 km/h (2 Bft)
20.02.2017 00:38 3,5 °C 3,5 °C 79 % 1024,4 hPa 0,0 mm 5,6 km/h (1 Bft) W 264 ° 0 min 0,000 mm 0,0 UV-I 0 W/m² 0,2 °C 2,1 °C 8,0 km/h (2 Bft)
20.02.2017 00:39 3,4 °C 3,5 °C 78 % 1024,5 hPa 0,0 mm 6,1 km/h (2 Bft) W-SW 248 ° 0 min 0,000 mm 0,0 UV-I 0 W/m² -0,1 °C 1,8 °C 9,7 km/h (2 Bft)
20.02.2017 00:40 3,4 °C 3,5 °C 78 % 1024,5 hPa 0,0 mm 4,6 km/h (1 Bft) W-SW 258 ° 0 min 0,000 mm 0,0 UV-I 0 W/m² -0,1 °C 2,4 °C 6,4 km/h (2 Bft)
20.02.2017 00:41 3,4 °C 3,5 °C 78 % 1024,4 hPa 0,0 mm 11,0 km/h (2 Bft) W 272 ° 0 min 0,000 mm 0,0 UV-I 0 W/m² -0,1 °C 0,5 °C 14,5 km/h (3 Bft)
20.02.2017 00:42 3,4 °C 3,4 °C 79 % 1024,4 hPa 0,0 mm 8,9 km/h (2 Bft) W-SW 250 ° 0 min 0,000 mm 0,0 UV-I 0 W/m² 0,1 °C 1,0 °C 12,9 km/h (3 Bft)
20.02.2017 00:43 3,3 °C 3,4 °C 79 % 1024,4 hPa 0,0 mm 4,6 km/h (1 Bft) W 265 ° 0 min 0,000 mm 0,0 UV-I 0 W/m² 0,0 °C 2,3 °C 8,0 km/h (2 Bft)
20.02.2017 00:44 3,3 °C 3,4 °C 79 % 1024,5 hPa 0,0 mm 4,9 km/h (1 Bft) W 264 ° 0 min 0,000 mm 0,0 UV-I 0 W/m² 0,0 °C 2,2 °C 6,4 km/h (2 Bft)
20.02.2017 00:45 3,3 °C 3,3 °C 79 % 1024,5 hPa 0,0 mm 4,5 km/h (1 Bft) W-SW 249 ° 0 min 0,000 mm 0,0 UV-I 0 W/m² 0,0 °C 3,3 °C 6,4 km/h (2 Bft)
20.02.2017 00:46 3,3 °C 3,3 °C 79 % 1024,5 hPa 0,0 mm 4,9 km/h (1 Bft) W-SW 256 ° 0 min 0,000 mm 0,0 UV-I 0 W/m² 0,0 °C 2,2 °C 6,4 km/h (2 Bft)
20.02.2017 00:47 3,2 °C 3,3 °C 79 % 1024,5 hPa 0,0 mm 5,6 km/h (1 Bft) W 259 ° 0 min 0,000 mm 0,0 UV-I 0 W/m² -0,1 °C 1,8 °C 9,7 km/h (2 Bft)
20.02.2017 00:48 3,2 °C 3,2 °C 79 % 1024,6 hPa 0,0 mm 5,7 km/h (1 Bft) SW 234 ° 0 min 0,000 mm 0,0 UV-I 0 W/m² -0,1 °C 1,8 °C 9,7 km/h (2 Bft)
20.02.2017 00:49 3,2 °C 3,2 °C 80 % 1024,6 hPa 0,0 mm 4,7 km/h (1 Bft) W 266 ° 0 min 0,000 mm 0,0 UV-I 0 W/m² 0,1 °C 2,2 °C 9,7 km/h (2 Bft)
20.02.2017 00:50 3,2 °C 3,2 °C 79 % 1024,6 hPa 0,0 mm 5,6 km/h (1 Bft) SW 232 ° 0 min 0,000 mm 0,0 UV-I 0 W/m² -0,1 °C 1,8 °C 6,4 km/h (2 Bft)
20.02.2017 00:51 3,2 °C 3,2 °C 79 % 1024,5 hPa 0,0 mm 5,3 km/h (1 Bft) W 275 ° 0 min 0,000 mm 0,0 UV-I 0 W/m² -0,1 °C 1,9 °C 11,3 km/h (2 Bft)
20.02.2017 00:52 3,2 °C 3,2 °C 79 % 1024,5 hPa 0,0 mm 7,0 km/h (2 Bft) SW 216 ° 0 min 0,000 mm 0,0 UV-I 0 W/m² -0,1 °C 1,3 °C 14,5 km/h (3 Bft)
20.02.2017 00:53 3,2 °C 3,2 °C 79 % 1024,6 hPa 0,0 mm 9,7 km/h (2 Bft) W-SW 239 ° 0 min 0,000 mm 0,0 UV-I 0 W/m² -0,1 °C 0,6 °C 14,5 km/h (3 Bft)
20.02.2017 00:54 3,3 °C 3,3 °C 79 % 1024,5 hPa 0,0 mm 4,3 km/h (1 Bft) SW 221 ° 0 min 0,000 mm 0,0 UV-I 0 W/m² 0,0 °C 3,3 °C 8,0 km/h (2 Bft)
20.02.2017 00:55 3,3 °C 3,3 °C 79 % 1024,5 hPa 0,0 mm 2,5 km/h (1 Bft) SW 221 ° 0 min 0,000 mm 0,0 UV-I 0 W/m² 0,0 °C 3,3 °C 3,2 km/h (1 Bft)
20.02.2017 00:56 3,3 °C 3,3 °C 79 % 1024,4 hPa 0,0 mm 3,0 km/h (1 Bft) SW 220 ° 0 min 0,000 mm 0,0 UV-I 0 W/m² 0,0 °C 3,3 °C 4,8 km/h (1 Bft)
20.02.2017 00:57 3,3 °C 3,3 °C 79 % 1024,4 hPa 0,0 mm 5,9 km/h (2 Bft) W-SW 237 ° 0 min 0,000 mm 0,0 UV-I 0 W/m² 0,0 °C 1,8 °C 12,9 km/h (3 Bft)
20.02.2017 00:58 3,3 °C 3,3 °C 78 % 1024,5 hPa 0,0 mm 6,8 km/h (2 Bft) W-SW 254 ° 0 min 0,000 mm 0,0 UV-I 0 W/m² -0,2 °C 1,5 °C 12,9 km/h (3 Bft)
20.02.2017 00:59 3,4 °C 3,4 °C 78 % 1024,4 hPa 0,0 mm 9,3 km/h (2 Bft) W-SW 254 ° 0 min 0,000 mm 0,0 UV-I 0 W/m² -0,1 °C 0,9 °C 14,5 km/h (3 Bft)
20.02.2017 01:00 3,4 °C 3,4 °C 78 % 1024,5 hPa 0,0 mm 9,0 km/h (2 Bft) SW 217 ° 0 min 0,025 mm 0,0 UV-I 0 W/m² -0,1 °C 1,0 °C 14,5 km/h (3 Bft)
20.02.2017 01:01 3,4 °C 3,4 °C 78 % 1024,6 hPa 0,0 mm 12,5 km/h (3 Bft) W-SW 237 ° 0 min 0,000 mm 0,0 UV-I 0 W/m² -0,1 °C 0,2 °C 16,1 km/h (3 Bft)
20.02.2017 01:02 3,4 °C 3,4 °C 78 % 1024,6 hPa 0,0 mm 7,2 km/h (2 Bft) W-SW 250 ° 0 min 0,000 mm 0,0 UV-I 0 W/m² -0,1 °C 1,5 °C 11,3 km/h (2 Bft)
20.02.2017 01:03 3,4 °C 3,4 °C 78 % 1024,5 hPa 0,0 mm 7,9 km/h (2 Bft) W 259 ° 0 min 0,000 mm 0,0 UV-I 0 W/m² -0,1 °C 1,3 °C 11,3 km/h (2 Bft)
20.02.2017 01:04 3,4 °C 3,4 °C 78 % 1024,6 hPa 0,0 mm 7,2 km/h (2 Bft) W-SW 239 ° 0 min 0,000 mm 0,0 UV-I 0 W/m² -0,1 °C 1,5 °C 11,3 km/h (2 Bft)
20.02.2017 01:05 3,4 °C 3,4 °C 78 % 1024,5 hPa 0,0 mm 6,4 km/h (2 Bft) W-SW 248 ° 0 min 0,000 mm 0,0 UV-I 0 W/m² -0,1 °C 1,7 °C 16,1 km/h (3 Bft)
20.02.2017 01:06 3,4 °C 3,4 °C 78 % 1024,5 hPa 0,0 mm 10,6 km/h (2 Bft) SW 229 ° 0 min 0,000 mm 0,0 UV-I 0 W/m² -0,1 °C 0,6 °C 17,7 km/h (3 Bft)
20.02.2017 01:07 3,4 °C 3,4 °C 78 % 1024,5 hPa 0,0 mm 7,8 km/h (2 Bft) W-SW 244 ° 0 min 0,000 mm 0,0 UV-I 0 W/m² -0,1 °C 1,3 °C 12,9 km/h (3 Bft)
20.02.2017 01:08 3,4 °C 3,4 °C 78 % 1024,5 hPa 0,0 mm 9,5 km/h (2 Bft) W-SW 242 ° 0 min 0,000 mm 0,0 UV-I 0 W/m² -0,1 °C 0,9 °C 16,1 km/h (3 Bft)
20.02.2017 01:09 3,4 °C 3,4 °C 78 % 1024,5 hPa 0,0 mm 6,7 km/h (2 Bft) W-SW 256 ° 0 min 0,000 mm 0,0 UV-I 0 W/m² -0,1 °C 1,6 °C 11,3 km/h (2 Bft)
20.02.2017 01:10 3,4 °C 3,4 °C 78 % 1024,5 hPa 0,0 mm 7,3 km/h (2 Bft) W-SW 245 ° 0 min 0,000 mm 0,0 UV-I 0 W/m² -0,1 °C 1,5 °C 9,7 km/h (2 Bft)
20.02.2017 01:11 3,4 °C 3,4 °C 78 % 1024,5 hPa 0,0 mm 8,0 km/h (2 Bft) W-SW 248 ° 0 min 0,000 mm 0,0 UV-I 0 W/m² -0,1 °C 1,3 °C 11,3 km/h (2 Bft)
20.02.2017 01:12 3,4 °C 3,4 °C 78 % 1024,5 hPa 0,0 mm 10,6 km/h (2 Bft) W 268 ° 0 min 0,000 mm 0,0 UV-I 0 W/m² -0,1 °C 0,6 °C 12,9 km/h (3 Bft)
20.02.2017 01:13 3,4 °C 3,4 °C 78 % 1024,5 hPa 0,0 mm 7,8 km/h (2 Bft) W-SW 248 ° 0 min 0,000 mm 0,0 UV-I 0 W/m² -0,1 °C 1,3 °C 14,5 km/h (3 Bft)
20.02.2017 01:14 3,4 °C 3,4 °C 78 % 1024,5 hPa 0,0 mm 11,0 km/h (2 Bft) W 259 ° 0 min 0,000 mm 0,0 UV-I 0 W/m² -0,1 °C 0,5 °C 16,1 km/h (3 Bft)
20.02.2017 01:15 3,4 °C 3,4 °C 77 % 1024,5 hPa 0,0 mm 7,1 km/h (2 Bft) SW 217 ° 0 min 0,000 mm 0,0 UV-I 0 W/m² -0,2 °C 1,5 °C 12,9 km/h (3 Bft)
20.02.2017 01:16 3,4 °C 3,4 °C 78 % 1024,5 hPa 0,0 mm 6,5 km/h (2 Bft) W-SW 244 ° 0 min 0,000 mm 0,0 UV-I 0 W/m² -0,1 °C 1,7 °C 14,5 km/h (3 Bft)
20.02.2017 01:17 3,4 °C 3,4 °C 77 % 1024,5 hPa 0,0 mm 9,4 km/h (2 Bft) W-SW 249 ° 0 min 0,000 mm 0,0 UV-I 0 W/m² -0,2 °C 0,9 °C 14,5 km/h (3 Bft)
20.02.2017 01:18 3,4 °C 3,4 °C 77 % 1024,5 hPa 0,0 mm 10,3 km/h (2 Bft) W-SW 242 ° 0 min 0,000 mm 0,0 UV-I 0 W/m² -0,2 °C 0,7 °C 17,7 km/h (3 Bft)
20.02.2017 01:19 3,4 °C 3,4 °C 78 % 1024,4 hPa 0,0 mm 9,2 km/h (2 Bft) W 277 ° 0 min 0,000 mm 0,0 UV-I 0 W/m² -0,1 °C 0,9 °C 14,5 km/h (3 Bft)
20.02.2017 01:20 3,3 °C 3,4 °C 78 % 1024,4 hPa 0,0 mm 6,6 km/h (2 Bft) SW 234 ° 0 min 0,000 mm 0,0 UV-I 0 W/m² -0,2 °C 1,6 °C 11,3 km/h (2 Bft)
20.02.2017 01:21 3,3 °C 3,3 °C 78 % 1024,4 hPa 0,0 mm 8,3 km/h (2 Bft) SW 225 ° 0 min 0,000 mm 0,0 UV-I 0 W/m² -0,2 °C 1,1 °C 12,9 km/h (3 Bft)
20.02.2017 01:22 3,3 °C 3,3 °C 78 % 1024,5 hPa 0,0 mm 6,9 km/h (2 Bft) W 261 ° 0 min 0,000 mm 0,0 UV-I 0 W/m² -0,2 °C 1,5 °C 11,3 km/h (2 Bft)
20.02.2017 01:23 3,3 °C 3,3 °C 78 % 1024,5 hPa 0,0 mm 10,5 km/h (2 Bft) SW 228 ° 0 min 0,000 mm 0,0 UV-I 0 W/m² -0,2 °C 0,5 °C 12,9 km/h (3 Bft)
20.02.2017 01:24 3,3 °C 3,3 °C 78 % 1024,4 hPa 0,0 mm 8,2 km/h (2 Bft) W-SW 242 ° 0 min 0,000 mm 0,0 UV-I 0 W/m² -0,2 °C 1,1 °C 12,9 km/h (3 Bft)
20.02.2017 01:25 3,3 °C 3,3 °C 77 % 1024,5 hPa 0,0 mm 6,0 km/h (2 Bft) W-SW 248 ° 0 min 0,000 mm 0,0 UV-I 0 W/m² -0,3 °C 1,8 °C 11,3 km/h (2 Bft)
20.02.2017 01:26 3,3 °C 3,3 °C 77 % 1024,5 hPa 0,0 mm 10,1 km/h (2 Bft) W-SW 255 ° 0 min 0,000 mm 0,0 UV-I 0 W/m² -0,3 °C 0,6 °C 14,5 km/h (3 Bft)
20.02.2017 01:27 3,3 °C 3,3 °C 78 % 1024,6 hPa 0,0 mm 10,1 km/h (2 Bft) W-SW 244 ° 0 min 0,000 mm 0,0 UV-I 0 W/m² -0,2 °C 0,6 °C 14,5 km/h (3 Bft)
20.02.2017 01:28 3,3 °C 3,3 °C 78 % 1024,6 hPa 0,0 mm 10,3 km/h (2 Bft) W-SW 239 ° 0 min 0,000 mm 0,0 UV-I 0 W/m² -0,2 °C 0,6 °C 14,5 km/h (3 Bft)
20.02.2017 01:29 3,3 °C 3,3 °C 77 % 1024,6 hPa 0,0 mm 4,6 km/h (1 Bft) SW 222 ° 0 min 0,000 mm 0,0 UV-I 0 W/m² -0,3 °C 2,3 °C 8,0 km/h (2 Bft)
20.02.2017 01:30 3,3 °C 3,3 °C 77 % 1024,6 hPa 0,0 mm 3,9 km/h (1 Bft) SW 215 ° 0 min 0,000 mm 0,0 UV-I 0 W/m² -0,3 °C 3,3 °C 4,8 km/h (1 Bft)
20.02.2017 01:31 3,3 °C 3,3 °C 77 % 1024,6 hPa 0,0 mm 3,5 km/h (1 Bft) W-SW 243 ° 0 min 0,000 mm 0,0 UV-I 0 W/m² -0,3 °C 3,3 °C 6,4 km/h (2 Bft)
20.02.2017 01:32 3,3 °C 3,3 °C 78 % 1024,6 hPa 0,0 mm 4,9 km/h (1 Bft) W 262 ° 0 min 0,000 mm 0,0 UV-I 0 W/m² -0,2 °C 2,2 °C 11,3 km/h (2 Bft)
20.02.2017 01:33 3,3 °C 3,3 °C 78 % 1024,6 hPa 0,0 mm 5,0 km/h (1 Bft) W-SW 246 ° 0 min 0,000 mm 0,0 UV-I 0 W/m² -0,2 °C 2,2 °C 11,3 km/h (2 Bft)
20.02.2017 01:34 3,3 °C 3,3 °C 78 % 1024,6 hPa 0,0 mm 4,6 km/h (1 Bft) W 266 ° 0 min 0,000 mm 0,0 UV-I 0 W/m² -0,2 °C 2,3 °C 9,7 km/h (2 Bft)
20.02.2017 01:35 3,2 °C 3,3 °C 78 % 1024,6 hPa 0,0 mm 2,9 km/h (1 Bft) SW 223 ° 0 min 0,000 mm 0,0 UV-I 0 W/m² -0,3 °C 3,2 °C 6,4 km/h (2 Bft)
20.02.2017 01:36 3,3 °C 3,3 °C 77 % 1024,5 hPa 0,0 mm 7,6 km/h (2 Bft) W 263 ° 0 min 0,000 mm 0,0 UV-I 0 W/m² -0,3 °C 1,3 °C 12,9 km/h (3 Bft)
20.02.2017 01:37 3,3 °C 3,3 °C 77 % 1024,5 hPa 0,0 mm 6,3 km/h (2 Bft) W 264 ° 0 min 0,000 mm 0,0 UV-I 0 W/m² -0,3 °C 1,7 °C 9,7 km/h (2 Bft)
20.02.2017 01:38 3,3 °C 3,3 °C 78 % 1024,6 hPa 0,0 mm 4,5 km/h (1 Bft) S-SW 209 ° 0 min 0,000 mm 0,0 UV-I 0 W/m² -0,2 °C 3,3 °C 6,4 km/h (2 Bft)
20.02.2017 01:39 3,3 °C 3,3 °C 77 % 1024,6 hPa 0,0 mm 3,8 km/h (1 Bft) W-SW 251 ° 0 min 0,000 mm 0,0 UV-I 0 W/m² -0,3 °C 3,3 °C 8,0 km/h (2 Bft)
20.02.2017 01:40 3,3 °C 3,3 °C 77 % 1024,6 hPa 0,0 mm 5,2 km/h (1 Bft) W-SW 246 ° 0 min 0,000 mm 0,0 UV-I 0 W/m² -0,3 °C 2,1 °C 9,7 km/h (2 Bft)
20.02.2017 01:41 3,3 °C 3,3 °C 78 % 1024,6 hPa 0,0 mm 3,0 km/h (1 Bft) W-SW 247 ° 0 min 0,000 mm 0,0 UV-I 0 W/m² -0,2 °C 3,3 °C 4,8 km/h (1 Bft)
20.02.2017 01:42 3,2 °C 3,3 °C 78 % 1024,6 hPa 0,0 mm 5,4 km/h (1 Bft) S-SW 192 ° 0 min 0,000 mm 0,0 UV-I 0 W/m² -0,3 °C 1,9 °C 9,7 km/h (2 Bft)
20.02.2017 01:43 3,2 °C 3,2 °C 78 % 1024,6 hPa 0,0 mm 3,5 km/h (1 Bft) W 259 ° 0 min 0,000 mm 0,0 UV-I 0 W/m² -0,3 °C 3,2 °C 4,8 km/h (1 Bft)
20.02.2017 01:44 3,2 °C 3,2 °C 78 % 1024,6 hPa 0,0 mm 5,9 km/h (2 Bft) W-SW 238 ° 0 min 0,000 mm 0,0 UV-I 0 W/m² -0,3 °C 1,7 °C 11,3 km/h (2 Bft)
20.02.2017 01:45 3,2 °C 3,2 °C 78 % 1024,5 hPa 0,0 mm 7,3 km/h (2 Bft) S-SW 202 ° 0 min 0,000 mm 0,0 UV-I 0 W/m² -0,3 °C 1,2 °C 12,9 km/h (3 Bft)
20.02.2017 01:46 3,2 °C 3,2 °C 78 % 1024,5 hPa 0,0 mm 4,0 km/h (1 Bft) W-SW 250 ° 0 min 0,000 mm 0,0 UV-I 0 W/m² -0,3 °C 3,2 °C 6,4 km/h (2 Bft)
20.02.2017 01:47 3,2 °C 3,2 °C 78 % 1024,5 hPa 0,0 mm 5,5 km/h (1 Bft) SW 230 ° 0 min 0,000 mm 0,0 UV-I 0 W/m² -0,3 °C 1,8 °C 8,0 km/h (2 Bft)
20.02.2017 01:48 3,2 °C 3,2 °C 78 % 1024,6 hPa 0,0 mm 7,2 km/h (2 Bft) S-SW 207 ° 0 min 0,000 mm 0,0 UV-I 0 W/m² -0,3 °C 1,3 °C 12,9 km/h (3 Bft)
20.02.2017 01:49 3,2 °C 3,2 °C 78 % 1024,5 hPa 0,0 mm 8,6 km/h (2 Bft) W-SW 240 ° 0 min 0,000 mm 0,0 UV-I 0 W/m² -0,3 °C 0,9 °C 12,9 km/h (3 Bft)
20.02.2017 01:50 3,2 °C 3,2 °C 78 % 1024,6 hPa 0,0 mm 9,9 km/h (2 Bft) W-SW 242 ° 0 min 0,000 mm 0,0 UV-I 0 W/m² -0,3 °C 0,5 °C 14,5 km/h (3 Bft)
20.02.2017 01:51 3,2 °C 3,2 °C 78 % 1024,5 hPa 0,0 mm 7,3 km/h (2 Bft) W 280 ° 0 min 0,000 mm 0,0 UV-I 0 W/m² -0,3 °C 1,2 °C 11,3 km/h (2 Bft)
20.02.2017 01:52 3,2 °C 3,2 °C 78 % 1024,5 hPa 0,0 mm 4,8 km/h (1 Bft) SW 236 ° 0 min 0,000 mm 0,0 UV-I 0 W/m² -0,3 °C 2,1 °C 8,0 km/h (2 Bft)
20.02.2017 01:53 3,2 °C 3,2 °C 78 % 1024,5 hPa 0,0 mm 2,8 km/h (1 Bft) SW 236 ° 0 min 0,000 mm 0,0 UV-I 0 W/m² -0,3 °C 3,2 °C 4,8 km/h (1 Bft)
20.02.2017 01:54 3,1 °C 3,2 °C 78 % 1024,6 hPa 0,0 mm 2,1 km/h (1 Bft) SW 236 ° 0 min 0,000 mm 0,0 UV-I 0 W/m² -0,4 °C 3,1 °C 3,2 km/h (1 Bft)
20.02.2017 01:55 3,1 °C 3,2 °C 78 % 1024,4 hPa 0,0 mm 2,0 km/h (1 Bft) SW 236 ° 0 min 0,000 mm 0,0 UV-I 0 W/m² -0,4 °C 3,1 °C 3,2 km/h (1 Bft)
20.02.2017 01:56 3,1 °C 3,2 °C 79 % 1024,5 hPa 0,0 mm 4,4 km/h (1 Bft) W-SW 240 ° 0 min 0,000 mm 0,0 UV-I 0 W/m² -0,2 °C 3,1 °C 6,4 km/h (2 Bft)
20.02.2017 01:57 3,1 °C 3,1 °C 79 % 1024,6 hPa 0,0 mm 7,9 km/h (2 Bft) W-SW 254 ° 0 min 0,000 mm 0,0 UV-I 0 W/m² -0,2 °C 0,9 °C 11,3 km/h (2 Bft)
20.02.2017 01:58 3,1 °C 3,1 °C 79 % 1024,6 hPa 0,0 mm 2,3 km/h (1 Bft) W-SW 254 ° 0 min 0,000 mm 0,0 UV-I 0 W/m² -0,2 °C 3,1 °C 6,4 km/h (2 Bft)
20.02.2017 01:59 3,1 °C 3,1 °C 79 % 1024,4 hPa 0,0 mm 2,0 km/h (1 Bft) W-SW 248 ° 0 min 0,000 mm 0,0 UV-I 0 W/m² -0,2 °C 3,1 °C 4,8 km/h (1 Bft)
20.02.2017 02:00 3,1 °C 3,1 °C 79 % 1024,5 hPa 0,0 mm 7,6 km/h (2 Bft) W-SW 250 ° 0 min 0,026 mm 0,0 UV-I 0 W/m² -0,2 °C 1,0 °C 11,3 km/h (2 Bft)
20.02.2017 02:01 3,0 °C 3,1 °C 80 % 1024,4 hPa 0,0 mm 3,7 km/h (1 Bft) W-SW 251 ° 0 min 0,000 mm 0,0 UV-I 0 W/m² -0,1 °C 3,0 °C 4,8 km/h (1 Bft)
20.02.2017 02:02 3,0 °C 3,0 °C 79 % 1024,4 hPa 0,0 mm 3,4 km/h (1 Bft) SW 217 ° 0 min 0,000 mm 0,0 UV-I 0 W/m² -0,3 °C 3,0 °C 6,4 km/h (2 Bft)
20.02.2017 02:03 3,0 °C 3,0 °C 79 % 1024,3 hPa 0,0 mm 7,1 km/h (2 Bft) SW 231 ° 0 min 0,000 mm 0,0 UV-I 0 W/m² -0,3 °C 1,1 °C 12,9 km/h (3 Bft)
20.02.2017 02:04 3,1 °C 3,1 °C 79 % 1024,3 hPa 0,0 mm 4,6 km/h (1 Bft) SW 230 ° 0 min 0,000 mm 0,0 UV-I 0 W/m² -0,2 °C 2,1 °C 6,4 km/h (2 Bft)
20.02.2017 02:05 3,1 °C 3,1 °C 79 % 1024,3 hPa 0,0 mm 4,2 km/h (1 Bft) SW 219 ° 0 min 0,000 mm 0,0 UV-I 0 W/m² -0,2 °C 3,1 °C 4,8 km/h (1 Bft)
20.02.2017 02:06 3,1 °C 3,1 °C 79 % 1024,4 hPa 0,0 mm 2,2 km/h (1 Bft) SW 219 ° 0 min 0,000 mm 0,0 UV-I 0 W/m² -0,2 °C 3,1 °C 4,8 km/h (1 Bft)
20.02.2017 02:07 3,1 °C 3,1 °C 79 % 1024,3 hPa 0,0 mm 6,0 km/h (2 Bft) W-SW 246 ° 0 min 0,000 mm 0,0 UV-I 0 W/m² -0,2 °C 1,5 °C 8,0 km/h (2 Bft)
20.02.2017 02:08 3,2 °C 3,2 °C 79 % 1024,3 hPa 0,0 mm 3,2 km/h (1 Bft) W-SW 246 ° 0 min 0,000 mm 0,0 UV-I 0 W/m² -0,1 °C 3,2 °C 4,8 km/h (1 Bft)
20.02.2017 02:09 3,1 °C 3,2 °C 79 % 1024,4 hPa 0,0 mm 1,6 km/h (1 Bft) W-SW 246 ° 0 min 0,000 mm 0,0 UV-I 0 W/m² -0,2 °C 3,1 °C 3,2 km/h (1 Bft)
20.02.2017 02:10 3,1 °C 3,2 °C 79 % 1024,3 hPa 0,0 mm 2,1 km/h (1 Bft) W-SW 246 ° 0 min 0,000 mm 0,0 UV-I 0 W/m² -0,2 °C 3,1 °C 3,2 km/h (1 Bft)
20.02.2017 02:11 3,1 °C 3,1 °C 79 % 1024,4 hPa 0,0 mm 1,7 km/h (1 Bft) W-SW 246 ° 0 min 0,000 mm 0,0 UV-I 0 W/m² -0,2 °C 3,1 °C 3,2 km/h (1 Bft)
20.02.2017 02:12 3,1 °C 3,1 °C 79 % 1024,4 hPa 0,0 mm 3,1 km/h (1 Bft) S-SW 202 ° 0 min 0,000 mm 0,0 UV-I 0 W/m² -0,2 °C 3,1 °C 4,8 km/h (1 Bft)
20.02.2017 02:13 3,1 °C 3,1 °C 79 % 1024,3 hPa 0,0 mm 5,4 km/h (1 Bft) W 267 ° 0 min 0,000 mm 0,0 UV-I 0 W/m² -0,2 °C 1,8 °C 9,7 km/h (2 Bft)
20.02.2017 02:14 3,1 °C 3,1 °C 79 % 1024,3 hPa 0,0 mm 4,0 km/h (1 Bft) W-SW 240 ° 0 min 0,000 mm 0,0 UV-I 0 W/m² -0,2 °C 3,1 °C 6,4 km/h (2 Bft)
20.02.2017 02:15 3,1 °C 3,1 °C 79 % 1024,3 hPa 0,0 mm 4,3 km/h (1 Bft) W 266 ° 0 min 0,000 mm 0,0 UV-I 0 W/m² -0,2 °C 3,1 °C 6,4 km/h (2 Bft)
20.02.2017 02:16 3,1 °C 3,1 °C 79 % 1024,3 hPa 0,0 mm 2,5 km/h (1 Bft) W 265 ° 0 min 0,000 mm 0,0 UV-I 0 W/m² -0,2 °C 3,1 °C 3,2 km/h (1 Bft)
20.02.2017 02:17 3,1 °C 3,1 °C 79 % 1024,3 hPa 0,0 mm 2,3 km/h (1 Bft) SW 221 ° 0 min 0,000 mm 0,0 UV-I 0 W/m² -0,2 °C 3,1 °C 4,8 km/h (1 Bft)
20.02.2017 02:18 3,1 °C 3,1 °C 79 % 1024,3 hPa 0,0 mm 1,6 km/h (1 Bft) SW 221 ° 0 min 0,000 mm 0,0 UV-I 0 W/m² -0,2 °C 3,1 °C 3,2 km/h (1 Bft)
20.02.2017 02:19 3,1 °C 3,1 °C 79 % 1024,3 hPa 0,0 mm 1,5 km/h (1 Bft) SW 221 ° 0 min 0,000 mm 0,0 UV-I 0 W/m² -0,2 °C 3,1 °C 1,6 km/h (1 Bft)
20.02.2017 02:20 3,1 °C 3,1 °C 79 % 1024,3 hPa 0,0 mm 1,8 km/h (1 Bft) SW 221 ° 0 min 0,000 mm 0,0 UV-I 0 W/m² -0,2 °C 3,1 °C 3,2 km/h (1 Bft)
20.02.2017 02:21 3,1 °C 3,1 °C 79 % 1024,2 hPa 0,0 mm 2,2 km/h (1 Bft) SW 216 ° 0 min 0,000 mm 0,0 UV-I 0 W/m² -0,2 °C 3,1 °C 4,8 km/h (1 Bft)
20.02.2017 02:22 3,1 °C 3,1 °C 78 % 1024,2 hPa 0,0 mm 2,8 km/h (1 Bft) S-SW 194 ° 0 min 0,000 mm 0,0 UV-I 0 W/m² -0,4 °C 3,1 °C 4,8 km/h (1 Bft)
20.02.2017 02:23 3,1 °C 3,1 °C 78 % 1024,2 hPa 0,0 mm 3,3 km/h (1 Bft) S-SW 194 ° 0 min 0,000 mm 0,0 UV-I 0 W/m² -0,4 °C 3,1 °C 6,4 km/h (2 Bft)
20.02.2017 02:24 3,1 °C 3,1 °C 78 % 1024,2 hPa 0,0 mm 2,4 km/h (1 Bft) S-SW 194 ° 0 min 0,000 mm 0,0 UV-I 0 W/m² -0,4 °C 3,1 °C 3,2 km/h (1 Bft)
20.02.2017 02:25 3,2 °C 3,2 °C 78 % 1024,2 hPa 0,0 mm 4,4 km/h (1 Bft) S-SW 194 ° 0 min 0,000 mm 0,0 UV-I 0 W/m² -0,3 °C 3,2 °C 8,0 km/h (2 Bft)
20.02.2017 02:26 3,2 °C 3,2 °C 78 % 1024,2 hPa 0,0 mm 4,6 km/h (1 Bft) SW 233 ° 0 min 0,000 mm 0,0 UV-I 0 W/m² -0,3 °C 2,2 °C 6,4 km/h (2 Bft)
20.02.2017 02:27 3,1 °C 3,2 °C 78 % 1024,1 hPa 0,0 mm 3,8 km/h (1 Bft) SW 233 ° 0 min 0,000 mm 0,0 UV-I 0 W/m² -0,4 °C 3,1 °C 4,8 km/h (1 Bft)
20.02.2017 02:28 3,1 °C 3,1 °C 79 % 1024,1 hPa 0,0 mm 2,1 km/h (1 Bft) SW 233 ° 0 min 0,000 mm 0,0 UV-I 0 W/m² -0,2 °C 3,1 °C 4,8 km/h (1 Bft)
20.02.2017 02:29 3,1 °C 3,1 °C 79 % 1024,1 hPa 0,0 mm 2,7 km/h (1 Bft) W 267 ° 0 min 0,000 mm 0,0 UV-I 0 W/m² -0,2 °C 3,1 °C 4,8 km/h (1 Bft)
20.02.2017 02:30 3,1 °C 3,1 °C 79 % 1024,1 hPa 0,0 mm 4,0 km/h (1 Bft) W 259 ° 0 min 0,000 mm 0,0 UV-I 0 W/m² -0,2 °C 3,1 °C 8,0 km/h (2 Bft)
20.02.2017 02:31 3,1 °C 3,1 °C 79 % 1024,1 hPa 0,0 mm 5,6 km/h (1 Bft) SW 229 ° 0 min 0,000 mm 0,0 UV-I 0 W/m² -0,2 °C 1,7 °C 6,4 km/h (2 Bft)
20.02.2017 02:32 3,0 °C 3,1 °C 79 % 1024,1 hPa 0,0 mm 2,4 km/h (1 Bft) SW 217 ° 0 min 0,000 mm 0,0 UV-I 0 W/m² -0,3 °C 3,0 °C 6,4 km/h (2 Bft)
20.02.2017 02:33 3,0 °C 3,0 °C 79 % 1024,1 hPa 0,0 mm 3,5 km/h (1 Bft) SW 235 ° 0 min 0,000 mm 0,0 UV-I 0 W/m² -0,3 °C 3,0 °C 6,4 km/h (2 Bft)
20.02.2017 02:34 2,9 °C 3,0 °C 79 % 1024,0 hPa 0,0 mm 3,4 km/h (1 Bft) SW 235 ° 0 min 0,000 mm 0,0 UV-I 0 W/m² -0,4 °C 2,9 °C 4,8 km/h (1 Bft)
20.02.2017 02:35 2,9 °C 2,9 °C 79 % 1024,0 hPa 0,0 mm 3,9 km/h (1 Bft) SW 230 ° 0 min 0,000 mm 0,0 UV-I 0 W/m² -0,4 °C 2,9 °C 6,4 km/h (2 Bft)
20.02.2017 02:36 2,9 °C 2,9 °C 79 % 1024,0 hPa 0,0 mm 3,1 km/h (1 Bft) S-SW 200 ° 0 min 0,000 mm 0,0 UV-I 0 W/m² -0,4 °C 2,9 °C 8,0 km/h (2 Bft)
20.02.2017 02:37 2,9 °C 2,9 °C 79 % 1024,0 hPa 0,0 mm 3,8 km/h (1 Bft) W-SW 240 ° 0 min 0,000 mm 0,0 UV-I 0 W/m² -0,4 °C 2,9 °C 6,4 km/h (2 Bft)
20.02.2017 02:38 2,9 °C 2,9 °C 80 % 1024,0 hPa 0,0 mm 4,0 km/h (1 Bft) W-SW 249 ° 0 min 0,000 mm 0,0 UV-I 0 W/m² -0,2 °C 2,9 °C 6,4 km/h (2 Bft)
20.02.2017 02:39 2,9 °C 2,9 °C 80 % 1024,0 hPa 0,0 mm 1,5 km/h (1 Bft) W-SW 249 ° 0 min 0,000 mm 0,0 UV-I 0 W/m² -0,2 °C 2,9 °C 3,2 km/h (1 Bft)
20.02.2017 02:40 2,9 °C 2,9 °C 80 % 1024,0 hPa 0,0 mm 2,9 km/h (1 Bft) W-SW 248 ° 0 min 0,000 mm 0,0 UV-I 0 W/m² -0,2 °C 2,9 °C 4,8 km/h (1 Bft)
20.02.2017 02:41 2,9 °C 2,9 °C 80 % 1023,9 hPa 0,0 mm 5,1 km/h (1 Bft) SW 236 ° 0 min 0,000 mm 0,0 UV-I 0 W/m² -0,2 °C 1,7 °C 6,4 km/h (2 Bft)
20.02.2017 02:42 2,9 °C 2,9 °C 80 % 1024,0 hPa 0,0 mm 4,8 km/h (1 Bft) S-SW 192 ° 0 min 0,000 mm 0,0 UV-I 0 W/m² -0,2 °C 1,8 °C 6,4 km/h (2 Bft)
20.02.2017 02:43 2,9 °C 2,9 °C 79 % 1023,9 hPa 0,0 mm 3,8 km/h (1 Bft) W-SW 253 ° 0 min 0,000 mm 0,0 UV-I 0 W/m² -0,4 °C 2,9 °C 8,0 km/h (2 Bft)
20.02.2017 02:44 2,9 °C 2,9 °C 80 % 1023,9 hPa 0,0 mm 5,7 km/h (1 Bft) W 269 ° 0 min 0,000 mm 0,0 UV-I 0 W/m² -0,2 °C 1,4 °C 12,9 km/h (3 Bft)
20.02.2017 02:45 2,9 °C 2,9 °C 79 % 1023,8 hPa 0,0 mm 7,8 km/h (2 Bft) W 263 ° 0 min 0,000 mm 0,0 UV-I 0 W/m² -0,4 °C 0,7 °C 11,3 km/h (2 Bft)
20.02.2017 02:46 2,9 °C 2,9 °C 80 % 1023,9 hPa 0,0 mm 7,7 km/h (2 Bft) W-SW 238 ° 0 min 0,000 mm 0,0 UV-I 0 W/m² -0,2 °C 0,8 °C 11,3 km/h (2 Bft)
20.02.2017 02:47 2,9 °C 2,9 °C 80 % 1023,9 hPa 0,0 mm 5,0 km/h (1 Bft) SW 222 ° 0 min 0,000 mm 0,0 UV-I 0 W/m² -0,2 °C 1,7 °C 8,0 km/h (2 Bft)
20.02.2017 02:48 2,9 °C 2,9 °C 80 % 1023,8 hPa 0,0 mm 4,0 km/h (1 Bft) S-SW 213 ° 0 min 0,000 mm 0,0 UV-I 0 W/m² -0,2 °C 2,9 °C 6,4 km/h (2 Bft)
20.02.2017 02:49 2,9 °C 2,9 °C 80 % 1023,8 hPa 0,0 mm 4,0 km/h (1 Bft) SW 218 ° 0 min 0,000 mm 0,0 UV-I 0 W/m² -0,2 °C 2,9 °C 4,8 km/h (1 Bft)
20.02.2017 02:50 2,9 °C 2,9 °C 80 % 1023,8 hPa 0,0 mm 3,8 km/h (1 Bft) SW 230 ° 0 min 0,000 mm 0,0 UV-I 0 W/m² -0,2 °C 2,9 °C 4,8 km/h (1 Bft)
20.02.2017 02:51 2,9 °C 2,9 °C 80 % 1023,7 hPa 0,0 mm 3,1 km/h (1 Bft) SW 222 ° 0 min 0,000 mm 0,0 UV-I 0 W/m² -0,2 °C 2,9 °C 4,8 km/h (1 Bft)
20.02.2017 02:52 2,9 °C 2,9 °C 80 % 1023,7 hPa 0,0 mm 4,1 km/h (1 Bft) S-SW 209 ° 0 min 0,000 mm 0,0 UV-I 0 W/m² -0,2 °C 2,9 °C 6,4 km/h (2 Bft)
20.02.2017 02:53 2,9 °C 2,9 °C 80 % 1023,7 hPa 0,0 mm 4,4 km/h (1 Bft) SW 227 ° 0 min 0,000 mm 0,0 UV-I 0 W/m² -0,2 °C 2,9 °C 8,0 km/h (2 Bft)
20.02.2017 02:54 2,9 °C 2,9 °C 80 % 1023,7 hPa 0,0 mm 4,4 km/h (1 Bft) S-SW 213 ° 0 min 0,000 mm 0,0 UV-I 0 W/m² -0,2 °C 2,9 °C 6,4 km/h (2 Bft)
20.02.2017 02:55 2,9 °C 2,9 °C 80 % 1023,7 hPa 0,0 mm 3,4 km/h (1 Bft) W 275 ° 0 min 0,000 mm 0,0 UV-I 0 W/m² -0,2 °C 2,9 °C 6,4 km/h (2 Bft)
20.02.2017 02:56 2,9 °C 2,9 °C 80 % 1023,7 hPa 0,0 mm 4,1 km/h (1 Bft) SW 223 ° 0 min 0,000 mm 0,0 UV-I 0 W/m² -0,2 °C 2,9 °C 8,0 km/h (2 Bft)
20.02.2017 02:57 2,8 °C 2,9 °C 80 % 1023,8 hPa 0,0 mm 6,6 km/h (2 Bft) SW 223 ° 0 min 0,000 mm 0,0 UV-I 0 W/m² -0,3 °C 1,0 °C 9,7 km/h (2 Bft)
20.02.2017 02:58 2,9 °C 2,9 °C 80 % 1023,8 hPa 0,0 mm 5,0 km/h (1 Bft) W-SW 244 ° 0 min 0,000 mm 0,0 UV-I 0 W/m² -0,2 °C 1,7 °C 6,4 km/h (2 Bft)
20.02.2017 02:59 2,8 °C 2,9 °C 80 % 1023,8 hPa 0,0 mm 2,4 km/h (1 Bft) W-SW 244 ° 0 min 0,000 mm 0,0 UV-I 0 W/m² -0,3 °C 2,8 °C 4,8 km/h (1 Bft)
20.02.2017 03:00 2,8 °C 2,8 °C 80 % 1023,7 hPa 0,0 mm 2,8 km/h (1 Bft) W-SW 247 ° 0 min 0,000 mm 0,0 UV-I 0 W/m² -0,3 °C 2,8 °C 4,8 km/h (1 Bft)
20.02.2017 03:01 2,8 °C 2,8 °C 80 % 1023,8 hPa 0,0 mm 2,9 km/h (1 Bft) SW 232 ° 0 min 0,025 mm 0,0 UV-I 0 W/m² -0,3 °C 2,8 °C 4,8 km/h (1 Bft)
20.02.2017 03:02 2,8 °C 2,8 °C 80 % 1023,7 hPa 0,0 mm 1,5 km/h (1 Bft) SW 232 ° 0 min 0,000 mm 0,0 UV-I 0 W/m² -0,3 °C 2,8 °C 3,2 km/h (1 Bft)
20.02.2017 03:03 2,8 °C 2,9 °C 80 % 1023,7 hPa 0,0 mm 3,3 km/h (1 Bft) SW 232 ° 0 min 0,000 mm 0,0 UV-I 0 W/m² -0,3 °C 2,8 °C 4,8 km/h (1 Bft)
20.02.2017 03:04 2,9 °C 2,9 °C 80 % 1023,7 hPa 0,0 mm 2,0 km/h (1 Bft) SW 232 ° 0 min 0,000 mm 0,0 UV-I 0 W/m² -0,2 °C 2,9 °C 3,2 km/h (1 Bft)
20.02.2017 03:05 2,8 °C 2,9 °C 80 % 1023,7 hPa 0,0 mm 5,3 km/h (1 Bft) SW 226 ° 0 min 0,000 mm 0,0 UV-I 0 W/m² -0,3 °C 1,5 °C 9,7 km/h (2 Bft)
20.02.2017 03:06 2,8 °C 2,9 °C 80 % 1023,7 hPa 0,0 mm 4,3 km/h (1 Bft) W-SW 240 ° 0 min 0,000 mm 0,0 UV-I 0 W/m² -0,3 °C 2,8 °C 6,4 km/h (2 Bft)
20.02.2017 03:07 2,8 °C 2,8 °C 80 % 1023,8 hPa 0,0 mm 5,2 km/h (1 Bft) W-SW 252 ° 0 min 0,000 mm 0,0 UV-I 0 W/m² -0,3 °C 1,5 °C 8,0 km/h (2 Bft)
20.02.2017 03:08 2,8 °C 2,8 °C 80 % 1023,8 hPa 0,0 mm 5,2 km/h (1 Bft) W-SW 243 ° 0 min 0,000 mm 0,0 UV-I 0 W/m² -0,3 °C 1,5 °C 8,0 km/h (2 Bft)
20.02.2017 03:09 2,8 °C 2,8 °C 80 % 1023,8 hPa 0,0 mm 1,8 km/h (1 Bft) W-SW 244 ° 0 min 0,000 mm 0,0 UV-I 0 W/m² -0,3 °C 2,8 °C 4,8 km/h (1 Bft)
20.02.2017 03:10 2,8 °C 2,8 °C 81 % 1023,7 hPa 0,0 mm 4,0 km/h (1 Bft) W-SW 246 ° 0 min 0,000 mm 0,0 UV-I 0 W/m² -0,1 °C 2,8 °C 6,4 km/h (2 Bft)
20.02.2017 03:11 2,8 °C 2,8 °C 81 % 1023,7 hPa 0,0 mm 5,9 km/h (2 Bft) SW 225 ° 0 min 0,000 mm 0,0 UV-I 0 W/m² -0,1 °C 1,2 °C 8,0 km/h (2 Bft)
20.02.2017 03:12 2,7 °C 2,8 °C 81 % 1023,7 hPa 0,0 mm 7,2 km/h (2 Bft) S-SW 203 ° 0 min 0,000 mm 0,0 UV-I 0 W/m² -0,2 °C 0,7 °C 9,7 km/h (2 Bft)
20.02.2017 03:13 2,7 °C 2,8 °C 81 % 1023,8 hPa 0,0 mm 7,0 km/h (2 Bft) W-SW 238 ° 0 min 0,000 mm 0,0 UV-I 0 W/m² -0,2 °C 0,7 °C 12,9 km/h (3 Bft)
20.02.2017 03:14 2,8 °C 2,8 °C 81 % 1023,7 hPa 0,0 mm 5,7 km/h (1 Bft) S-SW 204 ° 0 min 0,000 mm 0,0 UV-I 0 W/m² -0,1 °C 1,3 °C 11,3 km/h (2 Bft)
20.02.2017 03:15 2,8 °C 2,8 °C 81 % 1023,6 hPa 0,0 mm 5,7 km/h (1 Bft) W-SW 238 ° 0 min 0,000 mm 0,0 UV-I 0 W/m² -0,1 °C 1,3 °C 8,0 km/h (2 Bft)
20.02.2017 03:16 2,8 °C 2,8 °C 80 % 1023,6 hPa 0,0 mm 7,6 km/h (2 Bft) W-SW 240 ° 0 min 0,000 mm 0,0 UV-I 0 W/m² -0,3 °C 0,7 °C 12,9 km/h (3 Bft)
20.02.2017 03:17 2,8 °C 2,8 °C 81 % 1023,6 hPa 0,0 mm 5,5 km/h (1 Bft) W-SW 250 ° 0 min 0,000 mm 0,0 UV-I 0 W/m² -0,1 °C 1,4 °C 8,0 km/h (2 Bft)
20.02.2017 03:18 2,8 °C 2,8 °C 80 % 1023,6 hPa 0,0 mm 7,6 km/h (2 Bft) W-SW 257 ° 0 min 0,000 mm 0,0 UV-I 0 W/m² -0,3 °C 0,7 °C 11,3 km/h (2 Bft)
20.02.2017 03:19 2,8 °C 2,8 °C 81 % 1023,6 hPa 0,0 mm 4,2 km/h (1 Bft) W-SW 258 ° 0 min 0,000 mm 0,0 UV-I 0 W/m² -0,1 °C 2,8 °C 8,0 km/h (2 Bft)
20.02.2017 03:20 2,8 °C 2,8 °C 81 % 1023,6 hPa 0,0 mm 5,2 km/h (1 Bft) W 259 ° 0 min 0,000 mm 0,0 UV-I 0 W/m² -0,1 °C 1,5 °C 6,4 km/h (2 Bft)
20.02.2017 03:21 2,8 °C 2,8 °C 81 % 1023,6 hPa 0,0 mm 4,5 km/h (1 Bft) W 264 ° 0 min 0,000 mm 0,0 UV-I 0 W/m² -0,1 °C 2,8 °C 9,7 km/h (2 Bft)
20.02.2017 03:22 2,8 °C 2,8 °C 81 % 1023,6 hPa 0,0 mm 5,2 km/h (1 Bft) W-SW 255 ° 0 min 0,000 mm 0,0 UV-I 0 W/m² -0,1 °C 1,5 °C 11,3 km/h (2 Bft)
20.02.2017 03:23 2,7 °C 2,8 °C 81 % 1023,6 hPa 0,0 mm 4,7 km/h (1 Bft) W-SW 243 ° 0 min 0,000 mm 0,0 UV-I 0 W/m² -0,2 °C 1,6 °C 9,7 km/h (2 Bft)
20.02.2017 03:24 2,7 °C 2,7 °C 81 % 1023,6 hPa 0,0 mm 4,4 km/h (1 Bft) SW 236 ° 0 min 0,000 mm 0,0 UV-I 0 W/m² -0,2 °C 2,7 °C 9,7 km/h (2 Bft)
20.02.2017 03:25 2,7 °C 2,7 °C 81 % 1023,6 hPa 0,0 mm 5,4 km/h (1 Bft) SW 235 ° 0 min 0,000 mm 0,0 UV-I 0 W/m² -0,2 °C 1,3 °C 6,4 km/h (2 Bft)
20.02.2017 03:26 2,7 °C 2,7 °C 81 % 1023,6 hPa 0,0 mm 4,0 km/h (1 Bft) W-SW 250 ° 0 min 0,000 mm 0,0 UV-I 0 W/m² -0,2 °C 2,7 °C 6,4 km/h (2 Bft)
20.02.2017 03:27 2,7 °C 2,7 °C 81 % 1023,6 hPa 0,0 mm 2,3 km/h (1 Bft) W-SW 250 ° 0 min 0,000 mm 0,0 UV-I 0 W/m² -0,2 °C 2,7 °C 3,2 km/h (1 Bft)
20.02.2017 03:28 2,7 °C 2,7 °C 81 % 1023,6 hPa 0,0 mm 2,5 km/h (1 Bft) W-SW 250 ° 0 min 0,000 mm 0,0 UV-I 0 W/m² -0,2 °C 2,7 °C 3,2 km/h (1 Bft)
20.02.2017 03:29 2,7 °C 2,7 °C 81 % 1023,6 hPa 0,0 mm 3,2 km/h (1 Bft) S-SW 197 ° 0 min 0,000 mm 0,0 UV-I 0 W/m² -0,2 °C 2,7 °C 4,8 km/h (1 Bft)
20.02.2017 03:30 2,7 °C 2,7 °C 81 % 1023,6 hPa 0,0 mm 2,8 km/h (1 Bft) S-SW 197 ° 0 min 0,000 mm 0,0 UV-I 0 W/m² -0,2 °C 2,7 °C 4,8 km/h (1 Bft)
20.02.2017 03:31 2,7 °C 2,7 °C 81 % 1023,6 hPa 0,0 mm 2,7 km/h (1 Bft) S-SW 197 ° 0 min 0,000 mm 0,0 UV-I 0 W/m² -0,2 °C 2,7 °C 4,8 km/h (1 Bft)
20.02.2017 03:32 2,7 °C 2,7 °C 81 % 1023,5 hPa 0,0 mm 3,0 km/h (1 Bft) SW 236 ° 0 min 0,000 mm 0,0 UV-I 0 W/m² -0,2 °C 2,7 °C 4,8 km/h (1 Bft)
20.02.2017 03:33 2,7 °C 2,7 °C 81 % 1023,5 hPa 0,0 mm 2,9 km/h (1 Bft) SW 233 ° 0 min 0,000 mm 0,0 UV-I 0 W/m² -0,2 °C 2,7 °C 4,8 km/h (1 Bft)
20.02.2017 03:34 2,7 °C 2,7 °C 81 % 1023,5 hPa 0,0 mm 2,5 km/h (1 Bft) W 260 ° 0 min 0,000 mm 0,0 UV-I 0 W/m² -0,2 °C 2,7 °C 4,8 km/h (1 Bft)
20.02.2017 03:35 2,7 °C 2,7 °C 81 % 1023,5 hPa 0,0 mm 2,9 km/h (1 Bft) W-SW 258 ° 0 min 0,000 mm 0,0 UV-I 0 W/m² -0,2 °C 2,7 °C 4,8 km/h (1 Bft)
20.02.2017 03:36 2,7 °C 2,7 °C 81 % 1023,5 hPa 0,0 mm 3,4 km/h (1 Bft) S-SW 211 ° 0 min 0,000 mm 0,0 UV-I 0 W/m² -0,2 °C 2,7 °C 4,8 km/h (1 Bft)
20.02.2017 03:37 2,7 °C 2,7 °C 81 % 1023,5 hPa 0,0 mm 4,2 km/h (1 Bft) S-SW 211 ° 0 min 0,000 mm 0,0 UV-I 0 W/m² -0,2 °C 2,7 °C 6,4 km/h (2 Bft)
20.02.2017 03:38 2,7 °C 2,7 °C 81 % 1023,5 hPa 0,0 mm 3,4 km/h (1 Bft) W 269 ° 0 min 0,000 mm 0,0 UV-I 0 W/m² -0,2 °C 2,7 °C 4,8 km/h (1 Bft)
20.02.2017 03:39 2,7 °C 2,7 °C 81 % 1023,4 hPa 0,0 mm 3,0 km/h (1 Bft) W 269 ° 0 min 0,000 mm 0,0 UV-I 0 W/m² -0,2 °C 2,7 °C 3,2 km/h (1 Bft)
20.02.2017 03:40 2,6 °C 2,7 °C 81 % 1023,4 hPa 0,0 mm 6,3 km/h (2 Bft) W 263 ° 0 min 0,000 mm 0,0 UV-I 0 W/m² -0,3 °C 0,9 °C 9,7 km/h (2 Bft)
20.02.2017 03:41 2,6 °C 2,6 °C 81 % 1023,4 hPa 0,0 mm 2,8 km/h (1 Bft) W-SW 239 ° 0 min 0,000 mm 0,0 UV-I 0 W/m² -0,3 °C 2,6 °C 4,8 km/h (1 Bft)
20.02.2017 03:42 2,6 °C 2,6 °C 81 % 1023,4 hPa 0,0 mm 3,7 km/h (1 Bft) W-SW 240 ° 0 min 0,000 mm 0,0 UV-I 0 W/m² -0,3 °C 2,6 °C 4,8 km/h (1 Bft)
20.02.2017 03:43 2,6 °C 2,6 °C 81 % 1023,4 hPa 0,0 mm 3,0 km/h (1 Bft) W-SW 239 ° 0 min 0,000 mm 0,0 UV-I 0 W/m² -0,3 °C 2,6 °C 4,8 km/h (1 Bft)
20.02.2017 03:44 2,6 °C 2,6 °C 81 % 1023,4 hPa 0,0 mm 3,1 km/h (1 Bft) W-SW 238 ° 0 min 0,000 mm 0,0 UV-I 0 W/m² -0,3 °C 2,6 °C 4,8 km/h (1 Bft)
20.02.2017 03:45 2,6 °C 2,6 °C 82 % 1023,5 hPa 0,0 mm 3,1 km/h (1 Bft) SW 234 ° 0 min 0,000 mm 0,0 UV-I 0 W/m² -0,2 °C 2,6 °C 4,8 km/h (1 Bft)
20.02.2017 03:46 2,6 °C 2,6 °C 82 % 1023,4 hPa 0,0 mm 3,0 km/h (1 Bft) SW 225 ° 0 min 0,000 mm 0,0 UV-I 0 W/m² -0,2 °C 2,6 °C 8,0 km/h (2 Bft)
20.02.2017 03:47 2,6 °C 2,6 °C 82 % 1023,4 hPa 0,0 mm 4,9 km/h (1 Bft) SW 215 ° 0 min 0,000 mm 0,0 UV-I 0 W/m² -0,2 °C 1,4 °C 9,7 km/h (2 Bft)
20.02.2017 03:48 2,6 °C 2,6 °C 82 % 1023,4 hPa 0,0 mm 4,2 km/h (1 Bft) S-SW 198 ° 0 min 0,000 mm 0,0 UV-I 0 W/m² -0,2 °C 2,6 °C 8,0 km/h (2 Bft)
20.02.2017 03:49 2,6 °C 2,6 °C 82 % 1023,4 hPa 0,0 mm 6,7 km/h (2 Bft) W-SW 239 ° 0 min 0,000 mm 0,0 UV-I 0 W/m² -0,2 °C 0,7 °C 11,3 km/h (2 Bft)
20.02.2017 03:50 2,6 °C 2,6 °C 82 % 1023,4 hPa 0,0 mm 3,4 km/h (1 Bft) W-SW 239 ° 0 min 0,000 mm 0,0 UV-I 0 W/m² -0,2 °C 2,6 °C 4,8 km/h (1 Bft)
20.02.2017 03:51 2,6 °C 2,6 °C 82 % 1023,4 hPa 0,0 mm 6,0 km/h (2 Bft) W-SW 252 ° 0 min 0,000 mm 0,0 UV-I 0 W/m² -0,2 °C 1,0 °C 11,3 km/h (2 Bft)
20.02.2017 03:52 2,6 °C 2,6 °C 82 % 1023,4 hPa 0,0 mm 5,9 km/h (2 Bft) W-SW 238 ° 0 min 0,000 mm 0,0 UV-I 0 W/m² -0,2 °C 1,0 °C 11,3 km/h (2 Bft)
20.02.2017 03:53 2,5 °C 2,6 °C 82 % 1023,5 hPa 0,0 mm 4,8 km/h (1 Bft) NW 305 ° 0 min 0,000 mm 0,0 UV-I 0 W/m² -0,3 °C 1,3 °C 6,4 km/h (2 Bft)
20.02.2017 03:54 2,5 °C 2,5 °C 82 % 1023,5 hPa 0,0 mm 8,8 km/h (2 Bft) W-SW 242 ° 0 min 0,000 mm 0,0 UV-I 0 W/m² -0,3 °C -0,0 °C 14,5 km/h (3 Bft)
20.02.2017 03:55 2,4 °C 2,5 °C 82 % 1023,5 hPa 0,0 mm 9,9 km/h (2 Bft) W-SW 256 ° 0 min 0,000 mm 0,0 UV-I 0 W/m² -0,4 °C -0,4 °C 12,9 km/h (3 Bft)
20.02.2017 03:56 2,4 °C 2,4 °C 82 % 1023,5 hPa 0,0 mm 4,7 km/h (1 Bft) W-SW 250 ° 0 min 0,000 mm 0,0 UV-I 0 W/m² -0,4 °C 1,3 °C 9,7 km/h (2 Bft)
20.02.2017 03:57 2,4 °C 2,4 °C 82 % 1023,5 hPa 0,0 mm 6,7 km/h (2 Bft) W-SW 254 ° 0 min 0,000 mm 0,0 UV-I 0 W/m² -0,4 °C 0,5 °C 11,3 km/h (2 Bft)
20.02.2017 03:58 2,4 °C 2,4 °C 82 % 1023,5 hPa 0,0 mm 7,2 km/h (2 Bft) W-SW 256 ° 0 min 0,000 mm 0,0 UV-I 0 W/m² -0,4 °C 0,3 °C 11,3 km/h (2 Bft)
20.02.2017 03:59 2,4 °C 2,4 °C 82 % 1023,5 hPa 0,0 mm 7,2 km/h (2 Bft) W 267 ° 0 min 0,000 mm 0,0 UV-I 0 W/m² -0,4 °C 0,3 °C 11,3 km/h (2 Bft)
20.02.2017 04:00 2,4 °C 2,4 °C 82 % 1023,5 hPa 0,0 mm 8,1 km/h (2 Bft) W 272 ° 0 min 0,026 mm 0,0 UV-I 0 W/m² -0,4 °C 0,1 °C 14,5 km/h (3 Bft)
20.02.2017 04:01 2,4 °C 2,4 °C 82 % 1023,5 hPa 0,0 mm 10,5 km/h (2 Bft) W-SW 249 ° 0 min 0,000 mm 0,0 UV-I 0 W/m² -0,4 °C -0,6 °C 12,9 km/h (3 Bft)
20.02.2017 04:02 2,4 °C 2,4 °C 82 % 1023,5 hPa 0,0 mm 5,8 km/h (2 Bft) W-SW 249 ° 0 min 0,000 mm 0,0 UV-I 0 W/m² -0,4 °C 0,8 °C 8,0 km/h (2 Bft)
20.02.2017 04:03 2,4 °C 2,4 °C 82 % 1023,5 hPa 0,0 mm 8,4 km/h (2 Bft) W 260 ° 0 min 0,000 mm 0,0 UV-I 0 W/m² -0,4 °C -0,0 °C 11,3 km/h (2 Bft)
20.02.2017 04:04 2,4 °C 2,4 °C 82 % 1023,4 hPa 0,0 mm 12,5 km/h (3 Bft) W-SW 251 ° 0 min 0,000 mm 0,0 UV-I 0 W/m² -0,4 °C -1,0 °C 17,7 km/h (3 Bft)
20.02.2017 04:05 2,4 °C 2,4 °C 82 % 1023,5 hPa 0,0 mm 14,3 km/h (3 Bft) W 273 ° 0 min 0,000 mm 0,0 UV-I 0 W/m² -0,4 °C -1,3 °C 19,3 km/h (3 Bft)
20.02.2017 04:06 2,4 °C 2,4 °C 82 % 1023,5 hPa 0,0 mm 13,2 km/h (3 Bft) W-SW 257 ° 0 min 0,000 mm 0,0 UV-I 0 W/m² -0,4 °C -1,1 °C 17,7 km/h (3 Bft)
20.02.2017 04:07 2,4 °C 2,4 °C 82 % 1023,4 hPa 0,0 mm 11,4 km/h (2 Bft) W 264 ° 0 min 0,000 mm 0,0 UV-I 0 W/m² -0,4 °C -0,8 °C 16,1 km/h (3 Bft)
20.02.2017 04:08 2,4 °C 2,4 °C 83 % 1023,5 hPa 0,0 mm 6,6 km/h (2 Bft) SW 231 ° 0 min 0,000 mm 0,0 UV-I 0 W/m² -0,2 °C 0,5 °C 9,7 km/h (2 Bft)
20.02.2017 04:09 2,4 °C 2,4 °C 82 % 1023,5 hPa 0,0 mm 7,6 km/h (2 Bft) W-SW 257 ° 0 min 0,000 mm 0,0 UV-I 0 W/m² -0,4 °C 0,2 °C 12,9 km/h (3 Bft)
20.02.2017 04:10 2,4 °C 2,4 °C 82 % 1023,4 hPa 0,0 mm 9,6 km/h (2 Bft) W 261 ° 0 min 0,000 mm 0,0 UV-I 0 W/m² -0,4 °C -0,3 °C 12,9 km/h (3 Bft)
20.02.2017 04:11 2,4 °C 2,4 °C 82 % 1023,5 hPa 0,0 mm 8,4 km/h (2 Bft) W-SW 255 ° 0 min 0,000 mm 0,0 UV-I 0 W/m² -0,4 °C -0,0 °C 14,5 km/h (3 Bft)
20.02.2017 04:12 2,4 °C 2,4 °C 82 % 1023,5 hPa 0,0 mm 13,0 km/h (3 Bft) W 259 ° 0 min 0,000 mm 0,0 UV-I 0 W/m² -0,4 °C -1,1 °C 17,7 km/h (3 Bft)
20.02.2017 04:13 2,4 °C 2,4 °C 83 % 1023,5 hPa 0,0 mm 10,5 km/h (2 Bft) W-NW 285 ° 0 min 0,000 mm 0,0 UV-I 0 W/m² -0,2 °C -0,6 °C 14,5 km/h (3 Bft)
20.02.2017 04:14 2,4 °C 2,4 °C 82 % 1023,5 hPa 0,0 mm 8,9 km/h (2 Bft) W 261 ° 0 min 0,000 mm 0,0 UV-I 0 W/m² -0,4 °C -0,2 °C 14,5 km/h (3 Bft)
20.02.2017 04:15 2,4 °C 2,4 °C 82 % 1023,5 hPa 0,0 mm 13,3 km/h (3 Bft) W-SW 243 ° 0 min 0,000 mm 0,0 UV-I 0 W/m² -0,4 °C -1,2 °C 17,7 km/h (3 Bft)
20.02.2017 04:16 2,4 °C 2,4 °C 82 % 1023,5 hPa 0,0 mm 11,9 km/h (2 Bft) W 267 ° 0 min 0,000 mm 0,0 UV-I 0 W/m² -0,4 °C -0,9 °C 17,7 km/h (3 Bft)
20.02.2017 04:17 2,4 °C 2,4 °C 82 % 1023,5 hPa 0,0 mm 13,0 km/h (3 Bft) W-SW 252 ° 0 min 0,000 mm 0,0 UV-I 0 W/m² -0,4 °C -1,1 °C 16,1 km/h (3 Bft)
20.02.2017 04:18 2,4 °C 2,4 °C 83 % 1023,5 hPa 0,0 mm 11,9 km/h (2 Bft) W 267 ° 0 min 0,000 mm 0,0 UV-I 0 W/m² -0,2 °C -0,9 °C 16,1 km/h (3 Bft)
20.02.2017 04:19 2,4 °C 2,4 °C 83 % 1023,4 hPa 0,0 mm 11,3 km/h (2 Bft) W 259 ° 0 min 0,000 mm 0,0 UV-I 0 W/m² -0,2 °C -0,7 °C 16,1 km/h (3 Bft)
20.02.2017 04:20 2,4 °C 2,4 °C 83 % 1023,4 hPa 0,0 mm 6,5 km/h (2 Bft) W-SW 244 ° 0 min 0,000 mm 0,0 UV-I 0 W/m² -0,2 °C 0,6 °C 9,7 km/h (2 Bft)
20.02.2017 04:21 2,4 °C 2,4 °C 83 % 1023,5 hPa 0,0 mm 10,7 km/h (2 Bft) W-SW 257 ° 0 min 0,000 mm 0,0 UV-I 0 W/m² -0,2 °C -0,6 °C 14,5 km/h (3 Bft)
20.02.2017 04:22 2,4 °C 2,4 °C 83 % 1023,5 hPa 0,0 mm 7,5 km/h (2 Bft) W-SW 250 ° 0 min 0,000 mm 0,0 UV-I 0 W/m² -0,2 °C 0,2 °C 12,9 km/h (3 Bft)
20.02.2017 04:23 2,4 °C 2,4 °C 83 % 1023,5 hPa 0,0 mm 6,6 km/h (2 Bft) W-SW 246 ° 0 min 0,000 mm 0,0 UV-I 0 W/m² -0,2 °C 0,5 °C 9,7 km/h (2 Bft)
20.02.2017 04:24 2,4 °C 2,4 °C 83 % 1023,4 hPa 0,0 mm 11,1 km/h (2 Bft) W-SW 251 ° 0 min 0,000 mm 0,0 UV-I 0 W/m² -0,2 °C -0,7 °C 14,5 km/h (3 Bft)
20.02.2017 04:25 2,4 °C 2,4 °C 83 % 1023,4 hPa 0,0 mm 6,7 km/h (2 Bft) W 263 ° 0 min 0,000 mm 0,0 UV-I 0 W/m² -0,2 °C 0,5 °C 11,3 km/h (2 Bft)
20.02.2017 04:26 2,4 °C 2,4 °C 83 % 1023,4 hPa 0,0 mm 8,3 km/h (2 Bft) W-SW 251 ° 0 min 0,000 mm 0,0 UV-I 0 W/m² -0,2 °C -0,0 °C 11,3 km/h (2 Bft)
20.02.2017 04:27 2,4 °C 2,4 °C 83 % 1023,5 hPa 0,0 mm 7,0 km/h (2 Bft) W-SW 249 ° 0 min 0,000 mm 0,0 UV-I 0 W/m² -0,2 °C 0,4 °C 11,3 km/h (2 Bft)
20.02.2017 04:28 2,4 °C 2,4 °C 83 % 1023,5 hPa 0,0 mm 7,8 km/h (2 Bft) W-SW 244 ° 0 min 0,000 mm 0,0 UV-I 0 W/m² -0,2 °C 0,1 °C 12,9 km/h (3 Bft)
20.02.2017 04:29 2,4 °C 2,4 °C 83 % 1023,4 hPa 0,0 mm 10,0 km/h (2 Bft) SW 235 ° 0 min 0,000 mm 0,0 UV-I 0 W/m² -0,2 °C -0,4 °C 16,1 km/h (3 Bft)
20.02.2017 04:30 2,4 °C 2,4 °C 83 % 1023,5 hPa 0,0 mm 11,6 km/h (2 Bft) W-SW 252 ° 0 min 0,000 mm 0,0 UV-I 0 W/m² -0,2 °C -0,8 °C 14,5 km/h (3 Bft)
20.02.2017 04:31 2,4 °C 2,4 °C 83 % 1023,6 hPa 0,0 mm 11,0 km/h (2 Bft) W-SW 256 ° 0 min 0,000 mm 0,0 UV-I 0 W/m² -0,2 °C -0,7 °C 12,9 km/h (3 Bft)
20.02.2017 04:32 2,4 °C 2,4 °C 83 % 1023,5 hPa 0,0 mm 6,3 km/h (2 Bft) W-SW 251 ° 0 min 0,000 mm 0,0 UV-I 0 W/m² -0,2 °C 0,6 °C 11,3 km/h (2 Bft)
20.02.2017 04:33 2,4 °C 2,4 °C 83 % 1023,5 hPa 0,0 mm 5,6 km/h (1 Bft) W-SW 244 ° 0 min 0,000 mm 0,0 UV-I 0 W/m² -0,2 °C 0,9 °C 8,0 km/h (2 Bft)
20.02.2017 04:34 2,3 °C 2,4 °C 83 % 1023,5 hPa 0,0 mm 5,3 km/h (1 Bft) SW 225 ° 0 min 0,000 mm 0,0 UV-I 0 W/m² -0,3 °C 0,9 °C 11,3 km/h (2 Bft)
20.02.2017 04:35 2,3 °C 2,4 °C 83 % 1023,6 hPa 0,0 mm 8,9 km/h (2 Bft) W-SW 240 ° 0 min 0,000 mm 0,0 UV-I 0 W/m² -0,3 °C -0,3 °C 11,3 km/h (2 Bft)
20.02.2017 04:36 2,3 °C 2,3 °C 83 % 1023,6 hPa 0,0 mm 5,7 km/h (1 Bft) W-SW 249 ° 0 min 0,000 mm 0,0 UV-I 0 W/m² -0,3 °C 0,7 °C 8,0 km/h (2 Bft)
20.02.2017 04:37 2,3 °C 2,3 °C 83 % 1023,5 hPa 0,0 mm 7,5 km/h (2 Bft) W-SW 255 ° 0 min 0,000 mm 0,0 UV-I 0 W/m² -0,3 °C 0,1 °C 12,9 km/h (3 Bft)
20.02.2017 04:38 2,3 °C 2,3 °C 83 % 1023,6 hPa 0,0 mm 4,6 km/h (1 Bft) SW 236 ° 0 min 0,000 mm 0,0 UV-I 0 W/m² -0,3 °C 1,2 °C 6,4 km/h (2 Bft)
20.02.2017 04:39 2,3 °C 2,3 °C 83 % 1023,6 hPa 0,0 mm 8,1 km/h (2 Bft) W-SW 240 ° 0 min 0,000 mm 0,0 UV-I 0 W/m² -0,3 °C -0,1 °C 12,9 km/h (3 Bft)
20.02.2017 04:40 2,3 °C 2,3 °C 83 % 1023,5 hPa 0,0 mm 5,4 km/h (1 Bft) W-SW 258 ° 0 min 0,000 mm 0,0 UV-I 0 W/m² -0,3 °C 0,9 °C 8,0 km/h (2 Bft)
20.02.2017 04:41 2,3 °C 2,3 °C 83 % 1023,6 hPa 0,0 mm 9,0 km/h (2 Bft) W 261 ° 0 min 0,000 mm 0,0 UV-I 0 W/m² -0,3 °C -0,3 °C 16,1 km/h (3 Bft)
20.02.2017 04:42 2,3 °C 2,3 °C 83 % 1023,5 hPa 0,0 mm 9,7 km/h (2 Bft) W-SW 257 ° 0 min 0,000 mm 0,0 UV-I 0 W/m² -0,3 °C -0,5 °C 17,7 km/h (3 Bft)
20.02.2017 04:43 2,3 °C 2,3 °C 83 % 1023,6 hPa 0,0 mm 8,2 km/h (2 Bft) W 260 ° 0 min 0,000 mm 0,0 UV-I 0 W/m² -0,3 °C -0,1 °C 12,9 km/h (3 Bft)
20.02.2017 04:44 2,3 °C 2,3 °C 83 % 1023,5 hPa 0,0 mm 8,4 km/h (2 Bft) W-SW 255 ° 0 min 0,000 mm 0,0 UV-I 0 W/m² -0,3 °C -0,2 °C 14,5 km/h (3 Bft)
20.02.2017 04:45 2,3 °C 2,3 °C 83 % 1023,5 hPa 0,0 mm 7,0 km/h (2 Bft) W-SW 245 ° 0 min 0,000 mm 0,0 UV-I 0 W/m² -0,3 °C 0,3 °C 11,3 km/h (2 Bft)
20.02.2017 04:46 2,3 °C 2,3 °C 83 % 1023,6 hPa 0,0 mm 6,8 km/h (2 Bft) SW 221 ° 0 min 0,000 mm 0,0 UV-I 0 W/m² -0,3 °C 0,3 °C 11,3 km/h (2 Bft)
20.02.2017 04:47 2,3 °C 2,4 °C 83 % 1023,5 hPa 0,0 mm 9,7 km/h (2 Bft) W 259 ° 0 min 0,000 mm 0,0 UV-I 0 W/m² -0,3 °C -0,5 °C 12,9 km/h (3 Bft)
20.02.2017 04:48 2,4 °C 2,4 °C 83 % 1023,6 hPa 0,0 mm 5,4 km/h (1 Bft) W 265 ° 0 min 0,000 mm 0,0 UV-I 0 W/m² -0,2 °C 1,0 °C 9,7 km/h (2 Bft)
20.02.2017 04:49 2,4 °C 2,4 °C 83 % 1023,6 hPa 0,0 mm 7,9 km/h (2 Bft) W-SW 246 ° 0 min 0,000 mm 0,0 UV-I 0 W/m² -0,2 °C 0,1 °C 11,3 km/h (2 Bft)
20.02.2017 04:50 2,4 °C 2,4 °C 83 % 1023,6 hPa 0,0 mm 7,4 km/h (2 Bft) W-SW 257 ° 0 min 0,000 mm 0,0 UV-I 0 W/m² -0,2 °C 0,3 °C 12,9 km/h (3 Bft)
20.02.2017 04:51 2,4 °C 2,4 °C 83 % 1023,5 hPa 0,0 mm 10,8 km/h (2 Bft) W 263 ° 0 min 0,000 mm 0,0 UV-I 0 W/m² -0,2 °C -0,6 °C 14,5 km/h (3 Bft)
20.02.2017 04:52 2,4 °C 2,4 °C 83 % 1023,6 hPa 0,0 mm 8,0 km/h (2 Bft) W-SW 253 ° 0 min 0,000 mm 0,0 UV-I 0 W/m² -0,2 °C 0,1 °C 11,3 km/h (2 Bft)
20.02.2017 04:53 2,4 °C 2,4 °C 83 % 1023,5 hPa 0,0 mm 9,2 km/h (2 Bft) W-SW 250 ° 0 min 0,000 mm 0,0 UV-I 0 W/m² -0,2 °C -0,2 °C 14,5 km/h (3 Bft)
20.02.2017 04:54 2,4 °C 2,4 °C 83 % 1023,6 hPa 0,0 mm 10,4 km/h (2 Bft) W-SW 240 ° 0 min 0,000 mm 0,0 UV-I 0 W/m² -0,2 °C -0,5 °C 12,9 km/h (3 Bft)
20.02.2017 04:55 2,4 °C 2,4 °C 83 % 1023,5 hPa 0,0 mm 8,5 km/h (2 Bft) W 260 ° 0 min 0,000 mm 0,0 UV-I 0 W/m² -0,2 °C -0,1 °C 12,9 km/h (3 Bft)
20.02.2017 04:56 2,3 °C 2,4 °C 83 % 1023,6 hPa 0,0 mm 8,6 km/h (2 Bft) W-SW 240 ° 0 min 0,000 mm 0,0 UV-I 0 W/m² -0,3 °C -0,2 °C 12,9 km/h (3 Bft)
20.02.2017 04:57 2,4 °C 2,4 °C 83 % 1023,6 hPa 0,0 mm 9,1 km/h (2 Bft) W-SW 254 ° 0 min 0,000 mm 0,0 UV-I 0 W/m² -0,2 °C -0,2 °C 12,9 km/h (3 Bft)
20.02.2017 04:58 2,4 °C 2,4 °C 83 % 1023,6 hPa 0,0 mm 9,2 km/h (2 Bft) W-SW 244 ° 0 min 0,000 mm 0,0 UV-I 0 W/m² -0,2 °C -0,2 °C 11,3 km/h (2 Bft)
20.02.2017 04:59 2,4 °C 2,4 °C 82 % 1023,6 hPa 0,0 mm 10,2 km/h (2 Bft) W-SW 254 ° 0 min 0,000 mm 0,0 UV-I 0 W/m² -0,4 °C -0,5 °C 14,5 km/h (3 Bft)
20.02.2017 05:00 2,4 °C 2,4 °C 83 % 1023,6 hPa 0,0 mm 9,9 km/h (2 Bft) W-SW 246 ° 0 min 0,000 mm 0,0 UV-I 0 W/m² -0,2 °C -0,4 °C 17,7 km/h (3 Bft)
20.02.2017 05:01 2,4 °C 2,4 °C 83 % 1023,6 hPa 0,0 mm 12,9 km/h (3 Bft) W-SW 240 ° 0 min 0,025 mm 0,0 UV-I 0 W/m² -0,2 °C -1,1 °C 16,1 km/h (3 Bft)
20.02.2017 05:02 2,4 °C 2,4 °C 82 % 1023,6 hPa 0,0 mm 7,6 km/h (2 Bft) W-SW 253 ° 0 min 0,000 mm 0,0 UV-I 0 W/m² -0,4 °C 0,2 °C 11,3 km/h (2 Bft)
20.02.2017 05:03 2,4 °C 2,4 °C 83 % 1023,6 hPa 0,0 mm 11,9 km/h (2 Bft) SW 234 ° 0 min 0,000 mm 0,0 UV-I 0 W/m² -0,2 °C -0,9 °C 19,3 km/h (3 Bft)
20.02.2017 05:04 2,4 °C 2,4 °C 83 % 1023,6 hPa 0,0 mm 14,3 km/h (3 Bft) W-SW 237 ° 0 min 0,000 mm 0,0 UV-I 0 W/m² -0,2 °C -1,3 °C 17,7 km/h (3 Bft)
20.02.2017 05:05 2,4 °C 2,4 °C 82 % 1023,6 hPa 0,0 mm 12,1 km/h (2 Bft) W-SW 257 ° 0 min 0,000 mm 0,0 UV-I 0 W/m² -0,4 °C -0,9 °C 16,1 km/h (3 Bft)
20.02.2017 05:06 2,4 °C 2,4 °C 83 % 1023,6 hPa 0,0 mm 10,5 km/h (2 Bft) W-SW 250 ° 0 min 0,000 mm 0,0 UV-I 0 W/m² -0,2 °C -0,6 °C 12,9 km/h (3 Bft)
20.02.2017 05:07 2,4 °C 2,4 °C 83 % 1023,6 hPa 0,0 mm 10,1 km/h (2 Bft) W-SW 257 ° 0 min 0,000 mm 0,0 UV-I 0 W/m² -0,2 °C -0,5 °C 12,9 km/h (3 Bft)
20.02.2017 05:08 2,4 °C 2,4 °C 83 % 1023,6 hPa 0,0 mm 11,9 km/h (2 Bft) W-SW 244 ° 0 min 0,000 mm 0,0 UV-I 0 W/m² -0,2 °C -0,9 °C 16,1 km/h (3 Bft)
20.02.2017 05:09 2,4 °C 2,4 °C 83 % 1023,6 hPa 0,0 mm 11,7 km/h (2 Bft) W-SW 247 ° 0 min 0,000 mm 0,0 UV-I 0 W/m² -0,2 °C -0,8 °C 16,1 km/h (3 Bft)
20.02.2017 05:10 2,4 °C 2,4 °C 83 % 1023,6 hPa 0,0 mm 8,8 km/h (2 Bft) W 265 ° 0 min 0,000 mm 0,0 UV-I 0 W/m² -0,2 °C -0,1 °C 12,9 km/h (3 Bft)
20.02.2017 05:11 2,4 °C 2,4 °C 83 % 1023,6 hPa 0,0 mm 6,1 km/h (2 Bft) W 261 ° 0 min 0,000 mm 0,0 UV-I 0 W/m² -0,2 °C 0,7 °C 11,3 km/h (2 Bft)
20.02.2017 05:12 2,4 °C 2,4 °C 83 % 1023,6 hPa 0,0 mm 5,9 km/h (2 Bft) W 261 ° 0 min 0,000 mm 0,0 UV-I 0 W/m² -0,2 °C 0,8 °C 9,7 km/h (2 Bft)
20.02.2017 05:13 2,4 °C 2,4 °C 83 % 1023,6 hPa 0,0 mm 8,2 km/h (2 Bft) W-SW 250 ° 0 min 0,000 mm 0,0 UV-I 0 W/m² -0,2 °C 0,0 °C 12,9 km/h (3 Bft)
20.02.2017 05:14 2,4 °C 2,4 °C 83 % 1023,6 hPa 0,0 mm 10,8 km/h (2 Bft) W-SW 253 ° 0 min 0,000 mm 0,0 UV-I 0 W/m² -0,2 °C -0,6 °C 12,9 km/h (3 Bft)
20.02.2017 05:15 2,4 °C 2,4 °C 83 % 1023,5 hPa 0,0 mm 8,1 km/h (2 Bft) W-SW 239 ° 0 min 0,000 mm 0,0 UV-I 0 W/m² -0,2 °C 0,1 °C 11,3 km/h (2 Bft)
20.02.2017 05:16 2,4 °C 2,4 °C 83 % 1023,6 hPa 0,0 mm 12,6 km/h (3 Bft) W-SW 249 ° 0 min 0,000 mm 0,0 UV-I 0 W/m² -0,2 °C -1,0 °C 14,5 km/h (3 Bft)
20.02.2017 05:17 2,4 °C 2,4 °C 83 % 1023,6 hPa 0,0 mm 10,4 km/h (2 Bft) W-SW 255 ° 0 min 0,000 mm 0,0 UV-I 0 W/m² -0,2 °C -0,5 °C 14,5 km/h (3 Bft)
20.02.2017 05:18 2,4 °C 2,4 °C 83 % 1023,6 hPa 0,0 mm 10,7 km/h (2 Bft) W-SW 254 ° 0 min 0,000 mm 0,0 UV-I 0 W/m² -0,2 °C -0,6 °C 12,9 km/h (3 Bft)
20.02.2017 05:19 2,4 °C 2,4 °C 83 % 1023,6 hPa 0,0 mm 10,5 km/h (2 Bft) W-SW 250 ° 0 min 0,000 mm 0,0 UV-I 0 W/m² -0,2 °C -0,6 °C 14,5 km/h (3 Bft)
20.02.2017 05:20 2,4 °C 2,4 °C 83 % 1023,6 hPa 0,0 mm 8,0 km/h (2 Bft) SW 236 ° 0 min 0,000 mm 0,0 UV-I 0 W/m² -0,2 °C 0,1 °C 12,9 km/h (3 Bft)
20.02.2017 05:21 2,4 °C 2,4 °C 83 % 1023,6 hPa 0,0 mm 5,6 km/h (1 Bft) W-SW 241 ° 0 min 0,000 mm 0,0 UV-I 0 W/m² -0,2 °C 0,9 °C 8,0 km/h (2 Bft)
20.02.2017 05:22 2,4 °C 2,4 °C 83 % 1023,6 hPa 0,0 mm 5,7 km/h (1 Bft) SW 232 ° 0 min 0,000 mm 0,0 UV-I 0 W/m² -0,2 °C 0,8 °C 8,0 km/h (2 Bft)
20.02.2017 05:23 2,4 °C 2,4 °C 83 % 1023,6 hPa 0,0 mm 7,8 km/h (2 Bft) W-SW 247 ° 0 min 0,000 mm 0,0 UV-I 0 W/m² -0,2 °C 0,1 °C 14,5 km/h (3 Bft)
20.02.2017 05:24 2,4 °C 2,4 °C 83 % 1023,6 hPa 0,0 mm 9,1 km/h (2 Bft) SW 236 ° 0 min 0,000 mm 0,0 UV-I 0 W/m² -0,2 °C -0,2 °C 12,9 km/h (3 Bft)
20.02.2017 05:25 2,4 °C 2,4 °C 83 % 1023,6 hPa 0,0 mm 7,0 km/h (2 Bft) S-SW 211 ° 0 min 0,000 mm 0,0 UV-I 0 W/m² -0,2 °C 0,4 °C 9,7 km/h (2 Bft)
20.02.2017 05:26 2,4 °C 2,4 °C 83 % 1023,5 hPa 0,0 mm 5,7 km/h (1 Bft) SW 214 ° 0 min 0,000 mm 0,0 UV-I 0 W/m² -0,2 °C 0,8 °C 11,3 km/h (2 Bft)
20.02.2017 05:27 2,4 °C 2,4 °C 83 % 1023,5 hPa 0,0 mm 4,7 km/h (1 Bft) W-SW 242 ° 0 min 0,000 mm 0,0 UV-I 0 W/m² -0,2 °C 1,3 °C 6,4 km/h (2 Bft)
20.02.2017 05:28 2,5 °C 2,5 °C 82 % 1023,5 hPa 0,0 mm 5,8 km/h (2 Bft) SW 220 ° 0 min 0,000 mm 0,0 UV-I 0 W/m² -0,3 °C 0,9 °C 11,3 km/h (2 Bft)
20.02.2017 05:29 2,5 °C 2,5 °C 83 % 1023,6 hPa 0,0 mm 6,3 km/h (2 Bft) S 180 ° 0 min 0,000 mm 0,0 UV-I 0 W/m² -0,1 °C 0,7 °C 9,7 km/h (2 Bft)
20.02.2017 05:30 2,6 °C 2,6 °C 82 % 1023,6 hPa 0,0 mm 8,0 km/h (2 Bft) SW 225 ° 0 min 0,000 mm 0,0 UV-I 0 W/m² -0,2 °C 0,3 °C 14,5 km/h (3 Bft)
20.02.2017 05:31 2,6 °C 2,6 °C 82 % 1023,5 hPa 0,0 mm 8,0 km/h (2 Bft) SW 225 ° 0 min 0,000 mm 0,0 UV-I 0 W/m² -0,2 °C 0,3 °C 11,3 km/h (2 Bft)
20.02.2017 05:32 2,6 °C 2,6 °C 82 % 1023,6 hPa 0,0 mm 9,7 km/h (2 Bft) W-SW 247 ° 0 min 0,000 mm 0,0 UV-I 0 W/m² -0,2 °C -0,1 °C 12,9 km/h (3 Bft)
20.02.2017 05:33 2,6 °C 2,6 °C 82 % 1023,6 hPa 0,0 mm 8,0 km/h (2 Bft) SW 225 ° 0 min 0,000 mm 0,0 UV-I 0 W/m² -0,2 °C 0,3 °C 14,5 km/h (3 Bft)
20.02.2017 05:34 2,5 °C 2,6 °C 82 % 1023,6 hPa 0,0 mm 9,7 km/h (2 Bft) W-SW 247 ° 0 min 0,000 mm 0,0 UV-I 0 W/m² -0,3 °C -0,3 °C 16,1 km/h (3 Bft)
20.02.2017 05:35 2,6 °C 2,6 °C 82 % 1023,5 hPa 0,0 mm 11,3 km/h (2 Bft) W-SW 247 ° 0 min 0,000 mm 0,0 UV-I 0 W/m² -0,2 °C -0,5 °C 16,1 km/h (3 Bft)
20.02.2017 05:36 2,6 °C 2,6 °C 82 % 1023,6 hPa 0,0 mm 6,4 km/h (2 Bft) W-SW 247 ° 0 min 0,000 mm 0,0 UV-I 0 W/m² -0,2 °C 0,8 °C 9,7 km/h (2 Bft)
20.02.2017 05:37 2,5 °C 2,6 °C 82 % 1023,6 hPa 0,0 mm 4,8 km/h (1 Bft) SW 225 ° 0 min 0,000 mm 0,0 UV-I 0 W/m² -0,3 °C 1,3 °C 8,0 km/h (2 Bft)
20.02.2017 05:38 2,5 °C 2,6 °C 82 % 1023,6 hPa 0,0 mm 8,0 km/h (2 Bft) S-SW 202 ° 0 min 0,000 mm 0,0 UV-I 0 W/m² -0,3 °C 0,2 °C 16,1 km/h (3 Bft)
20.02.2017 05:39 2,5 °C 2,6 °C 82 % 1023,6 hPa 0,0 mm 6,4 km/h (2 Bft) SW 225 ° 0 min 0,000 mm 0,0 UV-I 0 W/m² -0,3 °C 0,7 °C 12,9 km/h (3 Bft)
20.02.2017 05:40 2,6 °C 2,6 °C 82 % 1023,6 hPa 0,0 mm 8,0 km/h (2 Bft) W-SW 247 ° 0 min 0,000 mm 0,0 UV-I 0 W/m² -0,2 °C 0,3 °C 12,9 km/h (3 Bft)
20.02.2017 05:41 2,5 °C 2,6 °C 82 % 1023,6 hPa 0,0 mm 8,0 km/h (2 Bft) W-SW 247 ° 0 min 0,000 mm 0,0 UV-I 0 W/m² -0,3 °C 0,2 °C 12,9 km/h (3 Bft)
20.02.2017 05:42 2,5 °C 2,5 °C 82 % 1023,6 hPa 0,0 mm 6,4 km/h (2 Bft) W-SW 247 ° 0 min 0,000 mm 0,0 UV-I 0 W/m² -0,3 °C 0,7 °C 12,9 km/h (3 Bft)
20.02.2017 05:43 2,5 °C 2,6 °C 82 % 1023,6 hPa 0,0 mm 9,7 km/h (2 Bft) SW 225 ° 0 min 0,000 mm 0,0 UV-I 0 W/m² -0,3 °C -0,3 °C 16,1 km/h (3 Bft)
20.02.2017 05:44 2,5 °C 2,5 °C 82 % 1023,6 hPa 0,0 mm 8,0 km/h (2 Bft) W-SW 247 ° 0 min 0,000 mm 0,0 UV-I 0 W/m² -0,3 °C 0,2 °C 12,9 km/h (3 Bft)
20.02.2017 05:45 2,4 °C 2,5 °C 83 % 1023,6 hPa 0,0 mm 6,4 km/h (2 Bft) SW 225 ° 0 min 0,000 mm 0,0 UV-I 0 W/m² -0,2 °C 0,6 °C 11,3 km/h (2 Bft)
20.02.2017 05:46 2,4 °C 2,5 °C 83 % 1023,6 hPa 0,0 mm 8,0 km/h (2 Bft) W-SW 247 ° 0 min 0,000 mm 0,0 UV-I 0 W/m² -0,2 °C 0,1 °C 16,1 km/h (3 Bft)
20.02.2017 05:47 2,5 °C 2,5 °C 83 % 1023,6 hPa 0,0 mm 9,7 km/h (2 Bft) W-SW 247 ° 0 min 0,000 mm 0,0 UV-I 0 W/m² -0,1 °C -0,3 °C 14,5 km/h (3 Bft)
20.02.2017 05:48 2,4 °C 2,5 °C 83 % 1023,6 hPa 0,0 mm 4,8 km/h (1 Bft) W-SW 247 ° 0 min 0,000 mm 0,0 UV-I 0 W/m² -0,2 °C 1,2 °C 6,4 km/h (2 Bft)
20.02.2017 05:49 2,4 °C 2,4 °C 83 % 1023,7 hPa 0,0 mm 6,4 km/h (2 Bft) SW 225 ° 0 min 0,000 mm 0,0 UV-I 0 W/m² -0,2 °C 0,6 °C 12,9 km/h (3 Bft)
20.02.2017 05:50 2,4 °C 2,4 °C 83 % 1023,7 hPa 0,0 mm 6,4 km/h (2 Bft) W-SW 247 ° 0 min 0,000 mm 0,0 UV-I 0 W/m² -0,2 °C 0,6 °C 8,0 km/h (2 Bft)
20.02.2017 05:51 2,4 °C 2,4 °C 83 % 1023,6 hPa 0,0 mm 6,4 km/h (2 Bft) SW 225 ° 0 min 0,000 mm 0,0 UV-I 0 W/m² -0,2 °C 0,6 °C 9,7 km/h (2 Bft)
20.02.2017 05:52 2,4 °C 2,4 °C 83 % 1023,6 hPa 0,0 mm 9,7 km/h (2 Bft) W-SW 247 ° 0 min 0,000 mm 0,0 UV-I 0 W/m² -0,2 °C -0,4 °C 12,9 km/h (3 Bft)
20.02.2017 05:53 2,4 °C 2,4 °C 83 % 1023,6 hPa 0,0 mm 4,8 km/h (1 Bft) W-SW 247 ° 0 min 0,000 mm 0,0 UV-I 0 W/m² -0,2 °C 1,2 °C 4,8 km/h (1 Bft)
20.02.2017 05:54 2,4 °C 2,4 °C 83 % 1023,6 hPa 0,0 mm 6,4 km/h (2 Bft) W 270 ° 0 min 0,000 mm 0,0 UV-I 0 W/m² -0,2 °C 0,6 °C 11,3 km/h (2 Bft)
20.02.2017 05:55 2,4 °C 2,4 °C 83 % 1023,6 hPa 0,0 mm 4,8 km/h (1 Bft) W-SW 247 ° 0 min 0,000 mm 0,0 UV-I 0 W/m² -0,2 °C 1,2 °C 11,3 km/h (2 Bft)
20.02.2017 05:56 2,4 °C 2,4 °C 83 % 1023,6 hPa 0,0 mm 8,0 km/h (2 Bft) W-SW 247 ° 0 min 0,000 mm 0,0 UV-I 0 W/m² -0,2 °C 0,1 °C 12,9 km/h (3 Bft)
20.02.2017 05:57 2,4 °C 2,4 °C 83 % 1023,6 hPa 0,0 mm 4,8 km/h (1 Bft) W-SW 247 ° 0 min 0,000 mm 0,0 UV-I 0 W/m² -0,2 °C 1,2 °C 6,4 km/h (2 Bft)
20.02.2017 05:58 2,4 °C 2,4 °C 83 % 1023,6 hPa 0,0 mm 6,4 km/h (2 Bft) W-SW 247 ° 0 min 0,000 mm 0,0 UV-I 0 W/m² -0,2 °C 0,6 °C 11,3 km/h (2 Bft)
20.02.2017 05:59 2,4 °C 2,4 °C 83 % 1023,6 hPa 0,0 mm 9,7 km/h (2 Bft) W-SW 247 ° 0 min 0,000 mm 0,0 UV-I 0 W/m² -0,2 °C -0,4 °C 14,5 km/h (3 Bft)
20.02.2017 06:00 2,4 °C 2,4 °C 83 % 1023,6 hPa 0,0 mm 8,0 km/h (2 Bft) W-SW 247 ° 0 min 0,025 mm 0,0 UV-I 0 W/m² -0,2 °C 0,1 °C 11,3 km/h (2 Bft)
20.02.2017 06:01 2,4 °C 2,4 °C 83 % 1023,6 hPa 0,0 mm 8,0 km/h (2 Bft) W-SW 247 ° 0 min 0,000 mm 0,0 UV-I 0 W/m² -0,2 °C 0,1 °C 11,3 km/h (2 Bft)
20.02.2017 06:02 2,3 °C 2,4 °C 83 % 1023,6 hPa 0,0 mm 6,4 km/h (2 Bft) W-SW 247 ° 0 min 0,000 mm 0,0 UV-I 0 W/m² -0,3 °C 0,5 °C 9,7 km/h (2 Bft)
20.02.2017 06:03 2,3 °C 2,3 °C 83 % 1023,6 hPa 0,0 mm 4,8 km/h (1 Bft) W-SW 247 ° 0 min 0,000 mm 0,0 UV-I 0 W/m² -0,3 °C 1,1 °C 8,0 km/h (2 Bft)
20.02.2017 06:04 2,3 °C 2,4 °C 83 % 1023,6 hPa 0,0 mm 4,8 km/h (1 Bft) W-SW 247 ° 0 min 0,000 mm 0,0 UV-I 0 W/m² -0,3 °C 1,1 °C 8,0 km/h (2 Bft)
20.02.2017 06:05 2,3 °C 2,3 °C 83 % 1023,6 hPa 0,0 mm 4,8 km/h (1 Bft) W-SW 247 ° 0 min 0,000 mm 0,0 UV-I 0 W/m² -0,3 °C 1,1 °C 6,4 km/h (2 Bft)
20.02.2017 06:06 2,3 °C 2,3 °C 83 % 1023,5 hPa 0,0 mm 4,8 km/h (1 Bft) W-SW 247 ° 0 min 0,000 mm 0,0 UV-I 0 W/m² -0,3 °C 1,1 °C 6,4 km/h (2 Bft)
20.02.2017 06:07 2,3 °C 2,3 °C 83 % 1023,5 hPa 0,0 mm 4,8 km/h (1 Bft) W-SW 247 ° 0 min 0,000 mm 0,0 UV-I 0 W/m² -0,3 °C 1,1 °C 8,0 km/h (2 Bft)
20.02.2017 06:08 2,3 °C 2,3 °C 83 % 1023,5 hPa 0,0 mm 4,8 km/h (1 Bft) W-SW 247 ° 0 min 0,000 mm 0,0 UV-I 0 W/m² -0,3 °C 1,1 °C 6,4 km/h (2 Bft)
20.02.2017 06:09 2,3 °C 2,3 °C 83 % 1023,5 hPa 0,0 mm 3,2 km/h (1 Bft) W-SW 247 ° 0 min 0,000 mm 0,0 UV-I 0 W/m² -0,3 °C 2,3 °C 4,8 km/h (1 Bft)
20.02.2017 06:10 2,3 °C 2,3 °C 83 % 1023,5 hPa 0,0 mm 3,2 km/h (1 Bft) W-SW 247 ° 0 min 0,000 mm 0,0 UV-I 0 W/m² -0,3 °C 2,3 °C 3,2 km/h (1 Bft)
20.02.2017 06:11 2,3 °C 2,3 °C 83 % 1023,6 hPa 0,0 mm 4,8 km/h (1 Bft) W-SW 247 ° 0 min 0,000 mm 0,0 UV-I 0 W/m² -0,3 °C 1,1 °C 6,4 km/h (2 Bft)
20.02.2017 06:12 2,3 °C 2,3 °C 83 % 1023,6 hPa 0,0 mm 3,2 km/h (1 Bft) W-SW 247 ° 0 min 0,000 mm 0,0 UV-I 0 W/m² -0,3 °C 2,3 °C 3,2 km/h (1 Bft)
20.02.2017 06:13 2,3 °C 2,3 °C 83 % 1023,6 hPa 0,0 mm 3,2 km/h (1 Bft) W-SW 247 ° 0 min 0,000 mm 0,0 UV-I 0 W/m² -0,3 °C 2,3 °C 3,2 km/h (1 Bft)
20.02.2017 06:14 2,3 °C 2,3 °C 83 % 1023,6 hPa 0,0 mm 4,8 km/h (1 Bft) SW 225 ° 0 min 0,000 mm 0,0 UV-I 0 W/m² -0,3 °C 1,1 °C 6,4 km/h (2 Bft)
20.02.2017 06:15 2,3 °C 2,3 °C 83 % 1023,6 hPa 0,0 mm 3,2 km/h (1 Bft) SW 225 ° 0 min 0,000 mm 0,0 UV-I 0 W/m² -0,3 °C 2,3 °C 4,8 km/h (1 Bft)
20.02.2017 06:16 2,4 °C 2,4 °C 82 % 1023,6 hPa 0,0 mm 1,6 km/h (1 Bft) SW 225 ° 0 min 0,000 mm 0,0 UV-I 0 W/m² -0,4 °C 2,4 °C 3,2 km/h (1 Bft)
20.02.2017 06:17 2,4 °C 2,4 °C 82 % 1023,6 hPa 0,0 mm 4,8 km/h (1 Bft) SW 225 ° 0 min 0,000 mm 0,0 UV-I 0 W/m² -0,4 °C 1,2 °C 11,3 km/h (2 Bft)
20.02.2017 06:18 2,4 °C 2,4 °C 82 % 1023,6 hPa 0,0 mm 3,2 km/h (1 Bft) W 270 ° 0 min 0,000 mm 0,0 UV-I 0 W/m² -0,4 °C 2,4 °C 4,8 km/h (1 Bft)
20.02.2017 06:19 2,4 °C 2,4 °C 82 % 1023,6 hPa 0,0 mm 3,2 km/h (1 Bft) W-SW 247 ° 0 min 0,000 mm 0,0 UV-I 0 W/m² -0,4 °C 2,4 °C 4,8 km/h (1 Bft)
20.02.2017 06:20 2,4 °C 2,4 °C 82 % 1023,6 hPa 0,0 mm 4,8 km/h (1 Bft) W-SW 247 ° 0 min 0,000 mm 0,0 UV-I 0 W/m² -0,4 °C 1,2 °C 6,4 km/h (2 Bft)
20.02.2017 06:21 2,4 °C 2,4 °C 82 % 1023,6 hPa 0,0 mm 4,8 km/h (1 Bft) W-SW 247 ° 0 min 0,000 mm 0,0 UV-I 0 W/m² -0,4 °C 1,2 °C 6,4 km/h (2 Bft)
20.02.2017 06:22 2,4 °C 2,4 °C 82 % 1023,6 hPa 0,0 mm 4,8 km/h (1 Bft) W-SW 247 ° 0 min 0,000 mm 0,0 UV-I 0 W/m² -0,4 °C 1,2 °C 6,4 km/h (2 Bft)
20.02.2017 06:23 2,3 °C 2,4 °C 82 % 1023,6 hPa 0,0 mm 4,8 km/h (1 Bft) W-SW 247 ° 0 min 0,000 mm 0,0 UV-I 0 W/m² -0,4 °C 1,1 °C 6,4 km/h (2 Bft)
20.02.2017 06:24 2,3 °C 2,4 °C 82 % 1023,6 hPa 0,0 mm 3,2 km/h (1 Bft) SW 225 ° 0 min 0,000 mm 0,0 UV-I 0 W/m² -0,4 °C 2,3 °C 4,8 km/h (1 Bft)
20.02.2017 06:25 2,4 °C 2,4 °C 82 % 1023,6 hPa 0,0 mm 3,2 km/h (1 Bft) SW 225 ° 0 min 0,000 mm 0,0 UV-I 0 W/m² -0,4 °C 2,4 °C 3,2 km/h (1 Bft)
20.02.2017 06:26 2,3 °C 2,4 °C 82 % 1023,6 hPa 0,0 mm 3,2 km/h (1 Bft) SW 225 ° 0 min 0,000 mm 0,0 UV-I 0 W/m² -0,4 °C 2,3 °C 4,8 km/h (1 Bft)
20.02.2017 06:27 2,4 °C 2,4 °C 82 % 1023,6 hPa 0,0 mm 3,2 km/h (1 Bft) W 270 ° 0 min 0,000 mm 0,0 UV-I 0 W/m² -0,4 °C 2,4 °C 4,8 km/h (1 Bft)
20.02.2017 06:28 2,4 °C 2,4 °C 82 % 1023,6 hPa 0,0 mm 3,2 km/h (1 Bft) SW 225 ° 0 min 0,000 mm 0,0 UV-I 0 W/m² -0,4 °C 2,4 °C 4,8 km/h (1 Bft)
20.02.2017 06:29 2,3 °C 2,3 °C 82 % 1023,6 hPa 0,0 mm 3,2 km/h (1 Bft) SW 225 ° 0 min 0,000 mm 0,0 UV-I 0 W/m² -0,4 °C 2,3 °C 4,8 km/h (1 Bft)
20.02.2017 06:30 2,3 °C 2,4 °C 82 % 1023,6 hPa 0,0 mm 4,8 km/h (1 Bft) W-SW 247 ° 0 min 0,000 mm 0,0 UV-I 0 W/m² -0,4 °C 1,1 °C 6,4 km/h (2 Bft)
20.02.2017 06:31 2,3 °C 2,4 °C 82 % 1023,6 hPa 0,0 mm 3,2 km/h (1 Bft) W-SW 247 ° 0 min 0,000 mm 0,0 UV-I 0 W/m² -0,4 °C 2,3 °C 4,8 km/h (1 Bft)
20.02.2017 06:32 2,3 °C 2,4 °C 82 % 1023,6 hPa 0,0 mm 4,8 km/h (1 Bft) W 270 ° 0 min 0,000 mm 0,0 UV-I 0 W/m² -0,4 °C 1,1 °C 8,0 km/h (2 Bft)
20.02.2017 06:33 2,3 °C 2,3 °C 82 % 1023,6 hPa 0,0 mm 4,8 km/h (1 Bft) SW 225 ° 0 min 0,000 mm 0,0 UV-I 0 W/m² -0,4 °C 1,1 °C 4,8 km/h (1 Bft)
20.02.2017 06:34 2,3 °C 2,3 °C 82 % 1023,6 hPa 0,0 mm 1,6 km/h (1 Bft) W 270 ° 0 min 0,000 mm 0,0 UV-I 0 W/m² -0,4 °C 2,3 °C 3,2 km/h (1 Bft)
20.02.2017 06:35 2,3 °C 2,3 °C 82 % 1023,6 hPa 0,0 mm 3,2 km/h (1 Bft) W 270 ° 0 min 0,000 mm 0,0 UV-I 0 W/m² -0,4 °C 2,3 °C 4,8 km/h (1 Bft)
20.02.2017 06:36 2,3 °C 2,3 °C 82 % 1023,6 hPa 0,0 mm 4,8 km/h (1 Bft) W-SW 247 ° 0 min 0,000 mm 0,0 UV-I 0 W/m² -0,4 °C 1,1 °C 6,4 km/h (2 Bft)
20.02.2017 06:37 2,3 °C 2,3 °C 82 % 1023,6 hPa 0,0 mm 4,8 km/h (1 Bft) W-SW 247 ° 0 min 0,000 mm 0,0 UV-I 0 W/m² -0,4 °C 1,1 °C 8,0 km/h (2 Bft)
20.02.2017 06:38 2,3 °C 2,3 °C 82 % 1023,6 hPa 0,0 mm 4,8 km/h (1 Bft) W-SW 247 ° 0 min 0,000 mm 0,0 UV-I 0 W/m² -0,4 °C 1,1 °C 6,4 km/h (2 Bft)
20.02.2017 06:39 2,3 °C 2,3 °C 83 % 1023,7 hPa 0,0 mm 4,8 km/h (1 Bft) W 270 ° 0 min 0,000 mm 0,0 UV-I 0 W/m² -0,3 °C 1,1 °C 6,4 km/h (2 Bft)
20.02.2017 06:40 2,2 °C 2,3 °C 83 % 1023,7 hPa 0,0 mm 4,8 km/h (1 Bft) W-SW 247 ° 0 min 0,000 mm 0,0 UV-I 0 W/m² -0,4 °C 1,0 °C 6,4 km/h (2 Bft)
20.02.2017 06:41 2,2 °C 2,3 °C 83 % 1023,7 hPa 0,0 mm 4,8 km/h (1 Bft) W 270 ° 0 min 0,000 mm 0,0 UV-I 0 W/m² -0,4 °C 1,0 °C 6,4 km/h (2 Bft)
20.02.2017 06:42 2,2 °C 2,2 °C 83 % 1023,6 hPa 0,0 mm 4,8 km/h (1 Bft) W-SW 247 ° 0 min 0,000 mm 0,0 UV-I 0 W/m² -0,4 °C 1,0 °C 8,0 km/h (2 Bft)
20.02.2017 06:43 2,2 °C 2,2 °C 83 % 1023,6 hPa 0,0 mm 3,2 km/h (1 Bft) W-SW 247 ° 0 min 0,000 mm 0,0 UV-I 0 W/m² -0,4 °C 2,2 °C 3,2 km/h (1 Bft)
20.02.2017 06:44 2,2 °C 2,2 °C 83 % 1023,6 hPa 0,0 mm 4,8 km/h (1 Bft) W-SW 247 ° 0 min 0,000 mm 0,0 UV-I 0 W/m² -0,4 °C 1,0 °C 6,4 km/h (2 Bft)
20.02.2017 06:45 2,2 °C 2,2 °C 83 % 1023,6 hPa 0,0 mm 4,8 km/h (1 Bft) W-SW 247 ° 0 min 0,000 mm 0,0 UV-I 0 W/m² -0,4 °C 1,0 °C 6,4 km/h (2 Bft)
20.02.2017 06:46 2,2 °C 2,2 °C 83 % 1023,6 hPa 0,0 mm 3,2 km/h (1 Bft) SW 225 ° 0 min 0,000 mm 0,0 UV-I 0 W/m² -0,4 °C 2,2 °C 4,8 km/h (1 Bft)
20.02.2017 06:47 2,2 °C 2,2 °C 83 % 1023,7 hPa 0,0 mm 3,2 km/h (1 Bft) SW 225 ° 0 min 0,000 mm 0,0 UV-I 0 W/m² -0,4 °C 2,2 °C 4,8 km/h (1 Bft)
20.02.2017 06:48 2,2 °C 2,2 °C 83 % 1023,6 hPa 0,0 mm 3,2 km/h (1 Bft) SW 225 ° 0 min 0,000 mm 0,0 UV-I 0 W/m² -0,4 °C 2,2 °C 4,8 km/h (1 Bft)
20.02.2017 06:49 2,2 °C 2,3 °C 83 % 1023,6 hPa 0,0 mm 3,2 km/h (1 Bft) SW 225 ° 0 min 0,000 mm 0,0 UV-I 0 W/m² -0,4 °C 2,2 °C 6,4 km/h (2 Bft)
20.02.2017 06:50 2,3 °C 2,3 °C 83 % 1023,6 hPa 0,0 mm 3,2 km/h (1 Bft) SW 225 ° 0 min 0,000 mm 0,0 UV-I 0 W/m² -0,3 °C 2,3 °C 4,8 km/h (1 Bft)
20.02.2017 06:51 2,3 °C 2,3 °C 82 % 1023,6 hPa 0,0 mm 3,2 km/h (1 Bft) SW 225 ° 0 min 0,000 mm 0,0 UV-I 0 W/m² -0,4 °C 2,3 °C 6,4 km/h (2 Bft)
20.02.2017 06:52 2,3 °C 2,3 °C 82 % 1023,7 hPa 0,0 mm 4,8 km/h (1 Bft) SW 225 ° 0 min 0,000 mm 0,0 UV-I 0 W/m² -0,4 °C 1,1 °C 6,4 km/h (2 Bft)
20.02.2017 06:53 2,3 °C 2,3 °C 82 % 1023,6 hPa 0,0 mm 4,8 km/h (1 Bft) SW 225 ° 0 min 0,000 mm 0,0 UV-I 0 W/m² -0,4 °C 1,1 °C 6,4 km/h (2 Bft)
20.02.2017 06:54 2,3 °C 2,3 °C 82 % 1023,6 hPa 0,0 mm 3,2 km/h (1 Bft) SW 225 ° 0 min 0,000 mm 0,0 UV-I 0 W/m² -0,4 °C 2,3 °C 6,4 km/h (2 Bft)
20.02.2017 06:55 2,3 °C 2,3 °C 82 % 1023,6 hPa 0,0 mm 3,2 km/h (1 Bft) SW 225 ° 0 min 0,000 mm 0,0 UV-I 0 W/m² -0,4 °C 2,3 °C 4,8 km/h (1 Bft)
20.02.2017 06:56 2,3 °C 2,3 °C 82 % 1023,7 hPa 0,0 mm 4,8 km/h (1 Bft) SW 225 ° 0 min 0,000 mm 0,0 UV-I 0 W/m² -0,4 °C 1,1 °C 8,0 km/h (2 Bft)
20.02.2017 06:57 2,3 °C 2,3 °C 82 % 1023,6 hPa 0,0 mm 3,2 km/h (1 Bft) SW 225 ° 0 min 0,000 mm 0,0 UV-I 0 W/m² -0,4 °C 2,3 °C 4,8 km/h (1 Bft)
20.02.2017 06:58 2,3 °C 2,3 °C 82 % 1023,6 hPa 0,0 mm 4,8 km/h (1 Bft) SW 225 ° 0 min 0,000 mm 0,0 UV-I 0 W/m² -0,4 °C 1,1 °C 6,4 km/h (2 Bft)
20.02.2017 06:59 2,3 °C 2,3 °C 82 % 1023,7 hPa 0,0 mm 4,8 km/h (1 Bft) SW 225 ° 0 min 0,000 mm 0,0 UV-I 0 W/m² -0,4 °C 1,1 °C 6,4 km/h (2 Bft)
20.02.2017 07:00 2,3 °C 2,3 °C 82 % 1023,6 hPa 0,0 mm 4,8 km/h (1 Bft) SW 225 ° 0 min 0,025 mm 0,0 UV-I 0 W/m² -0,4 °C 1,1 °C 6,4 km/h (2 Bft)
20.02.2017 07:01 2,4 °C 2,4 °C 82 % 1023,6 hPa 0,0 mm 4,8 km/h (1 Bft) S-SW 202 ° 0 min 0,000 mm 0,0 UV-I 0 W/m² -0,4 °C 1,2 °C 6,4 km/h (2 Bft)
20.02.2017 07:02 2,4 °C 2,4 °C 82 % 1023,5 hPa 0,0 mm 6,4 km/h (2 Bft) S-SW 202 ° 0 min 0,000 mm 0,0 UV-I 0 W/m² -0,4 °C 0,6 °C 8,0 km/h (2 Bft)
20.02.2017 07:03 2,4 °C 2,4 °C 81 % 1023,5 hPa 0,0 mm 4,8 km/h (1 Bft) S-SW 202 ° 0 min 0,000 mm 0,0 UV-I 0 W/m² -0,5 °C 1,2 °C 6,4 km/h (2 Bft)
20.02.2017 07:04 2,4 °C 2,4 °C 81 % 1023,5 hPa 0,0 mm 4,8 km/h (1 Bft) S-SW 202 ° 0 min 0,000 mm 0,0 UV-I 0 W/m² -0,5 °C 1,2 °C 6,4 km/h (2 Bft)
20.02.2017 07:05 2,4 °C 2,4 °C 81 % 1023,5 hPa 0,0 mm 4,8 km/h (1 Bft) S-SW 202 ° 0 min 0,000 mm 0,0 UV-I 0 W/m² -0,5 °C 1,2 °C 8,0 km/h (2 Bft)
20.02.2017 07:06 2,4 °C 2,4 °C 81 % 1023,5 hPa 0,0 mm 4,8 km/h (1 Bft) SW 225 ° 0 min 0,000 mm 0,0 UV-I 0 W/m² -0,5 °C 1,2 °C 6,4 km/h (2 Bft)
20.02.2017 07:07 2,4 °C 2,4 °C 81 % 1023,5 hPa 0,0 mm 3,2 km/h (1 Bft) SW 225 ° 0 min 0,000 mm 0,0 UV-I 0 W/m² -0,5 °C 2,4 °C 4,8 km/h (1 Bft)
20.02.2017 07:08 2,4 °C 2,4 °C 81 % 1023,5 hPa 0,0 mm 3,2 km/h (1 Bft) SW 225 ° 0 min 0,000 mm 0,0 UV-I 0 W/m² -0,5 °C 2,4 °C 8,0 km/h (2 Bft)
20.02.2017 07:09 2,4 °C 2,5 °C 81 % 1023,5 hPa 0,0 mm 3,2 km/h (1 Bft) SW 225 ° 0 min 0,000 mm 0,0 UV-I 0 W/m² -0,5 °C 2,4 °C 4,8 km/h (1 Bft)
20.02.2017 07:10 2,5 °C 2,5 °C 81 % 1023,5 hPa 0,0 mm 3,2 km/h (1 Bft) SW 225 ° 0 min 0,000 mm 0,0 UV-I 0 W/m² -0,4 °C 2,5 °C 4,8 km/h (1 Bft)
20.02.2017 07:11 2,4 °C 2,5 °C 81 % 1023,5 hPa 0,0 mm 3,2 km/h (1 Bft) W 270 ° 0 min 0,000 mm 0,0 UV-I 0 W/m² -0,5 °C 2,4 °C 4,8 km/h (1 Bft)
20.02.2017 07:12 2,4 °C 2,4 °C 81 % 1023,5 hPa 0,0 mm 1,6 km/h (1 Bft) W 270 ° 0 min 0,000 mm 0,0 UV-I 0 W/m² -0,5 °C 2,4 °C 3,2 km/h (1 Bft)
20.02.2017 07:13 2,4 °C 2,4 °C 81 % 1023,5 hPa 0,0 mm 4,8 km/h (1 Bft) W-SW 247 ° 0 min 0,000 mm 0,0 UV-I 0 W/m² -0,5 °C 1,2 °C 6,4 km/h (2 Bft)
20.02.2017 07:14 2,4 °C 2,4 °C 81 % 1023,5 hPa 0,0 mm 3,2 km/h (1 Bft) W-SW 247 ° 0 min 0,000 mm 0,0 UV-I 0 W/m² -0,5 °C 2,4 °C 4,8 km/h (1 Bft)
20.02.2017 07:15 2,4 °C 2,4 °C 81 % 1023,5 hPa 0,0 mm 4,8 km/h (1 Bft) W-SW 247 ° 0 min 0,000 mm 0,0 UV-I 0 W/m² -0,5 °C 1,2 °C 6,4 km/h (2 Bft)
20.02.2017 07:16 2,4 °C 2,4 °C 81 % 1023,5 hPa 0,0 mm 3,2 km/h (1 Bft) W-SW 247 ° 0 min 0,000 mm 0,0 UV-I 0 W/m² -0,5 °C 2,4 °C 4,8 km/h (1 Bft)
20.02.2017 07:17 2,4 °C 2,4 °C 81 % 1023,5 hPa 0,0 mm 3,2 km/h (1 Bft) W-SW 247 ° 0 min 0,000 mm 0,0 UV-I 0 W/m² -0,5 °C 2,4 °C 4,8 km/h (1 Bft)
20.02.2017 07:18 2,4 °C 2,4 °C 81 % 1023,5 hPa 0,0 mm 3,2 km/h (1 Bft) W-SW 247 ° 0 min 0,000 mm 0,0 UV-I 0 W/m² -0,5 °C 2,4 °C 3,2 km/h (1 Bft)
20.02.2017 07:19 2,4 °C 2,4 °C 81 % 1023,5 hPa 0,0 mm 1,6 km/h (1 Bft) W-SW 247 ° 0 min 0,000 mm 0,0 UV-I 0 W/m² -0,5 °C 2,4 °C 3,2 km/h (1 Bft)
20.02.2017 07:20 2,4 °C 2,4 °C 81 % 1023,5 hPa 0,0 mm 3,2 km/h (1 Bft) W-SW 247 ° 0 min 0,000 mm 0,0 UV-I 0 W/m² -0,5 °C 2,4 °C 4,8 km/h (1 Bft)
20.02.2017 07:21 2,4 °C 2,4 °C 81 % 1023,5 hPa 0,0 mm 3,2 km/h (1 Bft) W-SW 247 ° 0 min 0,000 mm 0,0 UV-I 0 W/m² -0,5 °C 2,4 °C 4,8 km/h (1 Bft)
20.02.2017 07:22 2,5 °C 2,5 °C 81 % 1023,5 hPa 0,0 mm 4,8 km/h (1 Bft) W-SW 247 ° 0 min 0,000 mm 0,0 UV-I 0 W/m² -0,4 °C 1,3 °C 4,8 km/h (1 Bft)
20.02.2017 07:23 2,4 °C 2,4 °C 81 % 1023,5 hPa 0,0 mm 4,8 km/h (1 Bft) S-SW 202 ° 0 min 0,000 mm 0,0 UV-I 0 W/m² -0,5 °C 1,2 °C 8,0 km/h (2 Bft)
20.02.2017 07:24 2,4 °C 2,4 °C 81 % 1023,5 hPa 0,0 mm 4,8 km/h (1 Bft) S-SW 202 ° 0 min 0,000 mm 0,0 UV-I 0 W/m² -0,5 °C 1,2 °C 8,0 km/h (2 Bft)
20.02.2017 07:25 2,4 °C 2,4 °C 81 % 1023,6 hPa 0,0 mm 6,4 km/h (2 Bft) S-SW 202 ° 0 min 0,000 mm 0,0 UV-I 0 W/m² -0,5 °C 0,6 °C 9,7 km/h (2 Bft)
20.02.2017 07:26 2,4 °C 2,4 °C 81 % 1023,5 hPa 0,0 mm 4,8 km/h (1 Bft) S-SW 202 ° 0 min 0,000 mm 0,0 UV-I 0 W/m² -0,5 °C 1,2 °C 8,0 km/h (2 Bft)
20.02.2017 07:27 2,4 °C 2,4 °C 81 % 1023,5 hPa 0,0 mm 4,8 km/h (1 Bft) S-SW 202 ° 0 min 0,000 mm 0,0 UV-I 0 W/m² -0,5 °C 1,2 °C 6,4 km/h (2 Bft)
20.02.2017 07:28 2,4 °C 2,4 °C 82 % 1023,5 hPa 0,0 mm 4,8 km/h (1 Bft) S 180 ° 0 min 0,000 mm 0,0 UV-I 0 W/m² -0,4 °C 1,2 °C 8,0 km/h (2 Bft)
20.02.2017 07:29 2,3 °C 2,4 °C 82 % 1023,5 hPa 0,0 mm 6,4 km/h (2 Bft) S-SW 202 ° 0 min 0,000 mm 0,0 UV-I 0 W/m² -0,4 °C 0,5 °C 8,0 km/h (2 Bft)
20.02.2017 07:30 2,3 °C 2,3 °C 82 % 1023,5 hPa 0,0 mm 4,8 km/h (1 Bft) S-SW 202 ° 0 min 0,000 mm 0,0 UV-I 0 W/m² -0,4 °C 1,1 °C 6,4 km/h (2 Bft)
20.02.2017 07:31 2,3 °C 2,3 °C 82 % 1023,5 hPa 0,0 mm 4,8 km/h (1 Bft) S-SW 202 ° 0 min 0,000 mm 0,0 UV-I 0 W/m² -0,4 °C 1,1 °C 6,4 km/h (2 Bft)
20.02.2017 07:32 2,3 °C 2,3 °C 82 % 1023,5 hPa 0,0 mm 4,8 km/h (1 Bft) S-SW 202 ° 0 min 0,000 mm 0,0 UV-I 0 W/m² -0,4 °C 1,1 °C 6,4 km/h (2 Bft)
20.02.2017 07:33 2,3 °C 2,3 °C 82 % 1023,5 hPa 0,0 mm 4,8 km/h (1 Bft) S-SW 202 ° 0 min 0,000 mm 0,0 UV-I 0 W/m² -0,4 °C 1,1 °C 6,4 km/h (2 Bft)
20.02.2017 07:34 2,3 °C 2,3 °C 82 % 1023,5 hPa 0,0 mm 4,8 km/h (1 Bft) S-SW 202 ° 0 min 0,000 mm 0,0 UV-I 0 W/m² -0,4 °C 1,1 °C 6,4 km/h (2 Bft)
20.02.2017 07:35 2,3 °C 2,3 °C 82 % 1023,5 hPa 0,0 mm 4,8 km/h (1 Bft) S-SW 202 ° 0 min 0,000 mm 0,0 UV-I 0 W/m² -0,4 °C 1,1 °C 6,4 km/h (2 Bft)
20.02.2017 07:36 2,3 °C 2,3 °C 82 % 1023,5 hPa 0,0 mm 4,8 km/h (1 Bft) SW 225 ° 0 min 0,000 mm 0,0 UV-I 0 W/m² -0,4 °C 1,1 °C 8,0 km/h (2 Bft)
20.02.2017 07:37 2,3 °C 2,3 °C 81 % 1023,6 hPa 0,0 mm 3,2 km/h (1 Bft) S-SW 202 ° 0 min 0,000 mm 0,0 UV-I 0 W/m² -0,6 °C 2,3 °C 4,8 km/h (1 Bft)
20.02.2017 07:38 2,3 °C 2,4 °C 81 % 1023,6 hPa 0,0 mm 4,8 km/h (1 Bft) S-SW 202 ° 0 min 0,000 mm 0,0 UV-I 0 W/m² -0,6 °C 1,1 °C 6,4 km/h (2 Bft)
20.02.2017 07:39 2,4 °C 2,4 °C 81 % 1023,6 hPa 0,0 mm 3,2 km/h (1 Bft) S-SW 202 ° 0 min 0,000 mm 0,0 UV-I 0 W/m² -0,5 °C 2,4 °C 3,2 km/h (1 Bft)
20.02.2017 07:40 2,4 °C 2,4 °C 80 % 1023,6 hPa 0,0 mm 4,8 km/h (1 Bft) S-SW 202 ° 0 min 0,000 mm 0,0 UV-I 0 W/m² -0,7 °C 1,2 °C 6,4 km/h (2 Bft)
20.02.2017 07:41 2,5 °C 2,5 °C 80 % 1023,6 hPa 0,0 mm 1,6 km/h (1 Bft) S-SW 202 ° 0 min 0,000 mm 0,0 UV-I 0 W/m² -0,6 °C 2,5 °C 4,8 km/h (1 Bft)
20.02.2017 07:42 2,5 °C 2,5 °C 80 % 1023,6 hPa 0,0 mm 3,2 km/h (1 Bft) S-SW 202 ° 0 min 0,000 mm 0,0 UV-I 5 W/m² -0,6 °C 2,5 °C 6,4 km/h (2 Bft)
20.02.2017 07:43 2,5 °C 2,5 °C 80 % 1023,6 hPa 0,0 mm 3,2 km/h (1 Bft) S-SW 202 ° 0 min 0,000 mm 0,0 UV-I 5 W/m² -0,6 °C 2,5 °C 4,8 km/h (1 Bft)
20.02.2017 07:44 2,6 °C 2,6 °C 80 % 1023,6 hPa 0,0 mm 4,8 km/h (1 Bft) S-SW 202 ° 0 min 0,000 mm 0,0 UV-I 5 W/m² -0,5 °C 1,4 °C 4,8 km/h (1 Bft)
20.02.2017 07:45 2,6 °C 2,6 °C 80 % 1023,6 hPa 0,0 mm 3,2 km/h (1 Bft) S-SW 202 ° 0 min 0,000 mm 0,0 UV-I 5 W/m² -0,5 °C 2,6 °C 4,8 km/h (1 Bft)
20.02.2017 07:46 2,6 °C 2,6 °C 80 % 1023,6 hPa 0,0 mm 3,2 km/h (1 Bft) S-SW 202 ° 0 min 0,000 mm 0,0 UV-I 7 W/m² -0,5 °C 2,6 °C 3,2 km/h (1 Bft)
20.02.2017 07:47 2,6 °C 2,6 °C 80 % 1023,7 hPa 0,0 mm 3,2 km/h (1 Bft) S-SW 202 ° 0 min 0,000 mm 0,0 UV-I 7 W/m² -0,5 °C 2,6 °C 4,8 km/h (1 Bft)
20.02.2017 07:48 2,6 °C 2,6 °C 80 % 1023,7 hPa 0,0 mm 4,8 km/h (1 Bft) S-SW 202 ° 0 min 0,000 mm 0,0 UV-I 7 W/m² -0,5 °C 1,4 °C 6,4 km/h (2 Bft)
20.02.2017 07:49 2,6 °C 2,6 °C 80 % 1023,7 hPa 0,0 mm 4,8 km/h (1 Bft) W-SW 247 ° 0 min 0,000 mm 0,0 UV-I 7 W/m² -0,5 °C 1,4 °C 6,4 km/h (2 Bft)
20.02.2017 07:50 2,6 °C 2,6 °C 79 % 1023,6 hPa 0,0 mm 4,8 km/h (1 Bft) SW 225 ° 0 min 0,000 mm 0,0 UV-I 9 W/m² -0,7 °C 1,4 °C 6,4 km/h (2 Bft)
20.02.2017 07:51 2,6 °C 2,6 °C 79 % 1023,7 hPa 0,0 mm 3,2 km/h (1 Bft) SW 225 ° 0 min 0,000 mm 0,0 UV-I 9 W/m² -0,7 °C 2,6 °C 4,8 km/h (1 Bft)
20.02.2017 07:52 2,6 °C 2,6 °C 79 % 1023,6 hPa 0,0 mm 4,8 km/h (1 Bft) S-SW 202 ° 0 min 0,000 mm 0,0 UV-I 11 W/m² -0,7 °C 1,4 °C 6,4 km/h (2 Bft)
20.02.2017 07:53 2,6 °C 2,6 °C 79 % 1023,6 hPa 0,0 mm 4,8 km/h (1 Bft) S-SW 202 ° 0 min 0,000 mm 0,0 UV-I 11 W/m² -0,7 °C 1,4 °C 6,4 km/h (2 Bft)
20.02.2017 07:54 2,6 °C 2,6 °C 79 % 1023,6 hPa 0,0 mm 6,4 km/h (2 Bft) S-SW 202 ° 0 min 0,000 mm 0,0 UV-I 12 W/m² -0,7 °C 0,8 °C 8,0 km/h (2 Bft)
20.02.2017 07:55 2,6 °C 2,6 °C 79 % 1023,6 hPa 0,0 mm 4,8 km/h (1 Bft) S-SW 202 ° 0 min 0,000 mm 0,0 UV-I 12 W/m² -0,7 °C 1,4 °C 6,4 km/h (2 Bft)
20.02.2017 07:56 2,7 °C 2,7 °C 79 % 1023,6 hPa 0,0 mm 4,8 km/h (1 Bft) S-SW 202 ° 0 min 0,000 mm 0,0 UV-I 12 W/m² -0,6 °C 1,6 °C 6,4 km/h (2 Bft)
20.02.2017 07:57 2,7 °C 2,7 °C 79 % 1023,6 hPa 0,0 mm 4,8 km/h (1 Bft) S-SW 202 ° 0 min 0,000 mm 0,0 UV-I 14 W/m² -0,6 °C 1,6 °C 9,7 km/h (2 Bft)
20.02.2017 07:58 2,7 °C 2,7 °C 79 % 1023,6 hPa 0,0 mm 4,8 km/h (1 Bft) SW 225 ° 0 min 0,000 mm 0,0 UV-I 14 W/m² -0,6 °C 1,6 °C 6,4 km/h (2 Bft)
20.02.2017 07:59 2,7 °C 2,7 °C 78 % 1023,6 hPa 0,0 mm 4,8 km/h (1 Bft) SW 225 ° 0 min 0,000 mm 0,0 UV-I 16 W/m² -0,7 °C 1,6 °C 8,0 km/h (2 Bft)
20.02.2017 08:00 2,7 °C 2,7 °C 79 % 1023,6 hPa 0,0 mm 4,8 km/h (1 Bft) SW 225 ° 0 min 0,000 mm 0,0 UV-I 18 W/m² -0,6 °C 1,6 °C 8,0 km/h (2 Bft)
20.02.2017 08:01 2,7 °C 2,8 °C 79 % 1023,6 hPa 0,0 mm 6,4 km/h (2 Bft) SW 225 ° 0 min 0,000 mm 0,0 UV-I 18 W/m² -0,6 °C 0,9 °C 11,3 km/h (2 Bft)
20.02.2017 08:02 2,7 °C 2,8 °C 78 % 1023,6 hPa 0,0 mm 4,8 km/h (1 Bft) SW 225 ° 0 min 0,000 mm 0,0 UV-I 19 W/m² -0,7 °C 1,6 °C 6,4 km/h (2 Bft)
20.02.2017 08:03 2,7 °C 2,8 °C 78 % 1023,6 hPa 0,0 mm 6,4 km/h (2 Bft) SW 225 ° 0 min 0,000 mm 0,0 UV-I 21 W/m² -0,7 °C 0,9 °C 8,0 km/h (2 Bft)
20.02.2017 08:04 2,8 °C 2,8 °C 78 % 1023,6 hPa 0,0 mm 3,2 km/h (1 Bft) SW 225 ° 0 min 0,000 mm 0,0 UV-I 21 W/m² -0,6 °C 2,8 °C 4,8 km/h (1 Bft)
20.02.2017 08:05 2,8 °C 2,8 °C 78 % 1023,6 hPa 0,0 mm 4,8 km/h (1 Bft) W 270 ° 0 min 0,000 mm 0,0 UV-I 23 W/m² -0,6 °C 1,7 °C 9,7 km/h (2 Bft)
20.02.2017 08:06 2,8 °C 2,8 °C 78 % 1023,6 hPa 0,0 mm 4,8 km/h (1 Bft) W-SW 247 ° 0 min 0,000 mm 0,0 UV-I 23 W/m² -0,6 °C 1,7 °C 8,0 km/h (2 Bft)
20.02.2017 08:07 2,8 °C 2,8 °C 78 % 1023,6 hPa 0,0 mm 4,8 km/h (1 Bft) SW 225 ° 0 min 0,000 mm 0,0 UV-I 23 W/m² -0,6 °C 1,7 °C 8,0 km/h (2 Bft)
20.02.2017 08:08 2,8 °C 2,8 °C 78 % 1023,6 hPa 0,0 mm 4,8 km/h (1 Bft) W-SW 247 ° 0 min 0,000 mm 0,0 UV-I 25 W/m² -0,6 °C 1,7 °C 6,4 km/h (2 Bft)
20.02.2017 08:09 2,8 °C 2,8 °C 78 % 1023,6 hPa 0,0 mm 8,0 km/h (2 Bft) SW 225 ° 0 min 0,000 mm 0,0 UV-I 26 W/m² -0,6 °C 0,6 °C 11,3 km/h (2 Bft)
20.02.2017 08:10 2,8 °C 2,8 °C 78 % 1023,6 hPa 0,0 mm 4,8 km/h (1 Bft) W-SW 247 ° 0 min 0,000 mm 0,0 UV-I 28 W/m² -0,6 °C 1,7 °C 8,0 km/h (2 Bft)
20.02.2017 08:11 2,8 °C 2,8 °C 78 % 1023,6 hPa 0,0 mm 3,2 km/h (1 Bft) W-SW 247 ° 0 min 0,000 mm 0,0 UV-I 28 W/m² -0,6 °C 2,8 °C 6,4 km/h (2 Bft)
20.02.2017 08:12 2,8 °C 2,8 °C 78 % 1023,6 hPa 0,0 mm 4,8 km/h (1 Bft) W-SW 247 ° 0 min 0,000 mm 0,0 UV-I 30 W/m² -0,6 °C 1,7 °C 8,0 km/h (2 Bft)
20.02.2017 08:13 2,8 °C 2,8 °C 78 % 1023,6 hPa 0,0 mm 3,2 km/h (1 Bft) W-SW 247 ° 0 min 0,000 mm 0,0 UV-I 30 W/m² -0,6 °C 2,8 °C 4,8 km/h (1 Bft)
20.02.2017 08:14 2,8 °C 2,8 °C 78 % 1023,6 hPa 0,0 mm 6,4 km/h (2 Bft) W-SW 247 ° 0 min 0,000 mm 0,0 UV-I 32 W/m² -0,6 °C 1,1 °C 11,3 km/h (2 Bft)
20.02.2017 08:15 2,8 °C 2,9 °C 78 % 1023,6 hPa 0,0 mm 6,4 km/h (2 Bft) W-SW 247 ° 0 min 0,000 mm 0,0 UV-I 32 W/m² -0,6 °C 1,1 °C 9,7 km/h (2 Bft)
20.02.2017 08:16 2,9 °C 2,9 °C 78 % 1023,7 hPa 0,0 mm 8,0 km/h (2 Bft) W-SW 247 ° 0 min 0,000 mm 0,0 UV-I 32 W/m² -0,5 °C 0,7 °C 11,3 km/h (2 Bft)
20.02.2017 08:17 2,9 °C 2,9 °C 78 % 1023,7 hPa 0,0 mm 6,4 km/h (2 Bft) SW 225 ° 0 min 0,000 mm 0,0 UV-I 30 W/m² -0,5 °C 1,2 °C 12,9 km/h (3 Bft)
20.02.2017 08:18 2,9 °C 2,9 °C 77 % 1023,7 hPa 0,0 mm 4,8 km/h (1 Bft) W-SW 247 ° 0 min 0,000 mm 0,0 UV-I 30 W/m² -0,7 °C 1,8 °C 6,4 km/h (2 Bft)
20.02.2017 08:19 2,9 °C 2,9 °C 78 % 1023,7 hPa 0,0 mm 6,4 km/h (2 Bft) W-SW 247 ° 0 min 0,000 mm 0,0 UV-I 30 W/m² -0,5 °C 1,2 °C 11,3 km/h (2 Bft)
20.02.2017 08:20 2,9 °C 2,9 °C 77 % 1023,7 hPa 0,0 mm 6,4 km/h (2 Bft) W-SW 247 ° 0 min 0,000 mm 0,0 UV-I 30 W/m² -0,7 °C 1,2 °C 8,0 km/h (2 Bft)
20.02.2017 08:21 2,9 °C 2,9 °C 78 % 1023,7 hPa 0,0 mm 6,4 km/h (2 Bft) SW 225 ° 0 min 0,000 mm 0,0 UV-I 30 W/m² -0,5 °C 1,2 °C 12,9 km/h (3 Bft)
20.02.2017 08:22 2,9 °C 2,9 °C 78 % 1023,8 hPa 0,0 mm 6,4 km/h (2 Bft) W-SW 247 ° 0 min 0,000 mm 0,0 UV-I 30 W/m² -0,5 °C 1,2 °C 12,9 km/h (3 Bft)
20.02.2017 08:23 2,9 °C 2,9 °C 78 % 1023,7 hPa 0,0 mm 6,4 km/h (2 Bft) W-SW 247 ° 0 min 0,000 mm 0,0 UV-I 32 W/m² -0,5 °C 1,2 °C 9,7 km/h (2 Bft)
20.02.2017 08:24 2,9 °C 2,9 °C 78 % 1023,7 hPa 0,0 mm 6,4 km/h (2 Bft) SW 225 ° 0 min 0,000 mm 0,0 UV-I 32 W/m² -0,5 °C 1,2 °C 14,5 km/h (3 Bft)
20.02.2017 08:25 2,9 °C 2,9 °C 78 % 1023,6 hPa 0,0 mm 8,0 km/h (2 Bft) W-SW 247 ° 0 min 0,000 mm 0,0 UV-I 33 W/m² -0,5 °C 0,7 °C 11,3 km/h (2 Bft)
20.02.2017 08:26 3,0 °C 3,0 °C 77 % 1023,7 hPa 0,0 mm 6,4 km/h (2 Bft) W-SW 247 ° 0 min 0,000 mm 0,0 UV-I 35 W/m² -0,6 °C 1,3 °C 9,7 km/h (2 Bft)
20.02.2017 08:27 3,0 °C 3,0 °C 78 % 1023,8 hPa 0,0 mm 8,0 km/h (2 Bft) W-SW 247 ° 0 min 0,000 mm 0,0 UV-I 39 W/m² -0,5 °C 0,8 °C 14,5 km/h (3 Bft)
20.02.2017 08:28 3,0 °C 3,0 °C 77 % 1023,7 hPa 0,0 mm 8,0 km/h (2 Bft) W-SW 247 ° 0 min 0,000 mm 0,0 UV-I 40 W/m² -0,6 °C 0,8 °C 11,3 km/h (2 Bft)
20.02.2017 08:29 3,0 °C 3,0 °C 78 % 1023,7 hPa 0,0 mm 8,0 km/h (2 Bft) W 270 ° 0 min 0,000 mm 0,0 UV-I 42 W/m² -0,5 °C 0,8 °C 14,5 km/h (3 Bft)
20.02.2017 08:30 3,0 °C 3,0 °C 78 % 1023,8 hPa 0,0 mm 8,0 km/h (2 Bft) W-SW 247 ° 0 min 0,000 mm 0,0 UV-I 42 W/m² -0,5 °C 0,8 °C 11,3 km/h (2 Bft)
20.02.2017 08:33 3,0 °C 3,0 °C 78 % 1023,8 hPa 0,0 mm 8,9 km/h (2 Bft) W 260 ° 0 min 0,001 mm 0,0 UV-I 47 W/m² -0,5 °C 0,5 °C 11,3 km/h (2 Bft)
20.02.2017 08:34 3,0 °C 3,0 °C 78 % 1023,7 hPa 0,0 mm 9,3 km/h (2 Bft) W-SW 252 ° 0 min 0,000 mm 0,0 UV-I 49 W/m² -0,5 °C 0,4 °C 11,3 km/h (2 Bft)
20.02.2017 08:35 3,0 °C 3,0 °C 78 % 1023,7 hPa 0,0 mm 8,8 km/h (2 Bft) W-SW 244 ° 0 min 0,000 mm 0,0 UV-I 49 W/m² -0,5 °C 0,6 °C 12,9 km/h (3 Bft)
20.02.2017 08:36 3,0 °C 3,0 °C 78 % 1023,8 hPa 0,0 mm 7,1 km/h (2 Bft) W-SW 248 ° 0 min 0,000 mm 0,0 UV-I 49 W/m² -0,5 °C 1,1 °C 11,3 km/h (2 Bft)
20.02.2017 08:37 3,0 °C 3,0 °C 78 % 1023,7 hPa 0,0 mm 6,2 km/h (2 Bft) SW 223 ° 0 min 0,000 mm 0,0 UV-I 49 W/m² -0,5 °C 1,4 °C 9,7 km/h (2 Bft)
20.02.2017 08:38 3,0 °C 3,0 °C 78 % 1023,8 hPa 0,0 mm 6,6 km/h (2 Bft) W-SW 243 ° 0 min 0,000 mm 0,0 UV-I 47 W/m² -0,5 °C 1,2 °C 9,7 km/h (2 Bft)
20.02.2017 08:39 3,0 °C 3,0 °C 78 % 1023,8 hPa 0,0 mm 9,3 km/h (2 Bft) W 271 ° 0 min 0,000 mm 0,0 UV-I 47 W/m² -0,5 °C 0,4 °C 12,9 km/h (3 Bft)
20.02.2017 08:40 3,0 °C 3,0 °C 78 % 1023,8 hPa 0,0 mm 6,9 km/h (2 Bft) W-SW 246 ° 0 min 0,000 mm 0,0 UV-I 47 W/m² -0,5 °C 1,1 °C 11,3 km/h (2 Bft)
20.02.2017 08:41 2,9 °C 3,0 °C 78 % 1023,8 hPa 0,0 mm 6,3 km/h (2 Bft) W-SW 250 ° 0 min 0,000 mm 0,0 UV-I 49 W/m² -0,5 °C 1,2 °C 11,3 km/h (2 Bft)
20.02.2017 08:42 3,0 °C 3,0 °C 78 % 1023,8 hPa 0,0 mm 8,3 km/h (2 Bft) SW 232 ° 0 min 0,000 mm 0,0 UV-I 51 W/m² -0,5 °C 0,7 °C 11,3 km/h (2 Bft)
20.02.2017 08:43 2,9 °C 3,0 °C 78 % 1023,8 hPa 0,0 mm 6,3 km/h (2 Bft) W-SW 252 ° 0 min 0,000 mm 0,0 UV-I 53 W/m² -0,5 °C 1,2 °C 8,0 km/h (2 Bft)
20.02.2017 08:44 3,0 °C 3,0 °C 78 % 1023,8 hPa 0,0 mm 7,6 km/h (2 Bft) W-SW 240 ° 0 min 0,000 mm 0,0 UV-I 54 W/m² -0,5 °C 0,9 °C 11,3 km/h (2 Bft)
20.02.2017 08:45 3,1 °C 3,1 °C 78 % 1023,8 hPa 0,0 mm 7,4 km/h (2 Bft) W-SW 248 ° 0 min 0,000 mm 0,0 UV-I 56 W/m² -0,4 °C 1,1 °C 11,3 km/h (2 Bft)
20.02.2017 08:46 3,1 °C 3,1 °C 78 % 1023,8 hPa 0,0 mm 6,9 km/h (2 Bft) W-SW 250 ° 0 min 0,000 mm 0,0 UV-I 58 W/m² -0,4 °C 1,2 °C 11,3 km/h (2 Bft)
20.02.2017 08:47 3,1 °C 3,2 °C 78 % 1023,8 hPa 0,0 mm 7,5 km/h (2 Bft) W 273 ° 0 min 0,000 mm 0,0 UV-I 63 W/m² -0,4 °C 1,0 °C 9,7 km/h (2 Bft)
20.02.2017 08:48 3,1 °C 3,1 °C 78 % 1023,8 hPa 0,0 mm 6,9 km/h (2 Bft) W-SW 252 ° 0 min 0,000 mm 0,0 UV-I 65 W/m² -0,4 °C 1,2 °C 11,3 km/h (2 Bft)
20.02.2017 08:49 3,1 °C 3,1 °C 78 % 1023,9 hPa 0,0 mm 7,8 km/h (2 Bft) W-SW 237 ° 0 min 0,000 mm 0,0 UV-I 69 W/m² -0,4 °C 1,0 °C 11,3 km/h (2 Bft)
20.02.2017 08:50 3,1 °C 3,1 °C 78 % 1023,8 hPa 0,0 mm 9,1 km/h (2 Bft) W 259 ° 0 min 0,000 mm 0,5 UV-I 69 W/m² -0,4 °C 0,6 °C 12,9 km/h (3 Bft)
20.02.2017 08:51 3,1 °C 3,2 °C 77 % 1023,9 hPa 0,0 mm 6,8 km/h (2 Bft) W-SW 250 ° 0 min 0,000 mm 0,5 UV-I 70 W/m² -0,5 °C 1,3 °C 8,0 km/h (2 Bft)
20.02.2017 08:52 3,2 °C 3,2 °C 77 % 1023,8 hPa 0,0 mm 5,7 km/h (1 Bft) SW 235 ° 0 min 0,000 mm 0,5 UV-I 70 W/m² -0,4 °C 1,8 °C 9,7 km/h (2 Bft)
20.02.2017 08:53 3,2 °C 3,2 °C 77 % 1023,8 hPa 0,0 mm 7,6 km/h (2 Bft) SW 217 ° 0 min 0,000 mm 0,5 UV-I 72 W/m² -0,4 °C 1,1 °C 12,9 km/h (3 Bft)
20.02.2017 08:54 3,2 °C 3,2 °C 77 % 1023,8 hPa 0,0 mm 9,0 km/h (2 Bft) SW 232 ° 0 min 0,000 mm 0,5 UV-I 74 W/m² -0,4 °C 0,8 °C 12,9 km/h (3 Bft)
20.02.2017 08:55 3,3 °C 3,3 °C 77 % 1023,9 hPa 0,0 mm 6,9 km/h (2 Bft) SW 232 ° 0 min 0,000 mm 0,5 UV-I 76 W/m² -0,3 °C 1,5 °C 11,3 km/h (2 Bft)
20.02.2017 08:56 3,3 °C 3,3 °C 77 % 1023,9 hPa 0,0 mm 6,5 km/h (2 Bft) SW 231 ° 0 min 0,000 mm 0,5 UV-I 77 W/m² -0,3 °C 1,6 °C 11,3 km/h (2 Bft)
20.02.2017 08:57 3,3 °C 3,3 °C 77 % 1023,9 hPa 0,0 mm 8,0 km/h (2 Bft) W-SW 252 ° 0 min 0,000 mm 0,5 UV-I 77 W/m² -0,3 °C 1,1 °C 11,3 km/h (2 Bft)
20.02.2017 08:58 3,3 °C 3,3 °C 77 % 1024,0 hPa 0,0 mm 11,1 km/h (2 Bft) W-SW 244 ° 0 min 0,000 mm 0,5 UV-I 77 W/m² -0,3 °C 0,4 °C 14,5 km/h (3 Bft)
20.02.2017 08:59 3,3 °C 3,3 °C 77 % 1023,9 hPa 0,0 mm 7,2 km/h (2 Bft) W-SW 258 ° 0 min 0,000 mm 0,5 UV-I 79 W/m² -0,3 °C 1,4 °C 11,3 km/h (2 Bft)
20.02.2017 09:00 3,3 °C 3,3 °C 77 % 1023,9 hPa 0,0 mm 5,4 km/h (1 Bft) W 259 ° 0 min 0,000 mm 0,6 UV-I 81 W/m² -0,3 °C 2,0 °C 6,4 km/h (2 Bft)
20.02.2017 09:01 3,3 °C 3,3 °C 77 % 1024,0 hPa 0,0 mm 5,5 km/h (1 Bft) W-SW 255 ° 0 min 0,025 mm 0,6 UV-I 83 W/m² -0,3 °C 2,0 °C 8,0 km/h (2 Bft)
20.02.2017 09:02 3,3 °C 3,3 °C 77 % 1023,9 hPa 0,0 mm 7,9 km/h (2 Bft) SW 223 ° 0 min 0,000 mm 0,6 UV-I 84 W/m² -0,3 °C 1,2 °C 12,9 km/h (3 Bft)
20.02.2017 09:03 3,3 °C 3,3 °C 77 % 1024,0 hPa 0,0 mm 6,8 km/h (2 Bft) W-SW 255 ° 0 min 0,000 mm 0,6 UV-I 84 W/m² -0,3 °C 1,5 °C 9,7 km/h (2 Bft)
20.02.2017 09:04 3,3 °C 3,3 °C 77 % 1023,9 hPa 0,0 mm 6,2 km/h (2 Bft) W-SW 241 ° 0 min 0,000 mm 0,6 UV-I 86 W/m² -0,3 °C 1,7 °C 11,3 km/h (2 Bft)
20.02.2017 09:05 3,3 °C 3,4 °C 77 % 1023,9 hPa 0,0 mm 5,2 km/h (1 Bft) W-SW 246 ° 0 min 0,000 mm 0,6 UV-I 93 W/m² -0,3 °C 2,1 °C 9,7 km/h (2 Bft)
20.02.2017 09:06 3,4 °C 3,4 °C 77 % 1023,9 hPa 0,0 mm 3,8 km/h (1 Bft) W-SW 241 ° 0 min 0,000 mm 0,6 UV-I 97 W/m² -0,2 °C 3,4 °C 6,4 km/h (2 Bft)
20.02.2017 09:07 3,4 °C 3,4 °C 77 % 1023,9 hPa 0,0 mm 4,9 km/h (1 Bft) W-SW 252 ° 0 min 0,000 mm 0,6 UV-I 97 W/m² -0,2 °C 2,3 °C 6,4 km/h (2 Bft)
20.02.2017 09:08 3,3 °C 3,4 °C 77 % 1024,0 hPa 0,0 mm 7,4 km/h (2 Bft) SW 220 ° 0 min 0,000 mm 0,6 UV-I 95 W/m² -0,3 °C 1,3 °C 11,3 km/h (2 Bft)
20.02.2017 09:09 3,4 °C 3,4 °C 77 % 1023,9 hPa 0,0 mm 6,4 km/h (2 Bft) SW 236 ° 0 min 0,000 mm 0,6 UV-I 90 W/m² -0,2 °C 1,7 °C 8,0 km/h (2 Bft)
20.02.2017 09:10 3,4 °C 3,4 °C 76 % 1024,0 hPa 0,0 mm 8,4 km/h (2 Bft) W-SW 237 ° 0 min 0,000 mm 0,6 UV-I 84 W/m² -0,4 °C 1,1 °C 12,9 km/h (3 Bft)
20.02.2017 09:11 3,5 °C 3,5 °C 76 % 1023,9 hPa 0,0 mm 7,2 km/h (2 Bft) W-SW 244 ° 0 min 0,000 mm 0,6 UV-I 86 W/m² -0,3 °C 1,6 °C 9,7 km/h (2 Bft)
20.02.2017 09:12 3,5 °C 3,6 °C 76 % 1023,9 hPa 0,0 mm 8,1 km/h (2 Bft) W-SW 246 ° 0 min 0,000 mm 0,6 UV-I 86 W/m² -0,3 °C 1,3 °C 12,9 km/h (3 Bft)
20.02.2017 09:13 3,6 °C 3,6 °C 76 % 1023,9 hPa 0,0 mm 8,2 km/h (2 Bft) SW 230 ° 0 min 0,000 mm 0,6 UV-I 90 W/m² -0,2 °C 1,4 °C 12,9 km/h (3 Bft)
20.02.2017 09:14 3,6 °C 3,6 °C 76 % 1023,9 hPa 0,0 mm 5,8 km/h (2 Bft) SW 235 ° 0 min 0,000 mm 0,6 UV-I 91 W/m² -0,2 °C 2,2 °C 8,0 km/h (2 Bft)
20.02.2017 09:15 3,6 °C 3,6 °C 76 % 1023,8 hPa 0,0 mm 6,3 km/h (2 Bft) W-SW 251 ° 0 min 0,000 mm 0,6 UV-I 93 W/m² -0,2 °C 2,0 °C 9,7 km/h (2 Bft)
20.02.2017 09:16 3,6 °C 3,6 °C 76 % 1023,8 hPa 0,0 mm 6,1 km/h (2 Bft) W-SW 257 ° 0 min 0,000 mm 0,7 UV-I 97 W/m² -0,2 °C 2,1 °C 9,7 km/h (2 Bft)
20.02.2017 09:17 3,7 °C 3,7 °C 75 % 1023,8 hPa 0,0 mm 6,7 km/h (2 Bft) W-SW 240 ° 0 min 0,000 mm 0,7 UV-I 98 W/m² -0,3 °C 2,0 °C 11,3 km/h (2 Bft)
20.02.2017 09:18 3,7 °C 3,7 °C 75 % 1023,8 hPa 0,0 mm 7,4 km/h (2 Bft) W-SW 256 ° 0 min 0,000 mm 0,7 UV-I 100 W/m² -0,3 °C 1,8 °C 11,3 km/h (2 Bft)
20.02.2017 09:19 3,7 °C 3,7 °C 76 % 1023,9 hPa 0,0 mm 7,2 km/h (2 Bft) W 263 ° 0 min 0,000 mm 0,7 UV-I 102 W/m² -0,1 °C 1,8 °C 12,9 km/h (3 Bft)
20.02.2017 09:20 3,7 °C 3,7 °C 75 % 1023,8 hPa 0,0 mm 8,4 km/h (2 Bft) W 263 ° 0 min 0,000 mm 0,8 UV-I 105 W/m² -0,3 °C 1,5 °C 12,9 km/h (3 Bft)
20.02.2017 09:21 3,7 °C 3,7 °C 76 % 1023,8 hPa 0,0 mm 7,8 km/h (2 Bft) W-SW 257 ° 0 min 0,000 mm 0,8 UV-I 109 W/m² -0,1 °C 1,7 °C 11,3 km/h (2 Bft)
20.02.2017 09:22 3,7 °C 3,7 °C 76 % 1023,8 hPa 0,0 mm 9,7 km/h (2 Bft) W 270 ° 0 min 0,000 mm 0,8 UV-I 118 W/m² -0,1 °C 1,2 °C 11,3 km/h (2 Bft)
20.02.2017 09:23 3,6 °C 3,7 °C 76 % 1023,9 hPa 0,0 mm 6,4 km/h (2 Bft) SW 225 ° 0 min 0,000 mm 0,9 UV-I 123 W/m² -0,2 °C 2,0 °C 14,5 km/h (3 Bft)
20.02.2017 09:24 3,7 °C 3,7 °C 76 % 1023,8 hPa 0,0 mm 5,3 km/h (1 Bft) W-SW 254 ° 0 min 0,000 mm 0,9 UV-I 127 W/m² -0,1 °C 2,5 °C 11,3 km/h (2 Bft)
20.02.2017 09:25 3,7 °C 3,7 °C 76 % 1023,9 hPa 0,0 mm 5,3 km/h (1 Bft) W 265 ° 0 min 0,000 mm 0,9 UV-I 127 W/m² -0,1 °C 2,5 °C 9,7 km/h (2 Bft)
20.02.2017 09:26 3,7 °C 3,7 °C 76 % 1023,8 hPa 0,0 mm 5,4 km/h (1 Bft) W 279 ° 0 min 0,000 mm 0,9 UV-I 132 W/m² -0,1 °C 2,4 °C 6,4 km/h (2 Bft)
20.02.2017 09:27 3,7 °C 3,7 °C 76 % 1023,8 hPa 0,0 mm 5,9 km/h (2 Bft) W-SW 253 ° 0 min 0,000 mm 0,9 UV-I 135 W/m² -0,1 °C 2,3 °C 9,7 km/h (2 Bft)
20.02.2017 09:28 3,8 °C 3,8 °C 75 % 1023,9 hPa 0,0 mm 6,2 km/h (2 Bft) W-SW 256 ° 0 min 0,000 mm 1,0 UV-I 142 W/m² -0,2 °C 2,3 °C 8,0 km/h (2 Bft)
20.02.2017 09:29 3,8 °C 3,8 °C 75 % 1023,9 hPa 0,0 mm 7,7 km/h (2 Bft) W-SW 250 ° 0 min 0,000 mm 1,0 UV-I 146 W/m² -0,2 °C 1,8 °C 11,3 km/h (2 Bft)
20.02.2017 09:30 3,8 °C 3,8 °C 75 % 1023,9 hPa 0,0 mm 7,9 km/h (2 Bft) W 267 ° 0 min 0,000 mm 1,0 UV-I 149 W/m² -0,2 °C 1,8 °C 12,9 km/h (3 Bft)
20.02.2017 09:31 3,8 °C 3,8 °C 75 % 1023,9 hPa 0,0 mm 6,8 km/h (2 Bft) S-SW 209 ° 0 min 0,000 mm 1,0 UV-I 155 W/m² -0,2 °C 2,1 °C 8,0 km/h (2 Bft)
20.02.2017 09:32 3,9 °C 3,9 °C 75 % 1023,9 hPa 0,0 mm 6,7 km/h (2 Bft) SW 219 ° 0 min 0,000 mm 1,1 UV-I 162 W/m² -0,1 °C 2,2 °C 11,3 km/h (2 Bft)
20.02.2017 09:33 3,9 °C 3,9 °C 75 % 1023,9 hPa 0,0 mm 5,3 km/h (1 Bft) W-SW 244 ° 0 min 0,000 mm 1,1 UV-I 165 W/m² -0,1 °C 2,7 °C 9,7 km/h (2 Bft)
20.02.2017 09:34 3,9 °C 3,9 °C 75 % 1023,8 hPa 0,0 mm 5,9 km/h (2 Bft) W-SW 238 ° 0 min 0,000 mm 1,1 UV-I 169 W/m² -0,1 °C 2,5 °C 9,7 km/h (2 Bft)
20.02.2017 09:35 4,0 °C 4,0 °C 75 % 1023,8 hPa 0,0 mm 6,4 km/h (2 Bft) W-SW 258 ° 0 min 0,000 mm 1,1 UV-I 172 W/m² -0,0 °C 2,4 °C 9,7 km/h (2 Bft)
20.02.2017 09:36 4,1 °C 4,1 °C 75 % 1023,8 hPa 0,0 mm 6,2 km/h (2 Bft) SW 227 ° 0 min 0,000 mm 1,1 UV-I 176 W/m² 0,1 °C 2,6 °C 11,3 km/h (2 Bft)
20.02.2017 09:37 4,1 °C 4,1 °C 74 % 1023,8 hPa 0,0 mm 9,0 km/h (2 Bft) W-SW 256 ° 0 min 0,000 mm 1,1 UV-I 176 W/m² -0,1 °C 1,8 °C 12,9 km/h (3 Bft)
20.02.2017 09:38 4,2 °C 4,2 °C 74 % 1023,8 hPa 0,0 mm 8,0 km/h (2 Bft) W 267 ° 0 min 0,000 mm 1,0 UV-I 174 W/m² -0,0 °C 2,2 °C 11,3 km/h (2 Bft)
20.02.2017 09:39 4,1 °C 4,2 °C 74 % 1023,8 hPa 0,0 mm 7,2 km/h (2 Bft) W-SW 247 ° 0 min 0,000 mm 1,0 UV-I 169 W/m² -0,1 °C 2,3 °C 11,3 km/h (2 Bft)
20.02.2017 09:40 4,1 °C 4,2 °C 74 % 1023,9 hPa 0,0 mm 8,0 km/h (2 Bft) W-SW 251 ° 0 min 0,000 mm 1,0 UV-I 149 W/m² -0,1 °C 2,1 °C 11,3 km/h (2 Bft)
20.02.2017 09:41 4,2 °C 4,2 °C 74 % 1023,8 hPa 0,0 mm 7,9 km/h (2 Bft) W-SW 254 ° 0 min 0,000 mm 0,9 UV-I 135 W/m² -0,0 °C 2,2 °C 11,3 km/h (2 Bft)
20.02.2017 09:42 4,2 °C 4,2 °C 74 % 1023,8 hPa 0,0 mm 4,8 km/h (1 Bft) W-SW 256 ° 0 min 0,000 mm 0,8 UV-I 123 W/m² -0,0 °C 3,3 °C 6,4 km/h (2 Bft)
20.02.2017 09:43 4,2 °C 4,2 °C 74 % 1023,8 hPa 0,0 mm 3,6 km/h (1 Bft) W-SW 257 ° 0 min 0,000 mm 0,8 UV-I 116 W/m² -0,0 °C 4,2 °C 4,8 km/h (1 Bft)
20.02.2017 09:44 4,1 °C 4,2 °C 74 % 1023,8 hPa 0,0 mm 5,7 km/h (1 Bft) W-SW 251 ° 0 min 0,000 mm 0,8 UV-I 114 W/m² -0,1 °C 2,8 °C 9,7 km/h (2 Bft)
20.02.2017 09:45 4,1 °C 4,1 °C 74 % 1023,8 hPa 0,0 mm 6,0 km/h (2 Bft) W-SW 247 ° 0 min 0,000 mm 0,8 UV-I 114 W/m² -0,1 °C 2,7 °C 9,7 km/h (2 Bft)
20.02.2017 09:46 4,1 °C 4,2 °C 74 % 1023,8 hPa 0,0 mm 4,0 km/h (1 Bft) W 265 ° 0 min 0,000 mm 0,8 UV-I 116 W/m² -0,1 °C 4,1 °C 6,4 km/h (2 Bft)
20.02.2017 09:47 4,1 °C 4,2 °C 74 % 1023,7 hPa 0,0 mm 4,8 km/h (1 Bft) W 267 ° 0 min 0,000 mm 0,9 UV-I 114 W/m² -0,1 °C 3,1 °C 6,4 km/h (2 Bft)
20.02.2017 09:48 4,1 °C 4,2 °C 74 % 1023,7 hPa 0,0 mm 3,2 km/h (1 Bft) W-SW 252 ° 0 min 0,000 mm 0,9 UV-I 114 W/m² -0,1 °C 4,1 °C 4,8 km/h (1 Bft)
20.02.2017 09:49 4,1 °C 4,1 °C 74 % 1023,7 hPa 0,0 mm 5,4 km/h (1 Bft) W-SW 246 ° 0 min 0,000 mm 0,9 UV-I 116 W/m² -0,1 °C 2,9 °C 8,0 km/h (2 Bft)
20.02.2017 09:50 4,1 °C 4,1 °C 74 % 1023,8 hPa 0,0 mm 3,1 km/h (1 Bft) W-SW 246 ° 0 min 0,000 mm 1,0 UV-I 120 W/m² -0,1 °C 4,1 °C 4,8 km/h (1 Bft)
20.02.2017 09:51 4,2 °C 4,2 °C 74 % 1023,8 hPa 0,0 mm 6,1 km/h (2 Bft) SW 236 ° 0 min 0,000 mm 1,0 UV-I 128 W/m² -0,0 °C 2,8 °C 11,3 km/h (2 Bft)
20.02.2017 09:52 4,2 °C 4,2 °C 74 % 1023,7 hPa 0,0 mm 4,8 km/h (1 Bft) W-SW 251 ° 0 min 0,000 mm 1,1 UV-I 134 W/m² -0,0 °C 3,3 °C 8,0 km/h (2 Bft)
20.02.2017 09:53 4,2 °C 4,2 °C 74 % 1023,7 hPa 0,0 mm 4,2 km/h (1 Bft) W-SW 248 ° 0 min 0,000 mm 1,1 UV-I 137 W/m² -0,0 °C 4,2 °C 6,4 km/h (2 Bft)
20.02.2017 09:54 4,2 °C 4,2 °C 73 % 1023,7 hPa 0,0 mm 7,0 km/h (2 Bft) W-SW 249 ° 0 min 0,000 mm 1,1 UV-I 139 W/m² -0,2 °C 2,5 °C 11,3 km/h (2 Bft)
20.02.2017 09:55 4,2 °C 4,2 °C 73 % 1023,7 hPa 0,0 mm 7,2 km/h (2 Bft) W-SW 250 ° 0 min 0,000 mm 1,2 UV-I 141 W/m² -0,2 °C 2,4 °C 11,3 km/h (2 Bft)
20.02.2017 09:56 4,2 °C 4,2 °C 73 % 1023,7 hPa 0,0 mm 6,2 km/h (2 Bft) W 271 ° 0 min 0,000 mm 1,2 UV-I 144 W/m² -0,2 °C 2,7 °C 11,3 km/h (2 Bft)
20.02.2017 09:57 4,2 °C 4,3 °C 73 % 1023,7 hPa 0,0 mm 10,9 km/h (2 Bft) W-SW 248 ° 0 min 0,000 mm 1,2 UV-I 137 W/m² -0,2 °C 1,5 °C 14,5 km/h (3 Bft)
20.02.2017 09:58 4,3 °C 4,3 °C 73 % 1023,7 hPa 0,0 mm 7,6 km/h (2 Bft) W 263 ° 0 min 0,000 mm 1,2 UV-I 130 W/m² -0,1 °C 2,4 °C 11,3 km/h (2 Bft)
20.02.2017 09:59 4,3 °C 4,3 °C 74 % 1023,6 hPa 0,0 mm 6,3 km/h (2 Bft) W-SW 254 ° 0 min 0,000 mm 1,2 UV-I 128 W/m² 0,1 °C 2,8 °C 12,9 km/h (3 Bft)
20.02.2017 10:00 4,3 °C 4,3 °C 73 % 1023,7 hPa 0,0 mm 5,9 km/h (2 Bft) W-SW 249 ° 0 min 0,000 mm 1,3 UV-I 134 W/m² -0,1 °C 3,0 °C 9,7 km/h (2 Bft)
20.02.2017 10:01 4,4 °C 4,4 °C 72 % 1023,7 hPa 0,0 mm 9,5 km/h (2 Bft) W 268 ° 0 min 0,051 mm 1,3 UV-I 142 W/m² -0,2 °C 2,1 °C 14,5 km/h (3 Bft)
20.02.2017 10:02 4,4 °C 4,4 °C 72 % 1023,6 hPa 0,0 mm 7,4 km/h (2 Bft) W 273 ° 0 min 0,000 mm 1,3 UV-I 155 W/m² -0,2 °C 2,6 °C 11,3 km/h (2 Bft)
20.02.2017 10:03 4,3 °C 4,4 °C 73 % 1023,6 hPa 0,0 mm 10,9 km/h (2 Bft) W-SW 255 ° 0 min 0,000 mm 1,3 UV-I 153 W/m² -0,1 °C 1,6 °C 12,9 km/h (3 Bft)
20.02.2017 10:04 4,3 °C 4,3 °C 72 % 1023,6 hPa 0,0 mm 11,8 km/h (2 Bft) SW 227 ° 0 min 0,000 mm 1,3 UV-I 153 W/m² -0,3 °C 1,4 °C 16,1 km/h (3 Bft)
20.02.2017 10:05 4,4 °C 4,4 °C 72 % 1023,6 hPa 0,0 mm 10,0 km/h (2 Bft) W-SW 252 ° 0 min 0,000 mm 1,3 UV-I 167 W/m² -0,2 °C 1,9 °C 14,5 km/h (3 Bft)
20.02.2017 10:06 4,5 °C 4,5 °C 71 % 1023,6 hPa 0,0 mm 6,9 km/h (2 Bft) W-SW 257 ° 0 min 0,000 mm 1,3 UV-I 151 W/m² -0,3 °C 2,9 °C 14,5 km/h (3 Bft)
20.02.2017 10:07 4,5 °C 4,5 °C 72 % 1023,6 hPa 0,0 mm 13,0 km/h (3 Bft) SW 232 ° 0 min 0,000 mm 1,3 UV-I 146 W/m² -0,1 °C 1,5 °C 17,7 km/h (3 Bft)
20.02.2017 10:08 4,5 °C 4,5 °C 72 % 1023,6 hPa 0,0 mm 7,6 km/h (2 Bft) W-SW 247 ° 0 min 0,000 mm 1,3 UV-I 141 W/m² -0,1 °C 2,7 °C 11,3 km/h (2 Bft)
20.02.2017 10:09 4,5 °C 4,6 °C 72 % 1023,6 hPa 0,0 mm 9,8 km/h (2 Bft) W 260 ° 0 min 0,000 mm 1,3 UV-I 130 W/m² -0,1 °C 2,1 °C 14,5 km/h (3 Bft)
20.02.2017 10:10 4,5 °C 4,6 °C 72 % 1023,6 hPa 0,0 mm 8,2 km/h (2 Bft) W-SW 251 ° 0 min 0,000 mm 1,3 UV-I 127 W/m² -0,1 °C 2,5 °C 14,5 km/h (3 Bft)
20.02.2017 10:11 4,5 °C 4,5 °C 71 % 1023,6 hPa 0,0 mm 12,4 km/h (3 Bft) SW 233 ° 0 min 0,000 mm 1,3 UV-I 128 W/m² -0,3 °C 1,6 °C 14,5 km/h (3 Bft)
20.02.2017 10:12 4,5 °C 4,6 °C 71 % 1023,5 hPa 0,0 mm 6,5 km/h (2 Bft) W-SW 253 ° 0 min 0,000 mm 1,3 UV-I 135 W/m² -0,3 °C 3,0 °C 11,3 km/h (2 Bft)
20.02.2017 10:13 4,6 °C 4,6 °C 71 % 1023,6 hPa 0,0 mm 9,0 km/h (2 Bft) W-SW 248 ° 0 min 0,000 mm 1,3 UV-I 142 W/m² -0,2 °C 2,4 °C 16,1 km/h (3 Bft)
20.02.2017 10:14 4,6 °C 4,6 °C 70 % 1023,6 hPa 0,0 mm 6,2 km/h (2 Bft) W-SW 254 ° 0 min 0,000 mm 1,3 UV-I 142 W/m² -0,4 °C 3,2 °C 12,9 km/h (3 Bft)
20.02.2017 10:15 4,6 °C 4,6 °C 71 % 1023,6 hPa 0,0 mm 7,6 km/h (2 Bft) W-SW 246 ° 0 min 0,000 mm 1,4 UV-I 151 W/m² -0,2 °C 2,8 °C 9,7 km/h (2 Bft)
20.02.2017 10:16 4,6 °C 4,6 °C 71 % 1023,6 hPa 0,0 mm 7,1 km/h (2 Bft) W 275 ° 0 min 0,000 mm 1,4 UV-I 153 W/m² -0,2 °C 2,9 °C 11,3 km/h (2 Bft)
20.02.2017 10:17 4,6 °C 4,6 °C 71 % 1023,6 hPa 0,0 mm 9,6 km/h (2 Bft) W 267 ° 0 min 0,000 mm 1,4 UV-I 146 W/m² -0,2 °C 2,3 °C 14,5 km/h (3 Bft)
20.02.2017 10:18 4,6 °C 4,6 °C 71 % 1023,7 hPa 0,0 mm 9,4 km/h (2 Bft) W-SW 242 ° 0 min 0,000 mm 1,4 UV-I 141 W/m² -0,2 °C 2,3 °C 12,9 km/h (3 Bft)
20.02.2017 10:19 4,6 °C 4,6 °C 71 % 1023,7 hPa 0,0 mm 8,4 km/h (2 Bft) S-SW 211 ° 0 min 0,000 mm 1,4 UV-I 135 W/m² -0,2 °C 2,6 °C 12,9 km/h (3 Bft)
20.02.2017 10:20 4,7 °C 4,7 °C 71 % 1023,7 hPa 0,0 mm 4,7 km/h (1 Bft) S-SW 207 ° 0 min 0,000 mm 1,4 UV-I 130 W/m² -0,1 °C 3,9 °C 6,4 km/h (2 Bft)
20.02.2017 10:21 4,7 °C 4,7 °C 70 % 1023,7 hPa 0,0 mm 14,0 km/h (3 Bft) W 271 ° 0 min 0,000 mm 1,4 UV-I 127 W/m² -0,3 °C 1,5 °C 19,3 km/h (3 Bft)
20.02.2017 10:22 4,7 °C 4,7 °C 70 % 1023,6 hPa 0,0 mm 12,9 km/h (3 Bft) W 274 ° 0 min 0,000 mm 1,4 UV-I 114 W/m² -0,3 °C 1,7 °C 19,3 km/h (3 Bft)
20.02.2017 10:23 4,7 °C 4,7 °C 70 % 1023,7 hPa 0,0 mm 11,6 km/h (2 Bft) W 260 ° 0 min 0,000 mm 1,4 UV-I 114 W/m² -0,3 °C 2,0 °C 16,1 km/h (3 Bft)
20.02.2017 10:24 4,7 °C 4,7 °C 70 % 1023,7 hPa 0,0 mm 5,5 km/h (1 Bft) W-SW 257 ° 0 min 0,000 mm 1,4 UV-I 121 W/m² -0,3 °C 3,6 °C 8,0 km/h (2 Bft)
20.02.2017 10:25 4,8 °C 4,8 °C 70 % 1023,7 hPa 0,0 mm 8,8 km/h (2 Bft) W-SW 255 ° 0 min 0,000 mm 1,4 UV-I 137 W/m² -0,2 °C 2,7 °C 12,9 km/h (3 Bft)
20.02.2017 10:26 4,8 °C 4,8 °C 70 % 1023,8 hPa 0,0 mm 8,1 km/h (2 Bft) W 269 ° 0 min 0,000 mm 1,5 UV-I 153 W/m² -0,2 °C 2,9 °C 11,3 km/h (2 Bft)
20.02.2017 10:27 4,8 °C 4,8 °C 71 % 1023,7 hPa 0,0 mm 8,5 km/h (2 Bft) W-SW 240 ° 0 min 0,000 mm 1,4 UV-I 127 W/m² -0,0 °C 2,8 °C 12,9 km/h (3 Bft)
20.02.2017 10:28 4,8 °C 4,8 °C 70 % 1023,8 hPa 0,0 mm 9,0 km/h (2 Bft) W 263 ° 0 min 0,000 mm 1,5 UV-I 128 W/m² -0,2 °C 2,6 °C 16,1 km/h (3 Bft)
20.02.2017 10:29 4,8 °C 4,8 °C 70 % 1023,7 hPa 0,0 mm 4,6 km/h (1 Bft) W-NW 288 ° 0 min 0,000 mm 1,5 UV-I 144 W/m² -0,2 °C 4,0 °C 6,4 km/h (2 Bft)
20.02.2017 10:30 4,9 °C 4,9 °C 70 % 1023,8 hPa 0,0 mm 16,2 km/h (3 Bft) W-NW 286 ° 0 min 0,000 mm 1,5 UV-I 190 W/m² -0,1 °C 1,4 °C 20,9 km/h (4 Bft)
20.02.2017 10:31 4,9 °C 4,9 °C 68 % 1023,7 hPa 0,0 mm 17,6 km/h (3 Bft) W-NW 286 ° 0 min 0,000 mm 1,5 UV-I 125 W/m² -0,5 °C 1,2 °C 24,1 km/h (4 Bft)
20.02.2017 10:32 4,9 °C 4,9 °C 69 % 1023,8 hPa 0,0 mm 13,5 km/h (3 Bft) W 269 ° 0 min 0,000 mm 1,6 UV-I 155 W/m² -0,3 °C 1,9 °C 17,7 km/h (3 Bft)
20.02.2017 10:33 4,9 °C 4,9 °C 69 % 1023,8 hPa 0,0 mm 8,1 km/h (2 Bft) W 271 ° 0 min 0,000 mm 1,5 UV-I 153 W/m² -0,3 °C 3,0 °C 12,9 km/h (3 Bft)
20.02.2017 10:34 4,9 °C 5,0 °C 69 % 1023,7 hPa 0,0 mm 7,4 km/h (2 Bft) W-SW 253 ° 0 min 0,000 mm 1,6 UV-I 176 W/m² -0,3 °C 3,2 °C 11,3 km/h (2 Bft)
20.02.2017 10:35 4,9 °C 5,0 °C 70 % 1023,7 hPa 0,0 mm 4,3 km/h (1 Bft) SW 231 ° 0 min 0,000 mm 1,6 UV-I 142 W/m² -0,1 °C 4,9 °C 8,0 km/h (2 Bft)
20.02.2017 10:36 4,9 °C 4,9 °C 71 % 1023,8 hPa 0,0 mm 7,8 km/h (2 Bft) SW 217 ° 0 min 0,000 mm 1,8 UV-I 142 W/m² 0,1 °C 3,1 °C 12,9 km/h (3 Bft)
20.02.2017 10:37 5,1 °C 5,1 °C 68 % 1023,7 hPa 0,0 mm 5,0 km/h (1 Bft) W 263 ° 1 min 0,000 mm 1,9 UV-I 306 W/m² -0,3 °C 4,2 °C 11,3 km/h (2 Bft)
20.02.2017 10:38 5,1 °C 5,1 °C 69 % 1023,7 hPa 0,0 mm 11,1 km/h (2 Bft) W 277 ° 1 min 0,000 mm 1,8 UV-I 258 W/m² -0,1 °C 2,6 °C 16,1 km/h (3 Bft)
20.02.2017 10:39 5,1 °C 5,1 °C 69 % 1023,8 hPa 0,0 mm 15,2 km/h (3 Bft) W-SW 258 ° 1 min 0,000 mm 1,8 UV-I 232 W/m² -0,1 °C 1,8 °C 20,9 km/h (4 Bft)
20.02.2017 10:40 5,2 °C 5,2 °C 68 % 1023,7 hPa 0,0 mm 6,5 km/h (2 Bft) W-SW 243 ° 0 min 0,000 mm 1,8 UV-I 190 W/m² -0,2 °C 3,8 °C 11,3 km/h (2 Bft)
20.02.2017 10:41 5,2 °C 5,2 °C 69 % 1023,8 hPa 0,0 mm 11,3 km/h (2 Bft) W-NW 290 ° 0 min 0,000 mm 1,6 UV-I 171 W/m² -0,0 °C 2,6 °C 16,1 km/h (3 Bft)
20.02.2017 10:42 5,2 °C 5,2 °C 68 % 1023,7 hPa 0,0 mm 9,0 km/h (2 Bft) NW 307 ° 0 min 0,000 mm 1,8 UV-I 185 W/m² -0,2 °C 3,1 °C 14,5 km/h (3 Bft)
20.02.2017 10:43 5,3 °C 5,3 °C 68 % 1023,7 hPa 0,0 mm 9,2 km/h (2 Bft) W-NW 284 ° 0 min 0,000 mm 1,8 UV-I 193 W/m² -0,1 °C 3,2 °C 12,9 km/h (3 Bft)
20.02.2017 10:44 5,3 °C 5,3 °C 69 % 1023,8 hPa 0,0 mm 5,2 km/h (1 Bft) NW 314 ° 0 min 0,000 mm 1,7 UV-I 176 W/m² 0,1 °C 4,3 °C 6,4 km/h (2 Bft)
20.02.2017 10:45 5,3 °C 5,3 °C 69 % 1023,8 hPa 0,0 mm 8,9 km/h (2 Bft) W-SW 250 ° 1 min 0,000 mm 1,7 UV-I 202 W/m² 0,1 °C 3,3 °C 16,1 km/h (3 Bft)
20.02.2017 10:46 5,4 °C 5,4 °C 68 % 1023,8 hPa 0,0 mm 11,8 km/h (2 Bft) W-NW 292 ° 0 min 0,000 mm 1,6 UV-I 142 W/m² -0,0 °C 2,8 °C 16,1 km/h (3 Bft)
20.02.2017 10:47 5,4 °C 5,4 °C 68 % 1023,7 hPa 0,0 mm 13,9 km/h (3 Bft) W-NW 289 ° 0 min 0,000 mm 1,7 UV-I 151 W/m² -0,0 °C 2,4 °C 19,3 km/h (3 Bft)
20.02.2017 10:48 5,4 °C 5,4 °C 67 % 1023,8 hPa 0,0 mm 18,2 km/h (3 Bft) W-SW 251 ° 0 min 0,000 mm 1,7 UV-I 132 W/m² -0,2 °C 1,8 °C 25,7 km/h (4 Bft)
20.02.2017 10:49 5,3 °C 5,4 °C 67 % 1023,7 hPa 0,0 mm 16,5 km/h (3 Bft) W-SW 240 ° 0 min 0,000 mm 1,7 UV-I 162 W/m² -0,3 °C 1,9 °C 20,9 km/h (4 Bft)
20.02.2017 10:50 5,3 °C 5,3 °C 67 % 1023,8 hPa 0,0 mm 13,5 km/h (3 Bft) W-NW 291 ° 0 min 0,000 mm 1,7 UV-I 193 W/m² -0,3 °C 2,4 °C 17,7 km/h (3 Bft)
20.02.2017 10:51 5,3 °C 5,3 °C 67 % 1023,8 hPa 0,0 mm 7,7 km/h (2 Bft) W-NW 288 ° 0 min 0,000 mm 1,8 UV-I 179 W/m² -0,3 °C 3,6 °C 11,3 km/h (2 Bft)
20.02.2017 10:52 5,3 °C 5,3 °C 67 % 1023,8 hPa 0,0 mm 7,7 km/h (2 Bft) W 269 ° 0 min 0,000 mm 1,7 UV-I 146 W/m² -0,3 °C 3,6 °C 11,3 km/h (2 Bft)
20.02.2017 10:53 5,4 °C 5,4 °C 68 % 1023,7 hPa 0,0 mm 12,4 km/h (3 Bft) W 270 ° 0 min 0,000 mm 1,7 UV-I 144 W/m² -0,0 °C 2,7 °C 24,1 km/h (4 Bft)
20.02.2017 10:54 5,4 °C 5,4 °C 67 % 1023,7 hPa 0,0 mm 16,9 km/h (3 Bft) W-SW 257 ° 0 min 0,000 mm 1,7 UV-I 149 W/m² -0,2 °C 2,0 °C 22,5 km/h (4 Bft)
20.02.2017 10:55 5,4 °C 5,4 °C 66 % 1023,7 hPa 0,0 mm 12,4 km/h (3 Bft) W-NW 282 ° 0 min 0,000 mm 1,6 UV-I 141 W/m² -0,4 °C 2,7 °C 16,1 km/h (3 Bft)
20.02.2017 10:56 5,4 °C 5,4 °C 67 % 1023,7 hPa 0,0 mm 9,8 km/h (2 Bft) W-SW 247 ° 0 min 0,000 mm 1,7 UV-I 165 W/m² -0,2 °C 3,2 °C 16,1 km/h (3 Bft)
20.02.2017 10:57 5,4 °C 5,4 °C 67 % 1023,8 hPa 0,0 mm 16,8 km/h (3 Bft) W 267 ° 0 min 0,000 mm 1,7 UV-I 176 W/m² -0,2 °C 2,0 °C 24,1 km/h (4 Bft)
20.02.2017 10:58 5,3 °C 5,4 °C 67 % 1023,8 hPa 0,0 mm 18,4 km/h (3 Bft) W 268 ° 0 min 0,000 mm 1,7 UV-I 178 W/m² -0,3 °C 1,6 °C 29,0 km/h (5 Bft)
20.02.2017 10:59 5,3 °C 5,3 °C 66 % 1023,8 hPa 0,0 mm 15,8 km/h (3 Bft) W 272 ° 0 min 0,000 mm 1,7 UV-I 188 W/m² -0,5 °C 2,0 °C 22,5 km/h (4 Bft)
20.02.2017 11:00 5,3 °C 5,3 °C 67 % 1023,8 hPa 0,0 mm 14,1 km/h (3 Bft) W-NW 289 ° 1 min 0,000 mm 1,7 UV-I 202 W/m² -0,3 °C 2,3 °C 22,5 km/h (4 Bft)
20.02.2017 11:01 5,2 °C 5,3 °C 68 % 1023,8 hPa 0,0 mm 11,3 km/h (2 Bft) W 279 ° 1 min 0,102 mm 1,8 UV-I 211 W/m² -0,2 °C 2,6 °C 16,1 km/h (3 Bft)
20.02.2017 11:02 5,2 °C 5,2 °C 67 % 1023,8 hPa 0,0 mm 13,1 km/h (3 Bft) W 259 ° 1 min 0,000 mm 1,9 UV-I 258 W/m² -0,4 °C 2,3 °C 19,3 km/h (3 Bft)
20.02.2017 11:03 5,2 °C 5,3 °C 67 % 1023,8 hPa 0,0 mm 17,6 km/h (3 Bft) W 273 ° 1 min 0,000 mm 2,1 UV-I 306 W/m² -0,4 °C 1,6 °C 22,5 km/h (4 Bft)
20.02.2017 11:04 5,3 °C 5,3 °C 67 % 1023,7 hPa 0,0 mm 9,3 km/h (2 Bft) W-NW 288 ° 1 min 0,000 mm 1,8 UV-I 236 W/m² -0,3 °C 3,2 °C 22,5 km/h (4 Bft)
20.02.2017 11:05 5,3 °C 5,3 °C 67 % 1023,8 hPa 0,0 mm 13,9 km/h (3 Bft) W 261 ° 1 min 0,000 mm 1,8 UV-I 230 W/m² -0,3 °C 2,3 °C 20,9 km/h (4 Bft)
20.02.2017 11:06 5,3 °C 5,3 °C 67 % 1023,8 hPa 0,0 mm 11,1 km/h (2 Bft) W 261 ° 1 min 0,000 mm 1,9 UV-I 258 W/m² -0,3 °C 2,8 °C 16,1 km/h (3 Bft)
20.02.2017 11:07 5,4 °C 5,4 °C 67 % 1023,8 hPa 0,0 mm 11,5 km/h (2 Bft) W 269 ° 1 min 0,000 mm 2,0 UV-I 262 W/m² -0,2 °C 2,8 °C 17,7 km/h (3 Bft)
20.02.2017 11:08 5,4 °C 5,4 °C 66 % 1023,7 hPa 0,0 mm 13,3 km/h (3 Bft) W-SW 256 ° 1 min 0,000 mm 2,0 UV-I 265 W/m² -0,4 °C 2,5 °C 19,3 km/h (3 Bft)
20.02.2017 11:09 5,4 °C 5,4 °C 67 % 1023,7 hPa 0,0 mm 19,6 km/h (3 Bft) W 265 ° 1 min 0,000 mm 2,0 UV-I 269 W/m² -0,2 °C 1,6 °C 25,7 km/h (4 Bft)
20.02.2017 11:10 5,5 °C 5,5 °C 67 % 1023,7 hPa 0,0 mm 16,2 km/h (3 Bft) W-NW 284 ° 1 min 0,000 mm 2,0 UV-I 281 W/m² -0,1 °C 2,2 °C 25,7 km/h (4 Bft)
20.02.2017 11:11 5,4 °C 5,5 °C 66 % 1023,8 hPa 0,0 mm 14,6 km/h (3 Bft) W 281 ° 1 min 0,000 mm 2,0 UV-I 287 W/m² -0,4 °C 2,3 °C 17,7 km/h (3 Bft)
20.02.2017 11:12 5,4 °C 5,4 °C 67 % 1023,8 hPa 0,0 mm 12,9 km/h (3 Bft) W-SW 251 ° 1 min 0,000 mm 2,0 UV-I 287 W/m² -0,2 °C 2,6 °C 17,7 km/h (3 Bft)
20.02.2017 11:13 5,4 °C 5,4 °C 67 % 1023,8 hPa 0,0 mm 6,6 km/h (2 Bft) W-SW 248 ° 1 min 0,000 mm 2,1 UV-I 327 W/m² -0,2 °C 4,0 °C 9,7 km/h (2 Bft)
20.02.2017 11:14 5,5 °C 5,5 °C 67 % 1023,8 hPa 0,0 mm 7,7 km/h (2 Bft) SW 225 ° 1 min 0,000 mm 2,0 UV-I 287 W/m² -0,1 °C 3,8 °C 14,5 km/h (3 Bft)
20.02.2017 11:15 5,5 °C 5,5 °C 67 % 1023,8 hPa 0,0 mm 14,0 km/h (3 Bft) W 260 ° 1 min 0,000 mm 2,0 UV-I 287 W/m² -0,1 °C 2,5 °C 20,9 km/h (4 Bft)
20.02.2017 11:16 5,6 °C 5,6 °C 67 % 1023,8 hPa 0,0 mm 12,9 km/h (3 Bft) W 260 ° 1 min 0,000 mm 2,0 UV-I 287 W/m² -0,0 °C 2,8 °C 20,9 km/h (4 Bft)
20.02.2017 11:17 5,6 °C 5,6 °C 66 % 1024,0 hPa 0,0 mm 17,0 km/h (3 Bft) W-SW 249 ° 1 min 0,000 mm 2,6 UV-I 287 W/m² -0,2 °C 2,2 °C 29,0 km/h (5 Bft)
20.02.2017 11:18 5,6 °C 5,6 °C 66 % 1023,9 hPa 0,0 mm 17,0 km/h (3 Bft) W-SW 257 ° 1 min 0,000 mm 1,7 UV-I 287 W/m² -0,2 °C 2,2 °C 24,1 km/h (4 Bft)
20.02.2017 11:19 5,6 °C 5,6 °C 66 % 1023,9 hPa 0,0 mm 14,9 km/h (3 Bft) W-SW 257 ° 1 min 0,000 mm 1,7 UV-I 223 W/m² -0,2 °C 2,5 °C 27,4 km/h (4 Bft)
20.02.2017 11:20 5,5 °C 5,6 °C 66 % 1023,9 hPa 0,0 mm 12,5 km/h (3 Bft) W 274 ° 1 min 0,000 mm 1,6 UV-I 218 W/m² -0,3 °C 2,8 °C 20,9 km/h (4 Bft)
20.02.2017 11:21 5,6 °C 5,6 °C 66 % 1023,8 hPa 0,0 mm 12,6 km/h (3 Bft) W-SW 257 ° 1 min 0,000 mm 1,7 UV-I 225 W/m² -0,2 °C 2,9 °C 16,1 km/h (3 Bft)
20.02.2017 11:22 5,5 °C 5,6 °C 66 % 1023,9 hPa 0,0 mm 11,5 km/h (2 Bft) W-NW 297 ° 1 min 0,000 mm 1,7 UV-I 239 W/m² -0,3 °C 3,0 °C 19,3 km/h (3 Bft)
20.02.2017 11:23 5,5 °C 5,6 °C 67 % 1023,9 hPa 0,0 mm 14,7 km/h (3 Bft) W 267 ° 1 min 0,000 mm 1,6 UV-I 236 W/m² -0,1 °C 2,4 °C 19,3 km/h (3 Bft)
20.02.2017 11:24 5,4 °C 5,5 °C 67 % 1023,9 hPa 0,0 mm 13,7 km/h (3 Bft) W-SW 254 ° 1 min 0,000 mm 1,5 UV-I 216 W/m² -0,2 °C 2,4 °C 19,3 km/h (3 Bft)
20.02.2017 11:25 5,4 °C 5,5 °C 67 % 1023,9 hPa 0,0 mm 10,5 km/h (2 Bft) W-SW 257 ° 0 min 0,000 mm 1,4 UV-I 163 W/m² -0,2 °C 3,0 °C 19,3 km/h (3 Bft)
20.02.2017 11:26 5,4 °C 5,4 °C 67 % 1023,9 hPa 0,0 mm 9,3 km/h (2 Bft) W 265 ° 0 min 0,000 mm 1,3 UV-I 148 W/m² -0,2 °C 3,3 °C 11,3 km/h (2 Bft)
20.02.2017 11:27 5,4 °C 5,4 °C 68 % 1023,9 hPa 0,0 mm 11,7 km/h (2 Bft) W-SW 253 ° 0 min 0,000 mm 1,4 UV-I 149 W/m² -0,0 °C 2,8 °C 19,3 km/h (3 Bft)
20.02.2017 11:28 5,3 °C 5,4 °C 67 % 1024,0 hPa 0,0 mm 16,4 km/h (3 Bft) W 267 ° 0 min 0,000 mm 1,4 UV-I 155 W/m² -0,3 °C 1,9 °C 19,3 km/h (3 Bft)
20.02.2017 11:29 5,3 °C 5,3 °C 67 % 1024,0 hPa 0,0 mm 13,5 km/h (3 Bft) W 275 ° 0 min 0,000 mm 1,4 UV-I 162 W/m² -0,3 °C 2,4 °C 19,3 km/h (3 Bft)
20.02.2017 11:30 5,3 °C 5,3 °C 67 % 1023,9 hPa 0,0 mm 9,7 km/h (2 Bft) W-SW 252 ° 0 min 0,000 mm 1,5 UV-I 179 W/m² -0,3 °C 3,1 °C 17,7 km/h (3 Bft)
20.02.2017 11:31 5,3 °C 5,3 °C 68 % 1024,0 hPa 0,0 mm 10,7 km/h (2 Bft) W-SW 254 ° 1 min 0,000 mm 1,6 UV-I 236 W/m² -0,1 °C 2,9 °C 16,1 km/h (3 Bft)
20.02.2017 11:32 5,3 °C 5,4 °C 67 % 1024,0 hPa 0,0 mm 11,0 km/h (2 Bft) W 260 ° 1 min 0,000 mm 1,7 UV-I 248 W/m² -0,3 °C 2,8 °C 24,1 km/h (4 Bft)
20.02.2017 11:33 5,4 °C 5,4 °C 67 % 1024,0 hPa 0,0 mm 13,6 km/h (3 Bft) W 269 ° 1 min 0,000 mm 1,7 UV-I 246 W/m² -0,2 °C 2,5 °C 24,1 km/h (4 Bft)
20.02.2017 11:34 5,4 °C 5,4 °C 67 % 1024,0 hPa 0,0 mm 13,5 km/h (3 Bft) W 260 ° 1 min 0,000 mm 1,7 UV-I 244 W/m² -0,2 °C 2,5 °C 20,9 km/h (4 Bft)
20.02.2017 11:35 5,4 °C 5,4 °C 68 % 1024,0 hPa 0,0 mm 13,2 km/h (3 Bft) W-SW 238 ° 1 min 0,000 mm 1,7 UV-I 251 W/m² -0,0 °C 2,5 °C 17,7 km/h (3 Bft)
20.02.2017 11:36 5,4 °C 5,4 °C 68 % 1024,0 hPa 0,0 mm 9,1 km/h (2 Bft) W 277 ° 1 min 0,000 mm 1,8 UV-I 267 W/m² -0,0 °C 3,3 °C 12,9 km/h (3 Bft)
20.02.2017 11:37 5,4 °C 5,4 °C 68 % 1024,0 hPa 0,0 mm 11,8 km/h (2 Bft) W 260 ° 1 min 0,000 mm 1,8 UV-I 290 W/m² -0,0 °C 2,8 °C 16,1 km/h (3 Bft)
20.02.2017 11:38 5,4 °C 5,4 °C 69 % 1024,0 hPa 0,0 mm 9,0 km/h (2 Bft) W-SW 248 ° 1 min 0,000 mm 1,8 UV-I 294 W/m² 0,2 °C 3,4 °C 19,3 km/h (3 Bft)
20.02.2017 11:39 5,4 °C 5,4 °C 67 % 1024,0 hPa 0,0 mm 7,5 km/h (2 Bft) SW 227 ° 1 min 0,000 mm 1,8 UV-I 295 W/m² -0,2 °C 3,7 °C 14,5 km/h (3 Bft)
20.02.2017 11:40 5,4 °C 5,5 °C 68 % 1024,0 hPa 0,0 mm 10,9 km/h (2 Bft) W 269 ° 1 min 0,000 mm 1,7 UV-I 346 W/m² -0,0 °C 3,0 °C 16,1 km/h (3 Bft)
20.02.2017 11:41 5,4 °C 5,5 °C 68 % 1024,0 hPa 0,0 mm 12,4 km/h (3 Bft) W-SW 242 ° 1 min 0,000 mm 1,5 UV-I 346 W/m² -0,0 °C 2,7 °C 22,5 km/h (4 Bft)
20.02.2017 11:42 5,4 °C 5,4 °C 68 % 1024,0 hPa 0,0 mm 12,7 km/h (3 Bft) W 260 ° 0 min 0,000 mm 1,4 UV-I 197 W/m² -0,0 °C 2,6 °C 19,3 km/h (3 Bft)
20.02.2017 11:43 5,3 °C 5,4 °C 68 % 1024,0 hPa 0,0 mm 11,6 km/h (2 Bft) W 279 ° 0 min 0,000 mm 1,3 UV-I 188 W/m² -0,1 °C 2,7 °C 16,1 km/h (3 Bft)
20.02.2017 11:44 5,3 °C 5,3 °C 68 % 1024,0 hPa 0,0 mm 10,7 km/h (2 Bft) W 277 ° 0 min 0,000 mm 1,4 UV-I 188 W/m² -0,1 °C 2,9 °C 17,7 km/h (3 Bft)
20.02.2017 11:45 5,3 °C 5,3 °C 68 % 1023,9 hPa 0,0 mm 9,1 km/h (2 Bft) W 275 ° 0 min 0,000 mm 1,4 UV-I 199 W/m² -0,1 °C 3,2 °C 14,5 km/h (3 Bft)
20.02.2017 11:46 5,3 °C 5,3 °C 68 % 1023,9 hPa 0,0 mm 13,7 km/h (3 Bft) W-SW 258 ° 0 min 0,000 mm 1,4 UV-I 188 W/m² -0,1 °C 2,3 °C 19,3 km/h (3 Bft)
20.02.2017 11:47 5,3 °C 5,3 °C 68 % 1024,0 hPa 0,0 mm 17,5 km/h (3 Bft) W-SW 250 ° 0 min 0,000 mm 1,3 UV-I 181 W/m² -0,1 °C 1,8 °C 25,7 km/h (4 Bft)
20.02.2017 11:48 5,2 °C 5,3 °C 68 % 1023,8 hPa 0,0 mm 13,5 km/h (3 Bft) W 278 ° 0 min 0,000 mm 1,3 UV-I 176 W/m² -0,2 °C 2,2 °C 24,1 km/h (4 Bft)
20.02.2017 11:49 5,2 °C 5,2 °C 68 % 1023,8 hPa 0,0 mm 13,5 km/h (3 Bft) W-SW 246 ° 0 min 0,000 mm 1,3 UV-I 163 W/m² -0,2 °C 2,2 °C 24,1 km/h (4 Bft)
20.02.2017 11:50 5,2 °C 5,2 °C 68 % 1023,8 hPa 0,0 mm 11,1 km/h (2 Bft) W-SW 247 ° 0 min 0,000 mm 1,2 UV-I 167 W/m² -0,2 °C 2,7 °C 14,5 km/h (3 Bft)
20.02.2017 11:51 5,2 °C 5,2 °C 68 % 1023,7 hPa 0,0 mm 8,9 km/h (2 Bft) W 267 ° 0 min 0,000 mm 1,3 UV-I 167 W/m² -0,2 °C 3,1 °C 14,5 km/h (3 Bft)
20.02.2017 11:52 5,2 °C 5,2 °C 68 % 1023,7 hPa 0,0 mm 5,2 km/h (1 Bft) W 263 ° 0 min 0,000 mm 1,2 UV-I 160 W/m² -0,2 °C 4,2 °C 11,3 km/h (2 Bft)
20.02.2017 11:53 5,2 °C 5,2 °C 69 % 1023,8 hPa 0,0 mm 8,6 km/h (2 Bft) W 270 ° 0 min 0,000 mm 1,2 UV-I 151 W/m² -0,0 °C 3,2 °C 14,5 km/h (3 Bft)
20.02.2017 11:54 5,2 °C 5,2 °C 70 % 1023,8 hPa 0,0 mm 6,4 km/h (2 Bft) W 271 ° 0 min 0,000 mm 1,2 UV-I 158 W/m² 0,2 °C 3,8 °C 12,9 km/h (3 Bft)
20.02.2017 11:55 5,2 °C 5,2 °C 68 % 1023,8 hPa 0,0 mm 5,0 km/h (1 Bft) W-SW 257 ° 0 min 0,000 mm 1,4 UV-I 179 W/m² -0,2 °C 4,3 °C 8,0 km/h (2 Bft)
20.02.2017 11:56 5,2 °C 5,2 °C 69 % 1023,7 hPa 0,0 mm 8,0 km/h (2 Bft) W 273 ° 0 min 0,000 mm 1,4 UV-I 190 W/m² -0,0 °C 3,4 °C 12,9 km/h (3 Bft)
20.02.2017 11:57 5,3 °C 5,3 °C 68 % 1023,7 hPa 0,0 mm 8,6 km/h (2 Bft) NW 308 ° 0 min 0,000 mm 1,5 UV-I 197 W/m² -0,1 °C 3,3 °C 12,9 km/h (3 Bft)
20.02.2017 11:58 5,3 °C 5,3 °C 68 % 1023,7 hPa 0,0 mm 8,4 km/h (2 Bft) W 280 ° 1 min 0,000 mm 1,5 UV-I 200 W/m² -0,1 °C 3,4 °C 12,9 km/h (3 Bft)
20.02.2017 11:59 5,3 °C 5,3 °C 68 % 1023,7 hPa 0,0 mm 5,1 km/h (1 Bft) W-NW 284 ° 1 min 0,000 mm 1,5 UV-I 200 W/m² -0,1 °C 4,4 °C 6,4 km/h (2 Bft)
20.02.2017 12:00 5,3 °C 5,3 °C 68 % 1023,7 hPa 0,0 mm 9,7 km/h (2 Bft) W 261 ° 0 min 0,000 mm 1,5 UV-I 183 W/m² -0,1 °C 3,1 °C 16,1 km/h (3 Bft)
20.02.2017 12:01 5,3 °C 5,3 °C 68 % 1023,7 hPa 0,0 mm 3,6 km/h (1 Bft) W 270 ° 0 min 0,127 mm 1,5 UV-I 186 W/m² -0,1 °C 5,3 °C 4,8 km/h (1 Bft)
20.02.2017 12:02 5,3 °C 5,3 °C 68 % 1023,7 hPa 0,0 mm 7,5 km/h (2 Bft) W 278 ° 0 min 0,000 mm 1,5 UV-I 186 W/m² -0,1 °C 3,6 °C 14,5 km/h (3 Bft)
20.02.2017 12:03 5,3 °C 5,3 °C 68 % 1023,7 hPa 0,0 mm 15,6 km/h (3 Bft) W 271 ° 1 min 0,000 mm 1,6 UV-I 211 W/m² -0,1 °C 2,0 °C 22,5 km/h (4 Bft)
20.02.2017 12:04 5,3 °C 5,3 °C 68 % 1023,6 hPa 0,0 mm 11,1 km/h (2 Bft) W 273 ° 1 min 0,000 mm 1,6 UV-I 216 W/m² -0,1 °C 2,8 °C 17,7 km/h (3 Bft)
20.02.2017 12:05 5,3 °C 5,3 °C 69 % 1023,6 hPa 0,0 mm 14,1 km/h (3 Bft) W-SW 257 ° 1 min 0,000 mm 1,7 UV-I 220 W/m² 0,1 °C 2,3 °C 19,3 km/h (3 Bft)
20.02.2017 12:06 5,3 °C 5,3 °C 68 % 1023,6 hPa 0,0 mm 10,9 km/h (2 Bft) W 270 ° 1 min 0,000 mm 1,7 UV-I 264 W/m² -0,1 °C 2,8 °C 16,1 km/h (3 Bft)
20.02.2017 12:07 5,3 °C 5,3 °C 68 % 1023,6 hPa 0,0 mm 13,2 km/h (3 Bft) W-SW 254 ° 1 min 0,000 mm 1,9 UV-I 287 W/m² -0,1 °C 2,4 °C 17,7 km/h (3 Bft)
20.02.2017 12:08 5,3 °C 5,3 °C 68 % 1023,6 hPa 0,0 mm 15,9 km/h (3 Bft) W 277 ° 1 min 0,000 mm 2,0 UV-I 295 W/m² -0,1 °C 2,0 °C 19,3 km/h (3 Bft)
20.02.2017 12:09 5,3 °C 5,3 °C 68 % 1023,5 hPa 0,0 mm 11,6 km/h (2 Bft) W-SW 246 ° 1 min 0,000 mm 1,9 UV-I 294 W/m² -0,1 °C 2,7 °C 17,7 km/h (3 Bft)
20.02.2017 12:10 5,3 °C 5,3 °C 69 % 1023,6 hPa 0,0 mm 14,2 km/h (3 Bft) W 273 ° 1 min 0,000 mm 1,9 UV-I 274 W/m² 0,1 °C 2,2 °C 19,3 km/h (3 Bft)
20.02.2017 12:11 5,3 °C 5,3 °C 68 % 1023,5 hPa 0,0 mm 11,5 km/h (2 Bft) W 275 ° 1 min 0,000 mm 2,0 UV-I 285 W/m² -0,1 °C 2,7 °C 16,1 km/h (3 Bft)
20.02.2017 12:12 5,3 °C 5,3 °C 69 % 1023,5 hPa 0,0 mm 14,0 km/h (3 Bft) W 261 ° 1 min 0,000 mm 2,0 UV-I 304 W/m² 0,1 °C 2,3 °C 20,9 km/h (4 Bft)
20.02.2017 12:13 5,3 °C 5,3 °C 69 % 1023,6 hPa 0,0 mm 15,1 km/h (3 Bft) W-NW 293 ° 1 min 0,000 mm 2,7 UV-I 304 W/m² 0,1 °C 2,1 °C 19,3 km/h (3 Bft)
20.02.2017 12:14 5,3 °C 5,3 °C 69 % 1023,5 hPa 0,0 mm 15,5 km/h (3 Bft) W-NW 284 ° 1 min 0,000 mm 2,1 UV-I 304 W/m² 0,1 °C 2,0 °C 22,5 km/h (4 Bft)
20.02.2017 12:15 5,4 °C 5,4 °C 68 % 1023,5 hPa 0,0 mm 15,0 km/h (3 Bft) W-SW 242 ° 1 min 0,000 mm 2,0 UV-I 301 W/m² -0,0 °C 2,2 °C 20,9 km/h (4 Bft)
20.02.2017 12:16 5,4 °C 5,4 °C 68 % 1023,5 hPa 0,0 mm 14,1 km/h (3 Bft) W-SW 255 ° 1 min 0,000 mm 2,0 UV-I 281 W/m² -0,0 °C 2,4 °C 24,1 km/h (4 Bft)
20.02.2017 12:17 5,4 °C 5,4 °C 69 % 1023,5 hPa 0,0 mm 10,9 km/h (2 Bft) W-SW 238 ° 1 min 0,000 mm 2,0 UV-I 281 W/m² 0,2 °C 3,0 °C 20,9 km/h (4 Bft)
20.02.2017 12:18 5,4 °C 5,4 °C 68 % 1023,5 hPa 0,0 mm 14,6 km/h (3 Bft) W 270 ° 1 min 0,000 mm 2,1 UV-I 304 W/m² -0,0 °C 2,3 °C 20,9 km/h (4 Bft)
20.02.2017 12:19 5,4 °C 5,4 °C 68 % 1023,4 hPa 0,0 mm 8,4 km/h (2 Bft) W-SW 256 ° 1 min 0,000 mm 2,1 UV-I 308 W/m² -0,0 °C 3,5 °C 12,9 km/h (3 Bft)
20.02.2017 12:20 5,5 °C 5,5 °C 68 % 1023,4 hPa 0,0 mm 15,0 km/h (3 Bft) SW 224 ° 1 min 0,000 mm 2,0 UV-I 301 W/m² 0,1 °C 2,4 °C 19,3 km/h (3 Bft)
20.02.2017 12:21 5,5 °C 5,5 °C 68 % 1023,5 hPa 0,0 mm 14,8 km/h (3 Bft) W 269 ° 1 min 0,000 mm 2,0 UV-I 276 W/m² 0,1 °C 2,4 °C 22,5 km/h (4 Bft)
20.02.2017 12:22 5,4 °C 5,5 °C 68 % 1023,4 hPa 0,0 mm 16,0 km/h (3 Bft) W-SW 247 ° 1 min 0,000 mm 1,8 UV-I 239 W/m² -0,0 °C 2,1 °C 19,3 km/h (3 Bft)
20.02.2017 12:23 5,4 °C 5,4 °C 68 % 1023,4 hPa 0,0 mm 12,9 km/h (3 Bft) W 269 ° 1 min 0,000 mm 1,8 UV-I 206 W/m² -0,0 °C 2,6 °C 17,7 km/h (3 Bft)
20.02.2017 12:24 5,4 °C 5,4 °C 69 % 1023,4 hPa 0,0 mm 10,9 km/h (2 Bft) W 265 ° 1 min 0,000 mm 1,9 UV-I 206 W/m² 0,2 °C 3,0 °C 16,1 km/h (3 Bft)
20.02.2017 12:25 5,4 °C 5,4 °C 69 % 1023,4 hPa 0,0 mm 12,9 km/h (3 Bft) W 275 ° 1 min 0,000 mm 2,4 UV-I 206 W/m² 0,2 °C 2,6 °C 17,7 km/h (3 Bft)
20.02.2017 12:26 5,4 °C 5,4 °C 68 % 1023,3 hPa 0,0 mm 9,0 km/h (2 Bft) W 259 ° 1 min 0,000 mm 2,5 UV-I 385 W/m² -0,0 °C 3,4 °C 12,9 km/h (3 Bft)
20.02.2017 12:27 5,4 °C 5,4 °C 69 % 1023,3 hPa 0,0 mm 7,0 km/h (2 Bft) W 273 ° 1 min 0,000 mm 2,9 UV-I 385 W/m² 0,2 °C 3,9 °C 9,7 km/h (2 Bft)
20.02.2017 12:28 5,5 °C 5,5 °C 69 % 1023,3 hPa 0,0 mm 7,4 km/h (2 Bft) W 279 ° 1 min 0,000 mm 3,1 UV-I 642 W/m² 0,3 °C 3,9 °C 9,7 km/h (2 Bft)
20.02.2017 12:29 5,6 °C 5,6 °C 68 % 1023,3 hPa 0,0 mm 5,8 km/h (2 Bft) W 277 ° 1 min 0,000 mm 3,2 UV-I 705 W/m² 0,2 °C 4,5 °C 12,9 km/h (3 Bft)
20.02.2017 12:30 5,6 °C 5,6 °C 68 % 1023,2 hPa 0,0 mm 8,1 km/h (2 Bft) W-NW 289 ° 1 min 0,000 mm 2,3 UV-I 714 W/m² 0,2 °C 3,8 °C 14,5 km/h (3 Bft)
20.02.2017 12:31 5,7 °C 5,7 °C 68 % 1023,2 hPa 0,0 mm 9,8 km/h (2 Bft) W 267 ° 1 min 0,000 mm 2,2 UV-I 225 W/m² 0,3 °C 3,5 °C 20,9 km/h (4 Bft)
20.02.2017 12:32 5,7 °C 5,7 °C 67 % 1023,2 hPa 0,0 mm 6,7 km/h (2 Bft) W-SW 258 ° 1 min 0,000 mm 2,0 UV-I 211 W/m² 0,1 °C 4,3 °C 9,7 km/h (2 Bft)
20.02.2017 12:33 5,8 °C 5,8 °C 67 % 1023,1 hPa 0,0 mm 9,9 km/h (2 Bft) W-SW 245 ° 0 min 0,000 mm 1,9 UV-I 186 W/m² 0,2 °C 3,6 °C 20,9 km/h (4 Bft)
20.02.2017 12:34 5,8 °C 5,8 °C 67 % 1023,1 hPa 0,0 mm 13,5 km/h (3 Bft) W-SW 253 ° 0 min 0,000 mm 1,9 UV-I 179 W/m² 0,2 °C 3,0 °C 17,7 km/h (3 Bft)
20.02.2017 12:35 5,8 °C 5,8 °C 67 % 1023,0 hPa 0,0 mm 12,5 km/h (3 Bft) W-SW 252 ° 1 min 0,000 mm 2,0 UV-I 246 W/m² 0,2 °C 3,1 °C 17,7 km/h (3 Bft)
20.02.2017 12:36 5,7 °C 5,8 °C 67 % 1023,0 hPa 0,0 mm 11,0 km/h (2 Bft) W 260 ° 1 min 0,000 mm 2,1 UV-I 258 W/m² 0,1 °C 3,3 °C 17,7 km/h (3 Bft)
20.02.2017 12:37 5,7 °C 5,7 °C 67 % 1023,0 hPa 0,0 mm 9,7 km/h (2 Bft) W-SW 242 ° 1 min 0,000 mm 2,1 UV-I 258 W/m² 0,1 °C 3,6 °C 14,5 km/h (3 Bft)
20.02.2017 12:38 5,7 °C 5,7 °C 67 % 1023,0 hPa 0,0 mm 11,3 km/h (2 Bft) W-SW 249 ° 1 min 0,000 mm 2,0 UV-I 221 W/m² 0,1 °C 3,2 °C 16,1 km/h (3 Bft)
20.02.2017 12:39 5,7 °C 5,7 °C 68 % 1023,0 hPa 0,0 mm 8,7 km/h (2 Bft) SW 235 ° 1 min 0,000 mm 1,9 UV-I 204 W/m² 0,3 °C 3,8 °C 11,3 km/h (2 Bft)
20.02.2017 12:40 5,7 °C 5,7 °C 67 % 1023,0 hPa 0,0 mm 9,8 km/h (2 Bft) W-SW 249 ° 0 min 0,000 mm 1,9 UV-I 192 W/m² 0,1 °C 3,5 °C 14,5 km/h (3 Bft)
20.02.2017 12:41 5,8 °C 5,8 °C 67 % 1022,9 hPa 0,0 mm 8,9 km/h (2 Bft) W-SW 237 ° 0 min 0,000 mm 1,9 UV-I 176 W/m² 0,2 °C 3,9 °C 16,1 km/h (3 Bft)
20.02.2017 12:42 5,8 °C 5,8 °C 67 % 1022,9 hPa 0,0 mm 5,5 km/h (1 Bft) W-SW 258 ° 0 min 0,000 mm 1,8 UV-I 176 W/m² 0,2 °C 4,8 °C 9,7 km/h (2 Bft)
20.02.2017 12:43 5,8 °C 5,8 °C 68 % 1022,8 hPa 0,0 mm 10,3 km/h (2 Bft) W 265 ° 0 min 0,000 mm 1,8 UV-I 183 W/m² 0,4 °C 3,6 °C 17,7 km/h (3 Bft)
20.02.2017 12:44 5,8 °C 5,8 °C 67 % 1022,8 hPa 0,0 mm 7,8 km/h (2 Bft) W 271 ° 0 min 0,000 mm 1,8 UV-I 193 W/m² 0,2 °C 4,1 °C 14,5 km/h (3 Bft)
20.02.2017 12:45 5,8 °C 5,8 °C 67 % 1022,8 hPa 0,0 mm 8,0 km/h (2 Bft) W-SW 251 ° 1 min 0,000 mm 1,8 UV-I 209 W/m² 0,2 °C 4,1 °C 14,5 km/h (3 Bft)
20.02.2017 12:46 5,8 °C 5,8 °C 68 % 1022,8 hPa 0,0 mm 9,5 km/h (2 Bft) SW 219 ° 1 min 0,000 mm 1,9 UV-I 225 W/m² 0,4 °C 3,7 °C 14,5 km/h (3 Bft)
20.02.2017 12:47 5,8 °C 5,8 °C 66 % 1022,8 hPa 0,0 mm 12,9 km/h (3 Bft) SW 215 ° 1 min 0,000 mm 1,9 UV-I 255 W/m² -0,0 °C 3,1 °C 17,7 km/h (3 Bft)
20.02.2017 12:48 5,8 °C 5,8 °C 65 % 1022,8 hPa 0,0 mm 13,7 km/h (3 Bft) W-NW 302 ° 1 min 0,000 mm 1,9 UV-I 253 W/m² -0,3 °C 2,9 °C 16,1 km/h (3 Bft)
20.02.2017 12:49 5,8 °C 5,9 °C 66 % 1022,7 hPa 0,0 mm 12,3 km/h (3 Bft) W 265 ° 1 min 0,000 mm 1,9 UV-I 257 W/m² -0,0 °C 3,2 °C 19,3 km/h (3 Bft)
20.02.2017 12:50 5,8 °C 5,9 °C 66 % 1022,7 hPa 0,0 mm 14,0 km/h (3 Bft) W-SW 256 ° 1 min 0,000 mm 1,9 UV-I 265 W/m² -0,0 °C 2,9 °C 19,3 km/h (3 Bft)
20.02.2017 12:51 5,9 °C 5,9 °C 66 % 1022,7 hPa 0,0 mm 8,0 km/h (2 Bft) W 260 ° 1 min 0,000 mm 2,3 UV-I 318 W/m² 0,0 °C 4,2 °C 14,5 km/h (3 Bft)
20.02.2017 12:52 5,9 °C 5,9 °C 66 % 1022,6 hPa 0,0 mm 12,1 km/h (2 Bft) W 267 ° 1 min 0,000 mm 2,2 UV-I 343 W/m² 0,0 °C 3,3 °C 17,7 km/h (3 Bft)
20.02.2017 12:53 5,9 °C 5,9 °C 66 % 1022,7 hPa 0,0 mm 9,9 km/h (2 Bft) W 261 ° 1 min 0,000 mm 2,1 UV-I 336 W/m² 0,0 °C 3,8 °C 17,7 km/h (3 Bft)
20.02.2017 12:54 5,9 °C 5,9 °C 66 % 1022,5 hPa 0,0 mm 11,7 km/h (2 Bft) W-SW 246 ° 1 min 0,000 mm 3,1 UV-I 336 W/m² 0,0 °C 3,4 °C 14,5 km/h (3 Bft)
20.02.2017 12:55 6,0 °C 6,0 °C 66 % 1022,5 hPa 0,0 mm 12,8 km/h (3 Bft) SW 233 ° 1 min 0,000 mm 2,7 UV-I 336 W/m² 0,1 °C 3,3 °C 24,1 km/h (4 Bft)
20.02.2017 12:56 6,1 °C 6,1 °C 65 % 1022,5 hPa 0,0 mm 8,0 km/h (2 Bft) W-SW 257 ° 1 min 0,000 mm 2,3 UV-I 336 W/m² 0,0 °C 4,4 °C 11,3 km/h (2 Bft)
20.02.2017 12:57 6,2 °C 6,2 °C 65 % 1022,5 hPa 0,0 mm 7,3 km/h (2 Bft) W 269 ° 1 min 0,000 mm 2,5 UV-I 424 W/m² 0,1 °C 4,7 °C 12,9 km/h (3 Bft)
20.02.2017 12:58 6,3 °C 6,3 °C 65 % 1022,4 hPa 0,0 mm 8,6 km/h (2 Bft) W-SW 257 ° 1 min 0,000 mm 2,1 UV-I 424 W/m² 0,2 °C 4,5 °C 12,9 km/h (3 Bft)
20.02.2017 12:59 6,3 °C 6,3 °C 66 % 1022,4 hPa 0,0 mm 13,1 km/h (3 Bft) W-SW 246 ° 1 min 0,000 mm 2,1 UV-I 265 W/m² 0,4 °C 3,6 °C 22,5 km/h (4 Bft)
20.02.2017 13:00 6,3 °C 6,3 °C 65 % 1022,4 hPa 0,0 mm 12,9 km/h (3 Bft) W-SW 248 ° 1 min 0,000 mm 2,0 UV-I 246 W/m² 0,2 °C 3,7 °C 16,1 km/h (3 Bft)
20.02.2017 13:01 6,2 °C 6,3 °C 63 % 1022,3 hPa 0,0 mm 11,3 km/h (2 Bft) W-SW 256 ° 1 min 0,152 mm 2,0 UV-I 241 W/m² -0,3 °C 3,8 °C 17,7 km/h (3 Bft)
20.02.2017 13:02 6,2 °C 6,2 °C 64 % 1022,3 hPa 0,0 mm 9,7 km/h (2 Bft) W 266 ° 1 min 0,000 mm 2,0 UV-I 220 W/m² -0,1 °C 4,2 °C 14,5 km/h (3 Bft)
20.02.2017 13:03 6,2 °C 6,2 °C 65 % 1022,3 hPa 0,0 mm 13,2 km/h (3 Bft) W 269 ° 1 min 0,000 mm 2,2 UV-I 234 W/m² 0,1 °C 3,5 °C 17,7 km/h (3 Bft)
20.02.2017 13:04 6,2 °C 6,2 °C 65 % 1022,3 hPa 0,0 mm 7,9 km/h (2 Bft) W 276 ° 1 min 0,000 mm 2,0 UV-I 204 W/m² 0,1 °C 4,6 °C 14,5 km/h (3 Bft)
20.02.2017 13:05 6,1 °C 6,2 °C 65 % 1022,2 hPa 0,0 mm 6,4 km/h (2 Bft) W-SW 253 ° 1 min 0,000 mm 2,2 UV-I 211 W/m² 0,0 °C 4,9 °C 12,9 km/h (3 Bft)
20.02.2017 13:06 6,1 °C 6,1 °C 65 % 1022,2 hPa 0,0 mm 16,3 km/h (3 Bft) W-NW 290 ° 1 min 0,000 mm 2,1 UV-I 211 W/m² 0,0 °C 2,9 °C 22,5 km/h (4 Bft)
20.02.2017 13:07 6,1 °C 6,1 °C 64 % 1022,2 hPa 0,0 mm 11,2 km/h (2 Bft) W-NW 298 ° 1 min 0,000 mm 2,0 UV-I 211 W/m² -0,2 °C 3,7 °C 16,1 km/h (3 Bft)
20.02.2017 13:08 6,1 °C 6,1 °C 65 % 1022,2 hPa 0,0 mm 9,3 km/h (2 Bft) W-SW 253 ° 1 min 0,000 mm 2,3 UV-I 202 W/m² 0,0 °C 4,1 °C 16,1 km/h (3 Bft)
20.02.2017 13:09 6,1 °C 6,1 °C 64 % 1022,2 hPa 0,0 mm 13,4 km/h (3 Bft) W-SW 257 ° 1 min 0,000 mm 2,3 UV-I 202 W/m² -0,2 °C 3,4 °C 19,3 km/h (3 Bft)
20.02.2017 13:10 6,1 °C 6,1 °C 65 % 1022,1 hPa 0,0 mm 11,1 km/h (2 Bft) W-SW 238 ° 1 min 0,000 mm 2,7 UV-I 202 W/m² 0,0 °C 3,8 °C 17,7 km/h (3 Bft)
20.02.2017 13:11 6,1 °C 6,1 °C 64 % 1022,2 hPa 0,0 mm 16,3 km/h (3 Bft) SW 214 ° 1 min 0,000 mm 2,0 UV-I 202 W/m² -0,2 °C 2,9 °C 24,1 km/h (4 Bft)
20.02.2017 13:12 6,1 °C 6,1 °C 65 % 1022,2 hPa 0,0 mm 17,2 km/h (3 Bft) W 262 ° 1 min 0,000 mm 2,6 UV-I 378 W/m² 0,0 °C 2,8 °C 24,1 km/h (4 Bft)
20.02.2017 13:13 6,2 °C 6,2 °C 64 % 1022,2 hPa 0,0 mm 12,4 km/h (3 Bft) W-SW 252 ° 1 min 0,000 mm 2,5 UV-I 439 W/m² -0,1 °C 3,6 °C 16,1 km/h (3 Bft)
20.02.2017 13:14 6,2 °C 6,2 °C 64 % 1022,1 hPa 0,0 mm 10,6 km/h (2 Bft) W-NW 288 ° 1 min 0,000 mm 2,4 UV-I 439 W/m² -0,1 °C 4,0 °C 16,1 km/h (3 Bft)
20.02.2017 13:15 6,2 °C 6,2 °C 64 % 1022,2 hPa 0,0 mm 10,9 km/h (2 Bft) W-NW 292 ° 1 min 0,000 mm 2,4 UV-I 439 W/m² -0,1 °C 3,9 °C 19,3 km/h (3 Bft)
20.02.2017 13:16 6,2 °C 6,2 °C 64 % 1022,2 hPa 0,0 mm 16,4 km/h (3 Bft) W-NW 289 ° 1 min 0,000 mm 2,2 UV-I 357 W/m² -0,1 °C 3,0 °C 25,7 km/h (4 Bft)
20.02.2017 13:17 6,1 °C 6,2 °C 64 % 1022,2 hPa 0,0 mm 16,8 km/h (3 Bft) W-NW 284 ° 1 min 0,000 mm 1,8 UV-I 357 W/m² -0,2 °C 2,9 °C 25,7 km/h (4 Bft)
20.02.2017 13:18 6,1 °C 6,2 °C 64 % 1022,2 hPa 0,0 mm 9,4 km/h (2 Bft) W-NW 299 ° 1 min 0,000 mm 2,4 UV-I 410 W/m² -0,2 °C 4,1 °C 16,1 km/h (3 Bft)
20.02.2017 13:19 6,1 °C 6,1 °C 65 % 1022,1 hPa 0,0 mm 14,3 km/h (3 Bft) NW 307 ° 1 min 0,000 mm 2,3 UV-I 499 W/m² 0,0 °C 3,2 °C 19,3 km/h (3 Bft)
20.02.2017 13:20 6,0 °C 6,1 °C 65 % 1022,2 hPa 0,0 mm 11,9 km/h (2 Bft) W 276 ° 1 min 0,000 mm 1,7 UV-I 499 W/m² -0,1 °C 3,5 °C 16,1 km/h (3 Bft)
20.02.2017 13:21 5,9 °C 6,0 °C 65 % 1022,2 hPa 0,0 mm 13,1 km/h (3 Bft) W 261 ° 0 min 0,000 mm 1,7 UV-I 165 W/m² -0,2 °C 3,2 °C 19,3 km/h (3 Bft)
20.02.2017 13:22 5,9 °C 5,9 °C 65 % 1022,2 hPa 0,0 mm 9,4 km/h (2 Bft) W-SW 249 ° 0 min 0,000 mm 1,6 UV-I 162 W/m² -0,2 °C 3,9 °C 14,5 km/h (3 Bft)
20.02.2017 13:23 5,8 °C 5,9 °C 65 % 1022,1 hPa 0,0 mm 9,5 km/h (2 Bft) W-SW 242 ° 1 min 0,000 mm 1,7 UV-I 243 W/m² -0,3 °C 3,7 °C 19,3 km/h (3 Bft)
20.02.2017 13:24 5,8 °C 5,8 °C 66 % 1022,1 hPa 0,0 mm 14,8 km/h (3 Bft) W 259 ° 0 min 0,000 mm 1,7 UV-I 167 W/m² -0,0 °C 2,8 °C 17,7 km/h (3 Bft)
20.02.2017 13:25 5,8 °C 5,8 °C 66 % 1022,1 hPa 0,0 mm 9,7 km/h (2 Bft) W-SW 249 ° 0 min 0,000 mm 1,6 UV-I 162 W/m² -0,0 °C 3,7 °C 16,1 km/h (3 Bft)
20.02.2017 13:26 5,7 °C 5,8 °C 66 % 1022,1 hPa 0,0 mm 10,9 km/h (2 Bft) W-SW 238 ° 0 min 0,000 mm 1,7 UV-I 160 W/m² -0,1 °C 3,3 °C 16,1 km/h (3 Bft)
20.02.2017 13:27 5,7 °C 5,7 °C 65 % 1022,0 hPa 0,0 mm 9,5 km/h (2 Bft) W-SW 242 ° 1 min 0,000 mm 1,8 UV-I 206 W/m² -0,4 °C 3,6 °C 19,3 km/h (3 Bft)
20.02.2017 13:28 5,8 °C 5,8 °C 65 % 1022,1 hPa 0,0 mm 17,1 km/h (3 Bft) W-SW 249 ° 1 min 0,000 mm 2,5 UV-I 399 W/m² -0,3 °C 2,4 °C 29,0 km/h (5 Bft)
20.02.2017 13:29 5,8 °C 5,8 °C 65 % 1022,1 hPa 0,0 mm 11,1 km/h (2 Bft) W 262 ° 1 min 0,000 mm 1,9 UV-I 399 W/m² -0,3 °C 3,4 °C 19,3 km/h (3 Bft)
20.02.2017 13:30 5,8 °C 5,8 °C 66 % 1022,0 hPa 0,0 mm 15,9 km/h (3 Bft) W 275 ° 1 min 0,000 mm 2,0 UV-I 244 W/m² -0,0 °C 2,6 °C 20,9 km/h (4 Bft)
20.02.2017 13:31 5,8 °C 5,8 °C 65 % 1022,0 hPa 0,0 mm 12,9 km/h (3 Bft) W-SW 238 ° 1 min 0,000 mm 1,9 UV-I 216 W/m² -0,3 °C 3,1 °C 19,3 km/h (3 Bft)
20.02.2017 13:32 5,8 °C 5,8 °C 65 % 1022,0 hPa 0,0 mm 16,6 km/h (3 Bft) W 265 ° 0 min 0,000 mm 1,8 UV-I 199 W/m² -0,3 °C 2,5 °C 25,7 km/h (4 Bft)
20.02.2017 13:33 5,8 °C 5,8 °C 65 % 1022,0 hPa 0,0 mm 9,3 km/h (2 Bft) W 259 ° 1 min 0,000 mm 1,9 UV-I 279 W/m² -0,3 °C 3,8 °C 17,7 km/h (3 Bft)
20.02.2017 13:34 5,8 °C 5,8 °C 65 % 1021,9 hPa 0,0 mm 9,7 km/h (2 Bft) W-SW 251 ° 1 min 0,000 mm 1,9 UV-I 229 W/m² -0,3 °C 3,7 °C 12,9 km/h (3 Bft)
20.02.2017 13:35 5,7 °C 5,8 °C 66 % 1022,0 hPa 0,0 mm 9,2 km/h (2 Bft) W-NW 286 ° 1 min 0,000 mm 2,0 UV-I 274 W/m² -0,1 °C 3,7 °C 11,3 km/h (2 Bft)
20.02.2017 13:36 5,8 °C 5,8 °C 66 % 1022,0 hPa 0,0 mm 16,8 km/h (3 Bft) W 268 ° 1 min 0,000 mm 2,2 UV-I 302 W/m² -0,0 °C 2,5 °C 24,1 km/h (4 Bft)
20.02.2017 13:37 5,8 °C 5,8 °C 65 % 1022,0 hPa 0,0 mm 11,3 km/h (2 Bft) W-SW 247 ° 1 min 0,000 mm 2,5 UV-I 302 W/m² -0,3 °C 3,4 °C 16,1 km/h (3 Bft)
20.02.2017 13:38 5,9 °C 5,9 °C 66 % 1021,9 hPa 0,0 mm 8,6 km/h (2 Bft) W-NW 294 ° 1 min 0,000 mm 2,7 UV-I 302 W/m² 0,0 °C 4,0 °C 12,9 km/h (3 Bft)
20.02.2017 13:39 6,0 °C 6,0 °C 65 % 1021,9 hPa 0,0 mm 7,0 km/h (2 Bft) W 277 ° 1 min 0,000 mm 2,6 UV-I 524 W/m² -0,1 °C 4,6 °C 11,3 km/h (2 Bft)
20.02.2017 13:40 6,1 °C 6,1 °C 65 % 1021,9 hPa 0,0 mm 5,5 km/h (1 Bft) W-NW 290 ° 1 min 0,000 mm 2,5 UV-I 524 W/m² 0,0 °C 5,2 °C 9,7 km/h (2 Bft)
20.02.2017 13:41 6,2 °C 6,2 °C 65 % 1022,0 hPa 0,0 mm 10,0 km/h (2 Bft) W-SW 257 ° 0 min 0,000 mm 2,1 UV-I 192 W/m² 0,1 °C 4,1 °C 16,1 km/h (3 Bft)
20.02.2017 13:42 6,2 °C 6,2 °C 65 % 1021,9 hPa 0,0 mm 13,2 km/h (3 Bft) W 279 ° 0 min 0,000 mm 2,3 UV-I 192 W/m² 0,1 °C 3,5 °C 20,9 km/h (4 Bft)
20.02.2017 13:43 6,2 °C 6,2 °C 63 % 1021,9 hPa 0,0 mm 17,4 km/h (3 Bft) W 277 ° 1 min 0,000 mm 2,3 UV-I 383 W/m² -0,3 °C 2,9 °C 22,5 km/h (4 Bft)
20.02.2017 13:44 6,3 °C 6,3 °C 63 % 1022,0 hPa 0,0 mm 14,2 km/h (3 Bft) W 275 ° 1 min 0,000 mm 2,3 UV-I 373 W/m² -0,2 °C 3,5 °C 20,9 km/h (4 Bft)
20.02.2017 13:45 6,3 °C 6,3 °C 63 % 1021,9 hPa 0,0 mm 9,1 km/h (2 Bft) W 267 ° 1 min 0,000 mm 2,6 UV-I 373 W/m² -0,2 °C 4,4 °C 14,5 km/h (3 Bft)
20.02.2017 13:46 6,3 °C 6,3 °C 64 % 1022,0 hPa 0,0 mm 11,3 km/h (2 Bft) NW 306 ° 1 min 0,000 mm 2,6 UV-I 540 W/m² 0,0 °C 4,0 °C 17,7 km/h (3 Bft)
20.02.2017 13:47 6,3 °C 6,3 °C 63 % 1022,0 hPa 0,0 mm 8,5 km/h (2 Bft) W-SW 257 ° 1 min 0,000 mm 2,2 UV-I 330 W/m² -0,2 °C 4,5 °C 12,9 km/h (3 Bft)
20.02.2017 13:48 6,3 °C 6,3 °C 63 % 1021,9 hPa 0,0 mm 7,8 km/h (2 Bft) W 261 ° 1 min 0,000 mm 2,2 UV-I 420 W/m² -0,2 °C 4,7 °C 14,5 km/h (3 Bft)
20.02.2017 13:49 6,3 °C 6,3 °C 63 % 1021,9 hPa 0,0 mm 16,7 km/h (3 Bft) W 263 ° 1 min 0,000 mm 2,1 UV-I 420 W/m² -0,2 °C 3,1 °C 24,1 km/h (4 Bft)
20.02.2017 13:50 6,3 °C 6,3 °C 63 % 1021,9 hPa 0,0 mm 19,0 km/h (3 Bft) W-SW 255 ° 1 min 0,000 mm 2,4 UV-I 420 W/m² -0,2 °C 2,8 °C 24,1 km/h (4 Bft)
20.02.2017 13:51 6,3 °C 6,3 °C 62 % 1021,9 hPa 0,0 mm 19,4 km/h (3 Bft) W 281 ° 1 min 0,000 mm 2,6 UV-I 420 W/m² -0,4 °C 2,8 °C 27,4 km/h (4 Bft)
20.02.2017 13:52 6,3 °C 6,4 °C 62 % 1021,8 hPa 0,0 mm 15,8 km/h (3 Bft) W 269 ° 1 min 0,000 mm 2,5 UV-I 540 W/m² -0,4 °C 3,2 °C 22,5 km/h (4 Bft)
20.02.2017 13:53 6,4 °C 6,4 °C 63 % 1021,9 hPa 0,0 mm 9,0 km/h (2 Bft) W-SW 248 ° 1 min 0,000 mm 2,6 UV-I 536 W/m² -0,1 °C 4,5 °C 12,9 km/h (3 Bft)
20.02.2017 13:54 6,5 °C 6,5 °C 63 % 1021,9 hPa 0,0 mm 14,3 km/h (3 Bft) W 272 ° 1 min 0,000 mm 2,6 UV-I 552 W/m² -0,0 °C 3,7 °C 19,3 km/h (3 Bft)
20.02.2017 13:55 6,6 °C 6,6 °C 62 % 1021,9 hPa 0,0 mm 15,2 km/h (3 Bft) W 261 ° 1 min 0,000 mm 2,5 UV-I 519 W/m² -0,1 °C 3,7 °C 20,9 km/h (4 Bft)
20.02.2017 13:56 6,6 °C 6,7 °C 62 % 1021,8 hPa 0,0 mm 7,2 km/h (2 Bft) W-SW 241 ° 1 min 0,000 mm 2,6 UV-I 552 W/m² -0,1 °C 5,2 °C 12,9 km/h (3 Bft)
20.02.2017 13:57 6,7 °C 6,7 °C 62 % 1021,8 hPa 0,0 mm 17,6 km/h (3 Bft) SW 221 ° 1 min 0,000 mm 2,4 UV-I 534 W/m² -0,1 °C 3,5 °C 25,7 km/h (4 Bft)
20.02.2017 13:58 6,7 °C 6,7 °C 61 % 1021,8 hPa 0,0 mm 11,2 km/h (2 Bft) W-SW 257 ° 1 min 0,000 mm 2,6 UV-I 555 W/m² -0,3 °C 4,5 °C 20,9 km/h (4 Bft)
20.02.2017 13:59 6,6 °C 6,7 °C 62 % 1021,8 hPa 0,0 mm 23,4 km/h (4 Bft) W 272 ° 1 min 0,000 mm 1,8 UV-I 555 W/m² -0,1 °C 2,7 °C 30,6 km/h (5 Bft)
20.02.2017 14:00 6,6 °C 6,6 °C 60 % 1021,8 hPa 0,0 mm 16,9 km/h (3 Bft) W-NW 283 ° 1 min 0,000 mm 2,4 UV-I 555 W/m² -0,6 °C 3,5 °C 22,5 km/h (4 Bft)
20.02.2017 14:01 6,7 °C 6,7 °C 62 % 1021,7 hPa 0,0 mm 9,7 km/h (2 Bft) W 271 ° 1 min 0,178 mm 2,3 UV-I 555 W/m² -0,1 °C 4,8 °C 17,7 km/h (3 Bft)
20.02.2017 14:02 6,7 °C 6,7 °C 62 % 1021,8 hPa 0,0 mm 12,2 km/h (2 Bft) W 271 ° 1 min 0,000 mm 2,2 UV-I 394 W/m² -0,1 °C 4,3 °C 16,1 km/h (3 Bft)
20.02.2017 14:03 6,7 °C 6,7 °C 62 % 1021,7 hPa 0,0 mm 13,3 km/h (3 Bft) W 272 ° 1 min 0,000 mm 2,2 UV-I 380 W/m² -0,1 °C 4,1 °C 19,3 km/h (3 Bft)
20.02.2017 14:04 6,7 °C 6,7 °C 61 % 1021,7 hPa 0,0 mm 9,4 km/h (2 Bft) W-NW 292 ° 1 min 0,000 mm 2,2 UV-I 376 W/m² -0,3 °C 4,8 °C 19,3 km/h (3 Bft)
20.02.2017 14:05 6,7 °C 6,7 °C 61 % 1021,8 hPa 0,0 mm 10,8 km/h (2 Bft) S-SW 206 ° 1 min 0,000 mm 2,2 UV-I 408 W/m² -0,3 °C 4,5 °C 16,1 km/h (3 Bft)
20.02.2017 14:06 6,7 °C 6,7 °C 62 % 1021,8 hPa 0,0 mm 12,5 km/h (3 Bft) W-NW 286 ° 1 min 0,000 mm 2,1 UV-I 343 W/m² -0,1 °C 4,2 °C 22,5 km/h (4 Bft)
20.02.2017 14:07 6,7 °C 6,7 °C 61 % 1021,8 hPa 0,0 mm 8,6 km/h (2 Bft) SW 225 ° 1 min 0,000 mm 2,1 UV-I 325 W/m² -0,3 °C 5,0 °C 12,9 km/h (3 Bft)
20.02.2017 14:08 6,6 °C 6,7 °C 62 % 1021,8 hPa 0,0 mm 17,1 km/h (3 Bft) W-SW 257 ° 1 min 0,000 mm 2,0 UV-I 313 W/m² -0,1 °C 3,4 °C 20,9 km/h (4 Bft)
20.02.2017 14:09 6,6 °C 6,6 °C 62 % 1021,8 hPa 0,0 mm 14,8 km/h (3 Bft) W 278 ° 1 min 0,000 mm 2,1 UV-I 330 W/m² -0,1 °C 3,8 °C 24,1 km/h (4 Bft)
20.02.2017 14:10 6,5 °C 6,6 °C 62 % 1021,8 hPa 0,0 mm 11,9 km/h (2 Bft) W-SW 238 ° 1 min 0,000 mm 2,0 UV-I 322 W/m² -0,2 °C 4,1 °C 16,1 km/h (3 Bft)
20.02.2017 14:11 6,5 °C 6,6 °C 63 % 1021,9 hPa 0,0 mm 16,3 km/h (3 Bft) W-SW 249 ° 1 min 0,000 mm 2,0 UV-I 304 W/m² -0,0 °C 3,4 °C 20,9 km/h (4 Bft)
20.02.2017 14:12 6,5 °C 6,5 °C 62 % 1021,8 hPa 0,0 mm 11,8 km/h (2 Bft) W 265 ° 1 min 0,000 mm 1,9 UV-I 301 W/m² -0,2 °C 4,1 °C 17,7 km/h (3 Bft)
20.02.2017 14:13 6,4 °C 6,5 °C 62 % 1021,8 hPa 0,0 mm 12,0 km/h (2 Bft) W-NW 296 ° 1 min 0,000 mm 2,0 UV-I 308 W/m² -0,3 °C 4,0 °C 14,5 km/h (3 Bft)
20.02.2017 14:14 6,4 °C 6,4 °C 63 % 1021,9 hPa 0,0 mm 10,8 km/h (2 Bft) W 276 ° 1 min 0,000 mm 1,9 UV-I 302 W/m² -0,1 °C 4,2 °C 14,5 km/h (3 Bft)
20.02.2017 14:15 6,4 °C 6,4 °C 62 % 1021,9 hPa 0,0 mm 13,9 km/h (3 Bft) W 279 ° 1 min 0,000 mm 1,9 UV-I 292 W/m² -0,3 °C 3,6 °C 17,7 km/h (3 Bft)
20.02.2017 14:16 6,4 °C 6,4 °C 62 % 1021,9 hPa 0,0 mm 13,9 km/h (3 Bft) W-NW 285 ° 1 min 0,000 mm 1,9 UV-I 295 W/m² -0,3 °C 3,6 °C 25,7 km/h (4 Bft)
20.02.2017 14:17 6,4 °C 6,4 °C 62 % 1021,9 hPa 0,0 mm 8,8 km/h (2 Bft) W-SW 250 ° 1 min 0,000 mm 1,9 UV-I 304 W/m² -0,3 °C 4,6 °C 14,5 km/h (3 Bft)
20.02.2017 14:18 6,4 °C 6,4 °C 62 % 1021,8 hPa 0,0 mm 12,6 km/h (3 Bft) W 273 ° 1 min 0,000 mm 2,0 UV-I 318 W/m² -0,3 °C 3,8 °C 16,1 km/h (3 Bft)
20.02.2017 14:19 6,4 °C 6,4 °C 63 % 1021,8 hPa 0,0 mm 6,1 km/h (2 Bft) W-NW 288 ° 1 min 0,000 mm 2,0 UV-I 341 W/m² -0,1 °C 5,3 °C 12,9 km/h (3 Bft)
20.02.2017 14:20 6,4 °C 6,4 °C 63 % 1021,8 hPa 0,0 mm 6,8 km/h (2 Bft) W 267 ° 1 min 0,000 mm 2,0 UV-I 383 W/m² -0,1 °C 5,1 °C 14,5 km/h (3 Bft)
20.02.2017 14:21 6,6 °C 6,6 °C 63 % 1021,8 hPa 0,0 mm 8,8 km/h (2 Bft) W 259 ° 1 min 0,000 mm 1,9 UV-I 332 W/m² 0,1 °C 4,8 °C 12,9 km/h (3 Bft)
20.02.2017 14:22 6,6 °C 6,6 °C 62 % 1021,8 hPa 0,0 mm 9,5 km/h (2 Bft) W 270 ° 1 min 0,000 mm 1,8 UV-I 299 W/m² -0,1 °C 4,7 °C 16,1 km/h (3 Bft)
20.02.2017 14:23 6,6 °C 6,6 °C 62 % 1021,8 hPa 0,0 mm 8,3 km/h (2 Bft) W-SW 257 ° 1 min 0,000 mm 1,8 UV-I 288 W/m² -0,1 °C 4,9 °C 14,5 km/h (3 Bft)
20.02.2017 14:24 6,6 °C 6,6 °C 62 % 1021,8 hPa 0,0 mm 14,2 km/h (3 Bft) W-SW 254 ° 1 min 0,000 mm 1,8 UV-I 278 W/m² -0,1 °C 3,8 °C 22,5 km/h (4 Bft)
20.02.2017 14:25 6,5 °C 6,6 °C 61 % 1021,8 hPa 0,0 mm 15,1 km/h (3 Bft) W-SW 256 ° 1 min 0,000 mm 1,7 UV-I 269 W/m² -0,5 °C 3,6 °C 20,9 km/h (4 Bft)
20.02.2017 14:26 6,4 °C 6,5 °C 62 % 1021,8 hPa 0,0 mm 12,1 km/h (2 Bft) W-SW 253 ° 1 min 0,000 mm 1,7 UV-I 269 W/m² -0,3 °C 3,9 °C 16,1 km/h (3 Bft)
20.02.2017 14:27 6,4 °C 6,5 °C 62 % 1021,8 hPa 0,0 mm 12,7 km/h (3 Bft) W 265 ° 1 min 0,000 mm 1,7 UV-I 269 W/m² -0,3 °C 3,8 °C 20,9 km/h (4 Bft)
20.02.2017 14:28 6,4 °C 6,4 °C 62 % 1021,7 hPa 0,0 mm 20,4 km/h (4 Bft) W 275 ° 1 min 0,000 mm 1,7 UV-I 271 W/m² -0,3 °C 2,8 °C 29,0 km/h (5 Bft)
20.02.2017 14:29 6,4 °C 6,4 °C 63 % 1021,8 hPa 0,0 mm 16,0 km/h (3 Bft) W 277 ° 1 min 0,000 mm 1,7 UV-I 278 W/m² -0,1 °C 3,3 °C 20,9 km/h (4 Bft)
20.02.2017 14:30 6,4 °C 6,4 °C 62 % 1021,8 hPa 0,0 mm 10,9 km/h (2 Bft) NW 306 ° 1 min 0,000 mm 1,7 UV-I 292 W/m² -0,3 °C 4,2 °C 16,1 km/h (3 Bft)
20.02.2017 14:31 6,4 °C 6,4 °C 63 % 1021,8 hPa 0,0 mm 10,3 km/h (2 Bft) NW 321 ° 1 min 0,000 mm 1,7 UV-I 279 W/m² -0,1 °C 4,3 °C 14,5 km/h (3 Bft)
20.02.2017 14:32 6,4 °C 6,4 °C 62 % 1021,8 hPa 0,0 mm 13,5 km/h (3 Bft) W 265 ° 1 min 0,000 mm 1,7 UV-I 272 W/m² -0,3 °C 3,7 °C 20,9 km/h (4 Bft)
20.02.2017 14:33 6,4 °C 6,4 °C 62 % 1021,7 hPa 0,0 mm 12,1 km/h (2 Bft) W 273 ° 1 min 0,000 mm 1,6 UV-I 258 W/m² -0,3 °C 3,9 °C 19,3 km/h (3 Bft)
20.02.2017 14:34 6,4 °C 6,4 °C 63 % 1021,7 hPa 0,0 mm 10,4 km/h (2 Bft) W-SW 255 ° 1 min 0,000 mm 1,6 UV-I 262 W/m² -0,1 °C 4,3 °C 14,5 km/h (3 Bft)
20.02.2017 14:35 6,4 °C 6,4 °C 63 % 1021,7 hPa 0,0 mm 9,8 km/h (2 Bft) W-SW 239 ° 1 min 0,000 mm 1,6 UV-I 246 W/m² -0,1 °C 4,4 °C 14,5 km/h (3 Bft)
20.02.2017 14:36 6,4 °C 6,4 °C 63 % 1021,6 hPa 0,0 mm 13,6 km/h (3 Bft) SW 214 ° 1 min 0,000 mm 1,6 UV-I 243 W/m² -0,1 °C 3,7 °C 20,9 km/h (4 Bft)
20.02.2017 14:37 6,4 °C 6,4 °C 63 % 1021,7 hPa 0,0 mm 15,0 km/h (3 Bft) W-NW 296 ° 1 min 0,000 mm 1,6 UV-I 244 W/m² -0,1 °C 3,5 °C 20,9 km/h (4 Bft)
20.02.2017 14:38 6,4 °C 6,4 °C 63 % 1021,7 hPa 0,0 mm 10,6 km/h (2 Bft) W 277 ° 1 min 0,000 mm 1,6 UV-I 243 W/m² -0,1 °C 4,2 °C 17,7 km/h (3 Bft)
20.02.2017 14:39 6,4 °C 6,4 °C 62 % 1021,7 hPa 0,0 mm 6,4 km/h (2 Bft) W 262 ° 1 min 0,000 mm 1,6 UV-I 246 W/m² -0,3 °C 5,2 °C 11,3 km/h (2 Bft)
20.02.2017 14:40 6,4 °C 6,4 °C 63 % 1021,7 hPa 0,0 mm 13,1 km/h (3 Bft) W-SW 245 ° 1 min 0,000 mm 1,5 UV-I 244 W/m² -0,1 °C 3,8 °C 19,3 km/h (3 Bft)
20.02.2017 14:41 6,4 °C 6,4 °C 63 % 1021,7 hPa 0,0 mm 11,5 km/h (2 Bft) W-SW 244 ° 1 min 0,000 mm 1,5 UV-I 237 W/m² -0,1 °C 4,0 °C 14,5 km/h (3 Bft)
20.02.2017 14:42 6,4 °C 6,4 °C 62 % 1021,7 hPa 0,0 mm 13,4 km/h (3 Bft) W-SW 252 ° 1 min 0,000 mm 1,5 UV-I 236 W/m² -0,3 °C 3,7 °C 17,7 km/h (3 Bft)
20.02.2017 14:43 6,4 °C 6,4 °C 62 % 1021,6 hPa 0,0 mm 9,5 km/h (2 Bft) NW 309 ° 1 min 0,000 mm 1,5 UV-I 264 W/m² -0,3 °C 4,4 °C 12,9 km/h (3 Bft)
20.02.2017 14:44 6,4 °C 6,4 °C 62 % 1021,6 hPa 0,0 mm 10,5 km/h (2 Bft) W-SW 243 ° 1 min 0,000 mm 1,6 UV-I 239 W/m² -0,3 °C 4,2 °C 14,5 km/h (3 Bft)
20.02.2017 14:45 6,4 °C 6,4 °C 62 % 1021,7 hPa 0,0 mm 13,3 km/h (3 Bft) W 272 ° 1 min 0,000 mm 1,5 UV-I 241 W/m² -0,3 °C 3,7 °C 25,7 km/h (4 Bft)
20.02.2017 14:46 6,5 °C 6,5 °C 61 % 1021,6 hPa 0,0 mm 19,3 km/h (3 Bft) W-SW 256 ° 1 min 0,000 mm 1,5 UV-I 236 W/m² -0,5 °C 3,0 °C 25,7 km/h (4 Bft)
20.02.2017 14:47 6,4 °C 6,5 °C 62 % 1021,6 hPa 0,0 mm 17,2 km/h (3 Bft) W 260 ° 1 min 0,000 mm 1,5 UV-I 227 W/m² -0,3 °C 3,2 °C 24,1 km/h (4 Bft)
20.02.2017 14:48 6,4 °C 6,4 °C 62 % 1021,6 hPa 0,0 mm 13,1 km/h (3 Bft) W-NW 285 ° 1 min 0,000 mm 1,5 UV-I 223 W/m² -0,3 °C 3,8 °C 17,7 km/h (3 Bft)
20.02.2017 14:49 6,4 °C 6,4 °C 63 % 1021,6 hPa 0,0 mm 10,9 km/h (2 Bft) SW 236 ° 1 min 0,000 mm 1,5 UV-I 232 W/m² -0,1 °C 4,2 °C 16,1 km/h (3 Bft)
20.02.2017 14:50 6,4 °C 6,4 °C 61 % 1021,5 hPa 0,0 mm 10,5 km/h (2 Bft) W-NW 296 ° 1 min 0,000 mm 1,5 UV-I 265 W/m² -0,6 °C 4,2 °C 17,7 km/h (3 Bft)
20.02.2017 14:51 6,4 °C 6,4 °C 62 % 1021,6 hPa 0,0 mm 13,9 km/h (3 Bft) W-SW 248 ° 1 min 0,000 mm 1,5 UV-I 290 W/m² -0,3 °C 3,6 °C 20,9 km/h (4 Bft)
20.02.2017 14:52 6,4 °C 6,4 °C 61 % 1021,5 hPa 0,0 mm 18,9 km/h (3 Bft) W 265 ° 1 min 0,000 mm 1,5 UV-I 362 W/m² -0,6 °C 3,0 °C 25,7 km/h (4 Bft)
20.02.2017 14:53 6,4 °C 6,4 °C 62 % 1021,6 hPa 0,0 mm 13,3 km/h (3 Bft) SW 219 ° 1 min 0,000 mm 1,5 UV-I 287 W/m² -0,3 °C 3,7 °C 17,7 km/h (3 Bft)
20.02.2017 14:54 6,4 °C 6,4 °C 62 % 1021,5 hPa 0,0 mm 13,5 km/h (3 Bft) W-SW 240 ° 1 min 0,000 mm 1,4 UV-I 229 W/m² -0,3 °C 3,7 °C 27,4 km/h (4 Bft)
20.02.2017 14:55 6,4 °C 6,5 °C 62 % 1021,6 hPa 0,0 mm 15,6 km/h (3 Bft) W 273 ° 1 min 0,000 mm 1,4 UV-I 248 W/m² -0,3 °C 3,4 °C 24,1 km/h (4 Bft)
20.02.2017 14:56 6,4 °C 6,5 °C 62 % 1021,6 hPa 0,0 mm 20,0 km/h (4 Bft) W 273 ° 1 min 0,000 mm 1,4 UV-I 260 W/m² -0,3 °C 2,8 °C 29,0 km/h (5 Bft)
20.02.2017 14:57 6,4 °C 6,4 °C 62 % 1021,5 hPa 0,0 mm 20,0 km/h (4 Bft) W-SW 239 ° 1 min 0,000 mm 1,4 UV-I 223 W/m² -0,3 °C 2,8 °C 24,1 km/h (4 Bft)
20.02.2017 14:58 6,4 °C 6,4 °C 63 % 1021,6 hPa 0,0 mm 17,2 km/h (3 Bft) W 260 ° 1 min 0,000 mm 1,3 UV-I 202 W/m² -0,1 °C 3,2 °C 25,7 km/h (4 Bft)
20.02.2017 14:59 6,3 °C 6,4 °C 62 % 1021,6 hPa 0,0 mm 14,4 km/h (3 Bft) W 260 ° 0 min 0,000 mm 1,3 UV-I 192 W/m² -0,4 °C 3,4 °C 17,7 km/h (3 Bft)
20.02.2017 15:00 6,3 °C 6,3 °C 62 % 1021,5 hPa 0,0 mm 9,4 km/h (2 Bft) W-SW 250 ° 0 min 0,000 mm 1,3 UV-I 199 W/m² -0,4 °C 4,3 °C 14,5 km/h (3 Bft)
20.02.2017 15:01 6,4 °C 6,4 °C 63 % 1021,5 hPa 0,0 mm 10,3 km/h (2 Bft) SW 221 ° 0 min 0,152 mm 1,3 UV-I 186 W/m² -0,1 °C 4,3 °C 12,9 km/h (3 Bft)
20.02.2017 15:02 6,4 °C 6,4 °C 63 % 1021,5 hPa 0,0 mm 6,4 km/h (2 Bft) W-SW 245 ° 0 min 0,000 mm 1,3 UV-I 174 W/m² -0,1 °C 5,2 °C 11,3 km/h (2 Bft)
20.02.2017 15:03 6,4 °C 6,4 °C 61 % 1021,5 hPa 0,0 mm 5,0 km/h (1 Bft) W-NW 299 ° 0 min 0,000 mm 1,3 UV-I 179 W/m² -0,6 °C 5,7 °C 8,0 km/h (2 Bft)
20.02.2017 15:04 6,4 °C 6,4 °C 62 % 1021,5 hPa 0,0 mm 13,2 km/h (3 Bft) SW 223 ° 1 min 0,000 mm 1,3 UV-I 202 W/m² -0,3 °C 3,8 °C 19,3 km/h (3 Bft)
20.02.2017 15:05 6,4 °C 6,4 °C 62 % 1021,5 hPa 0,0 mm 9,4 km/h (2 Bft) W-SW 258 ° 0 min 0,000 mm 1,3 UV-I 199 W/m² -0,3 °C 4,5 °C 14,5 km/h (3 Bft)
20.02.2017 15:06 6,4 °C 6,5 °C 61 % 1021,5 hPa 0,0 mm 6,1 km/h (2 Bft) SW 226 ° 0 min 0,000 mm 1,3 UV-I 193 W/m² -0,6 °C 5,3 °C 11,3 km/h (2 Bft)
20.02.2017 15:07 6,5 °C 6,5 °C 62 % 1021,5 hPa 0,0 mm 8,2 km/h (2 Bft) W 268 ° 0 min 0,000 mm 1,3 UV-I 195 W/m² -0,2 °C 4,8 °C 12,9 km/h (3 Bft)
20.02.2017 15:08 6,5 °C 6,6 °C 62 % 1021,6 hPa 0,0 mm 12,6 km/h (3 Bft) W 260 ° 0 min 0,000 mm 1,2 UV-I 171 W/m² -0,2 °C 4,0 °C 19,3 km/h (3 Bft)
20.02.2017 15:09 6,5 °C 6,5 °C 61 % 1021,6 hPa 0,0 mm 16,2 km/h (3 Bft) SW 220 ° 0 min 0,000 mm 1,2 UV-I 162 W/m² -0,5 °C 3,4 °C 24,1 km/h (4 Bft)
20.02.2017 15:10 6,4 °C 6,5 °C 62 % 1021,7 hPa 0,0 mm 14,1 km/h (3 Bft) W-NW 291 ° 0 min 0,000 mm 1,2 UV-I 156 W/m² -0,3 °C 3,6 °C 20,9 km/h (4 Bft)
20.02.2017 15:11 6,4 °C 6,4 °C 62 % 1021,6 hPa 0,0 mm 9,3 km/h (2 Bft) W 265 ° 0 min 0,000 mm 1,2 UV-I 153 W/m² -0,3 °C 4,5 °C 19,3 km/h (3 Bft)
20.02.2017 15:12 6,4 °C 6,4 °C 62 % 1021,6 hPa 0,0 mm 12,7 km/h (3 Bft) W 264 ° 0 min 0,000 mm 1,1 UV-I 149 W/m² -0,3 °C 3,8 °C 17,7 km/h (3 Bft)
20.02.2017 15:13 6,4 °C 6,4 °C 62 % 1021,6 hPa 0,0 mm 13,5 km/h (3 Bft) W 262 ° 0 min 0,000 mm 1,1 UV-I 151 W/m² -0,3 °C 3,7 °C 22,5 km/h (4 Bft)
20.02.2017 15:14 6,4 °C 6,4 °C 62 % 1021,6 hPa 0,0 mm 14,9 km/h (3 Bft) W-SW 244 ° 0 min 0,000 mm 1,1 UV-I 156 W/m² -0,3 °C 3,5 °C 20,9 km/h (4 Bft)
20.02.2017 15:15 6,3 °C 6,4 °C 62 % 1021,6 hPa 0,0 mm 12,7 km/h (3 Bft) W 266 ° 0 min 0,000 mm 1,1 UV-I 160 W/m² -0,4 °C 3,7 °C 20,9 km/h (4 Bft)
20.02.2017 15:16 6,4 °C 6,4 °C 62 % 1021,6 hPa 0,0 mm 12,3 km/h (3 Bft) SW 232 ° 0 min 0,000 mm 1,1 UV-I 162 W/m² -0,3 °C 3,9 °C 17,7 km/h (3 Bft)
20.02.2017 15:17 6,3 °C 6,4 °C 63 % 1021,6 hPa 0,0 mm 13,4 km/h (3 Bft) W 267 ° 0 min 0,000 mm 1,1 UV-I 158 W/m² -0,2 °C 3,6 °C 16,1 km/h (3 Bft)
20.02.2017 15:18 6,2 °C 6,3 °C 62 % 1021,6 hPa 0,0 mm 13,5 km/h (3 Bft) W 261 ° 0 min 0,000 mm 1,1 UV-I 155 W/m² -0,5 °C 3,5 °C 17,7 km/h (3 Bft)
20.02.2017 15:19 6,3 °C 6,3 °C 62 % 1021,6 hPa 0,0 mm 14,5 km/h (3 Bft) W-SW 246 ° 0 min 0,000 mm 1,1 UV-I 149 W/m² -0,4 °C 3,4 °C 17,7 km/h (3 Bft)
20.02.2017 15:20 6,2 °C 6,3 °C 63 % 1021,7 hPa 0,0 mm 13,9 km/h (3 Bft) W-NW 284 ° 0 min 0,000 mm 1,0 UV-I 148 W/m² -0,3 °C 3,4 °C 20,9 km/h (4 Bft)
20.02.2017 15:21 6,2 °C 6,2 °C 63 % 1021,6 hPa 0,0 mm 16,4 km/h (3 Bft) W 275 ° 0 min 0,000 mm 1,0 UV-I 148 W/m² -0,3 °C 3,0 °C 20,9 km/h (4 Bft)
20.02.2017 15:22 6,2 °C 6,2 °C 63 % 1021,7 hPa 0,0 mm 14,4 km/h (3 Bft) W-NW 282 ° 0 min 0,000 mm 1,0 UV-I 146 W/m² -0,3 °C 3,3 °C 27,4 km/h (4 Bft)
20.02.2017 15:23 6,2 °C 6,2 °C 63 % 1021,7 hPa 0,0 mm 9,0 km/h (2 Bft) W-SW 242 ° 0 min 0,000 mm 1,0 UV-I 146 W/m² -0,3 °C 4,3 °C 11,3 km/h (2 Bft)
20.02.2017 15:24 6,2 °C 6,2 °C 63 % 1021,7 hPa 0,0 mm 11,5 km/h (2 Bft) W 269 ° 0 min 0,000 mm 1,0 UV-I 148 W/m² -0,3 °C 3,8 °C 16,1 km/h (3 Bft)
20.02.2017 15:25 6,2 °C 6,2 °C 63 % 1021,7 hPa 0,0 mm 13,7 km/h (3 Bft) W-SW 254 ° 0 min 0,000 mm 1,0 UV-I 148 W/m² -0,3 °C 3,4 °C 19,3 km/h (3 Bft)
20.02.2017 15:26 6,2 °C 6,2 °C 63 % 1021,7 hPa 0,0 mm 12,0 km/h (2 Bft) W-SW 240 ° 0 min 0,000 mm 1,0 UV-I 148 W/m² -0,3 °C 3,7 °C 16,1 km/h (3 Bft)
20.02.2017 15:27 6,2 °C 6,2 °C 63 % 1021,7 hPa 0,0 mm 10,3 km/h (2 Bft) W 276 ° 0 min 0,000 mm 1,0 UV-I 148 W/m² -0,3 °C 4,0 °C 16,1 km/h (3 Bft)
20.02.2017 15:28 6,2 °C 6,2 °C 64 % 1021,7 hPa 0,0 mm 7,7 km/h (2 Bft) W 280 ° 0 min 0,000 mm 1,0 UV-I 148 W/m² -0,1 °C 4,6 °C 12,9 km/h (3 Bft)
20.02.2017 15:29 6,2 °C 6,2 °C 64 % 1021,7 hPa 0,0 mm 5,1 km/h (1 Bft) W-NW 290 ° 0 min 0,000 mm 1,0 UV-I 148 W/m² -0,1 °C 5,4 °C 6,4 km/h (2 Bft)
20.02.2017 15:30 6,2 °C 6,2 °C 64 % 1021,7 hPa 0,0 mm 6,1 km/h (2 Bft) W-NW 284 ° 0 min 0,000 mm 1,0 UV-I 146 W/m² -0,1 °C 5,1 °C 9,7 km/h (2 Bft)
20.02.2017 15:31 6,2 °C 6,2 °C 63 % 1021,7 hPa 0,0 mm 12,3 km/h (3 Bft) W 275 ° 0 min 0,000 mm 0,9 UV-I 142 W/m² -0,3 °C 3,7 °C 19,3 km/h (3 Bft)
20.02.2017 15:32 6,2 °C 6,2 °C 64 % 1021,7 hPa 0,0 mm 11,6 km/h (2 Bft) W-SW 254 ° 0 min 0,000 mm 0,9 UV-I 139 W/m² -0,1 °C 3,8 °C 19,3 km/h (3 Bft)
20.02.2017 15:33 6,2 °C 6,2 °C 63 % 1021,6 hPa 0,0 mm 9,1 km/h (2 Bft) W 279 ° 0 min 0,000 mm 0,9 UV-I 135 W/m² -0,3 °C 4,3 °C 14,5 km/h (3 Bft)
20.02.2017 15:34 6,2 °C 6,2 °C 63 % 1021,7 hPa 0,0 mm 6,4 km/h (2 Bft) W-SW 257 ° 0 min 0,000 mm 0,9 UV-I 134 W/m² -0,3 °C 5,0 °C 11,3 km/h (2 Bft)
20.02.2017 15:35 6,2 °C 6,2 °C 64 % 1021,6 hPa 0,0 mm 4,6 km/h (1 Bft) W-SW 250 ° 0 min 0,000 mm 0,9 UV-I 134 W/m² -0,1 °C 5,6 °C 6,4 km/h (2 Bft)
20.02.2017 15:36 6,3 °C 6,3 °C 63 % 1021,6 hPa 0,0 mm 4,3 km/h (1 Bft) W-SW 243 ° 0 min 0,000 mm 0,9 UV-I 139 W/m² -0,2 °C 6,3 °C 6,4 km/h (2 Bft)
20.02.2017 15:37 6,3 °C 6,3 °C 63 % 1021,6 hPa 0,0 mm 5,3 km/h (1 Bft) SW 233 ° 0 min 0,000 mm 0,9 UV-I 142 W/m² -0,2 °C 5,5 °C 6,4 km/h (2 Bft)
20.02.2017 15:38 6,3 °C 6,3 °C 64 % 1021,6 hPa 0,0 mm 4,6 km/h (1 Bft) W-SW 258 ° 0 min 0,000 mm 0,9 UV-I 144 W/m² 0,0 °C 5,7 °C 6,4 km/h (2 Bft)
20.02.2017 15:39 6,3 °C 6,4 °C 64 % 1021,5 hPa 0,0 mm 7,1 km/h (2 Bft) S-SW 213 ° 0 min 0,000 mm 0,9 UV-I 144 W/m² 0,0 °C 4,9 °C 9,7 km/h (2 Bft)
20.02.2017 15:40 6,3 °C 6,4 °C 64 % 1021,6 hPa 0,0 mm 11,0 km/h (2 Bft) S-SW 193 ° 0 min 0,000 mm 0,9 UV-I 142 W/m² 0,0 °C 4,0 °C 17,7 km/h (3 Bft)
20.02.2017 15:41 6,4 °C 6,4 °C 63 % 1021,6 hPa 0,0 mm 11,1 km/h (2 Bft) W-SW 253 ° 0 min 0,000 mm 0,9 UV-I 146 W/m² -0,1 °C 4,1 °C 19,3 km/h (3 Bft)
20.02.2017 15:42 6,3 °C 6,4 °C 63 % 1021,5 hPa 0,0 mm 16,1 km/h (3 Bft) S-SW 206 ° 0 min 0,000 mm 0,9 UV-I 146 W/m² -0,2 °C 3,2 °C 22,5 km/h (4 Bft)
20.02.2017 15:43 6,3 °C 6,3 °C 63 % 1021,6 hPa 0,0 mm 9,9 km/h (2 Bft) W-SW 255 ° 0 min 0,000 mm 0,9 UV-I 153 W/m² -0,2 °C 4,2 °C 14,5 km/h (3 Bft)
20.02.2017 15:44 6,3 °C 6,3 °C 63 % 1021,6 hPa 0,0 mm 10,0 km/h (2 Bft) W-SW 251 ° 0 min 0,000 mm 0,9 UV-I 146 W/m² -0,2 °C 4,2 °C 12,9 km/h (3 Bft)
20.02.2017 15:45 6,3 °C 6,3 °C 63 % 1021,5 hPa 0,0 mm 7,6 km/h (2 Bft) W-SW 248 ° 0 min 0,000 mm 0,9 UV-I 172 W/m² -0,2 °C 4,8 °C 12,9 km/h (3 Bft)
20.02.2017 15:46 6,4 °C 6,4 °C 63 % 1021,5 hPa 0,0 mm 8,0 km/h (2 Bft) W-SW 253 ° 0 min 0,000 mm 0,9 UV-I 171 W/m² -0,1 °C 4,8 °C 14,5 km/h (3 Bft)
20.02.2017 15:47 6,3 °C 6,4 °C 64 % 1021,5 hPa 0,0 mm 10,3 km/h (2 Bft) S-SW 207 ° 0 min 0,000 mm 0,9 UV-I 155 W/m² 0,0 °C 4,2 °C 20,9 km/h (4 Bft)
20.02.2017 15:48 6,3 °C 6,3 °C 64 % 1021,5 hPa 0,0 mm 11,8 km/h (2 Bft) W-SW 250 ° 0 min 0,000 mm 0,8 UV-I 128 W/m² 0,0 °C 3,9 °C 19,3 km/h (3 Bft)
20.02.2017 15:49 6,3 °C 6,3 °C 64 % 1021,5 hPa 0,0 mm 16,0 km/h (3 Bft) W-SW 246 ° 0 min 0,000 mm 0,8 UV-I 128 W/m² 0,0 °C 3,2 °C 20,9 km/h (4 Bft)
20.02.2017 15:50 6,3 °C 6,3 °C 63 % 1021,5 hPa 0,0 mm 12,3 km/h (3 Bft) W-NW 289 ° 0 min 0,000 mm 0,8 UV-I 128 W/m² -0,2 °C 3,8 °C 17,7 km/h (3 Bft)
20.02.2017 15:51 6,3 °C 6,3 °C 64 % 1021,5 hPa 0,0 mm 6,8 km/h (2 Bft) W-SW 245 ° 0 min 0,000 mm 0,8 UV-I 128 W/m² 0,0 °C 5,0 °C 9,7 km/h (2 Bft)
20.02.2017 15:52 6,3 °C 6,3 °C 65 % 1021,4 hPa 0,0 mm 4,1 km/h (1 Bft) W-SW 238 ° 0 min 0,000 mm 0,8 UV-I 128 W/m² 0,2 °C 6,3 °C 6,4 km/h (2 Bft)
20.02.2017 15:53 6,3 °C 6,3 °C 64 % 1021,5 hPa 0,0 mm 5,6 km/h (1 Bft) SW 235 ° 0 min 0,000 mm 0,8 UV-I 125 W/m² 0,0 °C 5,3 °C 9,7 km/h (2 Bft)
20.02.2017 15:54 6,3 °C 6,3 °C 63 % 1021,4 hPa 0,0 mm 6,0 km/h (2 Bft) S 178 ° 0 min 0,000 mm 0,8 UV-I 123 W/m² -0,2 °C 5,2 °C 9,7 km/h (2 Bft)
20.02.2017 15:55 6,3 °C 6,3 °C 64 % 1021,4 hPa 0,0 mm 7,8 km/h (2 Bft) W-SW 243 ° 0 min 0,000 mm 0,8 UV-I 121 W/m² 0,0 °C 4,7 °C 16,1 km/h (3 Bft)
20.02.2017 15:56 6,4 °C 6,4 °C 64 % 1021,4 hPa 0,0 mm 8,9 km/h (2 Bft) W-SW 255 ° 0 min 0,000 mm 0,8 UV-I 120 W/m² 0,1 °C 4,6 °C 17,7 km/h (3 Bft)
20.02.2017 15:57 6,3 °C 6,4 °C 64 % 1021,3 hPa 0,0 mm 5,5 km/h (1 Bft) S-SW 200 ° 0 min 0,000 mm 0,8 UV-I 120 W/m² 0,0 °C 5,4 °C 8,0 km/h (2 Bft)
20.02.2017 15:58 6,3 °C 6,3 °C 64 % 1021,3 hPa 0,0 mm 4,2 km/h (1 Bft) W-SW 248 ° 0 min 0,000 mm 0,8 UV-I 120 W/m² 0,0 °C 6,3 °C 6,4 km/h (2 Bft)
20.02.2017 15:59 6,3 °C 6,3 °C 65 % 1021,3 hPa 0,0 mm 6,5 km/h (2 Bft) W 271 ° 0 min 0,000 mm 0,8 UV-I 118 W/m² 0,2 °C 5,1 °C 11,3 km/h (2 Bft)
20.02.2017 16:00 6,3 °C 6,3 °C 64 % 1021,3 hPa 0,0 mm 10,3 km/h (2 Bft) SW 233 ° 0 min 0,000 mm 0,7 UV-I 114 W/m² 0,0 °C 4,2 °C 16,1 km/h (3 Bft)
20.02.2017 16:01 6,3 °C 6,3 °C 63 % 1021,2 hPa 0,0 mm 6,6 km/h (2 Bft) W-SW 252 ° 0 min 0,102 mm 0,7 UV-I 113 W/m² -0,2 °C 5,0 °C 11,3 km/h (2 Bft)
20.02.2017 16:02 6,3 °C 6,3 °C 64 % 1021,2 hPa 0,0 mm 6,9 km/h (2 Bft) W-SW 251 ° 0 min 0,000 mm 0,7 UV-I 111 W/m² 0,0 °C 5,0 °C 14,5 km/h (3 Bft)
20.02.2017 16:03 6,3 °C 6,3 °C 64 % 1021,2 hPa 0,0 mm 8,1 km/h (2 Bft) SW 222 ° 0 min 0,000 mm 0,7 UV-I 109 W/m² 0,0 °C 4,6 °C 16,1 km/h (3 Bft)
20.02.2017 16:04 6,3 °C 6,3 °C 64 % 1021,1 hPa 0,0 mm 5,8 km/h (2 Bft) SW 225 ° 0 min 0,000 mm 0,7 UV-I 105 W/m² 0,0 °C 5,3 °C 8,0 km/h (2 Bft)
20.02.2017 16:05 6,3 °C 6,3 °C 63 % 1021,1 hPa 0,0 mm 6,2 km/h (2 Bft) SW 232 ° 0 min 0,000 mm 0,7 UV-I 104 W/m² -0,2 °C 5,2 °C 11,3 km/h (2 Bft)
20.02.2017 16:06 6,3 °C 6,3 °C 63 % 1021,1 hPa 0,0 mm 5,1 km/h (1 Bft) W-SW 255 ° 0 min 0,000 mm 0,7 UV-I 102 W/m² -0,2 °C 5,5 °C 11,3 km/h (2 Bft)
20.02.2017 16:07 6,3 °C 6,4 °C 63 % 1021,1 hPa 0,0 mm 9,3 km/h (2 Bft) W-SW 246 ° 0 min 0,000 mm 0,7 UV-I 100 W/m² -0,2 °C 4,4 °C 17,7 km/h (3 Bft)
20.02.2017 16:08 6,3 °C 6,3 °C 63 % 1021,1 hPa 0,0 mm 9,5 km/h (2 Bft) W 261 ° 0 min 0,000 mm 0,6 UV-I 98 W/m² -0,2 °C 4,3 °C 19,3 km/h (3 Bft)
20.02.2017 16:09 6,3 °C 6,3 °C 64 % 1021,2 hPa 0,0 mm 10,0 km/h (2 Bft) W-SW 241 ° 0 min 0,000 mm 0,6 UV-I 98 W/m² 0,0 °C 4,2 °C 12,9 km/h (3 Bft)
20.02.2017 16:10 6,2 °C 6,3 °C 64 % 1021,1 hPa 0,0 mm 8,4 km/h (2 Bft) W 263 ° 0 min 0,000 mm 0,6 UV-I 98 W/m² -0,1 °C 4,4 °C 12,9 km/h (3 Bft)
20.02.2017 16:11 6,3 °C 6,3 °C 65 % 1021,0 hPa 0,0 mm 7,4 km/h (2 Bft) W-SW 242 ° 0 min 0,000 mm 0,6 UV-I 97 W/m² 0,2 °C 4,8 °C 14,5 km/h (3 Bft)
20.02.2017 16:12 6,2 °C 6,3 °C 64 % 1021,0 hPa 0,0 mm 7,3 km/h (2 Bft) S-SW 205 ° 0 min 0,000 mm 0,6 UV-I 95 W/m² -0,1 °C 4,7 °C 11,3 km/h (2 Bft)
20.02.2017 16:13 6,2 °C 6,3 °C 65 % 1021,0 hPa 0,0 mm 12,7 km/h (3 Bft) W-SW 244 ° 0 min 0,000 mm 0,6 UV-I 95 W/m² 0,1 °C 3,6 °C 17,7 km/h (3 Bft)
20.02.2017 16:14 6,2 °C 6,2 °C 64 % 1021,0 hPa 0,0 mm 12,4 km/h (3 Bft) W-SW 246 ° 0 min 0,000 mm 0,6 UV-I 93 W/m² -0,1 °C 3,6 °C 16,1 km/h (3 Bft)
20.02.2017 16:15 6,2 °C 6,3 °C 64 % 1021,0 hPa 0,0 mm 10,7 km/h (2 Bft) W-SW 256 ° 0 min 0,000 mm 0,6 UV-I 90 W/m² -0,1 °C 4,0 °C 19,3 km/h (3 Bft)
20.02.2017 16:16 6,2 °C 6,3 °C 64 % 1020,9 hPa 0,0 mm 10,1 km/h (2 Bft) W-SW 246 ° 0 min 0,000 mm 0,6 UV-I 88 W/m² -0,1 °C 4,1 °C 16,1 km/h (3 Bft)
20.02.2017 16:17 6,2 °C 6,3 °C 64 % 1020,9 hPa 0,0 mm 6,5 km/h (2 Bft) S-SW 210 ° 0 min 0,000 mm 0,5 UV-I 86 W/m² -0,1 °C 4,9 °C 11,3 km/h (2 Bft)
20.02.2017 16:18 6,2 °C 6,3 °C 64 % 1020,9 hPa 0,0 mm 4,4 km/h (1 Bft) W-SW 252 ° 0 min 0,000 mm 0,5 UV-I 83 W/m² -0,1 °C 6,2 °C 8,0 km/h (2 Bft)
20.02.2017 16:19 6,2 °C 6,2 °C 65 % 1020,8 hPa 0,0 mm 11,9 km/h (2 Bft) W-SW 238 ° 0 min 0,000 mm 0,5 UV-I 81 W/m² 0,1 °C 3,7 °C 17,7 km/h (3 Bft)
20.02.2017 16:20 6,2 °C 6,2 °C 65 % 1020,8 hPa 0,0 mm 11,9 km/h (2 Bft) W-SW 252 ° 0 min 0,000 mm 0,5 UV-I 81 W/m² 0,1 °C 3,7 °C 16,1 km/h (3 Bft)
20.02.2017 16:21 6,2 °C 6,2 °C 65 % 1020,8 hPa 0,0 mm 13,1 km/h (3 Bft) W 273 ° 0 min 0,000 mm 0,5 UV-I 79 W/m² 0,1 °C 3,5 °C 25,7 km/h (4 Bft)
20.02.2017 16:22 6,2 °C 6,2 °C 64 % 1020,8 hPa 0,0 mm 8,9 km/h (2 Bft) W 263 ° 0 min 0,000 mm 0,5 UV-I 77 W/m² -0,1 °C 4,3 °C 11,3 km/h (2 Bft)
20.02.2017 16:23 6,1 °C 6,2 °C 65 % 1020,9 hPa 0,0 mm 7,7 km/h (2 Bft) W 262 ° 0 min 0,000 mm 0,5 UV-I 74 W/m² 0,0 °C 4,5 °C 16,1 km/h (3 Bft)
20.02.2017 16:24 6,1 °C 6,1 °C 65 % 1020,8 hPa 0,0 mm 12,9 km/h (3 Bft) W 268 ° 0 min 0,000 mm 0,5 UV-I 72 W/m² 0,0 °C 3,4 °C 17,7 km/h (3 Bft)
20.02.2017 16:25 6,1 °C 6,1 °C 65 % 1020,8 hPa 0,0 mm 12,6 km/h (3 Bft) SW 227 ° 0 min 0,000 mm 0,0 UV-I 70 W/m² 0,0 °C 3,5 °C 20,9 km/h (4 Bft)
20.02.2017 16:26 6,1 °C 6,1 °C 65 % 1020,8 hPa 0,0 mm 9,6 km/h (2 Bft) W 259 ° 0 min 0,000 mm 0,0 UV-I 70 W/m² 0,0 °C 4,1 °C 12,9 km/h (3 Bft)
20.02.2017 16:27 6,1 °C 6,1 °C 66 % 1020,8 hPa 0,0 mm 11,4 km/h (2 Bft) W 259 ° 0 min 0,000 mm 0,0 UV-I 69 W/m² 0,2 °C 3,7 °C 17,7 km/h (3 Bft)
20.02.2017 16:28 6,1 °C 6,1 °C 66 % 1020,8 hPa 0,0 mm 11,3 km/h (2 Bft) W-SW 255 ° 0 min 0,000 mm 0,0 UV-I 67 W/m² 0,2 °C 3,7 °C 14,5 km/h (3 Bft)
20.02.2017 16:29 6,0 °C 6,1 °C 66 % 1020,8 hPa 0,0 mm 11,4 km/h (2 Bft) W-SW 248 ° 0 min 0,000 mm 0,0 UV-I 65 W/m² 0,1 °C 3,6 °C 16,1 km/h (3 Bft)
20.02.2017 16:30 5,9 °C 6,0 °C 65 % 1020,8 hPa 0,0 mm 10,9 km/h (2 Bft) W-SW 243 ° 0 min 0,000 mm 0,0 UV-I 63 W/m² -0,2 °C 3,6 °C 16,1 km/h (3 Bft)
20.02.2017 16:31 5,9 °C 5,9 °C 66 % 1020,8 hPa 0,0 mm 6,4 km/h (2 Bft) W 273 ° 0 min 0,000 mm 0,0 UV-I 62 W/m² 0,0 °C 4,6 °C 9,7 km/h (2 Bft)
20.02.2017 16:32 5,9 °C 5,9 °C 66 % 1020,8 hPa 0,0 mm 6,3 km/h (2 Bft) W-SW 244 ° 0 min 0,000 mm 0,0 UV-I 60 W/m² 0,0 °C 4,7 °C 12,9 km/h (3 Bft)
20.02.2017 16:33 5,8 °C 5,9 °C 67 % 1020,8 hPa 0,0 mm 4,2 km/h (1 Bft) SW 221 ° 0 min 0,000 mm 0,0 UV-I 58 W/m² 0,2 °C 5,8 °C 6,4 km/h (2 Bft)
20.02.2017 16:34 5,8 °C 5,8 °C 67 % 1020,8 hPa 0,0 mm 5,1 km/h (1 Bft) SW 234 ° 0 min 0,000 mm 0,0 UV-I 56 W/m² 0,2 °C 5,0 °C 6,4 km/h (2 Bft)
20.02.2017 16:35 5,8 °C 5,8 °C 67 % 1020,8 hPa 0,0 mm 4,5 km/h (1 Bft) S-SW 212 ° 0 min 0,000 mm 0,0 UV-I 54 W/m² 0,2 °C 5,8 °C 8,0 km/h (2 Bft)
20.02.2017 16:36 5,8 °C 5,8 °C 67 % 1020,7 hPa 0,0 mm 8,1 km/h (2 Bft) W 261 ° 0 min 0,000 mm 0,0 UV-I 51 W/m² 0,2 °C 4,0 °C 19,3 km/h (3 Bft)
20.02.2017 16:37 5,8 °C 5,8 °C 66 % 1020,7 hPa 0,0 mm 16,4 km/h (3 Bft) W-SW 252 ° 0 min 0,000 mm 0,0 UV-I 49 W/m² -0,0 °C 2,5 °C 20,9 km/h (4 Bft)
20.02.2017 16:38 5,8 °C 5,8 °C 67 % 1020,7 hPa 0,0 mm 8,7 km/h (2 Bft) W 277 ° 0 min 0,000 mm 0,0 UV-I 49 W/m² 0,2 °C 3,9 °C 12,9 km/h (3 Bft)
20.02.2017 16:39 5,7 °C 5,8 °C 67 % 1020,7 hPa 0,0 mm 9,4 km/h (2 Bft) W-SW 251 ° 0 min 0,000 mm 0,0 UV-I 47 W/m² 0,1 °C 3,6 °C 12,9 km/h (3 Bft)
20.02.2017 16:40 5,7 °C 5,8 °C 67 % 1020,7 hPa 0,0 mm 7,3 km/h (2 Bft) W-SW 252 ° 0 min 0,000 mm 0,0 UV-I 46 W/m² 0,1 °C 4,1 °C 11,3 km/h (2 Bft)
20.02.2017 16:41 5,7 °C 5,7 °C 68 % 1020,7 hPa 0,0 mm 4,8 km/h (1 Bft) W-SW 250 ° 0 min 0,000 mm 0,0 UV-I 44 W/m² 0,3 °C 5,0 °C 6,4 km/h (2 Bft)
20.02.2017 16:42 5,7 °C 5,7 °C 68 % 1020,7 hPa 0,0 mm 6,8 km/h (2 Bft) W 260 ° 0 min 0,000 mm 0,0 UV-I 42 W/m² 0,3 °C 4,3 °C 9,7 km/h (2 Bft)
20.02.2017 16:43 5,7 °C 5,7 °C 67 % 1020,7 hPa 0,0 mm 9,1 km/h (2 Bft) W 264 ° 0 min 0,000 mm 0,0 UV-I 42 W/m² 0,1 °C 3,7 °C 16,1 km/h (3 Bft)
20.02.2017 16:44 5,7 °C 5,7 °C 67 % 1020,7 hPa 0,0 mm 12,8 km/h (3 Bft) W-SW 250 ° 0 min 0,000 mm 0,0 UV-I 42 W/m² 0,1 °C 3,0 °C 17,7 km/h (3 Bft)
20.02.2017 16:45 5,7 °C 5,7 °C 66 % 1020,7 hPa 0,0 mm 13,8 km/h (3 Bft) W 275 ° 0 min 0,000 mm 0,0 UV-I 42 W/m² -0,1 °C 2,8 °C 19,3 km/h (3 Bft)
20.02.2017 16:46 5,7 °C 5,7 °C 67 % 1020,7 hPa 0,0 mm 10,6 km/h (2 Bft) W-SW 245 ° 0 min 0,000 mm 0,0 UV-I 42 W/m² 0,1 °C 3,4 °C 12,9 km/h (3 Bft)
20.02.2017 16:47 5,6 °C 5,7 °C 68 % 1020,6 hPa 0,0 mm 9,5 km/h (2 Bft) W 262 ° 0 min 0,000 mm 0,0 UV-I 42 W/m² 0,2 °C 3,5 °C 16,1 km/h (3 Bft)
20.02.2017 16:48 5,6 °C 5,6 °C 68 % 1020,7 hPa 0,0 mm 5,9 km/h (2 Bft) W-SW 251 ° 0 min 0,000 mm 0,0 UV-I 42 W/m² 0,2 °C 4,4 °C 11,3 km/h (2 Bft)
20.02.2017 16:49 5,6 °C 5,6 °C 67 % 1020,7 hPa 0,0 mm 8,7 km/h (2 Bft) W 279 ° 0 min 0,000 mm 0,0 UV-I 42 W/m² -0,0 °C 3,7 °C 14,5 km/h (3 Bft)
20.02.2017 16:50 5,6 °C 5,6 °C 68 % 1020,7 hPa 0,0 mm 4,6 km/h (1 Bft) SW 233 ° 0 min 0,000 mm 0,0 UV-I 42 W/m² 0,2 °C 4,9 °C 6,4 km/h (2 Bft)
20.02.2017 16:51 5,6 °C 5,6 °C 68 % 1020,7 hPa 0,0 mm 4,7 km/h (1 Bft) W 259 ° 0 min 0,000 mm 0,0 UV-I 42 W/m² 0,2 °C 4,9 °C 6,4 km/h (2 Bft)
20.02.2017 16:52 5,6 °C 5,6 °C 68 % 1020,7 hPa 0,0 mm 7,3 km/h (2 Bft) W-NW 284 ° 0 min 0,000 mm 0,0 UV-I 40 W/m² 0,2 °C 4,0 °C 9,7 km/h (2 Bft)
20.02.2017 16:53 5,6 °C 5,6 °C 68 % 1020,7 hPa 0,0 mm 5,6 km/h (1 Bft) W-SW 246 ° 0 min 0,000 mm 0,0 UV-I 39 W/m² 0,2 °C 4,5 °C 9,7 km/h (2 Bft)
20.02.2017 16:54 5,6 °C 5,6 °C 68 % 1020,7 hPa 0,0 mm 7,8 km/h (2 Bft) W-SW 254 ° 0 min 0,000 mm 0,0 UV-I 37 W/m² 0,2 °C 3,9 °C 12,9 km/h (3 Bft)
20.02.2017 16:55 5,6 °C 5,6 °C 68 % 1020,7 hPa 0,0 mm 6,4 km/h (2 Bft) W-SW 242 ° 0 min 0,000 mm 0,0 UV-I 35 W/m² 0,2 °C 4,3 °C 9,7 km/h (2 Bft)
20.02.2017 16:56 5,6 °C 5,6 °C 68 % 1020,7 hPa 0,0 mm 8,0 km/h (2 Bft) W 259 ° 0 min 0,000 mm 0,0 UV-I 35 W/m² 0,2 °C 3,8 °C 11,3 km/h (2 Bft)
20.02.2017 16:57 5,4 °C 5,6 °C 68 % 1020,6 hPa 0,0 mm 7,8 km/h (2 Bft) W-SW 258 ° 0 min 0,000 mm 0,0 UV-I 33 W/m² -0,0 °C 3,7 °C 11,3 km/h (2 Bft)
20.02.2017 16:58 5,4 °C 5,4 °C 68 % 1020,6 hPa 0,0 mm 8,0 km/h (2 Bft) W-SW 247 ° 0 min 0,000 mm 0,0 UV-I 32 W/m² -0,0 °C 3,6 °C 11,3 km/h (2 Bft)
20.02.2017 16:59 5,4 °C 5,4 °C 69 % 1020,5 hPa 0,0 mm 5,1 km/h (1 Bft) SW 231 ° 0 min 0,000 mm 0,0 UV-I 30 W/m² 0,2 °C 4,5 °C 6,4 km/h (2 Bft)
20.02.2017 17:00 5,4 °C 5,4 °C 69 % 1020,6 hPa 0,0 mm 6,6 km/h (2 Bft) W 265 ° 0 min 0,000 mm 0,0 UV-I 28 W/m² 0,2 °C 4,0 °C 14,5 km/h (3 Bft)
20.02.2017 17:01 5,4 °C 5,4 °C 69 % 1020,6 hPa 0,0 mm 8,7 km/h (2 Bft) W-SW 238 ° 0 min 0,051 mm 0,0 UV-I 28 W/m² 0,2 °C 3,4 °C 14,5 km/h (3 Bft)
20.02.2017 17:02 5,4 °C 5,4 °C 68 % 1020,5 hPa 0,0 mm 6,8 km/h (2 Bft) S-SW 212 ° 0 min 0,000 mm 0,0 UV-I 26 W/m² -0,0 °C 3,9 °C 11,3 km/h (2 Bft)
20.02.2017 17:03 5,4 °C 5,5 °C 68 % 1020,5 hPa 0,0 mm 3,8 km/h (1 Bft) W-SW 240 ° 0 min 0,000 mm 0,0 UV-I 26 W/m² -0,0 °C 5,4 °C 6,4 km/h (2 Bft)
20.02.2017 17:04 5,5 °C 5,5 °C 68 % 1020,5 hPa 0,0 mm 3,2 km/h (1 Bft) W-SW 240 ° 0 min 0,000 mm 0,0 UV-I 25 W/m² 0,1 °C 5,5 °C 4,8 km/h (1 Bft)
20.02.2017 17:05 5,6 °C 5,6 °C 67 % 1020,6 hPa 0,0 mm 3,6 km/h (1 Bft) W-SW 252 ° 0 min 0,000 mm 0,0 UV-I 25 W/m² -0,0 °C 5,6 °C 11,3 km/h (2 Bft)
20.02.2017 17:06 5,5 °C 5,6 °C 68 % 1020,5 hPa 0,0 mm 6,4 km/h (2 Bft) W-SW 242 ° 0 min 0,000 mm 0,0 UV-I 25 W/m² 0,1 °C 4,2 °C 9,7 km/h (2 Bft)
20.02.2017 17:07 5,5 °C 5,5 °C 68 % 1020,5 hPa 0,0 mm 5,9 km/h (2 Bft) W-SW 242 ° 0 min 0,000 mm 0,0 UV-I 25 W/m² 0,1 °C 4,3 °C 6,4 km/h (2 Bft)
20.02.2017 17:08 5,4 °C 5,5 °C 68 % 1020,5 hPa 0,0 mm 4,8 km/h (1 Bft) W 259 ° 0 min 0,000 mm 0,0 UV-I 23 W/m² -0,0 °C 4,6 °C 11,3 km/h (2 Bft)
20.02.2017 17:09 5,4 °C 5,5 °C 68 % 1020,6 hPa 0,0 mm 4,1 km/h (1 Bft) W 260 ° 0 min 0,000 mm 0,0 UV-I 23 W/m² -0,0 °C 5,4 °C 4,8 km/h (1 Bft)
20.02.2017 17:10 5,4 °C 5,5 °C 68 % 1020,5 hPa 0,0 mm 2,7 km/h (1 Bft) S 190 ° 0 min 0,000 mm 0,0 UV-I 21 W/m² -0,0 °C 5,4 °C 6,4 km/h (2 Bft)
20.02.2017 17:11 5,4 °C 5,5 °C 68 % 1020,5 hPa 0,0 mm 4,7 km/h (1 Bft) SW 231 ° 0 min 0,000 mm 0,0 UV-I 19 W/m² -0,0 °C 4,7 °C 6,4 km/h (2 Bft)
20.02.2017 17:12 5,4 °C 5,5 °C 68 % 1020,5 hPa 0,0 mm 6,1 km/h (2 Bft) S 184 ° 0 min 0,000 mm 0,0 UV-I 19 W/m² -0,0 °C 4,2 °C 11,3 km/h (2 Bft)
20.02.2017 17:13 5,4 °C 5,5 °C 68 % 1020,5 hPa 0,0 mm 6,3 km/h (2 Bft) W-SW 242 ° 0 min 0,000 mm 0,0 UV-I 18 W/m² -0,0 °C 4,1 °C 9,7 km/h (2 Bft)
20.02.2017 17:14 5,4 °C 5,5 °C 68 % 1020,5 hPa 0,0 mm 5,5 km/h (1 Bft) SW 229 ° 0 min 0,000 mm 0,0 UV-I 18 W/m² -0,0 °C 4,4 °C 8,0 km/h (2 Bft)
20.02.2017 17:15 5,4 °C 5,5 °C 68 % 1020,5 hPa 0,0 mm 8,5 km/h (2 Bft) W-SW 254 ° 0 min 0,000 mm 0,0 UV-I 18 W/m² -0,0 °C 3,5 °C 12,9 km/h (3 Bft)
20.02.2017 17:16 5,4 °C 5,4 °C 69 % 1020,5 hPa 0,0 mm 7,2 km/h (2 Bft) SW 231 ° 0 min 0,000 mm 0,0 UV-I 18 W/m² 0,2 °C 3,8 °C 12,9 km/h (3 Bft)
20.02.2017 17:17 5,4 °C 5,4 °C 69 % 1020,5 hPa 0,0 mm 6,2 km/h (2 Bft) SW 232 ° 0 min 0,000 mm 0,0 UV-I 18 W/m² 0,2 °C 4,1 °C 8,0 km/h (2 Bft)
20.02.2017 17:18 5,4 °C 5,4 °C 68 % 1020,5 hPa 0,0 mm 8,6 km/h (2 Bft) W 263 ° 0 min 0,000 mm 0,0 UV-I 18 W/m² -0,0 °C 3,5 °C 16,1 km/h (3 Bft)
20.02.2017 17:19 5,4 °C 5,4 °C 68 % 1020,5 hPa 0,0 mm 8,0 km/h (2 Bft) S-SW 213 ° 0 min 0,000 mm 0,0 UV-I 18 W/m² -0,0 °C 3,6 °C 11,3 km/h (2 Bft)
20.02.2017 17:20 5,4 °C 5,4 °C 68 % 1020,5 hPa 0,0 mm 4,3 km/h (1 Bft) SW 215 ° 0 min 0,000 mm 0,0 UV-I 16 W/m² -0,0 °C 5,4 °C 6,4 km/h (2 Bft)
20.02.2017 17:21 5,4 °C 5,4 °C 68 % 1020,5 hPa 0,0 mm 3,0 km/h (1 Bft) SW 215 ° 0 min 0,000 mm 0,0 UV-I 16 W/m² -0,0 °C 5,4 °C 4,8 km/h (1 Bft)
20.02.2017 17:22 5,4 °C 5,4 °C 68 % 1020,5 hPa 0,0 mm 5,5 km/h (1 Bft) W-SW 246 ° 0 min 0,000 mm 0,0 UV-I 16 W/m² -0,0 °C 4,4 °C 11,3 km/h (2 Bft)
20.02.2017 17:23 5,4 °C 5,4 °C 68 % 1020,5 hPa 0,0 mm 6,3 km/h (2 Bft) W-SW 242 ° 0 min 0,000 mm 0,0 UV-I 16 W/m² -0,0 °C 4,1 °C 11,3 km/h (2 Bft)
20.02.2017 17:24 5,4 °C 5,4 °C 68 % 1020,4 hPa 0,0 mm 3,9 km/h (1 Bft) SW 221 ° 0 min 0,000 mm 0,0 UV-I 14 W/m² -0,0 °C 5,4 °C 4,8 km/h (1 Bft)
20.02.2017 17:25 5,4 °C 5,5 °C 69 % 1020,4 hPa 0,0 mm 3,2 km/h (1 Bft) S-SW 195 ° 0 min 0,000 mm 0,0 UV-I 14 W/m² 0,2 °C 5,4 °C 6,4 km/h (2 Bft)
20.02.2017 17:26 5,4 °C 5,4 °C 68 % 1020,4 hPa 0,0 mm 7,2 km/h (2 Bft) W-SW 245 ° 0 min 0,000 mm 0,0 UV-I 14 W/m² -0,0 °C 3,8 °C 9,7 km/h (2 Bft)
20.02.2017 17:27 5,4 °C 5,4 °C 68 % 1020,4 hPa 0,0 mm 4,8 km/h (1 Bft) W-SW 254 ° 0 min 0,000 mm 0,0 UV-I 14 W/m² -0,0 °C 4,6 °C 8,0 km/h (2 Bft)
20.02.2017 17:28 5,4 °C 5,4 °C 68 % 1020,4 hPa 0,0 mm 6,7 km/h (2 Bft) W 268 ° 0 min 0,000 mm 0,0 UV-I 14 W/m² -0,0 °C 4,0 °C 12,9 km/h (3 Bft)
20.02.2017 17:29 5,4 °C 5,4 °C 69 % 1020,4 hPa 0,0 mm 6,3 km/h (2 Bft) S-SW 195 ° 0 min 0,000 mm 0,0 UV-I 14 W/m² 0,2 °C 4,1 °C 11,3 km/h (2 Bft)
20.02.2017 17:30 5,4 °C 5,4 °C 68 % 1020,4 hPa 0,0 mm 4,0 km/h (1 Bft) S-SW 196 ° 0 min 0,000 mm 0,0 UV-I 14 W/m² -0,0 °C 5,4 °C 8,0 km/h (2 Bft)
20.02.2017 17:31 5,4 °C 5,4 °C 68 % 1020,4 hPa 0,0 mm 5,2 km/h (1 Bft) SW 222 ° 0 min 0,000 mm 0,0 UV-I 14 W/m² -0,0 °C 4,5 °C 6,4 km/h (2 Bft)
20.02.2017 17:32 5,4 °C 5,4 °C 68 % 1020,4 hPa 0,0 mm 6,4 km/h (2 Bft) SW 225 ° 0 min 0,000 mm 0,0 UV-I 14 W/m² -0,0 °C 4,1 °C 12,9 km/h (3 Bft)
20.02.2017 17:33 5,4 °C 5,4 °C 68 % 1020,4 hPa 0,0 mm 6,7 km/h (2 Bft) SW 219 ° 0 min 0,000 mm 0,0 UV-I 12 W/m² -0,0 °C 4,0 °C 12,9 km/h (3 Bft)
20.02.2017 17:34 5,4 °C 5,4 °C 68 % 1020,4 hPa 0,0 mm 6,6 km/h (2 Bft) SW 232 ° 0 min 0,000 mm 0,0 UV-I 12 W/m² -0,0 °C 4,0 °C 11,3 km/h (2 Bft)
20.02.2017 17:35 5,4 °C 5,4 °C 68 % 1020,4 hPa 0,0 mm 8,2 km/h (2 Bft) SW 234 ° 0 min 0,000 mm 0,0 UV-I 12 W/m² -0,0 °C 3,6 °C 14,5 km/h (3 Bft)
20.02.2017 17:36 5,4 °C 5,4 °C 68 % 1020,4 hPa 0,0 mm 3,6 km/h (1 Bft) W 276 ° 0 min 0,000 mm 0,0 UV-I 12 W/m² -0,0 °C 5,4 °C 4,8 km/h (1 Bft)
20.02.2017 17:37 5,4 °C 5,4 °C 69 % 1020,4 hPa 0,0 mm 3,5 km/h (1 Bft) W-SW 246 ° 0 min 0,000 mm 0,0 UV-I 11 W/m² 0,2 °C 5,4 °C 6,4 km/h (2 Bft)
20.02.2017 17:38 5,3 °C 5,4 °C 69 % 1020,4 hPa 0,0 mm 8,8 km/h (2 Bft) W-SW 242 ° 0 min 0,000 mm 0,0 UV-I 11 W/m² 0,1 °C 3,3 °C 14,5 km/h (3 Bft)
20.02.2017 17:39 5,3 °C 5,3 °C 69 % 1020,4 hPa 0,0 mm 7,7 km/h (2 Bft) SW 220 ° 0 min 0,000 mm 0,0 UV-I 11 W/m² 0,1 °C 3,6 °C 11,3 km/h (2 Bft)
20.02.2017 17:40 5,3 °C 5,3 °C 68 % 1020,4 hPa 0,0 mm 6,1 km/h (2 Bft) SW 227 ° 0 min 0,000 mm 0,0 UV-I 9 W/m² -0,1 °C 4,0 °C 9,7 km/h (2 Bft)
20.02.2017 17:41 5,3 °C 5,3 °C 69 % 1020,4 hPa 0,0 mm 5,1 km/h (1 Bft) SW 228 ° 0 min 0,000 mm 0,0 UV-I 9 W/m² 0,1 °C 4,4 °C 9,7 km/h (2 Bft)
20.02.2017 17:42 5,3 °C 5,3 °C 69 % 1020,4 hPa 0,0 mm 11,8 km/h (2 Bft) W-NW 294 ° 0 min 0,000 mm 0,0 UV-I 9 W/m² 0,1 °C 2,7 °C 19,3 km/h (3 Bft)
20.02.2017 17:43 5,3 °C 5,3 °C 69 % 1020,4 hPa 0,0 mm 10,3 km/h (2 Bft) W 267 ° 0 min 0,000 mm 0,0 UV-I 9 W/m² 0,1 °C 3,0 °C 17,7 km/h (3 Bft)
20.02.2017 17:44 5,3 °C 5,3 °C 69 % 1020,4 hPa 0,0 mm 7,8 km/h (2 Bft) W-SW 250 ° 0 min 0,000 mm 0,0 UV-I 9 W/m² 0,1 °C 3,5 °C 11,3 km/h (2 Bft)
20.02.2017 17:45 5,2 °C 5,3 °C 69 % 1020,4 hPa 0,0 mm 5,8 km/h (2 Bft) W-SW 246 ° 0 min 0,000 mm 0,0 UV-I 7 W/m² -0,0 °C 4,0 °C 9,7 km/h (2 Bft)
20.02.2017 17:46 5,2 °C 5,2 °C 69 % 1020,4 hPa 0,0 mm 8,4 km/h (2 Bft) W-SW 244 ° 0 min 0,000 mm 0,0 UV-I 7 W/m² -0,0 °C 3,3 °C 12,9 km/h (3 Bft)
20.02.2017 17:47 5,2 °C 5,2 °C 69 % 1020,4 hPa 0,0 mm 6,5 km/h (2 Bft) W-SW 241 ° 0 min 0,000 mm 0,0 UV-I 7 W/m² -0,0 °C 3,8 °C 8,0 km/h (2 Bft)
20.02.2017 17:48 5,2 °C 5,2 °C 70 % 1020,4 hPa 0,0 mm 8,9 km/h (2 Bft) W-SW 240 ° 0 min 0,000 mm 0,0 UV-I 7 W/m² 0,2 °C 3,1 °C 12,9 km/h (3 Bft)
20.02.2017 17:49 5,2 °C 5,2 °C 70 % 1020,4 hPa 0,0 mm 4,4 km/h (1 Bft) SW 217 ° 0 min 0,000 mm 0,0 UV-I 7 W/m² 0,2 °C 5,2 °C 8,0 km/h (2 Bft)
20.02.2017 17:50 5,1 °C 5,2 °C 70 % 1020,4 hPa 0,0 mm 5,8 km/h (2 Bft) W-SW 239 ° 0 min 0,000 mm 0,0 UV-I 5 W/m² 0,1 °C 3,9 °C 8,0 km/h (2 Bft)
20.02.2017 17:51 5,1 °C 5,1 °C 70 % 1020,3 hPa 0,0 mm 6,8 km/h (2 Bft) SW 235 ° 0 min 0,000 mm 0,0 UV-I 5 W/m² 0,1 °C 3,6 °C 12,9 km/h (3 Bft)
20.02.2017 17:52 5,1 °C 5,1 °C 70 % 1020,4 hPa 0,0 mm 5,8 km/h (2 Bft) W 259 ° 0 min 0,000 mm 0,0 UV-I 0 W/m² 0,1 °C 3,9 °C 11,3 km/h (2 Bft)
20.02.2017 17:53 5,1 °C 5,1 °C 70 % 1020,3 hPa 0,0 mm 6,0 km/h (2 Bft) W 263 ° 0 min 0,000 mm 0,0 UV-I 0 W/m² 0,1 °C 3,8 °C 9,7 km/h (2 Bft)
20.02.2017 17:54 5,1 °C 5,1 °C 70 % 1020,4 hPa 0,0 mm 7,7 km/h (2 Bft) W 265 ° 0 min 0,000 mm 0,0 UV-I 0 W/m² 0,1 °C 3,3 °C 9,7 km/h (2 Bft)
20.02.2017 17:55 5,1 °C 5,1 °C 70 % 1020,3 hPa 0,0 mm 6,0 km/h (2 Bft) W 262 ° 0 min 0,000 mm 0,0 UV-I 0 W/m² 0,1 °C 3,8 °C 9,7 km/h (2 Bft)
20.02.2017 17:56 5,1 °C 5,1 °C 69 % 1020,4 hPa 0,0 mm 5,4 km/h (1 Bft) W 264 ° 0 min 0,000 mm 0,0 UV-I 0 W/m² -0,1 °C 4,0 °C 9,7 km/h (2 Bft)
20.02.2017 17:57 5,2 °C 5,2 °C 70 % 1020,3 hPa 0,0 mm 8,0 km/h (2 Bft) SW 232 ° 0 min 0,000 mm 0,0 UV-I 0 W/m² 0,2 °C 3,4 °C 12,9 km/h (3 Bft)
20.02.2017 17:58 5,2 °C 5,2 °C 69 % 1020,3 hPa 0,0 mm 5,1 km/h (1 Bft) S-SW 196 ° 0 min 0,000 mm 0,0 UV-I 0 W/m² -0,0 °C 4,3 °C 11,3 km/h (2 Bft)
20.02.2017 17:59 5,2 °C 5,3 °C 69 % 1020,3 hPa 0,0 mm 5,3 km/h (1 Bft) S-SW 207 ° 0 min 0,000 mm 0,0 UV-I 0 W/m² -0,0 °C 4,2 °C 8,0 km/h (2 Bft)
20.02.2017 18:00 5,3 °C 5,3 °C 69 % 1020,4 hPa 0,0 mm 6,8 km/h (2 Bft) W-SW 242 ° 0 min 0,000 mm 0,0 UV-I 0 W/m² 0,1 °C 3,8 °C 14,5 km/h (3 Bft)
20.02.2017 18:01 5,3 °C 5,3 °C 69 % 1020,4 hPa 0,0 mm 8,2 km/h (2 Bft) W-NW 288 ° 0 min 0,025 mm 0,0 UV-I 0 W/m² 0,1 °C 3,4 °C 14,5 km/h (3 Bft)
20.02.2017 18:02 5,3 °C 5,3 °C 69 % 1020,4 hPa 0,0 mm 10,5 km/h (2 Bft) SW 234 ° 0 min 0,000 mm 0,0 UV-I 0 W/m² 0,1 °C 2,9 °C 16,1 km/h (3 Bft)
20.02.2017 18:03 5,2 °C 5,3 °C 69 % 1020,4 hPa 0,0 mm 7,6 km/h (2 Bft) S-SW 207 ° 0 min 0,000 mm 0,0 UV-I 0 W/m² -0,0 °C 3,5 °C 11,3 km/h (2 Bft)
20.02.2017 18:04 5,3 °C 5,3 °C 69 % 1020,5 hPa 0,0 mm 5,4 km/h (1 Bft) W-SW 238 ° 0 min 0,000 mm 0,0 UV-I 0 W/m² 0,1 °C 4,3 °C 11,3 km/h (2 Bft)
20.02.2017 18:05 5,3 °C 5,3 °C 69 % 1020,5 hPa 0,0 mm 8,6 km/h (2 Bft) W-SW 246 ° 0 min 0,000 mm 0,0 UV-I 0 W/m² 0,1 °C 3,3 °C 12,9 km/h (3 Bft)
20.02.2017 18:06 5,2 °C 5,3 °C 69 % 1020,5 hPa 0,0 mm 6,7 km/h (2 Bft) W-SW 250 ° 0 min 0,000 mm 0,0 UV-I 0 W/m² -0,0 °C 3,7 °C 9,7 km/h (2 Bft)
20.02.2017 18:07 5,2 °C 5,2 °C 70 % 1020,5 hPa 0,0 mm 6,8 km/h (2 Bft) S 180 ° 0 min 0,000 mm 0,0 UV-I 0 W/m² 0,2 °C 3,7 °C 12,9 km/h (3 Bft)
20.02.2017 18:08 5,2 °C 5,2 °C 69 % 1020,5 hPa 0,0 mm 5,7 km/h (1 Bft) W-SW 256 ° 0 min 0,000 mm 0,0 UV-I 0 W/m² -0,0 °C 4,1 °C 9,7 km/h (2 Bft)
20.02.2017 18:09 5,2 °C 5,2 °C 69 % 1020,5 hPa 0,0 mm 5,1 km/h (1 Bft) SW 236 ° 0 min 0,000 mm 0,0 UV-I 0 W/m² -0,0 °C 4,3 °C 8,0 km/h (2 Bft)
20.02.2017 18:10 5,1 °C 5,2 °C 70 % 1020,5 hPa 0,0 mm 5,8 km/h (2 Bft) SW 223 ° 0 min 0,000 mm 0,0 UV-I 0 W/m² 0,1 °C 3,9 °C 9,7 km/h (2 Bft)
20.02.2017 18:11 5,2 °C 5,2 °C 70 % 1020,5 hPa 0,0 mm 5,2 km/h (1 Bft) S-SW 211 ° 0 min 0,000 mm 0,0 UV-I 0 W/m² 0,2 °C 4,2 °C 9,7 km/h (2 Bft)
20.02.2017 18:12 5,2 °C 5,2 °C 70 % 1020,5 hPa 0,0 mm 5,0 km/h (1 Bft) W-SW 258 ° 0 min 0,000 mm 0,0 UV-I 0 W/m² 0,2 °C 4,3 °C 11,3 km/h (2 Bft)
20.02.2017 18:13 5,1 °C 5,2 °C 69 % 1020,5 hPa 0,0 mm 4,4 km/h (1 Bft) SW 235 ° 0 min 0,000 mm 0,0 UV-I 0 W/m² -0,1 °C 5,1 °C 8,0 km/h (2 Bft)
20.02.2017 18:14 5,2 °C 5,2 °C 69 % 1020,4 hPa 0,0 mm 4,8 km/h (1 Bft) SW 216 ° 0 min 0,000 mm 0,0 UV-I 0 W/m² -0,0 °C 4,4 °C 6,4 km/h (2 Bft)
20.02.2017 18:15 5,2 °C 5,2 °C 69 % 1020,5 hPa 0,0 mm 4,9 km/h (1 Bft) S-SW 205 ° 0 min 0,000 mm 0,0 UV-I 0 W/m² -0,0 °C 4,3 °C 6,4 km/h (2 Bft)
20.02.2017 18:16 5,2 °C 5,2 °C 70 % 1020,4 hPa 0,0 mm 3,8 km/h (1 Bft) S-SW 210 ° 0 min 0,000 mm 0,0 UV-I 0 W/m² 0,2 °C 5,2 °C 4,8 km/h (1 Bft)
20.02.2017 18:17 5,2 °C 5,2 °C 70 % 1020,4 hPa 0,0 mm 5,5 km/h (1 Bft) S 180 ° 0 min 0,000 mm 0,0 UV-I 0 W/m² 0,2 °C 4,1 °C 12,9 km/h (3 Bft)
20.02.2017 18:18 5,2 °C 5,2 °C 69 % 1020,4 hPa 0,0 mm 6,4 km/h (2 Bft) S-SW 194 ° 0 min 0,000 mm 0,0 UV-I 0 W/m² -0,0 °C 3,8 °C 9,7 km/h (2 Bft)
20.02.2017 18:19 5,2 °C 5,2 °C 70 % 1020,4 hPa 0,0 mm 8,8 km/h (2 Bft) S-SW 210 ° 0 min 0,000 mm 0,0 UV-I 0 W/m² 0,2 °C 3,2 °C 11,3 km/h (2 Bft)
20.02.2017 18:20 5,2 °C 5,2 °C 69 % 1020,5 hPa 0,0 mm 4,0 km/h (1 Bft) S-SW 210 ° 0 min 0,000 mm 0,0 UV-I 0 W/m² -0,0 °C 5,2 °C 6,4 km/h (2 Bft)
20.02.2017 18:21 5,2 °C 5,2 °C 70 % 1020,5 hPa 0,0 mm 4,5 km/h (1 Bft) S-SW 200 ° 0 min 0,000 mm 0,0 UV-I 0 W/m² 0,2 °C 5,2 °C 6,4 km/h (2 Bft)
20.02.2017 18:22 5,2 °C 5,2 °C 69 % 1020,5 hPa 0,0 mm 6,5 km/h (2 Bft) S 173 ° 0 min 0,000 mm 0,0 UV-I 0 W/m² -0,0 °C 3,8 °C 9,7 km/h (2 Bft)
20.02.2017 18:23 5,2 °C 5,2 °C 69 % 1020,5 hPa 0,0 mm 5,7 km/h (1 Bft) S 186 ° 0 min 0,000 mm 0,0 UV-I 0 W/m² -0,0 °C 4,1 °C 8,0 km/h (2 Bft)
20.02.2017 18:24 5,2 °C 5,2 °C 70 % 1020,5 hPa 0,0 mm 6,0 km/h (2 Bft) S 185 ° 0 min 0,000 mm 0,0 UV-I 0 W/m² 0,2 °C 4,0 °C 11,3 km/h (2 Bft)
20.02.2017 18:25 5,2 °C 5,2 °C 70 % 1020,5 hPa 0,0 mm 6,8 km/h (2 Bft) S 191 ° 0 min 0,000 mm 0,0 UV-I 0 W/m² 0,2 °C 3,7 °C 12,9 km/h (3 Bft)
20.02.2017 18:26 5,1 °C 5,2 °C 70 % 1020,6 hPa 0,0 mm 4,0 km/h (1 Bft) S 191 ° 0 min 0,000 mm 0,0 UV-I 0 W/m² 0,1 °C 5,1 °C 6,4 km/h (2 Bft)
20.02.2017 18:27 5,1 °C 5,1 °C 69 % 1020,6 hPa 0,0 mm 3,4 km/h (1 Bft) S 191 ° 0 min 0,000 mm 0,0 UV-I 0 W/m² -0,1 °C 5,1 °C 4,8 km/h (1 Bft)
20.02.2017 18:28 5,1 °C 5,1 °C 70 % 1020,6 hPa 0,0 mm 2,6 km/h (1 Bft) S 191 ° 0 min 0,000 mm 0,0 UV-I 0 W/m² 0,1 °C 5,1 °C 3,2 km/h (1 Bft)
20.02.2017 18:29 5,1 °C 5,1 °C 70 % 1020,6 hPa 0,0 mm 5,1 km/h (1 Bft) S-SW 198 ° 0 min 0,000 mm 0,0 UV-I 0 W/m² 0,1 °C 4,2 °C 8,0 km/h (2 Bft)
20.02.2017 18:30 5,1 °C 5,1 °C 70 % 1020,5 hPa 0,0 mm 3,4 km/h (1 Bft) W-SW 247 ° 0 min 0,000 mm 0,0 UV-I 0 W/m² 0,1 °C 5,1 °C 4,8 km/h (1 Bft)
20.02.2017 18:31 5,1 °C 5,1 °C 70 % 1020,5 hPa 0,0 mm 3,6 km/h (1 Bft) S-SW 213 ° 0 min 0,000 mm 0,0 UV-I 0 W/m² 0,1 °C 5,1 °C 4,8 km/h (1 Bft)
20.02.2017 18:32 5,1 °C 5,1 °C 69 % 1020,6 hPa 0,0 mm 3,2 km/h (1 Bft) S-SW 213 ° 0 min 0,000 mm 0,0 UV-I 0 W/m² -0,1 °C 5,1 °C 4,8 km/h (1 Bft)
20.02.2017 18:33 5,1 °C 5,1 °C 70 % 1020,6 hPa 0,0 mm 4,2 km/h (1 Bft) S-SW 209 ° 0 min 0,000 mm 0,0 UV-I 0 W/m² 0,1 °C 5,1 °C 9,7 km/h (2 Bft)
20.02.2017 18:34 5,1 °C 5,1 °C 69 % 1020,6 hPa 0,0 mm 3,4 km/h (1 Bft) S-SW 209 ° 0 min 0,000 mm 0,0 UV-I 0 W/m² -0,1 °C 5,1 °C 4,8 km/h (1 Bft)
20.02.2017 18:35 5,1 °C 5,1 °C 70 % 1020,7 hPa 0,0 mm 3,0 km/h (1 Bft) S-SW 209 ° 0 min 0,000 mm 0,0 UV-I 0 W/m² 0,1 °C 5,1 °C 4,8 km/h (1 Bft)
20.02.2017 18:36 5,1 °C 5,1 °C 70 % 1020,7 hPa 0,0 mm 2,0 km/h (1 Bft) S 191 ° 0 min 0,000 mm 0,0 UV-I 0 W/m² 0,1 °C 5,1 °C 4,8 km/h (1 Bft)
20.02.2017 18:37 5,1 °C 5,1 °C 70 % 1020,7 hPa 0,0 mm 1,8 km/h (1 Bft) S 191 ° 0 min 0,000 mm 0,0 UV-I 0 W/m² 0,1 °C 5,1 °C 3,2 km/h (1 Bft)
20.02.2017 18:38 5,1 °C 5,1 °C 70 % 1020,7 hPa 0,0 mm 3,1 km/h (1 Bft) W 274 ° 0 min 0,000 mm 0,0 UV-I 0 W/m² 0,1 °C 5,1 °C 4,8 km/h (1 Bft)
20.02.2017 18:39 5,1 °C 5,1 °C 69 % 1020,7 hPa 0,0 mm 4,0 km/h (1 Bft) W-SW 255 ° 0 min 0,000 mm 0,0 UV-I 0 W/m² -0,1 °C 5,1 °C 6,4 km/h (2 Bft)
20.02.2017 18:40 5,1 °C 5,1 °C 70 % 1020,6 hPa 0,0 mm 2,9 km/h (1 Bft) S 190 ° 0 min 0,000 mm 0,0 UV-I 0 W/m² 0,1 °C 5,1 °C 6,4 km/h (2 Bft)
20.02.2017 18:41 5,1 °C 5,1 °C 69 % 1020,6 hPa 0,0 mm 5,3 km/h (1 Bft) SW 235 ° 0 min 0,000 mm 0,0 UV-I 0 W/m² -0,1 °C 4,1 °C 8,0 km/h (2 Bft)
20.02.2017 18:42 5,1 °C 5,1 °C 69 % 1020,6 hPa 0,0 mm 3,3 km/h (1 Bft) W-SW 246 ° 0 min 0,000 mm 0,0 UV-I 0 W/m² -0,1 °C 5,1 °C 6,4 km/h (2 Bft)
20.02.2017 18:43 5,1 °C 5,1 °C 69 % 1020,5 hPa 0,0 mm 3,9 km/h (1 Bft) W 265 ° 0 min 0,000 mm 0,0 UV-I 0 W/m² -0,1 °C 5,1 °C 6,4 km/h (2 Bft)
20.02.2017 18:44 5,1 °C 5,1 °C 70 % 1020,6 hPa 0,0 mm 3,8 km/h (1 Bft) SW 217 ° 0 min 0,000 mm 0,0 UV-I 0 W/m² 0,1 °C 5,1 °C 4,8 km/h (1 Bft)
20.02.2017 18:45 5,1 °C 5,1 °C 69 % 1020,7 hPa 0,0 mm 3,0 km/h (1 Bft) S-SW 213 ° 0 min 0,000 mm 0,0 UV-I 0 W/m² -0,1 °C 5,1 °C 6,4 km/h (2 Bft)
20.02.2017 18:46 5,1 °C 5,1 °C 70 % 1020,7 hPa 0,0 mm 3,5 km/h (1 Bft) S-SW 205 ° 0 min 0,000 mm 0,0 UV-I 0 W/m² 0,1 °C 5,1 °C 6,4 km/h (2 Bft)
20.02.2017 18:47 5,1 °C 5,1 °C 69 % 1020,7 hPa 0,0 mm 3,0 km/h (1 Bft) S-SW 205 ° 0 min 0,000 mm 0,0 UV-I 0 W/m² -0,1 °C 5,1 °C 4,8 km/h (1 Bft)
20.02.2017 18:48 5,1 °C 5,1 °C 69 % 1020,7 hPa 0,0 mm 4,5 km/h (1 Bft) S 190 ° 0 min 0,000 mm 0,0 UV-I 0 W/m² -0,1 °C 5,1 °C 8,0 km/h (2 Bft)
20.02.2017 18:49 5,2 °C 5,2 °C 69 % 1020,7 hPa 0,0 mm 2,4 km/h (1 Bft) S 190 ° 0 min 0,000 mm 0,0 UV-I 0 W/m² -0,0 °C 5,2 °C 3,2 km/h (1 Bft)
20.02.2017 18:50 5,2 °C 5,2 °C 69 % 1020,7 hPa 0,0 mm 3,1 km/h (1 Bft) S 190 ° 0 min 0,000 mm 0,0 UV-I 0 W/m² -0,0 °C 5,2 °C 6,4 km/h (2 Bft)
20.02.2017 18:51 5,1 °C 5,2 °C 70 % 1020,7 hPa 0,0 mm 2,7 km/h (1 Bft) S 190 ° 0 min 0,000 mm 0,0 UV-I 0 W/m² 0,1 °C 5,1 °C 3,2 km/h (1 Bft)
20.02.2017 18:52 5,1 °C 5,1 °C 69 % 1020,8 hPa 0,0 mm 1,4 km/h (1 Bft) S 190 ° 0 min 0,000 mm 0,0 UV-I 0 W/m² -0,1 °C 5,1 °C 4,8 km/h (1 Bft)
20.02.2017 18:53 5,1 °C 5,1 °C 69 % 1020,8 hPa 0,0 mm 4,8 km/h (1 Bft) S 190 ° 0 min 0,000 mm 0,0 UV-I 0 W/m² -0,1 °C 4,3 °C 8,0 km/h (2 Bft)
20.02.2017 18:54 4,9 °C 5,1 °C 70 % 1020,8 hPa 0,0 mm 1,4 km/h (1 Bft) S 190 ° 0 min 0,000 mm 0,0 UV-I 0 W/m² -0,1 °C 4,9 °C 3,2 km/h (1 Bft)
20.02.2017 18:55 4,9 °C 5,0 °C 70 % 1020,8 hPa 0,0 mm 0,2 km/h (0 Bft) S 190 ° 0 min 0,000 mm 0,0 UV-I 0 W/m² -0,1 °C 4,9 °C 1,6 km/h (1 Bft)
20.02.2017 18:56 4,9 °C 5,0 °C 70 % 1020,9 hPa 0,0 mm 0,3 km/h (0 Bft) S 190 ° 0 min 0,000 mm 0,0 UV-I 0 W/m² -0,1 °C 4,9 °C 1,6 km/h (1 Bft)
20.02.2017 18:57 4,9 °C 4,9 °C 69 % 1020,8 hPa 0,0 mm 0,1 km/h (0 Bft) S 190 ° 0 min 0,000 mm 0,0 UV-I 0 W/m² -0,3 °C 4,9 °C 1,6 km/h (1 Bft)
20.02.2017 18:58 4,8 °C 4,9 °C 70 % 1020,9 hPa 0,0 mm 1,0 km/h (0 Bft) S 190 ° 0 min 0,000 mm 0,0 UV-I 0 W/m² -0,2 °C 4,8 °C 3,2 km/h (1 Bft)
20.02.2017 18:59 4,8 °C 4,9 °C 70 % 1020,9 hPa 0,0 mm 1,8 km/h (1 Bft) S 190 ° 0 min 0,000 mm 0,0 UV-I 0 W/m² -0,2 °C 4,8 °C 3,2 km/h (1 Bft)
20.02.2017 19:00 4,7 °C 4,8 °C 71 % 1020,9 hPa 0,0 mm 0,2 km/h (0 Bft) S 190 ° 0 min 0,000 mm 0,0 UV-I 0 W/m² -0,1 °C 4,7 °C 1,6 km/h (1 Bft)
20.02.2017 19:01 4,7 °C 4,7 °C 71 % 1020,9 hPa 0,0 mm 0,0 km/h (0 Bft) S 190 ° 0 min 0,025 mm 0,0 UV-I 0 W/m² -0,1 °C 4,7 °C 0,0 km/h (0 Bft)
20.02.2017 19:02 4,6 °C 4,7 °C 71 % 1020,9 hPa 0,0 mm 0,0 km/h (0 Bft) S 190 ° 0 min 0,000 mm 0,0 UV-I 0 W/m² -0,2 °C 4,6 °C 0,0 km/h (0 Bft)
20.02.2017 19:03 4,6 °C 4,6 °C 71 % 1020,9 hPa 0,0 mm 0,1 km/h (0 Bft) S 190 ° 0 min 0,000 mm 0,0 UV-I 0 W/m² -0,2 °C 4,6 °C 1,6 km/h (1 Bft)
20.02.2017 19:04 4,6 °C 4,6 °C 71 % 1020,9 hPa 0,0 mm 0,4 km/h (0 Bft) S 190 ° 0 min 0,000 mm 0,0 UV-I 0 W/m² -0,2 °C 4,6 °C 1,6 km/h (1 Bft)
20.02.2017 19:05 4,6 °C 4,6 °C 71 % 1020,9 hPa 0,0 mm 0,2 km/h (0 Bft) S 190 ° 0 min 0,000 mm 0,0 UV-I 0 W/m² -0,2 °C 4,6 °C 1,6 km/h (1 Bft)
20.02.2017 19:06 4,6 °C 4,6 °C 71 % 1020,9 hPa 0,0 mm 2,2 km/h (1 Bft) S 190 ° 0 min 0,000 mm 0,0 UV-I 0 W/m² -0,2 °C 4,6 °C 3,2 km/h (1 Bft)
20.02.2017 19:07 4,6 °C 4,6 °C 71 % 1020,8 hPa 0,0 mm 1,4 km/h (1 Bft) S 190 ° 0 min 0,000 mm 0,0 UV-I 0 W/m² -0,2 °C 4,6 °C 3,2 km/h (1 Bft)
20.02.2017 19:08 4,6 °C 4,6 °C 71 % 1020,9 hPa 0,0 mm 0,1 km/h (0 Bft) S 190 ° 0 min 0,000 mm 0,0 UV-I 0 W/m² -0,2 °C 4,6 °C 1,6 km/h (1 Bft)
20.02.2017 19:09 4,6 °C 4,6 °C 71 % 1020,9 hPa 0,0 mm 0,9 km/h (0 Bft) S 190 ° 0 min 0,000 mm 0,0 UV-I 0 W/m² -0,2 °C 4,6 °C 3,2 km/h (1 Bft)
20.02.2017 19:10 4,7 °C 4,7 °C 71 % 1020,9 hPa 0,0 mm 2,1 km/h (1 Bft) S 190 ° 0 min 0,000 mm 0,0 UV-I 0 W/m² -0,1 °C 4,7 °C 3,2 km/h (1 Bft)
20.02.2017 19:11 4,7 °C 4,7 °C 71 % 1020,9 hPa 0,0 mm 1,0 km/h (0 Bft) S 190 ° 0 min 0,000 mm 0,0 UV-I 0 W/m² -0,1 °C 4,7 °C 3,2 km/h (1 Bft)
20.02.2017 19:12 4,8 °C 4,8 °C 70 % 1020,9 hPa 0,0 mm 3,4 km/h (1 Bft) S 190 ° 0 min 0,000 mm 0,0 UV-I 0 W/m² -0,2 °C 4,8 °C 4,8 km/h (1 Bft)
20.02.2017 19:13 4,8 °C 4,8 °C 71 % 1020,9 hPa 0,0 mm 2,9 km/h (1 Bft) S 190 ° 0 min 0,000 mm 0,0 UV-I 0 W/m² -0,0 °C 4,8 °C 4,8 km/h (1 Bft)
20.02.2017 19:14 4,8 °C 4,8 °C 71 % 1020,9 hPa 0,0 mm 4,7 km/h (1 Bft) S 190 ° 0 min 0,000 mm 0,0 UV-I 0 W/m² -0,0 °C 4,0 °C 4,8 km/h (1 Bft)
20.02.2017 19:15 4,8 °C 4,8 °C 71 % 1020,9 hPa 0,0 mm 2,7 km/h (1 Bft) S 190 ° 0 min 0,000 mm 0,0 UV-I 0 W/m² -0,0 °C 4,8 °C 4,8 km/h (1 Bft)
20.02.2017 19:16 4,8 °C 4,8 °C 71 % 1020,9 hPa 0,0 mm 2,7 km/h (1 Bft) S 190 ° 0 min 0,000 mm 0,0 UV-I 0 W/m² -0,0 °C 4,8 °C 4,8 km/h (1 Bft)
20.02.2017 19:17 4,8 °C 4,8 °C 72 % 1020,9 hPa 0,0 mm 4,3 km/h (1 Bft) S 191 ° 0 min 0,000 mm 0,0 UV-I 0 W/m² 0,2 °C 4,8 °C 4,8 km/h (1 Bft)
20.02.2017 19:18 4,7 °C 4,8 °C 71 % 1020,9 hPa 0,0 mm 4,6 km/h (1 Bft) S-SO 165 ° 0 min 0,000 mm 0,0 UV-I 0 W/m² -0,1 °C 3,9 °C 6,4 km/h (2 Bft)
20.02.2017 19:19 4,7 °C 4,7 °C 71 % 1020,9 hPa 0,0 mm 4,5 km/h (1 Bft) SW 215 ° 0 min 0,000 mm 0,0 UV-I 0 W/m² -0,1 °C 4,7 °C 6,4 km/h (2 Bft)
20.02.2017 19:20 4,7 °C 4,7 °C 71 % 1020,9 hPa 0,0 mm 4,1 km/h (1 Bft) S-SO 159 ° 0 min 0,000 mm 0,0 UV-I 0 W/m² -0,1 °C 4,7 °C 6,4 km/h (2 Bft)
20.02.2017 19:21 4,7 °C 4,7 °C 71 % 1020,9 hPa 0,0 mm 4,1 km/h (1 Bft) S 180 ° 0 min 0,000 mm 0,0 UV-I 0 W/m² -0,1 °C 4,7 °C 6,4 km/h (2 Bft)
20.02.2017 19:22 4,7 °C 4,7 °C 71 % 1020,9 hPa 0,0 mm 4,7 km/h (1 Bft) S-SW 200 ° 0 min 0,000 mm 0,0 UV-I 0 W/m² -0,1 °C 3,9 °C 6,4 km/h (2 Bft)
20.02.2017 19:23 4,7 °C 4,7 °C 71 % 1020,9 hPa 0,0 mm 2,6 km/h (1 Bft) S-SW 200 ° 0 min 0,000 mm 0,0 UV-I 0 W/m² -0,1 °C 4,7 °C 4,8 km/h (1 Bft)
20.02.2017 19:24 4,7 °C 4,7 °C 71 % 1020,9 hPa 0,0 mm 4,5 km/h (1 Bft) SW 218 ° 0 min 0,000 mm 0,0 UV-I 0 W/m² -0,1 °C 4,7 °C 4,8 km/h (1 Bft)
20.02.2017 19:25 4,7 °C 4,7 °C 71 % 1020,9 hPa 0,0 mm 4,2 km/h (1 Bft) SW 217 ° 0 min 0,000 mm 0,0 UV-I 0 W/m² -0,1 °C 4,7 °C 4,8 km/h (1 Bft)
20.02.2017 19:26 4,8 °C 4,8 °C 71 % 1020,9 hPa 0,0 mm 3,7 km/h (1 Bft) SW 217 ° 0 min 0,000 mm 0,0 UV-I 0 W/m² -0,0 °C 4,8 °C 4,8 km/h (1 Bft)
20.02.2017 19:27 4,8 °C 4,8 °C 70 % 1021,0 hPa 0,0 mm 3,4 km/h (1 Bft) SW 217 ° 0 min 0,000 mm 0,0 UV-I 0 W/m² -0,2 °C 4,8 °C 6,4 km/h (2 Bft)
20.02.2017 19:28 4,8 °C 4,8 °C 70 % 1021,0 hPa 0,0 mm 5,9 km/h (2 Bft) SW 227 ° 0 min 0,000 mm 0,0 UV-I 0 W/m² -0,2 °C 3,5 °C 8,0 km/h (2 Bft)
20.02.2017 19:29 4,8 °C 4,8 °C 70 % 1021,0 hPa 0,0 mm 3,9 km/h (1 Bft) SW 227 ° 0 min 0,000 mm 0,0 UV-I 0 W/m² -0,2 °C 4,8 °C 4,8 km/h (1 Bft)
20.02.2017 19:30 4,8 °C 4,8 °C 71 % 1021,1 hPa 0,0 mm 3,4 km/h (1 Bft) SW 236 ° 0 min 0,000 mm 0,0 UV-I 0 W/m² -0,0 °C 4,8 °C 6,4 km/h (2 Bft)
20.02.2017 19:31 4,8 °C 4,8 °C 70 % 1021,0 hPa 0,0 mm 3,5 km/h (1 Bft) S 186 ° 0 min 0,000 mm 0,0 UV-I 0 W/m² -0,2 °C 4,8 °C 8,0 km/h (2 Bft)
20.02.2017 19:32 4,9 °C 4,9 °C 69 % 1021,1 hPa 0,0 mm 4,1 km/h (1 Bft) S-SW 202 ° 0 min 0,000 mm 0,0 UV-I 0 W/m² -0,3 °C 4,9 °C 6,4 km/h (2 Bft)
20.02.2017 19:33 4,9 °C 4,9 °C 69 % 1021,0 hPa 0,0 mm 4,2 km/h (1 Bft) S-SW 202 ° 0 min 0,000 mm 0,0 UV-I 0 W/m² -0,3 °C 4,9 °C 4,8 km/h (1 Bft)
20.02.2017 19:34 5,1 °C 5,1 °C 69 % 1021,0 hPa 0,0 mm 4,3 km/h (1 Bft) S-SW 203 ° 0 min 0,000 mm 0,0 UV-I 0 W/m² -0,1 °C 5,1 °C 6,4 km/h (2 Bft)
20.02.2017 19:35 5,1 °C 5,1 °C 69 % 1021,1 hPa 0,0 mm 3,4 km/h (1 Bft) S-SW 202 ° 0 min 0,000 mm 0,0 UV-I 0 W/m² -0,1 °C 5,1 °C 4,8 km/h (1 Bft)
20.02.2017 19:36 5,1 °C 5,1 °C 69 % 1021,0 hPa 0,0 mm 3,6 km/h (1 Bft) S-SW 203 ° 0 min 0,000 mm 0,0 UV-I 0 W/m² -0,1 °C 5,1 °C 6,4 km/h (2 Bft)
20.02.2017 19:37 5,1 °C 5,1 °C 69 % 1021,0 hPa 0,0 mm 3,0 km/h (1 Bft) S-SW 202 ° 0 min 0,000 mm 0,0 UV-I 0 W/m² -0,1 °C 5,1 °C 4,8 km/h (1 Bft)
20.02.2017 19:38 5,1 °C 5,1 °C 69 % 1021,0 hPa 0,0 mm 3,9 km/h (1 Bft) S-SW 202 ° 0 min 0,000 mm 0,0 UV-I 0 W/m² -0,1 °C 5,1 °C 6,4 km/h (2 Bft)
20.02.2017 19:39 5,1 °C 5,1 °C 69 % 1021,0 hPa 0,0 mm 4,0 km/h (1 Bft) S-SW 197 ° 0 min 0,000 mm 0,0 UV-I 0 W/m² -0,1 °C 5,1 °C 6,4 km/h (2 Bft)
20.02.2017 19:40 5,2 °C 5,2 °C 69 % 1021,0 hPa 0,0 mm 4,8 km/h (1 Bft) S 187 ° 0 min 0,000 mm 0,0 UV-I 0 W/m² -0,0 °C 4,4 °C 8,0 km/h (2 Bft)
20.02.2017 19:41 5,2 °C 5,2 °C 68 % 1021,0 hPa 0,0 mm 5,3 km/h (1 Bft) S 187 ° 0 min 0,000 mm 0,0 UV-I 0 W/m² -0,2 °C 4,2 °C 6,4 km/h (2 Bft)
20.02.2017 19:42 5,2 °C 5,2 °C 68 % 1021,0 hPa 0,0 mm 3,8 km/h (1 Bft) S-SW 206 ° 0 min 0,000 mm 0,0 UV-I 0 W/m² -0,2 °C 5,2 °C 4,8 km/h (1 Bft)
20.02.2017 19:43 5,2 °C 5,2 °C 68 % 1021,0 hPa 0,0 mm 4,8 km/h (1 Bft) SW 215 ° 0 min 0,000 mm 0,0 UV-I 0 W/m² -0,2 °C 4,4 °C 6,4 km/h (2 Bft)
20.02.2017 19:44 5,2 °C 5,2 °C 68 % 1021,0 hPa 0,0 mm 5,1 km/h (1 Bft) S-SW 202 ° 0 min 0,000 mm 0,0 UV-I 0 W/m² -0,2 °C 4,3 °C 6,4 km/h (2 Bft)
20.02.2017 19:45 5,2 °C 5,2 °C 68 % 1021,0 hPa 0,0 mm 4,2 km/h (1 Bft) S-SW 202 ° 0 min 0,000 mm 0,0 UV-I 0 W/m² -0,2 °C 5,2 °C 6,4 km/h (2 Bft)
20.02.2017 19:46 5,2 °C 5,3 °C 68 % 1021,0 hPa 0,0 mm 3,6 km/h (1 Bft) S-SW 199 ° 0 min 0,000 mm 0,0 UV-I 0 W/m² -0,2 °C 5,2 °C 4,8 km/h (1 Bft)
20.02.2017 19:47 5,3 °C 5,3 °C 68 % 1020,9 hPa 0,0 mm 3,8 km/h (1 Bft) SW 228 ° 0 min 0,000 mm 0,0 UV-I 0 W/m² -0,1 °C 5,3 °C 6,4 km/h (2 Bft)
20.02.2017 19:48 5,2 °C 5,3 °C 69 % 1020,9 hPa 0,0 mm 5,2 km/h (1 Bft) S 189 ° 0 min 0,000 mm 0,0 UV-I 0 W/m² -0,0 °C 4,2 °C 6,4 km/h (2 Bft)
20.02.2017 19:49 5,2 °C 5,2 °C 68 % 1020,9 hPa 0,0 mm 3,9 km/h (1 Bft) S-SW 204 ° 0 min 0,000 mm 0,0 UV-I 0 W/m² -0,2 °C 5,2 °C 4,8 km/h (1 Bft)
20.02.2017 19:50 5,2 °C 5,3 °C 68 % 1020,9 hPa 0,0 mm 4,8 km/h (1 Bft) S-SW 210 ° 0 min 0,000 mm 0,0 UV-I 0 W/m² -0,2 °C 4,4 °C 6,4 km/h (2 Bft)
20.02.2017 19:51 5,2 °C 5,2 °C 68 % 1020,9 hPa 0,0 mm 5,2 km/h (1 Bft) SW 225 ° 0 min 0,000 mm 0,0 UV-I 0 W/m² -0,2 °C 4,2 °C 6,4 km/h (2 Bft)
20.02.2017 19:52 5,2 °C 5,3 °C 68 % 1020,9 hPa 0,0 mm 4,9 km/h (1 Bft) SW 216 ° 0 min 0,000 mm 0,0 UV-I 0 W/m² -0,2 °C 4,3 °C 6,4 km/h (2 Bft)
20.02.2017 19:53 5,2 °C 5,3 °C 68 % 1020,9 hPa 0,0 mm 4,7 km/h (1 Bft) W-SW 254 ° 0 min 0,000 mm 0,0 UV-I 0 W/m² -0,2 °C 4,4 °C 11,3 km/h (2 Bft)
20.02.2017 19:54 5,2 °C 5,2 °C 68 % 1020,9 hPa 0,0 mm 4,2 km/h (1 Bft) W-SW 248 ° 0 min 0,000 mm 0,0 UV-I 0 W/m² -0,2 °C 5,2 °C 11,3 km/h (2 Bft)
20.02.2017 19:55 5,2 °C 5,2 °C 68 % 1020,9 hPa 0,0 mm 3,8 km/h (1 Bft) S-SW 209 ° 0 min 0,000 mm 0,0 UV-I 0 W/m² -0,2 °C 5,2 °C 4,8 km/h (1 Bft)
20.02.2017 19:56 5,2 °C 5,2 °C 68 % 1021,0 hPa 0,0 mm 3,4 km/h (1 Bft) S 183 ° 0 min 0,000 mm 0,0 UV-I 0 W/m² -0,2 °C 5,2 °C 6,4 km/h (2 Bft)
20.02.2017 19:57 5,3 °C 5,3 °C 68 % 1021,0 hPa 0,0 mm 5,2 km/h (1 Bft) W-SW 250 ° 0 min 0,000 mm 0,0 UV-I 0 W/m² -0,1 °C 4,3 °C 6,4 km/h (2 Bft)
20.02.2017 19:58 5,3 °C 5,3 °C 68 % 1021,0 hPa 0,0 mm 4,7 km/h (1 Bft) SW 226 ° 0 min 0,000 mm 0,0 UV-I 0 W/m² -0,1 °C 4,5 °C 6,4 km/h (2 Bft)
20.02.2017 19:59 5,3 °C 5,3 °C 68 % 1021,0 hPa 0,0 mm 4,5 km/h (1 Bft) S 191 ° 0 min 0,000 mm 0,0 UV-I 0 W/m² -0,1 °C 5,3 °C 6,4 km/h (2 Bft)
20.02.2017 20:00 5,3 °C 5,3 °C 68 % 1021,0 hPa 0,0 mm 4,8 km/h (1 Bft) S-SW 192 ° 0 min 0,000 mm 0,0 UV-I 0 W/m² -0,1 °C 4,5 °C 6,4 km/h (2 Bft)
20.02.2017 20:01 5,3 °C 5,3 °C 68 % 1021,0 hPa 0,0 mm 3,3 km/h (1 Bft) S-SW 192 ° 0 min 0,026 mm 0,0 UV-I 0 W/m² -0,1 °C 5,3 °C 4,8 km/h (1 Bft)
20.02.2017 20:02 5,3 °C 5,3 °C 68 % 1020,9 hPa 0,0 mm 4,5 km/h (1 Bft) S-SW 201 ° 0 min 0,000 mm 0,0 UV-I 0 W/m² -0,1 °C 5,3 °C 6,4 km/h (2 Bft)
20.02.2017 20:03 5,3 °C 5,3 °C 68 % 1020,9 hPa 0,0 mm 3,6 km/h (1 Bft) S 184 ° 0 min 0,000 mm 0,0 UV-I 0 W/m² -0,1 °C 5,3 °C 4,8 km/h (1 Bft)
20.02.2017 20:04 5,3 °C 5,3 °C 68 % 1020,9 hPa 0,0 mm 7,3 km/h (2 Bft) SW 233 ° 0 min 0,000 mm 0,0 UV-I 0 W/m² -0,1 °C 3,7 °C 11,3 km/h (2 Bft)
20.02.2017 20:05 5,3 °C 5,3 °C 68 % 1020,9 hPa 0,0 mm 8,6 km/h (2 Bft) S-SW 198 ° 0 min 0,000 mm 0,0 UV-I 0 W/m² -0,1 °C 3,3 °C 11,3 km/h (2 Bft)
20.02.2017 20:06 5,3 °C 5,3 °C 68 % 1020,9 hPa 0,0 mm 5,0 km/h (1 Bft) W 261 ° 0 min 0,000 mm 0,0 UV-I 0 W/m² -0,1 °C 4,4 °C 6,4 km/h (2 Bft)
20.02.2017 20:07 5,3 °C 5,3 °C 68 % 1020,9 hPa 0,0 mm 6,3 km/h (2 Bft) W-SW 248 ° 0 min 0,000 mm 0,0 UV-I 0 W/m² -0,1 °C 4,0 °C 12,9 km/h (3 Bft)
20.02.2017 20:08 5,3 °C 5,3 °C 68 % 1020,9 hPa 0,0 mm 7,1 km/h (2 Bft) SW 227 ° 0 min 0,000 mm 0,0 UV-I 0 W/m² -0,1 °C 3,7 °C 11,3 km/h (2 Bft)
20.02.2017 20:09 5,3 °C 5,3 °C 68 % 1020,9 hPa 0,0 mm 4,7 km/h (1 Bft) S-SW 206 ° 0 min 0,000 mm 0,0 UV-I 0 W/m² -0,1 °C 4,5 °C 8,0 km/h (2 Bft)
20.02.2017 20:10 5,3 °C 5,3 °C 68 % 1020,9 hPa 0,0 mm 3,8 km/h (1 Bft) S-SW 206 ° 0 min 0,000 mm 0,0 UV-I 0 W/m² -0,1 °C 5,3 °C 6,4 km/h (2 Bft)
20.02.2017 20:11 5,3 °C 5,3 °C 68 % 1020,9 hPa 0,0 mm 6,8 km/h (2 Bft) W-SW 250 ° 0 min 0,000 mm 0,0 UV-I 0 W/m² -0,1 °C 3,8 °C 14,5 km/h (3 Bft)
20.02.2017 20:12 5,2 °C 5,3 °C 68 % 1021,0 hPa 0,0 mm 7,9 km/h (2 Bft) SW 236 ° 0 min 0,000 mm 0,0 UV-I 0 W/m² -0,2 °C 3,4 °C 12,9 km/h (3 Bft)
20.02.2017 20:13 5,3 °C 5,3 °C 68 % 1020,9 hPa 0,0 mm 4,0 km/h (1 Bft) S-SW 211 ° 0 min 0,000 mm 0,0 UV-I 0 W/m² -0,1 °C 5,3 °C 9,7 km/h (2 Bft)
20.02.2017 20:14 5,3 °C 5,3 °C 68 % 1020,9 hPa 0,0 mm 4,1 km/h (1 Bft) W-SW 248 ° 0 min 0,000 mm 0,0 UV-I 0 W/m² -0,1 °C 5,3 °C 6,4 km/h (2 Bft)
20.02.2017 20:15 5,2 °C 5,3 °C 68 % 1020,9 hPa 0,0 mm 6,4 km/h (2 Bft) S-SW 193 ° 0 min 0,000 mm 0,0 UV-I 0 W/m² -0,2 °C 3,8 °C 8,0 km/h (2 Bft)
20.02.2017 20:16 5,2 °C 5,2 °C 68 % 1020,9 hPa 0,0 mm 7,9 km/h (2 Bft) S 175 ° 0 min 0,000 mm 0,0 UV-I 0 W/m² -0,2 °C 3,4 °C 11,3 km/h (2 Bft)
20.02.2017 20:17 5,2 °C 5,3 °C 68 % 1020,9 hPa 0,0 mm 5,6 km/h (1 Bft) SW 228 ° 0 min 0,000 mm 0,0 UV-I 0 W/m² -0,2 °C 4,1 °C 8,0 km/h (2 Bft)
20.02.2017 20:18 5,3 °C 5,3 °C 68 % 1020,8 hPa 0,0 mm 7,2 km/h (2 Bft) W 267 ° 0 min 0,000 mm 0,0 UV-I 0 W/m² -0,1 °C 3,7 °C 12,9 km/h (3 Bft)
20.02.2017 20:19 5,3 °C 5,3 °C 68 % 1020,9 hPa 0,0 mm 8,2 km/h (2 Bft) W 265 ° 0 min 0,000 mm 0,0 UV-I 0 W/m² -0,1 °C 3,4 °C 12,9 km/h (3 Bft)
20.02.2017 20:20 5,3 °C 5,3 °C 68 % 1020,9 hPa 0,0 mm 7,7 km/h (2 Bft) SW 224 ° 0 min 0,000 mm 0,0 UV-I 0 W/m² -0,1 °C 3,6 °C 11,3 km/h (2 Bft)
20.02.2017 20:21 5,3 °C 5,3 °C 68 % 1020,8 hPa 0,0 mm 10,8 km/h (2 Bft) W-SW 252 ° 0 min 0,000 mm 0,0 UV-I 0 W/m² -0,1 °C 2,9 °C 16,1 km/h (3 Bft)
20.02.2017 20:22 5,3 °C 5,3 °C 69 % 1020,8 hPa 0,0 mm 8,7 km/h (2 Bft) W-SW 242 ° 0 min 0,000 mm 0,0 UV-I 0 W/m² 0,1 °C 3,3 °C 12,9 km/h (3 Bft)
20.02.2017 20:23 5,2 °C 5,3 °C 68 % 1020,8 hPa 0,0 mm 4,7 km/h (1 Bft) SW 233 ° 0 min 0,000 mm 0,0 UV-I 0 W/m² -0,2 °C 4,4 °C 6,4 km/h (2 Bft)
20.02.2017 20:24 5,2 °C 5,3 °C 68 % 1020,8 hPa 0,0 mm 4,8 km/h (1 Bft) W-SW 246 ° 0 min 0,000 mm 0,0 UV-I 0 W/m² -0,2 °C 4,4 °C 11,3 km/h (2 Bft)
20.02.2017 20:25 5,2 °C 5,2 °C 68 % 1020,7 hPa 0,0 mm 6,4 km/h (2 Bft) SW 223 ° 0 min 0,000 mm 0,0 UV-I 0 W/m² -0,2 °C 3,8 °C 8,0 km/h (2 Bft)
20.02.2017 20:26 5,2 °C 5,2 °C 69 % 1020,7 hPa 0,0 mm 5,5 km/h (1 Bft) S-SW 205 ° 0 min 0,000 mm 0,0 UV-I 0 W/m² -0,0 °C 4,1 °C 9,7 km/h (2 Bft)
20.02.2017 20:27 5,2 °C 5,3 °C 68 % 1020,7 hPa 0,0 mm 7,2 km/h (2 Bft) W-SW 251 ° 0 min 0,000 mm 0,0 UV-I 0 W/m² -0,2 °C 3,6 °C 11,3 km/h (2 Bft)
20.02.2017 20:28 5,3 °C 5,3 °C 68 % 1020,7 hPa 0,0 mm 6,6 km/h (2 Bft) SW 222 ° 0 min 0,000 mm 0,0 UV-I 0 W/m² -0,1 °C 3,9 °C 11,3 km/h (2 Bft)
20.02.2017 20:29 5,3 °C 5,3 °C 69 % 1020,7 hPa 0,0 mm 6,9 km/h (2 Bft) SW 232 ° 0 min 0,000 mm 0,0 UV-I 0 W/m² 0,1 °C 3,8 °C 12,9 km/h (3 Bft)
20.02.2017 20:30 5,2 °C 5,3 °C 69 % 1020,7 hPa 0,0 mm 6,8 km/h (2 Bft) W-SW 256 ° 0 min 0,000 mm 0,0 UV-I 0 W/m² -0,0 °C 3,7 °C 11,3 km/h (2 Bft)
20.02.2017 20:31 5,2 °C 5,2 °C 69 % 1020,7 hPa 0,0 mm 5,0 km/h (1 Bft) W-SW 246 ° 0 min 0,000 mm 0,0 UV-I 0 W/m² -0,0 °C 4,3 °C 8,0 km/h (2 Bft)
20.02.2017 20:32 5,2 °C 5,2 °C 69 % 1020,7 hPa 0,0 mm 6,6 km/h (2 Bft) SW 230 ° 0 min 0,000 mm 0,0 UV-I 0 W/m² -0,0 °C 3,8 °C 11,3 km/h (2 Bft)
20.02.2017 20:33 5,2 °C 5,2 °C 68 % 1020,7 hPa 0,0 mm 6,7 km/h (2 Bft) SW 236 ° 0 min 0,000 mm 0,0 UV-I 0 W/m² -0,2 °C 3,7 °C 11,3 km/h (2 Bft)
20.02.2017 20:34 5,2 °C 5,2 °C 68 % 1020,7 hPa 0,0 mm 7,2 km/h (2 Bft) W-SW 237 ° 0 min 0,000 mm 0,0 UV-I 0 W/m² -0,2 °C 3,6 °C 12,9 km/h (3 Bft)
20.02.2017 20:35 5,2 °C 5,2 °C 69 % 1020,6 hPa 0,0 mm 10,3 km/h (2 Bft) W-SW 237 ° 0 min 0,000 mm 0,0 UV-I 0 W/m² -0,0 °C 2,8 °C 16,1 km/h (3 Bft)
20.02.2017 20:36 5,2 °C 5,2 °C 69 % 1020,6 hPa 0,0 mm 6,3 km/h (2 Bft) W-SW 238 ° 0 min 0,000 mm 0,0 UV-I 0 W/m² -0,0 °C 3,9 °C 11,3 km/h (2 Bft)
20.02.2017 20:37 5,2 °C 5,2 °C 68 % 1020,6 hPa 0,0 mm 5,1 km/h (1 Bft) W-SW 249 ° 0 min 0,000 mm 0,0 UV-I 0 W/m² -0,2 °C 4,3 °C 8,0 km/h (2 Bft)
20.02.2017 20:38 5,2 °C 5,2 °C 68 % 1020,6 hPa 0,0 mm 6,8 km/h (2 Bft) S-SW 213 ° 0 min 0,000 mm 0,0 UV-I 0 W/m² -0,2 °C 3,7 °C 9,7 km/h (2 Bft)
20.02.2017 20:39 5,2 °C 5,3 °C 69 % 1020,6 hPa 0,0 mm 6,5 km/h (2 Bft) SW 227 ° 0 min 0,000 mm 0,0 UV-I 0 W/m² -0,0 °C 3,8 °C 11,3 km/h (2 Bft)
20.02.2017 20:40 5,3 °C 5,3 °C 68 % 1020,6 hPa 0,0 mm 7,5 km/h (2 Bft) SW 229 ° 0 min 0,000 mm 0,0 UV-I 0 W/m² -0,1 °C 3,6 °C 11,3 km/h (2 Bft)
20.02.2017 20:41 5,2 °C 5,3 °C 69 % 1020,6 hPa 0,0 mm 7,5 km/h (2 Bft) SW 215 ° 0 min 0,000 mm 0,0 UV-I 0 W/m² -0,0 °C 3,5 °C 14,5 km/h (3 Bft)
20.02.2017 20:42 5,3 °C 5,3 °C 69 % 1020,6 hPa 0,0 mm 7,0 km/h (2 Bft) S 190 ° 0 min 0,000 mm 0,0 UV-I 0 W/m² 0,1 °C 3,8 °C 9,7 km/h (2 Bft)
20.02.2017 20:43 5,3 °C 5,3 °C 68 % 1020,5 hPa 0,0 mm 6,6 km/h (2 Bft) S-SW 207 ° 0 min 0,000 mm 0,0 UV-I 0 W/m² -0,1 °C 3,9 °C 11,3 km/h (2 Bft)
20.02.2017 20:44 5,3 °C 5,3 °C 68 % 1020,6 hPa 0,0 mm 7,2 km/h (2 Bft) S 188 ° 0 min 0,000 mm 0,0 UV-I 0 W/m² -0,1 °C 3,7 °C 11,3 km/h (2 Bft)
20.02.2017 20:45 5,3 °C 5,3 °C 69 % 1020,6 hPa 0,0 mm 6,2 km/h (2 Bft) W-SW 251 ° 0 min 0,000 mm 0,0 UV-I 0 W/m² 0,1 °C 4,0 °C 8,0 km/h (2 Bft)
20.02.2017 20:46 5,3 °C 5,3 °C 69 % 1020,5 hPa 0,0 mm 8,4 km/h (2 Bft) W 265 ° 0 min 0,000 mm 0,0 UV-I 0 W/m² 0,1 °C 3,4 °C 12,9 km/h (3 Bft)
20.02.2017 20:47 5,3 °C 5,3 °C 68 % 1020,6 hPa 0,0 mm 5,6 km/h (1 Bft) W 275 ° 0 min 0,000 mm 0,0 UV-I 0 W/m² -0,1 °C 4,2 °C 11,3 km/h (2 Bft)
20.02.2017 20:48 5,3 °C 5,3 °C 69 % 1020,5 hPa 0,0 mm 8,2 km/h (2 Bft) W-SW 242 ° 0 min 0,000 mm 0,0 UV-I 0 W/m² 0,1 °C 3,4 °C 14,5 km/h (3 Bft)
20.02.2017 20:49 5,3 °C 5,3 °C 69 % 1020,6 hPa 0,0 mm 8,9 km/h (2 Bft) W-SW 243 ° 0 min 0,000 mm 0,0 UV-I 0 W/m² 0,1 °C 3,3 °C 14,5 km/h (3 Bft)
20.02.2017 20:50 5,3 °C 5,3 °C 68 % 1020,5 hPa 0,0 mm 7,6 km/h (2 Bft) W-SW 241 ° 0 min 0,000 mm 0,0 UV-I 0 W/m² -0,1 °C 3,6 °C 12,9 km/h (3 Bft)
20.02.2017 20:51 5,3 °C 5,3 °C 68 % 1020,6 hPa 0,0 mm 5,6 km/h (1 Bft) SW 223 ° 0 min 0,000 mm 0,0 UV-I 0 W/m² -0,1 °C 4,2 °C 8,0 km/h (2 Bft)
20.02.2017 20:52 5,3 °C 5,3 °C 69 % 1020,6 hPa 0,0 mm 4,2 km/h (1 Bft) SW 231 ° 0 min 0,000 mm 0,0 UV-I 0 W/m² 0,1 °C 5,3 °C 6,4 km/h (2 Bft)
20.02.2017 20:53 5,3 °C 5,3 °C 69 % 1020,5 hPa 0,0 mm 3,8 km/h (1 Bft) SW 232 ° 0 min 0,000 mm 0,0 UV-I 0 W/m² 0,1 °C 5,3 °C 4,8 km/h (1 Bft)
20.02.2017 20:54 5,3 °C 5,3 °C 69 % 1020,6 hPa 0,0 mm 4,0 km/h (1 Bft) S-SW 206 ° 0 min 0,000 mm 0,0 UV-I 0 W/m² 0,1 °C 5,3 °C 6,4 km/h (2 Bft)
20.02.2017 20:55 5,3 °C 5,3 °C 69 % 1020,5 hPa 0,0 mm 4,4 km/h (1 Bft) S-SW 197 ° 0 min 0,000 mm 0,0 UV-I 0 W/m² 0,1 °C 5,3 °C 8,0 km/h (2 Bft)
20.02.2017 20:56 5,3 °C 5,3 °C 68 % 1020,5 hPa 0,0 mm 6,1 km/h (2 Bft) W-SW 252 ° 0 min 0,000 mm 0,0 UV-I 0 W/m² -0,1 °C 4,0 °C 9,7 km/h (2 Bft)
20.02.2017 20:57 5,3 °C 5,3 °C 69 % 1020,5 hPa 0,0 mm 5,1 km/h (1 Bft) W 269 ° 0 min 0,000 mm 0,0 UV-I 0 W/m² 0,1 °C 4,4 °C 9,7 km/h (2 Bft)
20.02.2017 20:58 5,3 °C 5,3 °C 68 % 1020,4 hPa 0,0 mm 6,7 km/h (2 Bft) SW 221 ° 0 min 0,000 mm 0,0 UV-I 0 W/m² -0,1 °C 3,8 °C 11,3 km/h (2 Bft)
20.02.2017 20:59 5,3 °C 5,3 °C 68 % 1020,5 hPa 0,0 mm 4,3 km/h (1 Bft) W 266 ° 0 min 0,000 mm 0,0 UV-I 0 W/m² -0,1 °C 5,3 °C 6,4 km/h (2 Bft)
20.02.2017 21:00 5,2 °C 5,3 °C 69 % 1020,3 hPa 0,0 mm 2,7 km/h (1 Bft) W-SW 257 ° 0 min 0,000 mm 0,0 UV-I 0 W/m² -0,0 °C 5,2 °C 4,8 km/h (1 Bft)
20.02.2017 21:01 5,3 °C 5,3 °C 69 % 1020,4 hPa 0,0 mm 4,6 km/h (1 Bft) S 178 ° 0 min 0,025 mm 0,0 UV-I 0 W/m² 0,1 °C 4,6 °C 8,0 km/h (2 Bft)
20.02.2017 21:02 5,3 °C 5,3 °C 68 % 1020,3 hPa 0,0 mm 3,4 km/h (1 Bft) W 278 ° 0 min 0,000 mm 0,0 UV-I 0 W/m² -0,1 °C 5,3 °C 4,8 km/h (1 Bft)
20.02.2017 21:03 5,3 °C 5,3 °C 68 % 1020,3 hPa 0,0 mm 3,6 km/h (1 Bft) SW 230 ° 0 min 0,000 mm 0,0 UV-I 0 W/m² -0,1 °C 5,3 °C 4,8 km/h (1 Bft)
20.02.2017 21:04 5,3 °C 5,3 °C 68 % 1020,4 hPa 0,0 mm 3,9 km/h (1 Bft) W-SW 247 ° 0 min 0,000 mm 0,0 UV-I 0 W/m² -0,1 °C 5,3 °C 6,4 km/h (2 Bft)
20.02.2017 21:05 5,3 °C 5,3 °C 68 % 1020,3 hPa 0,0 mm 3,6 km/h (1 Bft) S-SW 198 ° 0 min 0,000 mm 0,0 UV-I 0 W/m² -0,1 °C 5,3 °C 6,4 km/h (2 Bft)
20.02.2017 21:06 5,3 °C 5,3 °C 68 % 1020,3 hPa 0,0 mm 4,5 km/h (1 Bft) W 259 ° 0 min 0,000 mm 0,0 UV-I 0 W/m² -0,1 °C 5,3 °C 6,4 km/h (2 Bft)
20.02.2017 21:07 5,3 °C 5,3 °C 68 % 1020,3 hPa 0,0 mm 4,8 km/h (1 Bft) W-SW 258 ° 0 min 0,000 mm 0,0 UV-I 0 W/m² -0,1 °C 4,5 °C 6,4 km/h (2 Bft)
20.02.2017 21:08 5,3 °C 5,3 °C 68 % 1020,3 hPa 0,0 mm 4,6 km/h (1 Bft) W-SW 251 ° 0 min 0,000 mm 0,0 UV-I 0 W/m² -0,1 °C 4,6 °C 6,4 km/h (2 Bft)
20.02.2017 21:09 5,3 °C 5,3 °C 68 % 1020,3 hPa 0,0 mm 5,5 km/h (1 Bft) W-SW 255 ° 0 min 0,000 mm 0,0 UV-I 0 W/m² -0,1 °C 4,2 °C 6,4 km/h (2 Bft)
20.02.2017 21:10 5,3 °C 5,3 °C 68 % 1020,3 hPa 0,0 mm 5,3 km/h (1 Bft) S-SW 207 ° 0 min 0,000 mm 0,0 UV-I 0 W/m² -0,1 °C 4,3 °C 9,7 km/h (2 Bft)
20.02.2017 21:11 5,3 °C 5,3 °C 68 % 1020,3 hPa 0,0 mm 3,3 km/h (1 Bft) W 259 ° 0 min 0,000 mm 0,0 UV-I 0 W/m² -0,1 °C 5,3 °C 6,4 km/h (2 Bft)
20.02.2017 21:12 5,3 °C 5,3 °C 68 % 1020,3 hPa 0,0 mm 3,0 km/h (1 Bft) W-NW 294 ° 0 min 0,000 mm 0,0 UV-I 0 W/m² -0,1 °C 5,3 °C 4,8 km/h (1 Bft)
20.02.2017 21:13 5,3 °C 5,3 °C 68 % 1020,3 hPa 0,0 mm 5,0 km/h (1 Bft) SW 217 ° 0 min 0,000 mm 0,0 UV-I 0 W/m² -0,1 °C 4,4 °C 9,7 km/h (2 Bft)
20.02.2017 21:14 5,3 °C 5,3 °C 68 % 1020,3 hPa 0,0 mm 7,6 km/h (2 Bft) S-SW 211 ° 0 min 0,000 mm 0,0 UV-I 0 W/m² -0,1 °C 3,6 °C 12,9 km/h (3 Bft)
20.02.2017 21:15 5,4 °C 5,4 °C 67 % 1020,2 hPa 0,0 mm 6,5 km/h (2 Bft) W-SW 252 ° 0 min 0,000 mm 0,0 UV-I 0 W/m² -0,2 °C 4,0 °C 11,3 km/h (2 Bft)
20.02.2017 21:16 5,4 °C 5,4 °C 67 % 1020,2 hPa 0,0 mm 5,1 km/h (1 Bft) W-SW 238 ° 0 min 0,000 mm 0,0 UV-I 0 W/m² -0,2 °C 4,5 °C 6,4 km/h (2 Bft)
20.02.2017 21:17 5,5 °C 5,5 °C 67 % 1020,2 hPa 0,0 mm 6,4 km/h (2 Bft) W 269 ° 0 min 0,000 mm 0,0 UV-I 0 W/m² -0,1 °C 4,2 °C 11,3 km/h (2 Bft)
20.02.2017 21:18 5,5 °C 5,6 °C 67 % 1020,1 hPa 0,0 mm 10,0 km/h (2 Bft) W-SW 252 ° 0 min 0,000 mm 0,0 UV-I 0 W/m² -0,1 °C 3,3 °C 14,5 km/h (3 Bft)
20.02.2017 21:19 5,6 °C 5,6 °C 66 % 1020,1 hPa 0,0 mm 9,7 km/h (2 Bft) W-SW 246 ° 0 min 0,000 mm 0,0 UV-I 0 W/m² -0,2 °C 3,4 °C 12,9 km/h (3 Bft)
20.02.2017 21:20 5,6 °C 5,6 °C 67 % 1020,1 hPa 0,0 mm 9,1 km/h (2 Bft) W 261 ° 0 min 0,000 mm 0,0 UV-I 0 W/m² -0,0 °C 3,6 °C 12,9 km/h (3 Bft)
20.02.2017 21:21 5,6 °C 5,6 °C 67 % 1020,1 hPa 0,0 mm 7,0 km/h (2 Bft) W-SW 254 ° 0 min 0,000 mm 0,0 UV-I 0 W/m² -0,0 °C 4,1 °C 12,9 km/h (3 Bft)
20.02.2017 21:22 5,6 °C 5,6 °C 67 % 1020,1 hPa 0,0 mm 7,2 km/h (2 Bft) SW 234 ° 0 min 0,000 mm 0,0 UV-I 0 W/m² -0,0 °C 4,1 °C 11,3 km/h (2 Bft)
20.02.2017 21:23 5,6 °C 5,6 °C 67 % 1020,1 hPa 0,0 mm 5,5 km/h (1 Bft) W-SW 243 ° 0 min 0,000 mm 0,0 UV-I 0 W/m² -0,0 °C 4,6 °C 8,0 km/h (2 Bft)
20.02.2017 21:24 5,6 °C 5,6 °C 67 % 1020,1 hPa 0,0 mm 6,2 km/h (2 Bft) SW 236 ° 0 min 0,000 mm 0,0 UV-I 0 W/m² -0,0 °C 4,3 °C 9,7 km/h (2 Bft)
20.02.2017 21:25 5,6 °C 5,6 °C 67 % 1020,1 hPa 0,0 mm 8,4 km/h (2 Bft) W 263 ° 0 min 0,000 mm 0,0 UV-I 0 W/m² -0,0 °C 3,7 °C 12,9 km/h (3 Bft)
20.02.2017 21:26 5,7 °C 5,7 °C 66 % 1020,0 hPa 0,0 mm 7,4 km/h (2 Bft) W-SW 256 ° 0 min 0,000 mm 0,0 UV-I 0 W/m² -0,1 °C 4,1 °C 11,3 km/h (2 Bft)
20.02.2017 21:27 5,7 °C 5,7 °C 66 % 1020,1 hPa 0,0 mm 10,1 km/h (2 Bft) W 265 ° 0 min 0,000 mm 0,0 UV-I 0 W/m² -0,1 °C 3,5 °C 14,5 km/h (3 Bft)
20.02.2017 21:28 5,7 °C 5,7 °C 66 % 1020,1 hPa 0,0 mm 7,0 km/h (2 Bft) W 271 ° 0 min 0,000 mm 0,0 UV-I 0 W/m² -0,1 °C 4,2 °C 11,3 km/h (2 Bft)
20.02.2017 21:29 5,7 °C 5,7 °C 66 % 1020,1 hPa 0,0 mm 5,8 km/h (2 Bft) S-SW 196 ° 0 min 0,000 mm 0,0 UV-I 0 W/m² -0,1 °C 4,6 °C 11,3 km/h (2 Bft)
20.02.2017 21:30 5,8 °C 5,8 °C 66 % 1020,1 hPa 0,0 mm 6,9 km/h (2 Bft) W 261 ° 0 min 0,000 mm 0,0 UV-I 0 W/m² -0,0 °C 4,4 °C 12,9 km/h (3 Bft)
20.02.2017 21:31 5,8 °C 5,8 °C 66 % 1020,1 hPa 0,0 mm 5,5 km/h (1 Bft) W 265 ° 0 min 0,000 mm 0,0 UV-I 0 W/m² -0,0 °C 4,8 °C 6,4 km/h (2 Bft)
20.02.2017 21:32 5,7 °C 5,8 °C 66 % 1020,1 hPa 0,0 mm 4,8 km/h (1 Bft) W 263 ° 0 min 0,000 mm 0,0 UV-I 0 W/m² -0,1 °C 5,0 °C 6,4 km/h (2 Bft)
20.02.2017 21:33 5,7 °C 5,7 °C 66 % 1020,0 hPa 0,0 mm 6,0 km/h (2 Bft) W-SW 246 ° 0 min 0,000 mm 0,0 UV-I 0 W/m² -0,1 °C 4,5 °C 12,9 km/h (3 Bft)
20.02.2017 21:34 5,7 °C 5,7 °C 66 % 1020,1 hPa 0,0 mm 5,0 km/h (1 Bft) W 265 ° 0 min 0,000 mm 0,0 UV-I 0 W/m² -0,1 °C 4,9 °C 8,0 km/h (2 Bft)
20.02.2017 21:35 5,7 °C 5,7 °C 67 % 1020,1 hPa 0,0 mm 6,1 km/h (2 Bft) W-SW 250 ° 0 min 0,000 mm 0,0 UV-I 0 W/m² 0,1 °C 4,5 °C 9,7 km/h (2 Bft)
20.02.2017 21:36 5,7 °C 5,7 °C 67 % 1020,1 hPa 0,0 mm 9,1 km/h (2 Bft) W 259 ° 0 min 0,000 mm 0,0 UV-I 0 W/m² 0,1 °C 3,7 °C 11,3 km/h (2 Bft)
20.02.2017 21:37 5,7 °C 5,7 °C 66 % 1020,1 hPa 0,0 mm 7,0 km/h (2 Bft) W 271 ° 0 min 0,000 mm 0,0 UV-I 0 W/m² -0,1 °C 4,2 °C 11,3 km/h (2 Bft)
20.02.2017 21:38 5,8 °C 5,8 °C 66 % 1020,1 hPa 0,0 mm 9,4 km/h (2 Bft) W-SW 257 ° 0 min 0,000 mm 0,0 UV-I 0 W/m² -0,0 °C 3,7 °C 12,9 km/h (3 Bft)
20.02.2017 21:39 5,8 °C 5,8 °C 66 % 1020,1 hPa 0,0 mm 13,5 km/h (3 Bft) W-SW 249 ° 0 min 0,000 mm 0,0 UV-I 0 W/m² -0,0 °C 3,0 °C 22,5 km/h (4 Bft)
20.02.2017 21:40 5,8 °C 5,8 °C 66 % 1020,1 hPa 0,0 mm 8,6 km/h (2 Bft) W 267 ° 0 min 0,000 mm 0,0 UV-I 0 W/m² -0,0 °C 3,9 °C 12,9 km/h (3 Bft)
20.02.2017 21:41 5,8 °C 5,8 °C 66 % 1020,1 hPa 0,0 mm 8,0 km/h (2 Bft) W-SW 257 ° 0 min 0,000 mm 0,0 UV-I 0 W/m² -0,0 °C 4,1 °C 11,3 km/h (2 Bft)
20.02.2017 21:42 5,9 °C 5,9 °C 65 % 1020,1 hPa 0,0 mm 8,4 km/h (2 Bft) SW 233 ° 0 min 0,000 mm 0,0 UV-I 0 W/m² -0,2 °C 4,1 °C 11,3 km/h (2 Bft)
20.02.2017 21:43 5,9 °C 5,9 °C 66 % 1020,1 hPa 0,0 mm 12,4 km/h (3 Bft) W 268 ° 0 min 0,000 mm 0,0 UV-I 0 W/m² 0,0 °C 3,3 °C 16,1 km/h (3 Bft)
20.02.2017 21:44 5,9 °C 5,9 °C 66 % 1020,1 hPa 0,0 mm 11,6 km/h (2 Bft) W 262 ° 0 min 0,000 mm 0,0 UV-I 0 W/m² 0,0 °C 3,4 °C 17,7 km/h (3 Bft)
20.02.2017 21:45 5,9 °C 5,9 °C 67 % 1020,1 hPa 0,0 mm 14,8 km/h (3 Bft) W-SW 243 ° 0 min 0,000 mm 0,0 UV-I 0 W/m² 0,3 °C 2,9 °C 19,3 km/h (3 Bft)
20.02.2017 21:46 5,8 °C 5,9 °C 66 % 1020,1 hPa 0,0 mm 11,3 km/h (2 Bft) W-SW 244 ° 0 min 0,000 mm 0,0 UV-I 0 W/m² -0,0 °C 3,4 °C 16,1 km/h (3 Bft)
20.02.2017 21:47 5,9 °C 5,9 °C 66 % 1020,1 hPa 0,0 mm 10,7 km/h (2 Bft) SW 236 ° 0 min 0,000 mm 0,0 UV-I 0 W/m² 0,0 °C 3,6 °C 16,1 km/h (3 Bft)
20.02.2017 21:48 5,9 °C 5,9 °C 66 % 1020,1 hPa 0,0 mm 14,7 km/h (3 Bft) W 259 ° 0 min 0,000 mm 0,0 UV-I 0 W/m² 0,0 °C 2,9 °C 17,7 km/h (3 Bft)
20.02.2017 21:49 6,0 °C 6,0 °C 65 % 1020,1 hPa 0,0 mm 8,9 km/h (2 Bft) W-SW 238 ° 0 min 0,000 mm 0,0 UV-I 0 W/m² -0,1 °C 4,1 °C 14,5 km/h (3 Bft)
20.02.2017 21:50 6,1 °C 6,1 °C 65 % 1020,1 hPa 0,0 mm 7,8 km/h (2 Bft) W-SW 242 ° 0 min 0,000 mm 0,0 UV-I 0 W/m² 0,0 °C 4,5 °C 11,3 km/h (2 Bft)
20.02.2017 21:51 6,1 °C 6,1 °C 65 % 1020,2 hPa 0,0 mm 11,3 km/h (2 Bft) SW 229 ° 0 min 0,000 mm 0,0 UV-I 0 W/m² 0,0 °C 3,7 °C 16,1 km/h (3 Bft)
20.02.2017 21:52 6,2 °C 6,2 °C 65 % 1020,1 hPa 0,0 mm 9,4 km/h (2 Bft) W-SW 238 ° 0 min 0,000 mm 0,0 UV-I 0 W/m² 0,1 °C 4,2 °C 12,9 km/h (3 Bft)
20.02.2017 21:53 6,2 °C 6,2 °C 66 % 1020,1 hPa 0,0 mm 5,7 km/h (1 Bft) SW 230 ° 0 min 0,000 mm 0,0 UV-I 0 W/m² 0,3 °C 5,2 °C 8,0 km/h (2 Bft)
20.02.2017 21:54 6,2 °C 6,2 °C 66 % 1020,1 hPa 0,0 mm 6,0 km/h (2 Bft) W 261 ° 0 min 0,000 mm 0,0 UV-I 0 W/m² 0,3 °C 5,1 °C 9,7 km/h (2 Bft)
20.02.2017 21:55 6,1 °C 6,2 °C 66 % 1020,1 hPa 0,0 mm 7,4 km/h (2 Bft) W-SW 247 ° 0 min 0,000 mm 0,0 UV-I 0 W/m² 0,2 °C 4,6 °C 11,3 km/h (2 Bft)
20.02.2017 21:56 6,1 °C 6,1 °C 66 % 1020,0 hPa 0,0 mm 8,0 km/h (2 Bft) W-SW 255 ° 0 min 0,000 mm 0,0 UV-I 0 W/m² 0,2 °C 4,4 °C 11,3 km/h (2 Bft)
20.02.2017 21:57 6,1 °C 6,1 °C 66 % 1020,1 hPa 0,0 mm 9,2 km/h (2 Bft) W 271 ° 0 min 0,000 mm 0,0 UV-I 0 W/m² 0,2 °C 4,1 °C 12,9 km/h (3 Bft)
20.02.2017 21:58 6,1 °C 6,1 °C 67 % 1020,0 hPa 0,0 mm 11,2 km/h (2 Bft) SW 222 ° 0 min 0,000 mm 0,0 UV-I 0 W/m² 0,4 °C 3,7 °C 19,3 km/h (3 Bft)
20.02.2017 21:59 6,0 °C 6,1 °C 67 % 1020,0 hPa 0,0 mm 8,8 km/h (2 Bft) SW 224 ° 0 min 0,000 mm 0,0 UV-I 0 W/m² 0,3 °C 4,1 °C 16,1 km/h (3 Bft)
20.02.2017 22:00 6,0 °C 6,1 °C 66 % 1020,1 hPa 0,0 mm 8,2 km/h (2 Bft) W-SW 255 ° 0 min 0,000 mm 0,0 UV-I 0 W/m² 0,1 °C 4,3 °C 14,5 km/h (3 Bft)
20.02.2017 22:01 6,1 °C 6,1 °C 67 % 1020,0 hPa 0,0 mm 7,5 km/h (2 Bft) W-SW 250 ° 0 min 0,026 mm 0,0 UV-I 0 W/m² 0,4 °C 4,6 °C 12,9 km/h (3 Bft)
20.02.2017 22:02 6,1 °C 6,1 °C 67 % 1020,0 hPa 0,0 mm 9,5 km/h (2 Bft) W-SW 244 ° 0 min 0,000 mm 0,0 UV-I 0 W/m² 0,4 °C 4,1 °C 14,5 km/h (3 Bft)
20.02.2017 22:03 6,1 °C 6,1 °C 67 % 1020,1 hPa 0,0 mm 4,9 km/h (1 Bft) W-NW 283 ° 0 min 0,000 mm 0,0 UV-I 0 W/m² 0,4 °C 5,4 °C 9,7 km/h (2 Bft)
20.02.2017 22:04 6,1 °C 6,1 °C 67 % 1020,0 hPa 0,0 mm 10,3 km/h (2 Bft) W-SW 251 ° 0 min 0,000 mm 0,0 UV-I 0 W/m² 0,4 °C 3,9 °C 19,3 km/h (3 Bft)
20.02.2017 22:05 6,2 °C 6,2 °C 66 % 1020,1 hPa 0,0 mm 12,7 km/h (3 Bft) W-SW 254 ° 0 min 0,000 mm 0,0 UV-I 0 W/m² 0,3 °C 3,6 °C 16,1 km/h (3 Bft)
20.02.2017 22:06 6,2 °C 6,2 °C 67 % 1020,1 hPa 0,0 mm 12,2 km/h (2 Bft) W 260 ° 0 min 0,000 mm 0,0 UV-I 0 W/m² 0,5 °C 3,7 °C 16,1 km/h (3 Bft)
20.02.2017 22:07 6,2 °C 6,2 °C 67 % 1020,2 hPa 0,0 mm 14,8 km/h (3 Bft) W-SW 257 ° 0 min 0,000 mm 0,0 UV-I 0 W/m² 0,5 °C 3,3 °C 19,3 km/h (3 Bft)
20.02.2017 22:08 6,2 °C 6,2 °C 67 % 1020,1 hPa 0,0 mm 6,4 km/h (2 Bft) W-SW 249 ° 0 min 0,000 mm 0,0 UV-I 0 W/m² 0,5 °C 5,0 °C 9,7 km/h (2 Bft)
20.02.2017 22:09 6,2 °C 6,2 °C 67 % 1020,1 hPa 0,0 mm 6,7 km/h (2 Bft) W 271 ° 0 min 0,000 mm 0,0 UV-I 0 W/m² 0,5 °C 4,9 °C 9,7 km/h (2 Bft)
20.02.2017 22:10 6,1 °C 6,2 °C 68 % 1020,2 hPa 0,0 mm 6,2 km/h (2 Bft) W 259 ° 0 min 0,000 mm 0,0 UV-I 0 W/m² 0,6 °C 4,9 °C 9,7 km/h (2 Bft)
20.02.2017 22:11 6,1 °C 6,1 °C 68 % 1020,1 hPa 0,0 mm 11,2 km/h (2 Bft) W 267 ° 0 min 0,000 mm 0,0 UV-I 0 W/m² 0,6 °C 3,7 °C 17,7 km/h (3 Bft)
20.02.2017 22:12 6,1 °C 6,1 °C 68 % 1020,2 hPa 0,0 mm 9,1 km/h (2 Bft) W-NW 289 ° 0 min 0,000 mm 0,0 UV-I 0 W/m² 0,6 °C 4,2 °C 12,9 km/h (3 Bft)
20.02.2017 22:13 6,1 °C 6,1 °C 69 % 1020,1 hPa 0,0 mm 6,2 km/h (2 Bft) W-SW 254 ° 0 min 0,000 mm 0,0 UV-I 0 W/m² 0,8 °C 4,9 °C 9,7 km/h (2 Bft)
20.02.2017 22:14 6,1 °C 6,1 °C 69 % 1020,3 hPa 0,0 mm 7,4 km/h (2 Bft) W-NW 287 ° 0 min 0,000 mm 0,0 UV-I 0 W/m² 0,8 °C 4,6 °C 16,1 km/h (3 Bft)
20.02.2017 22:15 6,1 °C 6,1 °C 69 % 1020,2 hPa 0,0 mm 8,8 km/h (2 Bft) W-SW 250 ° 0 min 0,000 mm 0,0 UV-I 0 W/m² 0,8 °C 4,2 °C 14,5 km/h (3 Bft)
20.02.2017 22:16 6,1 °C 6,1 °C 69 % 1020,2 hPa 0,0 mm 13,6 km/h (3 Bft) W-SW 251 ° 0 min 0,000 mm 0,0 UV-I 0 W/m² 0,8 °C 3,3 °C 19,3 km/h (3 Bft)
20.02.2017 22:17 6,0 °C 6,1 °C 70 % 1020,1 hPa 0,0 mm 9,3 km/h (2 Bft) W-NW 284 ° 0 min 0,000 mm 0,0 UV-I 0 W/m² 1,0 °C 4,0 °C 19,3 km/h (3 Bft)
20.02.2017 22:18 6,1 °C 6,1 °C 70 % 1020,2 hPa 0,0 mm 14,0 km/h (3 Bft) W 259 ° 0 min 0,000 mm 0,0 UV-I 0 W/m² 1,0 °C 3,3 °C 19,3 km/h (3 Bft)
20.02.2017 22:19 6,1 °C 6,1 °C 71 % 1020,1 hPa 0,0 mm 11,3 km/h (2 Bft) W 259 ° 0 min 0,000 mm 0,0 UV-I 0 W/m² 1,2 °C 3,7 °C 16,1 km/h (3 Bft)
20.02.2017 22:20 6,1 °C 6,1 °C 71 % 1020,1 hPa 0,0 mm 11,7 km/h (2 Bft) SW 221 ° 0 min 0,000 mm 0,0 UV-I 0 W/m² 1,2 °C 3,6 °C 19,3 km/h (3 Bft)
20.02.2017 22:21 6,1 °C 6,1 °C 72 % 1020,0 hPa 0,0 mm 13,1 km/h (3 Bft) S-SW 208 ° 0 min 0,000 mm 0,0 UV-I 0 W/m² 1,4 °C 3,4 °C 20,9 km/h (4 Bft)
20.02.2017 22:22 6,1 °C 6,1 °C 72 % 1020,0 hPa 0,0 mm 13,3 km/h (3 Bft) W-NW 298 ° 0 min 0,000 mm 0,0 UV-I 0 W/m² 1,4 °C 3,4 °C 20,9 km/h (4 Bft)
20.02.2017 22:23 6,1 °C 6,1 °C 72 % 1020,0 hPa 0,0 mm 8,7 km/h (2 Bft) SW 228 ° 0 min 0,000 mm 0,0 UV-I 0 W/m² 1,4 °C 4,3 °C 16,1 km/h (3 Bft)
20.02.2017 22:24 6,1 °C 6,1 °C 73 % 1020,0 hPa 0,0 mm 9,6 km/h (2 Bft) W-NW 284 ° 0 min 0,000 mm 0,0 UV-I 0 W/m² 1,6 °C 4,1 °C 12,9 km/h (3 Bft)
20.02.2017 22:25 5,9 °C 6,1 °C 73 % 1020,0 hPa 0,0 mm 7,3 km/h (2 Bft) W-SW 245 ° 0 min 0,000 mm 0,0 UV-I 0 W/m² 1,4 °C 4,4 °C 11,3 km/h (2 Bft)
20.02.2017 22:26 5,9 °C 6,0 °C 74 % 1020,0 hPa 0,0 mm 8,4 km/h (2 Bft) W 271 ° 0 min 0,000 mm 0,0 UV-I 0 W/m² 1,6 °C 4,1 °C 16,1 km/h (3 Bft)
20.02.2017 22:27 5,9 °C 5,9 °C 74 % 1020,0 hPa 0,0 mm 9,3 km/h (2 Bft) S 182 ° 0 min 0,000 mm 0,0 UV-I 0 W/m² 1,6 °C 3,9 °C 19,3 km/h (3 Bft)
20.02.2017 22:28 5,9 °C 5,9 °C 74 % 1020,0 hPa 0,0 mm 9,3 km/h (2 Bft) W 267 ° 0 min 0,000 mm 0,0 UV-I 0 W/m² 1,6 °C 3,9 °C 14,5 km/h (3 Bft)
20.02.2017 22:29 5,9 °C 5,9 °C 74 % 1019,9 hPa 0,0 mm 8,4 km/h (2 Bft) SW 236 ° 0 min 0,000 mm 0,0 UV-I 0 W/m² 1,6 °C 4,1 °C 12,9 km/h (3 Bft)
20.02.2017 22:30 5,9 °C 5,9 °C 74 % 1020,0 hPa 0,0 mm 5,6 km/h (1 Bft) W-SW 253 ° 0 min 0,000 mm 0,0 UV-I 0 W/m² 1,6 °C 4,9 °C 8,0 km/h (2 Bft)
20.02.2017 22:31 5,9 °C 5,9 °C 74 % 1020,0 hPa 0,0 mm 11,4 km/h (2 Bft) SW 228 ° 0 min 0,000 mm 0,0 UV-I 0 W/m² 1,6 °C 3,5 °C 16,1 km/h (3 Bft)
20.02.2017 22:32 5,8 °C 5,9 °C 75 % 1020,0 hPa 0,0 mm 11,1 km/h (2 Bft) W-SW 237 ° 0 min 0,000 mm 0,0 UV-I 0 W/m² 1,7 °C 3,4 °C 17,7 km/h (3 Bft)
20.02.2017 22:33 5,8 °C 5,8 °C 75 % 1019,9 hPa 0,0 mm 8,2 km/h (2 Bft) S-SW 198 ° 0 min 0,000 mm 0,0 UV-I 0 W/m² 1,7 °C 4,0 °C 12,9 km/h (3 Bft)
20.02.2017 22:34 5,8 °C 5,8 °C 75 % 1019,9 hPa 0,2 mm 7,6 km/h (2 Bft) S-SW 194 ° 0 min 0,000 mm 0,0 UV-I 0 W/m² 1,7 °C 4,2 °C 11,3 km/h (2 Bft)
20.02.2017 22:35 5,8 °C 5,8 °C 75 % 1019,9 hPa 0,0 mm 6,3 km/h (2 Bft) S-SW 200 ° 0 min 0,000 mm 0,0 UV-I 0 W/m² 1,7 °C 4,5 °C 11,3 km/h (2 Bft)
20.02.2017 22:36 5,8 °C 5,8 °C 75 % 1019,9 hPa 0,0 mm 7,6 km/h (2 Bft) SW 223 ° 0 min 0,000 mm 0,0 UV-I 0 W/m² 1,7 °C 4,2 °C 9,7 km/h (2 Bft)
20.02.2017 22:37 5,8 °C 5,8 °C 75 % 1019,9 hPa 0,0 mm 11,7 km/h (2 Bft) S-SW 195 ° 0 min 0,000 mm 0,0 UV-I 0 W/m² 1,7 °C 3,3 °C 19,3 km/h (3 Bft)
20.02.2017 22:38 5,8 °C 5,8 °C 75 % 1019,9 hPa 0,0 mm 7,7 km/h (2 Bft) W 260 ° 0 min 0,000 mm 0,0 UV-I 0 W/m² 1,7 °C 4,2 °C 16,1 km/h (3 Bft)
20.02.2017 22:39 5,8 °C 5,8 °C 75 % 1019,9 hPa 0,0 mm 7,3 km/h (2 Bft) S 190 ° 0 min 0,000 mm 0,0 UV-I 0 W/m² 1,7 °C 4,3 °C 12,9 km/h (3 Bft)
20.02.2017 22:40 5,8 °C 5,8 °C 75 % 1019,9 hPa 0,0 mm 8,9 km/h (2 Bft) W-SW 246 ° 0 min 0,000 mm 0,0 UV-I 0 W/m² 1,7 °C 3,9 °C 12,9 km/h (3 Bft)
20.02.2017 22:41 5,8 °C 5,8 °C 75 % 1019,9 hPa 0,0 mm 5,7 km/h (1 Bft) S-SW 211 ° 0 min 0,000 mm 0,0 UV-I 0 W/m² 1,7 °C 4,7 °C 12,9 km/h (3 Bft)
20.02.2017 22:42 5,8 °C 5,8 °C 75 % 1019,8 hPa 0,0 mm 4,1 km/h (1 Bft) SW 221 ° 0 min 0,000 mm 0,0 UV-I 0 W/m² 1,7 °C 5,8 °C 6,4 km/h (2 Bft)
20.02.2017 22:43 5,8 °C 5,8 °C 75 % 1019,8 hPa 0,0 mm 4,6 km/h (1 Bft) W 260 ° 0 min 0,000 mm 0,0 UV-I 0 W/m² 1,7 °C 5,1 °C 6,4 km/h (2 Bft)
20.02.2017 22:44 5,8 °C 5,8 °C 74 % 1019,9 hPa 0,0 mm 4,8 km/h (1 Bft) W 271 ° 0 min 0,000 mm 0,0 UV-I 0 W/m² 1,5 °C 5,1 °C 6,4 km/h (2 Bft)
20.02.2017 22:45 5,8 °C 5,8 °C 75 % 1019,9 hPa 0,0 mm 4,2 km/h (1 Bft) W-SW 250 ° 0 min 0,000 mm 0,0 UV-I 0 W/m² 1,7 °C 5,8 °C 11,3 km/h (2 Bft)
20.02.2017 22:46 5,8 °C 5,8 °C 75 % 1019,9 hPa 0,0 mm 6,3 km/h (2 Bft) W-SW 245 ° 0 min 0,000 mm 0,0 UV-I 0 W/m² 1,7 °C 4,5 °C 11,3 km/h (2 Bft)
20.02.2017 22:47 5,8 °C 5,8 °C 75 % 1019,8 hPa 0,0 mm 7,1 km/h (2 Bft) S-SW 206 ° 0 min 0,000 mm 0,0 UV-I 0 W/m² 1,7 °C 4,3 °C 12,9 km/h (3 Bft)
20.02.2017 22:48 5,8 °C 5,8 °C 74 % 1019,8 hPa 0,0 mm 8,1 km/h (2 Bft) S-SW 202 ° 0 min 0,000 mm 0,0 UV-I 0 W/m² 1,5 °C 4,0 °C 14,5 km/h (3 Bft)
20.02.2017 22:49 5,8 °C 5,8 °C 74 % 1019,9 hPa 0,0 mm 6,5 km/h (2 Bft) S-SW 213 ° 0 min 0,000 mm 0,0 UV-I 0 W/m² 1,5 °C 4,5 °C 8,0 km/h (2 Bft)
20.02.2017 22:50 5,9 °C 5,9 °C 74 % 1019,9 hPa 0,0 mm 6,8 km/h (2 Bft) S-SW 195 ° 0 min 0,000 mm 0,0 UV-I 0 W/m² 1,6 °C 4,5 °C 11,3 km/h (2 Bft)
20.02.2017 22:51 5,9 °C 5,9 °C 74 % 1019,8 hPa 0,0 mm 4,8 km/h (1 Bft) SW 226 ° 0 min 0,000 mm 0,0 UV-I 0 W/m² 1,6 °C 5,2 °C 8,0 km/h (2 Bft)
20.02.2017 22:52 5,9 °C 5,9 °C 74 % 1019,9 hPa 0,0 mm 8,7 km/h (2 Bft) S-SW 194 ° 0 min 0,000 mm 0,0 UV-I 0 W/m² 1,6 °C 4,0 °C 14,5 km/h (3 Bft)
20.02.2017 22:53 5,9 °C 5,9 °C 74 % 1019,8 hPa 0,0 mm 5,9 km/h (2 Bft) SW 223 ° 0 min 0,000 mm 0,0 UV-I 0 W/m² 1,6 °C 4,8 °C 9,7 km/h (2 Bft)
20.02.2017 22:54 5,9 °C 5,9 °C 74 % 1019,9 hPa 0,0 mm 5,9 km/h (2 Bft) W-SW 244 ° 0 min 0,000 mm 0,0 UV-I 0 W/m² 1,6 °C 4,8 °C 8,0 km/h (2 Bft)
20.02.2017 22:55 5,9 °C 5,9 °C 74 % 1019,9 hPa 0,0 mm 3,8 km/h (1 Bft) SW 217 ° 0 min 0,000 mm 0,0 UV-I 0 W/m² 1,6 °C 5,9 °C 6,4 km/h (2 Bft)
20.02.2017 22:56 5,8 °C 5,9 °C 75 % 1019,9 hPa 0,0 mm 5,1 km/h (1 Bft) SW 217 ° 0 min 0,000 mm 0,0 UV-I 0 W/m² 1,7 °C 5,0 °C 8,0 km/h (2 Bft)
20.02.2017 22:57 5,8 °C 5,9 °C 74 % 1019,9 hPa 0,0 mm 5,2 km/h (1 Bft) S-SW 196 ° 0 min 0,000 mm 0,0 UV-I 0 W/m² 1,5 °C 4,9 °C 9,7 km/h (2 Bft)
20.02.2017 22:58 5,8 °C 5,9 °C 75 % 1019,8 hPa 0,0 mm 4,1 km/h (1 Bft) SW 215 ° 0 min 0,000 mm 0,0 UV-I 0 W/m² 1,7 °C 5,8 °C 6,4 km/h (2 Bft)
20.02.2017 22:59 5,8 °C 5,8 °C 75 % 1019,8 hPa 0,0 mm 4,1 km/h (1 Bft) S-SW 196 ° 0 min 0,000 mm 0,0 UV-I 0 W/m² 1,7 °C 5,8 °C 8,0 km/h (2 Bft)
20.02.2017 23:00 5,8 °C 5,8 °C 75 % 1019,8 hPa 0,0 mm 4,2 km/h (1 Bft) SW 215 ° 0 min 0,000 mm 0,0 UV-I 0 W/m² 1,7 °C 5,8 °C 6,4 km/h (2 Bft)
20.02.2017 23:01 5,8 °C 5,8 °C 75 % 1019,8 hPa 0,0 mm 7,0 km/h (2 Bft) W 263 ° 0 min 0,025 mm 0,0 UV-I 0 W/m² 1,7 °C 4,3 °C 11,3 km/h (2 Bft)
20.02.2017 23:02 5,8 °C 5,8 °C 75 % 1019,8 hPa 0,0 mm 4,9 km/h (1 Bft) SW 227 ° 0 min 0,000 mm 0,0 UV-I 0 W/m² 1,7 °C 5,0 °C 8,0 km/h (2 Bft)
20.02.2017 23:03 5,8 °C 5,8 °C 75 % 1019,8 hPa 0,0 mm 4,3 km/h (1 Bft) SW 234 ° 0 min 0,000 mm 0,0 UV-I 0 W/m² 1,7 °C 5,8 °C 6,4 km/h (2 Bft)
20.02.2017 23:04 5,8 °C 5,8 °C 75 % 1019,8 hPa 0,0 mm 4,9 km/h (1 Bft) W-SW 252 ° 0 min 0,000 mm 0,0 UV-I 0 W/m² 1,7 °C 5,0 °C 11,3 km/h (2 Bft)
20.02.2017 23:05 5,8 °C 5,8 °C 75 % 1019,8 hPa 0,0 mm 6,1 km/h (2 Bft) S-SW 204 ° 0 min 0,000 mm 0,0 UV-I 0 W/m² 1,7 °C 4,6 °C 11,3 km/h (2 Bft)
20.02.2017 23:06 5,8 °C 5,8 °C 75 % 1019,8 hPa 0,0 mm 6,7 km/h (2 Bft) S-SW 209 ° 0 min 0,000 mm 0,0 UV-I 0 W/m² 1,7 °C 4,4 °C 11,3 km/h (2 Bft)
20.02.2017 23:07 5,8 °C 5,8 °C 75 % 1019,8 hPa 0,0 mm 7,0 km/h (2 Bft) S 185 ° 0 min 0,000 mm 0,0 UV-I 0 W/m² 1,7 °C 4,3 °C 16,1 km/h (3 Bft)
20.02.2017 23:08 5,8 °C 5,8 °C 75 % 1019,8 hPa 0,0 mm 7,6 km/h (2 Bft) W 265 ° 0 min 0,000 mm 0,0 UV-I 0 W/m² 1,7 °C 4,2 °C 14,5 km/h (3 Bft)
20.02.2017 23:09 5,8 °C 5,8 °C 75 % 1019,8 hPa 0,0 mm 6,3 km/h (2 Bft) S-SW 192 ° 0 min 0,000 mm 0,0 UV-I 0 W/m² 1,7 °C 4,5 °C 11,3 km/h (2 Bft)
20.02.2017 23:10 5,8 °C 5,8 °C 75 % 1019,9 hPa 0,0 mm 5,2 km/h (1 Bft) S-SW 211 ° 0 min 0,000 mm 0,0 UV-I 0 W/m² 1,7 °C 4,9 °C 8,0 km/h (2 Bft)
20.02.2017 23:11 5,8 °C 5,8 °C 75 % 1019,9 hPa 0,0 mm 10,7 km/h (2 Bft) S 186 ° 0 min 0,000 mm 0,0 UV-I 0 W/m² 1,7 °C 3,5 °C 17,7 km/h (3 Bft)
20.02.2017 23:12 5,8 °C 5,8 °C 75 % 1019,9 hPa 0,0 mm 7,0 km/h (2 Bft) W-SW 239 ° 0 min 0,000 mm 0,0 UV-I 0 W/m² 1,7 °C 4,3 °C 9,7 km/h (2 Bft)
20.02.2017 23:13 5,8 °C 5,8 °C 76 % 1019,9 hPa 0,0 mm 5,6 km/h (1 Bft) SW 236 ° 0 min 0,000 mm 0,0 UV-I 0 W/m² 1,9 °C 4,8 °C 9,7 km/h (2 Bft)
20.02.2017 23:14 5,7 °C 5,8 °C 76 % 1019,9 hPa 0,0 mm 7,4 km/h (2 Bft) S-SW 205 ° 0 min 0,000 mm 0,0 UV-I 0 W/m² 1,8 °C 4,1 °C 12,9 km/h (3 Bft)
20.02.2017 23:15 5,7 °C 5,7 °C 76 % 1019,9 hPa 0,0 mm 6,2 km/h (2 Bft) W-SW 254 ° 0 min 0,000 mm 0,0 UV-I 0 W/m² 1,8 °C 4,5 °C 11,3 km/h (2 Bft)
20.02.2017 23:16 5,7 °C 5,7 °C 76 % 1020,0 hPa 0,0 mm 6,4 km/h (2 Bft) W-SW 248 ° 0 min 0,000 mm 0,0 UV-I 0 W/m² 1,8 °C 4,4 °C 9,7 km/h (2 Bft)
20.02.2017 23:17 5,6 °C 5,7 °C 77 % 1020,1 hPa 0,0 mm 10,1 km/h (2 Bft) W-SW 252 ° 0 min 0,000 mm 0,0 UV-I 0 W/m² 1,9 °C 3,4 °C 17,7 km/h (3 Bft)
20.02.2017 23:18 5,6 °C 5,6 °C 77 % 1020,0 hPa 0,0 mm 6,2 km/h (2 Bft) SW 236 ° 0 min 0,000 mm 0,0 UV-I 0 W/m² 1,9 °C 4,3 °C 9,7 km/h (2 Bft)
20.02.2017 23:19 5,6 °C 5,6 °C 78 % 1020,0 hPa 0,0 mm 11,7 km/h (2 Bft) W 267 ° 0 min 0,000 mm 0,0 UV-I 0 W/m² 2,1 °C 3,0 °C 22,5 km/h (4 Bft)
20.02.2017 23:20 5,6 °C 5,6 °C 78 % 1020,0 hPa 0,0 mm 16,4 km/h (3 Bft) W 264 ° 0 min 0,000 mm 0,0 UV-I 0 W/m² 2,1 °C 2,3 °C 22,5 km/h (4 Bft)
20.02.2017 23:21 5,5 °C 5,6 °C 78 % 1019,9 hPa 0,0 mm 8,0 km/h (2 Bft) S-SW 213 ° 0 min 0,000 mm 0,0 UV-I 0 W/m² 2,0 °C 3,7 °C 12,9 km/h (3 Bft)
20.02.2017 23:22 5,5 °C 5,5 °C 79 % 1019,9 hPa 0,0 mm 6,8 km/h (2 Bft) SW 222 ° 0 min 0,000 mm 0,0 UV-I 0 W/m² 2,2 °C 4,1 °C 14,5 km/h (3 Bft)
20.02.2017 23:23 5,4 °C 5,5 °C 80 % 1019,9 hPa 0,2 mm 13,3 km/h (3 Bft) S-SW 213 ° 0 min 0,000 mm 0,0 UV-I 0 W/m² 2,2 °C 2,5 °C 17,7 km/h (3 Bft)
20.02.2017 23:24 5,4 °C 5,4 °C 80 % 1019,9 hPa 0,0 mm 10,7 km/h (2 Bft) W-SW 258 ° 0 min 0,000 mm 0,0 UV-I 0 W/m² 2,2 °C 3,0 °C 14,5 km/h (3 Bft)
20.02.2017 23:25 5,4 °C 5,4 °C 80 % 1019,9 hPa 0,0 mm 6,5 km/h (2 Bft) S-SW 209 ° 0 min 0,000 mm 0,0 UV-I 0 W/m² 2,2 °C 4,0 °C 12,9 km/h (3 Bft)
20.02.2017 23:26 5,3 °C 5,4 °C 81 % 1019,9 hPa 0,0 mm 12,2 km/h (2 Bft) SW 235 ° 0 min 0,000 mm 0,0 UV-I 0 W/m² 2,3 °C 2,6 °C 20,9 km/h (4 Bft)
20.02.2017 23:27 5,3 °C 5,3 °C 81 % 1019,9 hPa 0,0 mm 9,7 km/h (2 Bft) SW 231 ° 0 min 0,000 mm 0,0 UV-I 0 W/m² 2,3 °C 3,1 °C 14,5 km/h (3 Bft)
20.02.2017 23:28 5,3 °C 5,3 °C 81 % 1019,9 hPa 0,0 mm 8,0 km/h (2 Bft) W-SW 243 ° 0 min 0,000 mm 0,0 UV-I 0 W/m² 2,3 °C 3,5 °C 12,9 km/h (3 Bft)
20.02.2017 23:29 5,2 °C 5,3 °C 82 % 1019,9 hPa 0,0 mm 7,5 km/h (2 Bft) SW 234 ° 0 min 0,000 mm 0,0 UV-I 0 W/m² 2,4 °C 3,5 °C 12,9 km/h (3 Bft)
20.02.2017 23:30 5,2 °C 5,2 °C 82 % 1019,9 hPa 0,0 mm 9,2 km/h (2 Bft) W-SW 244 ° 0 min 0,000 mm 0,0 UV-I 0 W/m² 2,4 °C 3,1 °C 17,7 km/h (3 Bft)
20.02.2017 23:31 5,2 °C 5,2 °C 82 % 1019,9 hPa 0,0 mm 9,4 km/h (2 Bft) S-SW 211 ° 0 min 0,000 mm 0,0 UV-I 0 W/m² 2,4 °C 3,0 °C 14,5 km/h (3 Bft)
20.02.2017 23:32 5,1 °C 5,2 °C 82 % 1019,9 hPa 0,0 mm 9,3 km/h (2 Bft) W 267 ° 0 min 0,000 mm 0,0 UV-I 0 W/m² 2,3 °C 2,9 °C 14,5 km/h (3 Bft)
20.02.2017 23:33 5,1 °C 5,2 °C 83 % 1019,9 hPa 0,0 mm 7,8 km/h (2 Bft) S 179 ° 0 min 0,000 mm 0,0 UV-I 0 W/m² 2,5 °C 3,3 °C 14,5 km/h (3 Bft)
20.02.2017 23:34 5,1 °C 5,1 °C 83 % 1019,8 hPa 0,0 mm 6,4 km/h (2 Bft) SW 224 ° 0 min 0,000 mm 0,0 UV-I 0 W/m² 2,5 °C 3,7 °C 11,3 km/h (2 Bft)
20.02.2017 23:35 5,1 °C 5,1 °C 83 % 1019,9 hPa 0,0 mm 5,8 km/h (2 Bft) W-SW 250 ° 0 min 0,000 mm 0,0 UV-I 0 W/m² 2,5 °C 3,9 °C 11,3 km/h (2 Bft)
20.02.2017 23:36 5,1 °C 5,1 °C 84 % 1020,0 hPa 0,0 mm 7,6 km/h (2 Bft) W 262 ° 0 min 0,000 mm 0,0 UV-I 0 W/m² 2,6 °C 3,4 °C 14,5 km/h (3 Bft)
20.02.2017 23:37 5,1 °C 5,1 °C 83 % 1019,9 hPa 0,0 mm 12,5 km/h (3 Bft) W-SW 250 ° 0 min 0,000 mm 0,0 UV-I 0 W/m² 2,5 °C 2,3 °C 16,1 km/h (3 Bft)
20.02.2017 23:38 5,1 °C 5,1 °C 84 % 1019,8 hPa 0,0 mm 6,2 km/h (2 Bft) SW 217 ° 0 min 0,000 mm 0,0 UV-I 0 W/m² 2,6 °C 3,8 °C 8,0 km/h (2 Bft)
20.02.2017 23:39 5,0 °C 5,1 °C 84 % 1019,9 hPa 0,0 mm 7,2 km/h (2 Bft) SW 227 ° 0 min 0,000 mm 0,0 UV-I 0 W/m² 2,5 °C 3,4 °C 9,7 km/h (2 Bft)
20.02.2017 23:40 5,0 °C 5,0 °C 84 % 1019,9 hPa 0,0 mm 8,2 km/h (2 Bft) S-SW 195 ° 0 min 0,000 mm 0,0 UV-I 0 W/m² 2,5 °C 3,1 °C 14,5 km/h (3 Bft)
20.02.2017 23:41 4,9 °C 5,0 °C 84 % 1019,8 hPa 0,0 mm 8,9 km/h (2 Bft) S-SW 197 ° 0 min 0,000 mm 0,0 UV-I 0 W/m² 2,4 °C 2,8 °C 14,5 km/h (3 Bft)
20.02.2017 23:42 4,9 °C 4,9 °C 84 % 1019,8 hPa 0,0 mm 7,2 km/h (2 Bft) SW 221 ° 0 min 0,000 mm 0,0 UV-I 0 W/m² 2,4 °C 3,2 °C 16,1 km/h (3 Bft)
20.02.2017 23:43 4,9 °C 4,9 °C 85 % 1019,9 hPa 0,0 mm 6,4 km/h (2 Bft) W-SW 249 ° 0 min 0,000 mm 0,0 UV-I 0 W/m² 2,6 °C 3,5 °C 11,3 km/h (2 Bft)
20.02.2017 23:44 4,9 °C 4,9 °C 85 % 1019,8 hPa 0,0 mm 9,2 km/h (2 Bft) W 259 ° 0 min 0,000 mm 0,0 UV-I 0 W/m² 2,6 °C 2,7 °C 14,5 km/h (3 Bft)
20.02.2017 23:45 4,9 °C 4,9 °C 85 % 1019,8 hPa 0,0 mm 7,2 km/h (2 Bft) S-SW 202 ° 0 min 0,000 mm 0,0 UV-I 0 W/m² 2,6 °C 3,2 °C 12,9 km/h (3 Bft)
20.02.2017 23:46 4,9 °C 4,9 °C 85 % 1019,9 hPa 0,2 mm 7,7 km/h (2 Bft) W-SW 243 ° 0 min 0,000 mm 0,0 UV-I 0 W/m² 2,6 °C 3,1 °C 11,3 km/h (2 Bft)
20.02.2017 23:47 4,9 °C 4,9 °C 85 % 1019,9 hPa 0,0 mm 4,8 km/h (1 Bft) SW 219 ° 0 min 0,000 mm 0,0 UV-I 0 W/m² 2,6 °C 4,0 °C 9,7 km/h (2 Bft)
20.02.2017 23:48 4,9 °C 4,9 °C 85 % 1019,9 hPa 0,0 mm 4,9 km/h (1 Bft) W 276 ° 0 min 0,000 mm 0,0 UV-I 0 W/m² 2,6 °C 4,0 °C 6,4 km/h (2 Bft)
20.02.2017 23:49 4,8 °C 4,9 °C 85 % 1019,9 hPa 0,0 mm 6,9 km/h (2 Bft) S-SW 209 ° 0 min 0,000 mm 0,0 UV-I 0 W/m² 2,5 °C 3,2 °C 12,9 km/h (3 Bft)
20.02.2017 23:50 4,8 °C 4,8 °C 85 % 1019,8 hPa 0,0 mm 6,8 km/h (2 Bft) W-SW 246 ° 0 min 0,000 mm 0,0 UV-I 0 W/m² 2,5 °C 3,2 °C 12,9 km/h (3 Bft)
20.02.2017 23:51 4,8 °C 4,8 °C 86 % 1019,9 hPa 0,0 mm 6,8 km/h (2 Bft) S-SW 213 ° 0 min 0,000 mm 0,0 UV-I 0 W/m² 2,7 °C 3,2 °C 12,9 km/h (3 Bft)
20.02.2017 23:52 4,8 °C 4,8 °C 86 % 1019,8 hPa 0,0 mm 3,0 km/h (1 Bft) S-SW 213 ° 0 min 0,000 mm 0,0 UV-I 0 W/m² 2,7 °C 4,8 °C 4,8 km/h (1 Bft)
20.02.2017 23:53 4,7 °C 4,8 °C 86 % 1019,8 hPa 0,0 mm 4,6 km/h (1 Bft) S 188 ° 0 min 0,000 mm 0,0 UV-I 0 W/m² 2,6 °C 3,9 °C 9,7 km/h (2 Bft)
20.02.2017 23:54 4,7 °C 4,8 °C 86 % 1019,8 hPa 0,0 mm 7,4 km/h (2 Bft) W-SW 244 ° 0 min 0,000 mm 0,0 UV-I 0 W/m² 2,6 °C 2,9 °C 9,7 km/h (2 Bft)
20.02.2017 23:55 4,7 °C 4,7 °C 86 % 1019,8 hPa 0,0 mm 6,2 km/h (2 Bft) SW 232 ° 0 min 0,000 mm 0,0 UV-I 0 W/m² 2,6 °C 3,3 °C 9,7 km/h (2 Bft)
20.02.2017 23:56 4,7 °C 4,7 °C 87 % 1019,8 hPa 0,2 mm 5,7 km/h (1 Bft) S-SW 205 ° 0 min 0,000 mm 0,0 UV-I 0 W/m² 2,7 °C 3,5 °C 8,0 km/h (2 Bft)
20.02.2017 23:57 4,7 °C 4,7 °C 86 % 1019,7 hPa 0,0 mm 6,3 km/h (2 Bft) SW 233 ° 0 min 0,000 mm 0,0 UV-I 0 W/m² 2,6 °C 3,3 °C 9,7 km/h (2 Bft)
20.02.2017 23:58 4,7 °C 4,7 °C 87 % 1019,7 hPa 0,0 mm 5,7 km/h (1 Bft) S 186 ° 0 min 0,000 mm 0,0 UV-I 0 W/m² 2,7 °C 3,5 °C 9,7 km/h (2 Bft)
20.02.2017 23:59 4,7 °C 4,7 °C 87 % 1019,7 hPa 0,0 mm 6,2 km/h (2 Bft) W-SW 256 ° 0 min 0,000 mm 0,0 UV-I 0 W/m² 2,7 °C 3,3 °C 9,7 km/h (2 Bft)
_ Min-Zeit 06:49 06:48 14:00 23:59 - 19:02 - - - - - - 08:03 05:04 19:02
Minimum _ 2,2 °C 2,2 °C 60 % 1019,7 hPa - 0,0 km/h (0 Bft) - - - - - - -0,7 °C -1,3 °C 0,0 km/h (0 Bft)
_ Max-Zeit 14:07 14:08 23:59 01:58 23:56 13:59 - - 15:04 14:01 12:29 12:30 23:59 15:58 13:59
Maximum _ 6,7 °C 6,7 °C 87 % 1024,6 hPa 0,2 mm 23,4 km/h
W (4 Bft)
- - 1 min 0,178 mm 3,2 UV-I 714 W/m² 2,7 °C 6,3 °C 30,6 km/h
W-SW (5 Bft)
Durchschnitt _ 4,5 °C 4,5 °C 73 % 1022,4 hPa #0,8 mm 7,5 km/h (2 Bft) W-SW - #3:24 h #1,270 mm 1,5 UV-I 71 W/m² -0,0 °C 2,9 °C 11,6 km/h (2 Bft)